<?xml version="1.0" encoding="UTF-8"?>
<gpx xmlns="http://www.topografix.com/GPX/1/1"
     creator="GpsDumpMac 0.29"
     version="1.1"
     xmlns:xsi="http://www.w3.org/2001/XMLSchema-instance"
     xsi:schemaLocation="http://www.topografix.com/GPX/1/1 http://www.topografix.com/GPX/1/1/gpx.xsd">
  <metadata>
    <link href="http://www.gethome.no/stein.sorensen/">
      <text>GPS dump for www.flightlog.org</text>
    </link>
    <time>2018-09-04T07:46:57Z</time>
    <bounds minlat="40.404617" minlon="-5.459417" maxlat="40.443783" maxlon="-5.304983"/>
  </metadata>
  <trk>
    <name>Track 001</name>
    <trkseg>
      <trkpt lat="40.421650" lon="-5.301717">
        <ele>1921.0</ele>
        <time>2018-06-17T11:22:32Z</time>
      </trkpt>
      <trkpt lat="40.421667" lon="-5.301783">
        <ele>1921.0</ele>
        <time>2018-06-17T11:22:33Z</time>
      </trkpt>
      <trkpt lat="40.421683" lon="-5.301867">
        <ele>1921.0</ele>
        <time>2018-06-17T11:22:34Z</time>
      </trkpt>
      <trkpt lat="40.421700" lon="-5.301950">
        <ele>1920.0</ele>
        <time>2018-06-17T11:22:35Z</time>
      </trkpt>
      <trkpt lat="40.421717" lon="-5.302033">
        <ele>1919.0</ele>
        <time>2018-06-17T11:22:36Z</time>
      </trkpt>
      <trkpt lat="40.421733" lon="-5.302117">
        <ele>1919.0</ele>
        <time>2018-06-17T11:22:37Z</time>
      </trkpt>
      <trkpt lat="40.421750" lon="-5.302200">
        <ele>1919.0</ele>
        <time>2018-06-17T11:22:38Z</time>
      </trkpt>
      <trkpt lat="40.421767" lon="-5.302283">
        <ele>1919.0</ele>
        <time>2018-06-17T11:22:39Z</time>
      </trkpt>
      <trkpt lat="40.421800" lon="-5.302333">
        <ele>1918.0</ele>
        <time>2018-06-17T11:22:40Z</time>
      </trkpt>
      <trkpt lat="40.421833" lon="-5.302400">
        <ele>1919.0</ele>
        <time>2018-06-17T11:22:41Z</time>
      </trkpt>
      <trkpt lat="40.421867" lon="-5.302450">
        <ele>1918.0</ele>
        <time>2018-06-17T11:22:42Z</time>
      </trkpt>
      <trkpt lat="40.421900" lon="-5.302517">
        <ele>1918.0</ele>
        <time>2018-06-17T11:22:43Z</time>
      </trkpt>
      <trkpt lat="40.421917" lon="-5.302583">
        <ele>1918.0</ele>
        <time>2018-06-17T11:22:44Z</time>
      </trkpt>
      <trkpt lat="40.421950" lon="-5.302650">
        <ele>1916.0</ele>
        <time>2018-06-17T11:22:45Z</time>
      </trkpt>
      <trkpt lat="40.421983" lon="-5.302717">
        <ele>1916.0</ele>
        <time>2018-06-17T11:22:46Z</time>
      </trkpt>
      <trkpt lat="40.421983" lon="-5.302783">
        <ele>1915.0</ele>
        <time>2018-06-17T11:22:47Z</time>
      </trkpt>
      <trkpt lat="40.421967" lon="-5.302867">
        <ele>1914.0</ele>
        <time>2018-06-17T11:22:48Z</time>
      </trkpt>
      <trkpt lat="40.421933" lon="-5.302950">
        <ele>1913.0</ele>
        <time>2018-06-17T11:22:49Z</time>
      </trkpt>
      <trkpt lat="40.421917" lon="-5.303050">
        <ele>1912.0</ele>
        <time>2018-06-17T11:22:50Z</time>
      </trkpt>
      <trkpt lat="40.421917" lon="-5.303150">
        <ele>1911.0</ele>
        <time>2018-06-17T11:22:51Z</time>
      </trkpt>
      <trkpt lat="40.421933" lon="-5.303233">
        <ele>1912.0</ele>
        <time>2018-06-17T11:22:52Z</time>
      </trkpt>
      <trkpt lat="40.421933" lon="-5.303333">
        <ele>1912.0</ele>
        <time>2018-06-17T11:22:53Z</time>
      </trkpt>
      <trkpt lat="40.421900" lon="-5.303417">
        <ele>1912.0</ele>
        <time>2018-06-17T11:22:54Z</time>
      </trkpt>
      <trkpt lat="40.421883" lon="-5.303517">
        <ele>1912.0</ele>
        <time>2018-06-17T11:22:55Z</time>
      </trkpt>
      <trkpt lat="40.421867" lon="-5.303600">
        <ele>1912.0</ele>
        <time>2018-06-17T11:22:56Z</time>
      </trkpt>
      <trkpt lat="40.421850" lon="-5.303700">
        <ele>1911.0</ele>
        <time>2018-06-17T11:22:57Z</time>
      </trkpt>
      <trkpt lat="40.421850" lon="-5.303800">
        <ele>1912.0</ele>
        <time>2018-06-17T11:22:58Z</time>
      </trkpt>
      <trkpt lat="40.421817" lon="-5.303883">
        <ele>1914.0</ele>
        <time>2018-06-17T11:22:59Z</time>
      </trkpt>
      <trkpt lat="40.421767" lon="-5.303967">
        <ele>1914.0</ele>
        <time>2018-06-17T11:23:00Z</time>
      </trkpt>
      <trkpt lat="40.421717" lon="-5.304033">
        <ele>1913.0</ele>
        <time>2018-06-17T11:23:01Z</time>
      </trkpt>
      <trkpt lat="40.421650" lon="-5.304100">
        <ele>1912.0</ele>
        <time>2018-06-17T11:23:02Z</time>
      </trkpt>
      <trkpt lat="40.421600" lon="-5.304183">
        <ele>1910.0</ele>
        <time>2018-06-17T11:23:03Z</time>
      </trkpt>
      <trkpt lat="40.421567" lon="-5.304283">
        <ele>1908.0</ele>
        <time>2018-06-17T11:23:04Z</time>
      </trkpt>
      <trkpt lat="40.421533" lon="-5.304383">
        <ele>1905.0</ele>
        <time>2018-06-17T11:23:05Z</time>
      </trkpt>
      <trkpt lat="40.421517" lon="-5.304500">
        <ele>1904.0</ele>
        <time>2018-06-17T11:23:06Z</time>
      </trkpt>
      <trkpt lat="40.421500" lon="-5.304633">
        <ele>1904.0</ele>
        <time>2018-06-17T11:23:07Z</time>
      </trkpt>
      <trkpt lat="40.421483" lon="-5.304750">
        <ele>1904.0</ele>
        <time>2018-06-17T11:23:08Z</time>
      </trkpt>
      <trkpt lat="40.421467" lon="-5.304867">
        <ele>1905.0</ele>
        <time>2018-06-17T11:23:09Z</time>
      </trkpt>
      <trkpt lat="40.421450" lon="-5.304983">
        <ele>1905.0</ele>
        <time>2018-06-17T11:23:10Z</time>
      </trkpt>
      <trkpt lat="40.421433" lon="-5.305083">
        <ele>1906.0</ele>
        <time>2018-06-17T11:23:11Z</time>
      </trkpt>
      <trkpt lat="40.421433" lon="-5.305167">
        <ele>1906.0</ele>
        <time>2018-06-17T11:23:12Z</time>
      </trkpt>
      <trkpt lat="40.421450" lon="-5.305233">
        <ele>1906.0</ele>
        <time>2018-06-17T11:23:13Z</time>
      </trkpt>
      <trkpt lat="40.421467" lon="-5.305300">
        <ele>1905.0</ele>
        <time>2018-06-17T11:23:14Z</time>
      </trkpt>
      <trkpt lat="40.421500" lon="-5.305367">
        <ele>1904.0</ele>
        <time>2018-06-17T11:23:15Z</time>
      </trkpt>
      <trkpt lat="40.421533" lon="-5.305433">
        <ele>1902.0</ele>
        <time>2018-06-17T11:23:16Z</time>
      </trkpt>
      <trkpt lat="40.421583" lon="-5.305500">
        <ele>1901.0</ele>
        <time>2018-06-17T11:23:17Z</time>
      </trkpt>
      <trkpt lat="40.421617" lon="-5.305583">
        <ele>1901.0</ele>
        <time>2018-06-17T11:23:18Z</time>
      </trkpt>
      <trkpt lat="40.421650" lon="-5.305650">
        <ele>1902.0</ele>
        <time>2018-06-17T11:23:19Z</time>
      </trkpt>
      <trkpt lat="40.421683" lon="-5.305700">
        <ele>1903.0</ele>
        <time>2018-06-17T11:23:20Z</time>
      </trkpt>
      <trkpt lat="40.421717" lon="-5.305767">
        <ele>1903.0</ele>
        <time>2018-06-17T11:23:21Z</time>
      </trkpt>
      <trkpt lat="40.421767" lon="-5.305817">
        <ele>1904.0</ele>
        <time>2018-06-17T11:23:22Z</time>
      </trkpt>
      <trkpt lat="40.421800" lon="-5.305850">
        <ele>1905.0</ele>
        <time>2018-06-17T11:23:23Z</time>
      </trkpt>
      <trkpt lat="40.421850" lon="-5.305867">
        <ele>1905.0</ele>
        <time>2018-06-17T11:23:24Z</time>
      </trkpt>
      <trkpt lat="40.421883" lon="-5.305817">
        <ele>1904.0</ele>
        <time>2018-06-17T11:23:25Z</time>
      </trkpt>
      <trkpt lat="40.421900" lon="-5.305717">
        <ele>1902.0</ele>
        <time>2018-06-17T11:23:26Z</time>
      </trkpt>
      <trkpt lat="40.421917" lon="-5.305583">
        <ele>1900.0</ele>
        <time>2018-06-17T11:23:27Z</time>
      </trkpt>
      <trkpt lat="40.421933" lon="-5.305433">
        <ele>1900.0</ele>
        <time>2018-06-17T11:23:28Z</time>
      </trkpt>
      <trkpt lat="40.421950" lon="-5.305317">
        <ele>1902.0</ele>
        <time>2018-06-17T11:23:29Z</time>
      </trkpt>
      <trkpt lat="40.421983" lon="-5.305217">
        <ele>1904.0</ele>
        <time>2018-06-17T11:23:30Z</time>
      </trkpt>
      <trkpt lat="40.422017" lon="-5.305167">
        <ele>1905.0</ele>
        <time>2018-06-17T11:23:31Z</time>
      </trkpt>
      <trkpt lat="40.422050" lon="-5.305133">
        <ele>1905.0</ele>
        <time>2018-06-17T11:23:32Z</time>
      </trkpt>
      <trkpt lat="40.422083" lon="-5.305133">
        <ele>1905.0</ele>
        <time>2018-06-17T11:23:33Z</time>
      </trkpt>
      <trkpt lat="40.422133" lon="-5.305133">
        <ele>1904.0</ele>
        <time>2018-06-17T11:23:34Z</time>
      </trkpt>
      <trkpt lat="40.422183" lon="-5.305167">
        <ele>1903.0</ele>
        <time>2018-06-17T11:23:35Z</time>
      </trkpt>
      <trkpt lat="40.422233" lon="-5.305217">
        <ele>1904.0</ele>
        <time>2018-06-17T11:23:36Z</time>
      </trkpt>
      <trkpt lat="40.422267" lon="-5.305267">
        <ele>1905.0</ele>
        <time>2018-06-17T11:23:37Z</time>
      </trkpt>
      <trkpt lat="40.422300" lon="-5.305317">
        <ele>1906.0</ele>
        <time>2018-06-17T11:23:38Z</time>
      </trkpt>
      <trkpt lat="40.422333" lon="-5.305383">
        <ele>1907.0</ele>
        <time>2018-06-17T11:23:39Z</time>
      </trkpt>
      <trkpt lat="40.422350" lon="-5.305433">
        <ele>1908.0</ele>
        <time>2018-06-17T11:23:40Z</time>
      </trkpt>
      <trkpt lat="40.422383" lon="-5.305500">
        <ele>1908.0</ele>
        <time>2018-06-17T11:23:41Z</time>
      </trkpt>
      <trkpt lat="40.422400" lon="-5.305583">
        <ele>1908.0</ele>
        <time>2018-06-17T11:23:42Z</time>
      </trkpt>
      <trkpt lat="40.422433" lon="-5.305633">
        <ele>1908.0</ele>
        <time>2018-06-17T11:23:43Z</time>
      </trkpt>
      <trkpt lat="40.422483" lon="-5.305683">
        <ele>1909.0</ele>
        <time>2018-06-17T11:23:44Z</time>
      </trkpt>
      <trkpt lat="40.422533" lon="-5.305717">
        <ele>1910.0</ele>
        <time>2018-06-17T11:23:45Z</time>
      </trkpt>
      <trkpt lat="40.422567" lon="-5.305750">
        <ele>1911.0</ele>
        <time>2018-06-17T11:23:46Z</time>
      </trkpt>
      <trkpt lat="40.422600" lon="-5.305750">
        <ele>1912.0</ele>
        <time>2018-06-17T11:23:47Z</time>
      </trkpt>
      <trkpt lat="40.422633" lon="-5.305717">
        <ele>1911.0</ele>
        <time>2018-06-17T11:23:48Z</time>
      </trkpt>
      <trkpt lat="40.422667" lon="-5.305650">
        <ele>1909.0</ele>
        <time>2018-06-17T11:23:49Z</time>
      </trkpt>
      <trkpt lat="40.422683" lon="-5.305550">
        <ele>1908.0</ele>
        <time>2018-06-17T11:23:50Z</time>
      </trkpt>
      <trkpt lat="40.422700" lon="-5.305450">
        <ele>1907.0</ele>
        <time>2018-06-17T11:23:51Z</time>
      </trkpt>
      <trkpt lat="40.422700" lon="-5.305333">
        <ele>1907.0</ele>
        <time>2018-06-17T11:23:52Z</time>
      </trkpt>
      <trkpt lat="40.422700" lon="-5.305233">
        <ele>1907.0</ele>
        <time>2018-06-17T11:23:53Z</time>
      </trkpt>
      <trkpt lat="40.422717" lon="-5.305133">
        <ele>1906.0</ele>
        <time>2018-06-17T11:23:54Z</time>
      </trkpt>
      <trkpt lat="40.422733" lon="-5.305050">
        <ele>1906.0</ele>
        <time>2018-06-17T11:23:55Z</time>
      </trkpt>
      <trkpt lat="40.422783" lon="-5.305000">
        <ele>1905.0</ele>
        <time>2018-06-17T11:23:56Z</time>
      </trkpt>
      <trkpt lat="40.422833" lon="-5.304983">
        <ele>1905.0</ele>
        <time>2018-06-17T11:23:57Z</time>
      </trkpt>
      <trkpt lat="40.422867" lon="-5.305000">
        <ele>1904.0</ele>
        <time>2018-06-17T11:23:58Z</time>
      </trkpt>
      <trkpt lat="40.422917" lon="-5.305033">
        <ele>1904.0</ele>
        <time>2018-06-17T11:23:59Z</time>
      </trkpt>
      <trkpt lat="40.422950" lon="-5.305100">
        <ele>1904.0</ele>
        <time>2018-06-17T11:24:00Z</time>
      </trkpt>
      <trkpt lat="40.422967" lon="-5.305183">
        <ele>1903.0</ele>
        <time>2018-06-17T11:24:01Z</time>
      </trkpt>
      <trkpt lat="40.422967" lon="-5.305283">
        <ele>1902.0</ele>
        <time>2018-06-17T11:24:02Z</time>
      </trkpt>
      <trkpt lat="40.422967" lon="-5.305400">
        <ele>1900.0</ele>
        <time>2018-06-17T11:24:03Z</time>
      </trkpt>
      <trkpt lat="40.422967" lon="-5.305517">
        <ele>1899.0</ele>
        <time>2018-06-17T11:24:04Z</time>
      </trkpt>
      <trkpt lat="40.422950" lon="-5.305650">
        <ele>1898.0</ele>
        <time>2018-06-17T11:24:05Z</time>
      </trkpt>
      <trkpt lat="40.422933" lon="-5.305767">
        <ele>1898.0</ele>
        <time>2018-06-17T11:24:06Z</time>
      </trkpt>
      <trkpt lat="40.422900" lon="-5.305883">
        <ele>1898.0</ele>
        <time>2018-06-17T11:24:07Z</time>
      </trkpt>
      <trkpt lat="40.422883" lon="-5.306000">
        <ele>1898.0</ele>
        <time>2018-06-17T11:24:08Z</time>
      </trkpt>
      <trkpt lat="40.422850" lon="-5.306100">
        <ele>1897.0</ele>
        <time>2018-06-17T11:24:09Z</time>
      </trkpt>
      <trkpt lat="40.422833" lon="-5.306200">
        <ele>1896.0</ele>
        <time>2018-06-17T11:24:10Z</time>
      </trkpt>
      <trkpt lat="40.422833" lon="-5.306317">
        <ele>1893.0</ele>
        <time>2018-06-17T11:24:11Z</time>
      </trkpt>
      <trkpt lat="40.422833" lon="-5.306433">
        <ele>1891.0</ele>
        <time>2018-06-17T11:24:12Z</time>
      </trkpt>
      <trkpt lat="40.422833" lon="-5.306550">
        <ele>1890.0</ele>
        <time>2018-06-17T11:24:13Z</time>
      </trkpt>
      <trkpt lat="40.422867" lon="-5.306667">
        <ele>1890.0</ele>
        <time>2018-06-17T11:24:14Z</time>
      </trkpt>
      <trkpt lat="40.422900" lon="-5.306767">
        <ele>1891.0</ele>
        <time>2018-06-17T11:24:15Z</time>
      </trkpt>
      <trkpt lat="40.422950" lon="-5.306850">
        <ele>1894.0</ele>
        <time>2018-06-17T11:24:16Z</time>
      </trkpt>
      <trkpt lat="40.422983" lon="-5.306900">
        <ele>1896.0</ele>
        <time>2018-06-17T11:24:17Z</time>
      </trkpt>
      <trkpt lat="40.423000" lon="-5.306967">
        <ele>1897.0</ele>
        <time>2018-06-17T11:24:18Z</time>
      </trkpt>
      <trkpt lat="40.423033" lon="-5.307017">
        <ele>1897.0</ele>
        <time>2018-06-17T11:24:19Z</time>
      </trkpt>
      <trkpt lat="40.423050" lon="-5.307067">
        <ele>1897.0</ele>
        <time>2018-06-17T11:24:20Z</time>
      </trkpt>
      <trkpt lat="40.423083" lon="-5.307117">
        <ele>1898.0</ele>
        <time>2018-06-17T11:24:21Z</time>
      </trkpt>
      <trkpt lat="40.423100" lon="-5.307183">
        <ele>1898.0</ele>
        <time>2018-06-17T11:24:22Z</time>
      </trkpt>
      <trkpt lat="40.423100" lon="-5.307267">
        <ele>1898.0</ele>
        <time>2018-06-17T11:24:23Z</time>
      </trkpt>
      <trkpt lat="40.423083" lon="-5.307367">
        <ele>1898.0</ele>
        <time>2018-06-17T11:24:24Z</time>
      </trkpt>
      <trkpt lat="40.423033" lon="-5.307467">
        <ele>1899.0</ele>
        <time>2018-06-17T11:24:25Z</time>
      </trkpt>
      <trkpt lat="40.422950" lon="-5.307567">
        <ele>1900.0</ele>
        <time>2018-06-17T11:24:26Z</time>
      </trkpt>
      <trkpt lat="40.422867" lon="-5.307650">
        <ele>1901.0</ele>
        <time>2018-06-17T11:24:27Z</time>
      </trkpt>
      <trkpt lat="40.422800" lon="-5.307717">
        <ele>1902.0</ele>
        <time>2018-06-17T11:24:28Z</time>
      </trkpt>
      <trkpt lat="40.422717" lon="-5.307783">
        <ele>1902.0</ele>
        <time>2018-06-17T11:24:29Z</time>
      </trkpt>
      <trkpt lat="40.422650" lon="-5.307867">
        <ele>1902.0</ele>
        <time>2018-06-17T11:24:30Z</time>
      </trkpt>
      <trkpt lat="40.422617" lon="-5.307950">
        <ele>1902.0</ele>
        <time>2018-06-17T11:24:31Z</time>
      </trkpt>
      <trkpt lat="40.422600" lon="-5.308050">
        <ele>1902.0</ele>
        <time>2018-06-17T11:24:32Z</time>
      </trkpt>
      <trkpt lat="40.422617" lon="-5.308150">
        <ele>1902.0</ele>
        <time>2018-06-17T11:24:33Z</time>
      </trkpt>
      <trkpt lat="40.422650" lon="-5.308233">
        <ele>1905.0</ele>
        <time>2018-06-17T11:24:34Z</time>
      </trkpt>
      <trkpt lat="40.422683" lon="-5.308317">
        <ele>1908.0</ele>
        <time>2018-06-17T11:24:35Z</time>
      </trkpt>
      <trkpt lat="40.422717" lon="-5.308400">
        <ele>1911.0</ele>
        <time>2018-06-17T11:24:36Z</time>
      </trkpt>
      <trkpt lat="40.422750" lon="-5.308433">
        <ele>1914.0</ele>
        <time>2018-06-17T11:24:37Z</time>
      </trkpt>
      <trkpt lat="40.422800" lon="-5.308450">
        <ele>1916.0</ele>
        <time>2018-06-17T11:24:38Z</time>
      </trkpt>
      <trkpt lat="40.422833" lon="-5.308433">
        <ele>1919.0</ele>
        <time>2018-06-17T11:24:39Z</time>
      </trkpt>
      <trkpt lat="40.422883" lon="-5.308367">
        <ele>1920.0</ele>
        <time>2018-06-17T11:24:40Z</time>
      </trkpt>
      <trkpt lat="40.422917" lon="-5.308250">
        <ele>1921.0</ele>
        <time>2018-06-17T11:24:41Z</time>
      </trkpt>
      <trkpt lat="40.422917" lon="-5.308100">
        <ele>1922.0</ele>
        <time>2018-06-17T11:24:42Z</time>
      </trkpt>
      <trkpt lat="40.422883" lon="-5.307933">
        <ele>1923.0</ele>
        <time>2018-06-17T11:24:43Z</time>
      </trkpt>
      <trkpt lat="40.422800" lon="-5.307800">
        <ele>1923.0</ele>
        <time>2018-06-17T11:24:44Z</time>
      </trkpt>
      <trkpt lat="40.422683" lon="-5.307683">
        <ele>1922.0</ele>
        <time>2018-06-17T11:24:45Z</time>
      </trkpt>
      <trkpt lat="40.422533" lon="-5.307633">
        <ele>1921.0</ele>
        <time>2018-06-17T11:24:46Z</time>
      </trkpt>
      <trkpt lat="40.422383" lon="-5.307617">
        <ele>1920.0</ele>
        <time>2018-06-17T11:24:47Z</time>
      </trkpt>
      <trkpt lat="40.422250" lon="-5.307667">
        <ele>1919.0</ele>
        <time>2018-06-17T11:24:48Z</time>
      </trkpt>
      <trkpt lat="40.422150" lon="-5.307767">
        <ele>1918.0</ele>
        <time>2018-06-17T11:24:49Z</time>
      </trkpt>
      <trkpt lat="40.422083" lon="-5.307883">
        <ele>1918.0</ele>
        <time>2018-06-17T11:24:50Z</time>
      </trkpt>
      <trkpt lat="40.422017" lon="-5.308000">
        <ele>1920.0</ele>
        <time>2018-06-17T11:24:51Z</time>
      </trkpt>
      <trkpt lat="40.421983" lon="-5.308100">
        <ele>1923.0</ele>
        <time>2018-06-17T11:24:52Z</time>
      </trkpt>
      <trkpt lat="40.421933" lon="-5.308200">
        <ele>1927.0</ele>
        <time>2018-06-17T11:24:53Z</time>
      </trkpt>
      <trkpt lat="40.421900" lon="-5.308283">
        <ele>1930.0</ele>
        <time>2018-06-17T11:24:54Z</time>
      </trkpt>
      <trkpt lat="40.421883" lon="-5.308367">
        <ele>1931.0</ele>
        <time>2018-06-17T11:24:55Z</time>
      </trkpt>
      <trkpt lat="40.421883" lon="-5.308450">
        <ele>1931.0</ele>
        <time>2018-06-17T11:24:56Z</time>
      </trkpt>
      <trkpt lat="40.421883" lon="-5.308533">
        <ele>1931.0</ele>
        <time>2018-06-17T11:24:57Z</time>
      </trkpt>
      <trkpt lat="40.421883" lon="-5.308617">
        <ele>1930.0</ele>
        <time>2018-06-17T11:24:58Z</time>
      </trkpt>
      <trkpt lat="40.421900" lon="-5.308683">
        <ele>1930.0</ele>
        <time>2018-06-17T11:24:59Z</time>
      </trkpt>
      <trkpt lat="40.421933" lon="-5.308733">
        <ele>1930.0</ele>
        <time>2018-06-17T11:25:00Z</time>
      </trkpt>
      <trkpt lat="40.421967" lon="-5.308733">
        <ele>1929.0</ele>
        <time>2018-06-17T11:25:01Z</time>
      </trkpt>
      <trkpt lat="40.422000" lon="-5.308717">
        <ele>1928.0</ele>
        <time>2018-06-17T11:25:02Z</time>
      </trkpt>
      <trkpt lat="40.422033" lon="-5.308650">
        <ele>1926.0</ele>
        <time>2018-06-17T11:25:03Z</time>
      </trkpt>
      <trkpt lat="40.422083" lon="-5.308567">
        <ele>1925.0</ele>
        <time>2018-06-17T11:25:04Z</time>
      </trkpt>
      <trkpt lat="40.422117" lon="-5.308467">
        <ele>1925.0</ele>
        <time>2018-06-17T11:25:05Z</time>
      </trkpt>
      <trkpt lat="40.422133" lon="-5.308333">
        <ele>1926.0</ele>
        <time>2018-06-17T11:25:06Z</time>
      </trkpt>
      <trkpt lat="40.422117" lon="-5.308183">
        <ele>1927.0</ele>
        <time>2018-06-17T11:25:07Z</time>
      </trkpt>
      <trkpt lat="40.422100" lon="-5.308033">
        <ele>1930.0</ele>
        <time>2018-06-17T11:25:08Z</time>
      </trkpt>
      <trkpt lat="40.422083" lon="-5.307883">
        <ele>1933.0</ele>
        <time>2018-06-17T11:25:09Z</time>
      </trkpt>
      <trkpt lat="40.422067" lon="-5.307750">
        <ele>1936.0</ele>
        <time>2018-06-17T11:25:10Z</time>
      </trkpt>
      <trkpt lat="40.422067" lon="-5.307633">
        <ele>1937.0</ele>
        <time>2018-06-17T11:25:11Z</time>
      </trkpt>
      <trkpt lat="40.422083" lon="-5.307550">
        <ele>1938.0</ele>
        <time>2018-06-17T11:25:12Z</time>
      </trkpt>
      <trkpt lat="40.422100" lon="-5.307483">
        <ele>1938.0</ele>
        <time>2018-06-17T11:25:13Z</time>
      </trkpt>
      <trkpt lat="40.422133" lon="-5.307450">
        <ele>1937.0</ele>
        <time>2018-06-17T11:25:14Z</time>
      </trkpt>
      <trkpt lat="40.422183" lon="-5.307433">
        <ele>1935.0</ele>
        <time>2018-06-17T11:25:15Z</time>
      </trkpt>
      <trkpt lat="40.422217" lon="-5.307433">
        <ele>1935.0</ele>
        <time>2018-06-17T11:25:16Z</time>
      </trkpt>
      <trkpt lat="40.422267" lon="-5.307450">
        <ele>1934.0</ele>
        <time>2018-06-17T11:25:17Z</time>
      </trkpt>
      <trkpt lat="40.422317" lon="-5.307500">
        <ele>1933.0</ele>
        <time>2018-06-17T11:25:18Z</time>
      </trkpt>
      <trkpt lat="40.422350" lon="-5.307550">
        <ele>1933.0</ele>
        <time>2018-06-17T11:25:19Z</time>
      </trkpt>
      <trkpt lat="40.422367" lon="-5.307633">
        <ele>1933.0</ele>
        <time>2018-06-17T11:25:20Z</time>
      </trkpt>
      <trkpt lat="40.422383" lon="-5.307700">
        <ele>1932.0</ele>
        <time>2018-06-17T11:25:21Z</time>
      </trkpt>
      <trkpt lat="40.422367" lon="-5.307783">
        <ele>1930.0</ele>
        <time>2018-06-17T11:25:22Z</time>
      </trkpt>
      <trkpt lat="40.422350" lon="-5.307883">
        <ele>1928.0</ele>
        <time>2018-06-17T11:25:23Z</time>
      </trkpt>
      <trkpt lat="40.422333" lon="-5.307983">
        <ele>1926.0</ele>
        <time>2018-06-17T11:25:24Z</time>
      </trkpt>
      <trkpt lat="40.422317" lon="-5.308083">
        <ele>1925.0</ele>
        <time>2018-06-17T11:25:25Z</time>
      </trkpt>
      <trkpt lat="40.422267" lon="-5.308183">
        <ele>1924.0</ele>
        <time>2018-06-17T11:25:26Z</time>
      </trkpt>
      <trkpt lat="40.422217" lon="-5.308267">
        <ele>1925.0</ele>
        <time>2018-06-17T11:25:27Z</time>
      </trkpt>
      <trkpt lat="40.422150" lon="-5.308350">
        <ele>1925.0</ele>
        <time>2018-06-17T11:25:28Z</time>
      </trkpt>
      <trkpt lat="40.422083" lon="-5.308417">
        <ele>1926.0</ele>
        <time>2018-06-17T11:25:29Z</time>
      </trkpt>
      <trkpt lat="40.422017" lon="-5.308517">
        <ele>1927.0</ele>
        <time>2018-06-17T11:25:30Z</time>
      </trkpt>
      <trkpt lat="40.421950" lon="-5.308633">
        <ele>1928.0</ele>
        <time>2018-06-17T11:25:31Z</time>
      </trkpt>
      <trkpt lat="40.421883" lon="-5.308733">
        <ele>1931.0</ele>
        <time>2018-06-17T11:25:32Z</time>
      </trkpt>
      <trkpt lat="40.421800" lon="-5.308800">
        <ele>1933.0</ele>
        <time>2018-06-17T11:25:33Z</time>
      </trkpt>
      <trkpt lat="40.421750" lon="-5.308850">
        <ele>1933.0</ele>
        <time>2018-06-17T11:25:34Z</time>
      </trkpt>
      <trkpt lat="40.421700" lon="-5.308900">
        <ele>1932.0</ele>
        <time>2018-06-17T11:25:35Z</time>
      </trkpt>
      <trkpt lat="40.421667" lon="-5.308983">
        <ele>1928.0</ele>
        <time>2018-06-17T11:25:36Z</time>
      </trkpt>
      <trkpt lat="40.421667" lon="-5.309083">
        <ele>1923.0</ele>
        <time>2018-06-17T11:25:37Z</time>
      </trkpt>
      <trkpt lat="40.421700" lon="-5.309200">
        <ele>1921.0</ele>
        <time>2018-06-17T11:25:38Z</time>
      </trkpt>
      <trkpt lat="40.421750" lon="-5.309267">
        <ele>1921.0</ele>
        <time>2018-06-17T11:25:39Z</time>
      </trkpt>
      <trkpt lat="40.421800" lon="-5.309283">
        <ele>1921.0</ele>
        <time>2018-06-17T11:25:40Z</time>
      </trkpt>
      <trkpt lat="40.421867" lon="-5.309250">
        <ele>1920.0</ele>
        <time>2018-06-17T11:25:41Z</time>
      </trkpt>
      <trkpt lat="40.421917" lon="-5.309183">
        <ele>1920.0</ele>
        <time>2018-06-17T11:25:42Z</time>
      </trkpt>
      <trkpt lat="40.421950" lon="-5.309083">
        <ele>1920.0</ele>
        <time>2018-06-17T11:25:43Z</time>
      </trkpt>
      <trkpt lat="40.421967" lon="-5.308983">
        <ele>1919.0</ele>
        <time>2018-06-17T11:25:44Z</time>
      </trkpt>
      <trkpt lat="40.421967" lon="-5.308850">
        <ele>1918.0</ele>
        <time>2018-06-17T11:25:45Z</time>
      </trkpt>
      <trkpt lat="40.421950" lon="-5.308700">
        <ele>1917.0</ele>
        <time>2018-06-17T11:25:46Z</time>
      </trkpt>
      <trkpt lat="40.421900" lon="-5.308533">
        <ele>1918.0</ele>
        <time>2018-06-17T11:25:47Z</time>
      </trkpt>
      <trkpt lat="40.421833" lon="-5.308383">
        <ele>1919.0</ele>
        <time>2018-06-17T11:25:48Z</time>
      </trkpt>
      <trkpt lat="40.421733" lon="-5.308250">
        <ele>1923.0</ele>
        <time>2018-06-17T11:25:49Z</time>
      </trkpt>
      <trkpt lat="40.421633" lon="-5.308150">
        <ele>1927.0</ele>
        <time>2018-06-17T11:25:50Z</time>
      </trkpt>
      <trkpt lat="40.421550" lon="-5.308100">
        <ele>1930.0</ele>
        <time>2018-06-17T11:25:51Z</time>
      </trkpt>
      <trkpt lat="40.421450" lon="-5.308050">
        <ele>1931.0</ele>
        <time>2018-06-17T11:25:52Z</time>
      </trkpt>
      <trkpt lat="40.421350" lon="-5.307983">
        <ele>1930.0</ele>
        <time>2018-06-17T11:25:53Z</time>
      </trkpt>
      <trkpt lat="40.421250" lon="-5.307917">
        <ele>1929.0</ele>
        <time>2018-06-17T11:25:54Z</time>
      </trkpt>
      <trkpt lat="40.421133" lon="-5.307817">
        <ele>1928.0</ele>
        <time>2018-06-17T11:25:55Z</time>
      </trkpt>
      <trkpt lat="40.421033" lon="-5.307733">
        <ele>1928.0</ele>
        <time>2018-06-17T11:25:56Z</time>
      </trkpt>
      <trkpt lat="40.420933" lon="-5.307633">
        <ele>1928.0</ele>
        <time>2018-06-17T11:25:57Z</time>
      </trkpt>
      <trkpt lat="40.420833" lon="-5.307550">
        <ele>1927.0</ele>
        <time>2018-06-17T11:25:58Z</time>
      </trkpt>
      <trkpt lat="40.420750" lon="-5.307433">
        <ele>1926.0</ele>
        <time>2018-06-17T11:25:59Z</time>
      </trkpt>
      <trkpt lat="40.420683" lon="-5.307317">
        <ele>1924.0</ele>
        <time>2018-06-17T11:26:00Z</time>
      </trkpt>
      <trkpt lat="40.420650" lon="-5.307200">
        <ele>1922.0</ele>
        <time>2018-06-17T11:26:01Z</time>
      </trkpt>
      <trkpt lat="40.420617" lon="-5.307050">
        <ele>1920.0</ele>
        <time>2018-06-17T11:26:02Z</time>
      </trkpt>
      <trkpt lat="40.420617" lon="-5.306917">
        <ele>1918.0</ele>
        <time>2018-06-17T11:26:03Z</time>
      </trkpt>
      <trkpt lat="40.420633" lon="-5.306817">
        <ele>1916.0</ele>
        <time>2018-06-17T11:26:04Z</time>
      </trkpt>
      <trkpt lat="40.420683" lon="-5.306717">
        <ele>1915.0</ele>
        <time>2018-06-17T11:26:05Z</time>
      </trkpt>
      <trkpt lat="40.420733" lon="-5.306650">
        <ele>1914.0</ele>
        <time>2018-06-17T11:26:06Z</time>
      </trkpt>
      <trkpt lat="40.420783" lon="-5.306600">
        <ele>1914.0</ele>
        <time>2018-06-17T11:26:07Z</time>
      </trkpt>
      <trkpt lat="40.420833" lon="-5.306567">
        <ele>1915.0</ele>
        <time>2018-06-17T11:26:08Z</time>
      </trkpt>
      <trkpt lat="40.420883" lon="-5.306567">
        <ele>1914.0</ele>
        <time>2018-06-17T11:26:09Z</time>
      </trkpt>
      <trkpt lat="40.420933" lon="-5.306567">
        <ele>1913.0</ele>
        <time>2018-06-17T11:26:10Z</time>
      </trkpt>
      <trkpt lat="40.420983" lon="-5.306583">
        <ele>1913.0</ele>
        <time>2018-06-17T11:26:11Z</time>
      </trkpt>
      <trkpt lat="40.421033" lon="-5.306600">
        <ele>1913.0</ele>
        <time>2018-06-17T11:26:12Z</time>
      </trkpt>
      <trkpt lat="40.421083" lon="-5.306617">
        <ele>1912.0</ele>
        <time>2018-06-17T11:26:13Z</time>
      </trkpt>
      <trkpt lat="40.421133" lon="-5.306633">
        <ele>1913.0</ele>
        <time>2018-06-17T11:26:14Z</time>
      </trkpt>
      <trkpt lat="40.421183" lon="-5.306667">
        <ele>1914.0</ele>
        <time>2018-06-17T11:26:15Z</time>
      </trkpt>
      <trkpt lat="40.421217" lon="-5.306717">
        <ele>1915.0</ele>
        <time>2018-06-17T11:26:16Z</time>
      </trkpt>
      <trkpt lat="40.421233" lon="-5.306767">
        <ele>1915.0</ele>
        <time>2018-06-17T11:26:17Z</time>
      </trkpt>
      <trkpt lat="40.421250" lon="-5.306850">
        <ele>1915.0</ele>
        <time>2018-06-17T11:26:18Z</time>
      </trkpt>
      <trkpt lat="40.421267" lon="-5.306933">
        <ele>1915.0</ele>
        <time>2018-06-17T11:26:19Z</time>
      </trkpt>
      <trkpt lat="40.421283" lon="-5.307000">
        <ele>1915.0</ele>
        <time>2018-06-17T11:26:20Z</time>
      </trkpt>
      <trkpt lat="40.421333" lon="-5.307050">
        <ele>1915.0</ele>
        <time>2018-06-17T11:26:21Z</time>
      </trkpt>
      <trkpt lat="40.421383" lon="-5.307100">
        <ele>1915.0</ele>
        <time>2018-06-17T11:26:22Z</time>
      </trkpt>
      <trkpt lat="40.421417" lon="-5.307150">
        <ele>1914.0</ele>
        <time>2018-06-17T11:26:23Z</time>
      </trkpt>
      <trkpt lat="40.421450" lon="-5.307217">
        <ele>1914.0</ele>
        <time>2018-06-17T11:26:24Z</time>
      </trkpt>
      <trkpt lat="40.421467" lon="-5.307283">
        <ele>1912.0</ele>
        <time>2018-06-17T11:26:25Z</time>
      </trkpt>
      <trkpt lat="40.421500" lon="-5.307350">
        <ele>1910.0</ele>
        <time>2018-06-17T11:26:26Z</time>
      </trkpt>
      <trkpt lat="40.421517" lon="-5.307433">
        <ele>1909.0</ele>
        <time>2018-06-17T11:26:27Z</time>
      </trkpt>
      <trkpt lat="40.421550" lon="-5.307500">
        <ele>1907.0</ele>
        <time>2018-06-17T11:26:28Z</time>
      </trkpt>
      <trkpt lat="40.421600" lon="-5.307567">
        <ele>1905.0</ele>
        <time>2018-06-17T11:26:29Z</time>
      </trkpt>
      <trkpt lat="40.421650" lon="-5.307633">
        <ele>1905.0</ele>
        <time>2018-06-17T11:26:30Z</time>
      </trkpt>
      <trkpt lat="40.421700" lon="-5.307700">
        <ele>1905.0</ele>
        <time>2018-06-17T11:26:31Z</time>
      </trkpt>
      <trkpt lat="40.421733" lon="-5.307767">
        <ele>1905.0</ele>
        <time>2018-06-17T11:26:32Z</time>
      </trkpt>
      <trkpt lat="40.421767" lon="-5.307833">
        <ele>1904.0</ele>
        <time>2018-06-17T11:26:33Z</time>
      </trkpt>
      <trkpt lat="40.421817" lon="-5.307917">
        <ele>1902.0</ele>
        <time>2018-06-17T11:26:34Z</time>
      </trkpt>
      <trkpt lat="40.421850" lon="-5.308000">
        <ele>1900.0</ele>
        <time>2018-06-17T11:26:35Z</time>
      </trkpt>
      <trkpt lat="40.421917" lon="-5.308083">
        <ele>1899.0</ele>
        <time>2018-06-17T11:26:36Z</time>
      </trkpt>
      <trkpt lat="40.421967" lon="-5.308167">
        <ele>1898.0</ele>
        <time>2018-06-17T11:26:37Z</time>
      </trkpt>
      <trkpt lat="40.422017" lon="-5.308267">
        <ele>1898.0</ele>
        <time>2018-06-17T11:26:38Z</time>
      </trkpt>
      <trkpt lat="40.422050" lon="-5.308367">
        <ele>1900.0</ele>
        <time>2018-06-17T11:26:39Z</time>
      </trkpt>
      <trkpt lat="40.422067" lon="-5.308450">
        <ele>1902.0</ele>
        <time>2018-06-17T11:26:40Z</time>
      </trkpt>
      <trkpt lat="40.422100" lon="-5.308533">
        <ele>1902.0</ele>
        <time>2018-06-17T11:26:41Z</time>
      </trkpt>
      <trkpt lat="40.422133" lon="-5.308600">
        <ele>1903.0</ele>
        <time>2018-06-17T11:26:42Z</time>
      </trkpt>
      <trkpt lat="40.422167" lon="-5.308683">
        <ele>1903.0</ele>
        <time>2018-06-17T11:26:43Z</time>
      </trkpt>
      <trkpt lat="40.422217" lon="-5.308767">
        <ele>1902.0</ele>
        <time>2018-06-17T11:26:44Z</time>
      </trkpt>
      <trkpt lat="40.422250" lon="-5.308850">
        <ele>1902.0</ele>
        <time>2018-06-17T11:26:45Z</time>
      </trkpt>
      <trkpt lat="40.422300" lon="-5.308917">
        <ele>1903.0</ele>
        <time>2018-06-17T11:26:46Z</time>
      </trkpt>
      <trkpt lat="40.422350" lon="-5.308967">
        <ele>1904.0</ele>
        <time>2018-06-17T11:26:47Z</time>
      </trkpt>
      <trkpt lat="40.422400" lon="-5.308983">
        <ele>1903.0</ele>
        <time>2018-06-17T11:26:48Z</time>
      </trkpt>
      <trkpt lat="40.422467" lon="-5.308983">
        <ele>1903.0</ele>
        <time>2018-06-17T11:26:49Z</time>
      </trkpt>
      <trkpt lat="40.422533" lon="-5.308983">
        <ele>1904.0</ele>
        <time>2018-06-17T11:26:50Z</time>
      </trkpt>
      <trkpt lat="40.422600" lon="-5.308950">
        <ele>1905.0</ele>
        <time>2018-06-17T11:26:51Z</time>
      </trkpt>
      <trkpt lat="40.422667" lon="-5.308933">
        <ele>1906.0</ele>
        <time>2018-06-17T11:26:52Z</time>
      </trkpt>
      <trkpt lat="40.422717" lon="-5.308917">
        <ele>1908.0</ele>
        <time>2018-06-17T11:26:53Z</time>
      </trkpt>
      <trkpt lat="40.422783" lon="-5.308900">
        <ele>1910.0</ele>
        <time>2018-06-17T11:26:54Z</time>
      </trkpt>
      <trkpt lat="40.422833" lon="-5.308867">
        <ele>1912.0</ele>
        <time>2018-06-17T11:26:55Z</time>
      </trkpt>
      <trkpt lat="40.422883" lon="-5.308850">
        <ele>1916.0</ele>
        <time>2018-06-17T11:26:56Z</time>
      </trkpt>
      <trkpt lat="40.422933" lon="-5.308817">
        <ele>1919.0</ele>
        <time>2018-06-17T11:26:57Z</time>
      </trkpt>
      <trkpt lat="40.422967" lon="-5.308817">
        <ele>1921.0</ele>
        <time>2018-06-17T11:26:58Z</time>
      </trkpt>
      <trkpt lat="40.423000" lon="-5.308833">
        <ele>1923.0</ele>
        <time>2018-06-17T11:26:59Z</time>
      </trkpt>
      <trkpt lat="40.423033" lon="-5.308900">
        <ele>1923.0</ele>
        <time>2018-06-17T11:27:00Z</time>
      </trkpt>
      <trkpt lat="40.423033" lon="-5.308983">
        <ele>1924.0</ele>
        <time>2018-06-17T11:27:01Z</time>
      </trkpt>
      <trkpt lat="40.422983" lon="-5.309083">
        <ele>1925.0</ele>
        <time>2018-06-17T11:27:02Z</time>
      </trkpt>
      <trkpt lat="40.422917" lon="-5.309150">
        <ele>1926.0</ele>
        <time>2018-06-17T11:27:03Z</time>
      </trkpt>
      <trkpt lat="40.422800" lon="-5.309183">
        <ele>1926.0</ele>
        <time>2018-06-17T11:27:04Z</time>
      </trkpt>
      <trkpt lat="40.422667" lon="-5.309167">
        <ele>1926.0</ele>
        <time>2018-06-17T11:27:05Z</time>
      </trkpt>
      <trkpt lat="40.422550" lon="-5.309117">
        <ele>1926.0</ele>
        <time>2018-06-17T11:27:06Z</time>
      </trkpt>
      <trkpt lat="40.422417" lon="-5.309033">
        <ele>1927.0</ele>
        <time>2018-06-17T11:27:07Z</time>
      </trkpt>
      <trkpt lat="40.422333" lon="-5.308900">
        <ele>1929.0</ele>
        <time>2018-06-17T11:27:08Z</time>
      </trkpt>
      <trkpt lat="40.422267" lon="-5.308750">
        <ele>1931.0</ele>
        <time>2018-06-17T11:27:09Z</time>
      </trkpt>
      <trkpt lat="40.422250" lon="-5.308617">
        <ele>1932.0</ele>
        <time>2018-06-17T11:27:10Z</time>
      </trkpt>
      <trkpt lat="40.422233" lon="-5.308483">
        <ele>1934.0</ele>
        <time>2018-06-17T11:27:11Z</time>
      </trkpt>
      <trkpt lat="40.422217" lon="-5.308367">
        <ele>1937.0</ele>
        <time>2018-06-17T11:27:12Z</time>
      </trkpt>
      <trkpt lat="40.422217" lon="-5.308250">
        <ele>1939.0</ele>
        <time>2018-06-17T11:27:13Z</time>
      </trkpt>
      <trkpt lat="40.422250" lon="-5.308167">
        <ele>1940.0</ele>
        <time>2018-06-17T11:27:14Z</time>
      </trkpt>
      <trkpt lat="40.422300" lon="-5.308133">
        <ele>1939.0</ele>
        <time>2018-06-17T11:27:15Z</time>
      </trkpt>
      <trkpt lat="40.422367" lon="-5.308167">
        <ele>1938.0</ele>
        <time>2018-06-17T11:27:16Z</time>
      </trkpt>
      <trkpt lat="40.422417" lon="-5.308250">
        <ele>1939.0</ele>
        <time>2018-06-17T11:27:17Z</time>
      </trkpt>
      <trkpt lat="40.422450" lon="-5.308350">
        <ele>1942.0</ele>
        <time>2018-06-17T11:27:18Z</time>
      </trkpt>
      <trkpt lat="40.422450" lon="-5.308450">
        <ele>1947.0</ele>
        <time>2018-06-17T11:27:19Z</time>
      </trkpt>
      <trkpt lat="40.422433" lon="-5.308533">
        <ele>1951.0</ele>
        <time>2018-06-17T11:27:20Z</time>
      </trkpt>
      <trkpt lat="40.422400" lon="-5.308617">
        <ele>1954.0</ele>
        <time>2018-06-17T11:27:21Z</time>
      </trkpt>
      <trkpt lat="40.422333" lon="-5.308700">
        <ele>1956.0</ele>
        <time>2018-06-17T11:27:22Z</time>
      </trkpt>
      <trkpt lat="40.422250" lon="-5.308767">
        <ele>1955.0</ele>
        <time>2018-06-17T11:27:23Z</time>
      </trkpt>
      <trkpt lat="40.422150" lon="-5.308833">
        <ele>1956.0</ele>
        <time>2018-06-17T11:27:24Z</time>
      </trkpt>
      <trkpt lat="40.422017" lon="-5.308867">
        <ele>1957.0</ele>
        <time>2018-06-17T11:27:25Z</time>
      </trkpt>
      <trkpt lat="40.421883" lon="-5.308867">
        <ele>1958.0</ele>
        <time>2018-06-17T11:27:26Z</time>
      </trkpt>
      <trkpt lat="40.421750" lon="-5.308817">
        <ele>1961.0</ele>
        <time>2018-06-17T11:27:27Z</time>
      </trkpt>
      <trkpt lat="40.421650" lon="-5.308733">
        <ele>1963.0</ele>
        <time>2018-06-17T11:27:28Z</time>
      </trkpt>
      <trkpt lat="40.421567" lon="-5.308617">
        <ele>1964.0</ele>
        <time>2018-06-17T11:27:29Z</time>
      </trkpt>
      <trkpt lat="40.421517" lon="-5.308483">
        <ele>1965.0</ele>
        <time>2018-06-17T11:27:30Z</time>
      </trkpt>
      <trkpt lat="40.421500" lon="-5.308333">
        <ele>1965.0</ele>
        <time>2018-06-17T11:27:31Z</time>
      </trkpt>
      <trkpt lat="40.421500" lon="-5.308200">
        <ele>1966.0</ele>
        <time>2018-06-17T11:27:32Z</time>
      </trkpt>
      <trkpt lat="40.421517" lon="-5.308083">
        <ele>1970.0</ele>
        <time>2018-06-17T11:27:33Z</time>
      </trkpt>
      <trkpt lat="40.421533" lon="-5.308000">
        <ele>1973.0</ele>
        <time>2018-06-17T11:27:34Z</time>
      </trkpt>
      <trkpt lat="40.421550" lon="-5.307933">
        <ele>1975.0</ele>
        <time>2018-06-17T11:27:35Z</time>
      </trkpt>
      <trkpt lat="40.421583" lon="-5.307883">
        <ele>1975.0</ele>
        <time>2018-06-17T11:27:36Z</time>
      </trkpt>
      <trkpt lat="40.421633" lon="-5.307867">
        <ele>1975.0</ele>
        <time>2018-06-17T11:27:37Z</time>
      </trkpt>
      <trkpt lat="40.421700" lon="-5.307900">
        <ele>1974.0</ele>
        <time>2018-06-17T11:27:38Z</time>
      </trkpt>
      <trkpt lat="40.421750" lon="-5.307967">
        <ele>1974.0</ele>
        <time>2018-06-17T11:27:39Z</time>
      </trkpt>
      <trkpt lat="40.421783" lon="-5.308050">
        <ele>1976.0</ele>
        <time>2018-06-17T11:27:40Z</time>
      </trkpt>
      <trkpt lat="40.421800" lon="-5.308133">
        <ele>1979.0</ele>
        <time>2018-06-17T11:27:41Z</time>
      </trkpt>
      <trkpt lat="40.421800" lon="-5.308200">
        <ele>1981.0</ele>
        <time>2018-06-17T11:27:42Z</time>
      </trkpt>
      <trkpt lat="40.421783" lon="-5.308283">
        <ele>1983.0</ele>
        <time>2018-06-17T11:27:43Z</time>
      </trkpt>
      <trkpt lat="40.421767" lon="-5.308367">
        <ele>1985.0</ele>
        <time>2018-06-17T11:27:44Z</time>
      </trkpt>
      <trkpt lat="40.421767" lon="-5.308450">
        <ele>1986.0</ele>
        <time>2018-06-17T11:27:45Z</time>
      </trkpt>
      <trkpt lat="40.421750" lon="-5.308533">
        <ele>1986.0</ele>
        <time>2018-06-17T11:27:46Z</time>
      </trkpt>
      <trkpt lat="40.421733" lon="-5.308617">
        <ele>1986.0</ele>
        <time>2018-06-17T11:27:47Z</time>
      </trkpt>
      <trkpt lat="40.421700" lon="-5.308717">
        <ele>1987.0</ele>
        <time>2018-06-17T11:27:48Z</time>
      </trkpt>
      <trkpt lat="40.421650" lon="-5.308817">
        <ele>1987.0</ele>
        <time>2018-06-17T11:27:49Z</time>
      </trkpt>
      <trkpt lat="40.421567" lon="-5.308917">
        <ele>1988.0</ele>
        <time>2018-06-17T11:27:50Z</time>
      </trkpt>
      <trkpt lat="40.421483" lon="-5.309017">
        <ele>1989.0</ele>
        <time>2018-06-17T11:27:51Z</time>
      </trkpt>
      <trkpt lat="40.421400" lon="-5.309100">
        <ele>1991.0</ele>
        <time>2018-06-17T11:27:52Z</time>
      </trkpt>
      <trkpt lat="40.421283" lon="-5.309150">
        <ele>1991.0</ele>
        <time>2018-06-17T11:27:53Z</time>
      </trkpt>
      <trkpt lat="40.421167" lon="-5.309183">
        <ele>1990.0</ele>
        <time>2018-06-17T11:27:54Z</time>
      </trkpt>
      <trkpt lat="40.421033" lon="-5.309167">
        <ele>1989.0</ele>
        <time>2018-06-17T11:27:55Z</time>
      </trkpt>
      <trkpt lat="40.420883" lon="-5.309117">
        <ele>1987.0</ele>
        <time>2018-06-17T11:27:56Z</time>
      </trkpt>
      <trkpt lat="40.420750" lon="-5.309033">
        <ele>1987.0</ele>
        <time>2018-06-17T11:27:57Z</time>
      </trkpt>
      <trkpt lat="40.420633" lon="-5.308933">
        <ele>1988.0</ele>
        <time>2018-06-17T11:27:58Z</time>
      </trkpt>
      <trkpt lat="40.420533" lon="-5.308817">
        <ele>1988.0</ele>
        <time>2018-06-17T11:27:59Z</time>
      </trkpt>
      <trkpt lat="40.420467" lon="-5.308683">
        <ele>1989.0</ele>
        <time>2018-06-17T11:28:00Z</time>
      </trkpt>
      <trkpt lat="40.420400" lon="-5.308550">
        <ele>1988.0</ele>
        <time>2018-06-17T11:28:01Z</time>
      </trkpt>
      <trkpt lat="40.420367" lon="-5.308400">
        <ele>1988.0</ele>
        <time>2018-06-17T11:28:02Z</time>
      </trkpt>
      <trkpt lat="40.420317" lon="-5.308250">
        <ele>1988.0</ele>
        <time>2018-06-17T11:28:03Z</time>
      </trkpt>
      <trkpt lat="40.420283" lon="-5.308100">
        <ele>1988.0</ele>
        <time>2018-06-17T11:28:04Z</time>
      </trkpt>
      <trkpt lat="40.420233" lon="-5.307950">
        <ele>1990.0</ele>
        <time>2018-06-17T11:28:05Z</time>
      </trkpt>
      <trkpt lat="40.420200" lon="-5.307800">
        <ele>1992.0</ele>
        <time>2018-06-17T11:28:06Z</time>
      </trkpt>
      <trkpt lat="40.420167" lon="-5.307667">
        <ele>1994.0</ele>
        <time>2018-06-17T11:28:07Z</time>
      </trkpt>
      <trkpt lat="40.420133" lon="-5.307533">
        <ele>1996.0</ele>
        <time>2018-06-17T11:28:08Z</time>
      </trkpt>
      <trkpt lat="40.420133" lon="-5.307433">
        <ele>1997.0</ele>
        <time>2018-06-17T11:28:09Z</time>
      </trkpt>
      <trkpt lat="40.420150" lon="-5.307350">
        <ele>1996.0</ele>
        <time>2018-06-17T11:28:10Z</time>
      </trkpt>
      <trkpt lat="40.420200" lon="-5.307283">
        <ele>1994.0</ele>
        <time>2018-06-17T11:28:11Z</time>
      </trkpt>
      <trkpt lat="40.420267" lon="-5.307250">
        <ele>1993.0</ele>
        <time>2018-06-17T11:28:12Z</time>
      </trkpt>
      <trkpt lat="40.420317" lon="-5.307250">
        <ele>1995.0</ele>
        <time>2018-06-17T11:28:13Z</time>
      </trkpt>
      <trkpt lat="40.420383" lon="-5.307250">
        <ele>1998.0</ele>
        <time>2018-06-17T11:28:14Z</time>
      </trkpt>
      <trkpt lat="40.420417" lon="-5.307250">
        <ele>2002.0</ele>
        <time>2018-06-17T11:28:15Z</time>
      </trkpt>
      <trkpt lat="40.420450" lon="-5.307250">
        <ele>2004.0</ele>
        <time>2018-06-17T11:28:16Z</time>
      </trkpt>
      <trkpt lat="40.420467" lon="-5.307267">
        <ele>2006.0</ele>
        <time>2018-06-17T11:28:17Z</time>
      </trkpt>
      <trkpt lat="40.420483" lon="-5.307300">
        <ele>2006.0</ele>
        <time>2018-06-17T11:28:18Z</time>
      </trkpt>
      <trkpt lat="40.420500" lon="-5.307367">
        <ele>2007.0</ele>
        <time>2018-06-17T11:28:19Z</time>
      </trkpt>
      <trkpt lat="40.420533" lon="-5.307433">
        <ele>2007.0</ele>
        <time>2018-06-17T11:28:20Z</time>
      </trkpt>
      <trkpt lat="40.420550" lon="-5.307500">
        <ele>2010.0</ele>
        <time>2018-06-17T11:28:21Z</time>
      </trkpt>
      <trkpt lat="40.420583" lon="-5.307567">
        <ele>2014.0</ele>
        <time>2018-06-17T11:28:22Z</time>
      </trkpt>
      <trkpt lat="40.420600" lon="-5.307617">
        <ele>2017.0</ele>
        <time>2018-06-17T11:28:23Z</time>
      </trkpt>
      <trkpt lat="40.420600" lon="-5.307667">
        <ele>2019.0</ele>
        <time>2018-06-17T11:28:24Z</time>
      </trkpt>
      <trkpt lat="40.420567" lon="-5.307750">
        <ele>2019.0</ele>
        <time>2018-06-17T11:28:25Z</time>
      </trkpt>
      <trkpt lat="40.420517" lon="-5.307833">
        <ele>2017.0</ele>
        <time>2018-06-17T11:28:26Z</time>
      </trkpt>
      <trkpt lat="40.420417" lon="-5.307933">
        <ele>2014.0</ele>
        <time>2018-06-17T11:28:27Z</time>
      </trkpt>
      <trkpt lat="40.420267" lon="-5.308000">
        <ele>2013.0</ele>
        <time>2018-06-17T11:28:28Z</time>
      </trkpt>
      <trkpt lat="40.420100" lon="-5.308000">
        <ele>2013.0</ele>
        <time>2018-06-17T11:28:29Z</time>
      </trkpt>
      <trkpt lat="40.419933" lon="-5.307933">
        <ele>2014.0</ele>
        <time>2018-06-17T11:28:30Z</time>
      </trkpt>
      <trkpt lat="40.419800" lon="-5.307817">
        <ele>2017.0</ele>
        <time>2018-06-17T11:28:31Z</time>
      </trkpt>
      <trkpt lat="40.419700" lon="-5.307683">
        <ele>2022.0</ele>
        <time>2018-06-17T11:28:32Z</time>
      </trkpt>
      <trkpt lat="40.419650" lon="-5.307567">
        <ele>2024.0</ele>
        <time>2018-06-17T11:28:33Z</time>
      </trkpt>
      <trkpt lat="40.419617" lon="-5.307450">
        <ele>2025.0</ele>
        <time>2018-06-17T11:28:34Z</time>
      </trkpt>
      <trkpt lat="40.419583" lon="-5.307333">
        <ele>2025.0</ele>
        <time>2018-06-17T11:28:35Z</time>
      </trkpt>
      <trkpt lat="40.419583" lon="-5.307200">
        <ele>2025.0</ele>
        <time>2018-06-17T11:28:36Z</time>
      </trkpt>
      <trkpt lat="40.419583" lon="-5.307067">
        <ele>2025.0</ele>
        <time>2018-06-17T11:28:37Z</time>
      </trkpt>
      <trkpt lat="40.419633" lon="-5.306967">
        <ele>2025.0</ele>
        <time>2018-06-17T11:28:38Z</time>
      </trkpt>
      <trkpt lat="40.419683" lon="-5.306917">
        <ele>2026.0</ele>
        <time>2018-06-17T11:28:39Z</time>
      </trkpt>
      <trkpt lat="40.419733" lon="-5.306883">
        <ele>2028.0</ele>
        <time>2018-06-17T11:28:40Z</time>
      </trkpt>
      <trkpt lat="40.419767" lon="-5.306867">
        <ele>2031.0</ele>
        <time>2018-06-17T11:28:41Z</time>
      </trkpt>
      <trkpt lat="40.419783" lon="-5.306850">
        <ele>2033.0</ele>
        <time>2018-06-17T11:28:42Z</time>
      </trkpt>
      <trkpt lat="40.419817" lon="-5.306850">
        <ele>2033.0</ele>
        <time>2018-06-17T11:28:43Z</time>
      </trkpt>
      <trkpt lat="40.419833" lon="-5.306850">
        <ele>2033.0</ele>
        <time>2018-06-17T11:28:44Z</time>
      </trkpt>
      <trkpt lat="40.419867" lon="-5.306867">
        <ele>2032.0</ele>
        <time>2018-06-17T11:28:45Z</time>
      </trkpt>
      <trkpt lat="40.419900" lon="-5.306900">
        <ele>2032.0</ele>
        <time>2018-06-17T11:28:46Z</time>
      </trkpt>
      <trkpt lat="40.419933" lon="-5.306933">
        <ele>2033.0</ele>
        <time>2018-06-17T11:28:47Z</time>
      </trkpt>
      <trkpt lat="40.419950" lon="-5.306967">
        <ele>2034.0</ele>
        <time>2018-06-17T11:28:48Z</time>
      </trkpt>
      <trkpt lat="40.419983" lon="-5.307000">
        <ele>2034.0</ele>
        <time>2018-06-17T11:28:49Z</time>
      </trkpt>
      <trkpt lat="40.420033" lon="-5.307000">
        <ele>2034.0</ele>
        <time>2018-06-17T11:28:50Z</time>
      </trkpt>
      <trkpt lat="40.420083" lon="-5.307000">
        <ele>2033.0</ele>
        <time>2018-06-17T11:28:51Z</time>
      </trkpt>
      <trkpt lat="40.420133" lon="-5.307017">
        <ele>2033.0</ele>
        <time>2018-06-17T11:28:52Z</time>
      </trkpt>
      <trkpt lat="40.420183" lon="-5.307033">
        <ele>2034.0</ele>
        <time>2018-06-17T11:28:53Z</time>
      </trkpt>
      <trkpt lat="40.420217" lon="-5.307067">
        <ele>2035.0</ele>
        <time>2018-06-17T11:28:54Z</time>
      </trkpt>
      <trkpt lat="40.420233" lon="-5.307117">
        <ele>2035.0</ele>
        <time>2018-06-17T11:28:55Z</time>
      </trkpt>
      <trkpt lat="40.420250" lon="-5.307183">
        <ele>2035.0</ele>
        <time>2018-06-17T11:28:56Z</time>
      </trkpt>
      <trkpt lat="40.420267" lon="-5.307250">
        <ele>2035.0</ele>
        <time>2018-06-17T11:28:57Z</time>
      </trkpt>
      <trkpt lat="40.420283" lon="-5.307317">
        <ele>2036.0</ele>
        <time>2018-06-17T11:28:58Z</time>
      </trkpt>
      <trkpt lat="40.420300" lon="-5.307400">
        <ele>2036.0</ele>
        <time>2018-06-17T11:28:59Z</time>
      </trkpt>
      <trkpt lat="40.420317" lon="-5.307467">
        <ele>2036.0</ele>
        <time>2018-06-17T11:29:00Z</time>
      </trkpt>
      <trkpt lat="40.420350" lon="-5.307533">
        <ele>2036.0</ele>
        <time>2018-06-17T11:29:01Z</time>
      </trkpt>
      <trkpt lat="40.420367" lon="-5.307600">
        <ele>2036.0</ele>
        <time>2018-06-17T11:29:02Z</time>
      </trkpt>
      <trkpt lat="40.420400" lon="-5.307650">
        <ele>2037.0</ele>
        <time>2018-06-17T11:29:03Z</time>
      </trkpt>
      <trkpt lat="40.420450" lon="-5.307700">
        <ele>2037.0</ele>
        <time>2018-06-17T11:29:04Z</time>
      </trkpt>
      <trkpt lat="40.420483" lon="-5.307750">
        <ele>2037.0</ele>
        <time>2018-06-17T11:29:05Z</time>
      </trkpt>
      <trkpt lat="40.420533" lon="-5.307800">
        <ele>2037.0</ele>
        <time>2018-06-17T11:29:06Z</time>
      </trkpt>
      <trkpt lat="40.420567" lon="-5.307850">
        <ele>2037.0</ele>
        <time>2018-06-17T11:29:07Z</time>
      </trkpt>
      <trkpt lat="40.420617" lon="-5.307883">
        <ele>2035.0</ele>
        <time>2018-06-17T11:29:08Z</time>
      </trkpt>
      <trkpt lat="40.420650" lon="-5.307933">
        <ele>2033.0</ele>
        <time>2018-06-17T11:29:09Z</time>
      </trkpt>
      <trkpt lat="40.420700" lon="-5.307983">
        <ele>2030.0</ele>
        <time>2018-06-17T11:29:10Z</time>
      </trkpt>
      <trkpt lat="40.420750" lon="-5.308050">
        <ele>2027.0</ele>
        <time>2018-06-17T11:29:11Z</time>
      </trkpt>
      <trkpt lat="40.420783" lon="-5.308100">
        <ele>2025.0</ele>
        <time>2018-06-17T11:29:12Z</time>
      </trkpt>
      <trkpt lat="40.420833" lon="-5.308167">
        <ele>2023.0</ele>
        <time>2018-06-17T11:29:13Z</time>
      </trkpt>
      <trkpt lat="40.420883" lon="-5.308217">
        <ele>2021.0</ele>
        <time>2018-06-17T11:29:14Z</time>
      </trkpt>
      <trkpt lat="40.420917" lon="-5.308283">
        <ele>2018.0</ele>
        <time>2018-06-17T11:29:15Z</time>
      </trkpt>
      <trkpt lat="40.420950" lon="-5.308367">
        <ele>2015.0</ele>
        <time>2018-06-17T11:29:16Z</time>
      </trkpt>
      <trkpt lat="40.420967" lon="-5.308450">
        <ele>2012.0</ele>
        <time>2018-06-17T11:29:17Z</time>
      </trkpt>
      <trkpt lat="40.420983" lon="-5.308567">
        <ele>2010.0</ele>
        <time>2018-06-17T11:29:18Z</time>
      </trkpt>
      <trkpt lat="40.421017" lon="-5.308667">
        <ele>2009.0</ele>
        <time>2018-06-17T11:29:19Z</time>
      </trkpt>
      <trkpt lat="40.421050" lon="-5.308750">
        <ele>2008.0</ele>
        <time>2018-06-17T11:29:20Z</time>
      </trkpt>
      <trkpt lat="40.421067" lon="-5.308833">
        <ele>2007.0</ele>
        <time>2018-06-17T11:29:21Z</time>
      </trkpt>
      <trkpt lat="40.421100" lon="-5.308900">
        <ele>2005.0</ele>
        <time>2018-06-17T11:29:22Z</time>
      </trkpt>
      <trkpt lat="40.421133" lon="-5.308983">
        <ele>2002.0</ele>
        <time>2018-06-17T11:29:23Z</time>
      </trkpt>
      <trkpt lat="40.421183" lon="-5.309067">
        <ele>2000.0</ele>
        <time>2018-06-17T11:29:24Z</time>
      </trkpt>
      <trkpt lat="40.421233" lon="-5.309133">
        <ele>1998.0</ele>
        <time>2018-06-17T11:29:25Z</time>
      </trkpt>
      <trkpt lat="40.421283" lon="-5.309217">
        <ele>1996.0</ele>
        <time>2018-06-17T11:29:26Z</time>
      </trkpt>
      <trkpt lat="40.421317" lon="-5.309283">
        <ele>1996.0</ele>
        <time>2018-06-17T11:29:27Z</time>
      </trkpt>
      <trkpt lat="40.421367" lon="-5.309350">
        <ele>1995.0</ele>
        <time>2018-06-17T11:29:28Z</time>
      </trkpt>
      <trkpt lat="40.421417" lon="-5.309400">
        <ele>1993.0</ele>
        <time>2018-06-17T11:29:29Z</time>
      </trkpt>
      <trkpt lat="40.421450" lon="-5.309467">
        <ele>1992.0</ele>
        <time>2018-06-17T11:29:30Z</time>
      </trkpt>
      <trkpt lat="40.421500" lon="-5.309533">
        <ele>1991.0</ele>
        <time>2018-06-17T11:29:31Z</time>
      </trkpt>
      <trkpt lat="40.421533" lon="-5.309617">
        <ele>1989.0</ele>
        <time>2018-06-17T11:29:32Z</time>
      </trkpt>
      <trkpt lat="40.421583" lon="-5.309683">
        <ele>1989.0</ele>
        <time>2018-06-17T11:29:33Z</time>
      </trkpt>
      <trkpt lat="40.421617" lon="-5.309767">
        <ele>1988.0</ele>
        <time>2018-06-17T11:29:34Z</time>
      </trkpt>
      <trkpt lat="40.421650" lon="-5.309817">
        <ele>1988.0</ele>
        <time>2018-06-17T11:29:35Z</time>
      </trkpt>
      <trkpt lat="40.421683" lon="-5.309867">
        <ele>1988.0</ele>
        <time>2018-06-17T11:29:36Z</time>
      </trkpt>
      <trkpt lat="40.421733" lon="-5.309900">
        <ele>1986.0</ele>
        <time>2018-06-17T11:29:37Z</time>
      </trkpt>
      <trkpt lat="40.421783" lon="-5.309917">
        <ele>1984.0</ele>
        <time>2018-06-17T11:29:38Z</time>
      </trkpt>
      <trkpt lat="40.421850" lon="-5.309933">
        <ele>1982.0</ele>
        <time>2018-06-17T11:29:39Z</time>
      </trkpt>
      <trkpt lat="40.421933" lon="-5.309950">
        <ele>1981.0</ele>
        <time>2018-06-17T11:29:40Z</time>
      </trkpt>
      <trkpt lat="40.422017" lon="-5.309967">
        <ele>1981.0</ele>
        <time>2018-06-17T11:29:41Z</time>
      </trkpt>
      <trkpt lat="40.422100" lon="-5.309983">
        <ele>1981.0</ele>
        <time>2018-06-17T11:29:42Z</time>
      </trkpt>
      <trkpt lat="40.422167" lon="-5.309967">
        <ele>1981.0</ele>
        <time>2018-06-17T11:29:43Z</time>
      </trkpt>
      <trkpt lat="40.422233" lon="-5.309933">
        <ele>1980.0</ele>
        <time>2018-06-17T11:29:44Z</time>
      </trkpt>
      <trkpt lat="40.422317" lon="-5.309867">
        <ele>1979.0</ele>
        <time>2018-06-17T11:29:45Z</time>
      </trkpt>
      <trkpt lat="40.422383" lon="-5.309800">
        <ele>1978.0</ele>
        <time>2018-06-17T11:29:46Z</time>
      </trkpt>
      <trkpt lat="40.422450" lon="-5.309733">
        <ele>1978.0</ele>
        <time>2018-06-17T11:29:47Z</time>
      </trkpt>
      <trkpt lat="40.422517" lon="-5.309683">
        <ele>1978.0</ele>
        <time>2018-06-17T11:29:48Z</time>
      </trkpt>
      <trkpt lat="40.422583" lon="-5.309633">
        <ele>1978.0</ele>
        <time>2018-06-17T11:29:49Z</time>
      </trkpt>
      <trkpt lat="40.422633" lon="-5.309600">
        <ele>1977.0</ele>
        <time>2018-06-17T11:29:50Z</time>
      </trkpt>
      <trkpt lat="40.422700" lon="-5.309550">
        <ele>1976.0</ele>
        <time>2018-06-17T11:29:51Z</time>
      </trkpt>
      <trkpt lat="40.422767" lon="-5.309483">
        <ele>1975.0</ele>
        <time>2018-06-17T11:29:52Z</time>
      </trkpt>
      <trkpt lat="40.422817" lon="-5.309400">
        <ele>1973.0</ele>
        <time>2018-06-17T11:29:53Z</time>
      </trkpt>
      <trkpt lat="40.422850" lon="-5.309283">
        <ele>1972.0</ele>
        <time>2018-06-17T11:29:54Z</time>
      </trkpt>
      <trkpt lat="40.422867" lon="-5.309167">
        <ele>1970.0</ele>
        <time>2018-06-17T11:29:55Z</time>
      </trkpt>
      <trkpt lat="40.422850" lon="-5.309033">
        <ele>1970.0</ele>
        <time>2018-06-17T11:29:56Z</time>
      </trkpt>
      <trkpt lat="40.422833" lon="-5.308917">
        <ele>1970.0</ele>
        <time>2018-06-17T11:29:57Z</time>
      </trkpt>
      <trkpt lat="40.422817" lon="-5.308783">
        <ele>1970.0</ele>
        <time>2018-06-17T11:29:58Z</time>
      </trkpt>
      <trkpt lat="40.422783" lon="-5.308667">
        <ele>1969.0</ele>
        <time>2018-06-17T11:29:59Z</time>
      </trkpt>
      <trkpt lat="40.422767" lon="-5.308533">
        <ele>1968.0</ele>
        <time>2018-06-17T11:30:00Z</time>
      </trkpt>
      <trkpt lat="40.422750" lon="-5.308383">
        <ele>1967.0</ele>
        <time>2018-06-17T11:30:01Z</time>
      </trkpt>
      <trkpt lat="40.422717" lon="-5.308250">
        <ele>1966.0</ele>
        <time>2018-06-17T11:30:02Z</time>
      </trkpt>
      <trkpt lat="40.422700" lon="-5.308117">
        <ele>1966.0</ele>
        <time>2018-06-17T11:30:03Z</time>
      </trkpt>
      <trkpt lat="40.422683" lon="-5.308000">
        <ele>1965.0</ele>
        <time>2018-06-17T11:30:04Z</time>
      </trkpt>
      <trkpt lat="40.422650" lon="-5.307867">
        <ele>1965.0</ele>
        <time>2018-06-17T11:30:05Z</time>
      </trkpt>
      <trkpt lat="40.422617" lon="-5.307733">
        <ele>1964.0</ele>
        <time>2018-06-17T11:30:06Z</time>
      </trkpt>
      <trkpt lat="40.422567" lon="-5.307617">
        <ele>1963.0</ele>
        <time>2018-06-17T11:30:07Z</time>
      </trkpt>
      <trkpt lat="40.422500" lon="-5.307500">
        <ele>1961.0</ele>
        <time>2018-06-17T11:30:08Z</time>
      </trkpt>
      <trkpt lat="40.422417" lon="-5.307400">
        <ele>1960.0</ele>
        <time>2018-06-17T11:30:09Z</time>
      </trkpt>
      <trkpt lat="40.422317" lon="-5.307300">
        <ele>1958.0</ele>
        <time>2018-06-17T11:30:10Z</time>
      </trkpt>
      <trkpt lat="40.422217" lon="-5.307217">
        <ele>1957.0</ele>
        <time>2018-06-17T11:30:11Z</time>
      </trkpt>
      <trkpt lat="40.422117" lon="-5.307150">
        <ele>1956.0</ele>
        <time>2018-06-17T11:30:12Z</time>
      </trkpt>
      <trkpt lat="40.422000" lon="-5.307100">
        <ele>1955.0</ele>
        <time>2018-06-17T11:30:13Z</time>
      </trkpt>
      <trkpt lat="40.421883" lon="-5.307083">
        <ele>1954.0</ele>
        <time>2018-06-17T11:30:14Z</time>
      </trkpt>
      <trkpt lat="40.421767" lon="-5.307083">
        <ele>1952.0</ele>
        <time>2018-06-17T11:30:15Z</time>
      </trkpt>
      <trkpt lat="40.421650" lon="-5.307133">
        <ele>1950.0</ele>
        <time>2018-06-17T11:30:16Z</time>
      </trkpt>
      <trkpt lat="40.421550" lon="-5.307217">
        <ele>1948.0</ele>
        <time>2018-06-17T11:30:17Z</time>
      </trkpt>
      <trkpt lat="40.421467" lon="-5.307333">
        <ele>1947.0</ele>
        <time>2018-06-17T11:30:18Z</time>
      </trkpt>
      <trkpt lat="40.421400" lon="-5.307450">
        <ele>1946.0</ele>
        <time>2018-06-17T11:30:19Z</time>
      </trkpt>
      <trkpt lat="40.421367" lon="-5.307567">
        <ele>1946.0</ele>
        <time>2018-06-17T11:30:20Z</time>
      </trkpt>
      <trkpt lat="40.421350" lon="-5.307683">
        <ele>1946.0</ele>
        <time>2018-06-17T11:30:21Z</time>
      </trkpt>
      <trkpt lat="40.421350" lon="-5.307783">
        <ele>1945.0</ele>
        <time>2018-06-17T11:30:22Z</time>
      </trkpt>
      <trkpt lat="40.421367" lon="-5.307900">
        <ele>1944.0</ele>
        <time>2018-06-17T11:30:23Z</time>
      </trkpt>
      <trkpt lat="40.421400" lon="-5.308000">
        <ele>1943.0</ele>
        <time>2018-06-17T11:30:24Z</time>
      </trkpt>
      <trkpt lat="40.421450" lon="-5.308100">
        <ele>1943.0</ele>
        <time>2018-06-17T11:30:25Z</time>
      </trkpt>
      <trkpt lat="40.421483" lon="-5.308200">
        <ele>1943.0</ele>
        <time>2018-06-17T11:30:26Z</time>
      </trkpt>
      <trkpt lat="40.421533" lon="-5.308283">
        <ele>1944.0</ele>
        <time>2018-06-17T11:30:27Z</time>
      </trkpt>
      <trkpt lat="40.421567" lon="-5.308367">
        <ele>1945.0</ele>
        <time>2018-06-17T11:30:28Z</time>
      </trkpt>
      <trkpt lat="40.421600" lon="-5.308450">
        <ele>1945.0</ele>
        <time>2018-06-17T11:30:29Z</time>
      </trkpt>
      <trkpt lat="40.421633" lon="-5.308550">
        <ele>1944.0</ele>
        <time>2018-06-17T11:30:30Z</time>
      </trkpt>
      <trkpt lat="40.421667" lon="-5.308633">
        <ele>1944.0</ele>
        <time>2018-06-17T11:30:31Z</time>
      </trkpt>
      <trkpt lat="40.421717" lon="-5.308733">
        <ele>1943.0</ele>
        <time>2018-06-17T11:30:32Z</time>
      </trkpt>
      <trkpt lat="40.421767" lon="-5.308817">
        <ele>1943.0</ele>
        <time>2018-06-17T11:30:33Z</time>
      </trkpt>
      <trkpt lat="40.421800" lon="-5.308883">
        <ele>1942.0</ele>
        <time>2018-06-17T11:30:34Z</time>
      </trkpt>
      <trkpt lat="40.421850" lon="-5.308950">
        <ele>1942.0</ele>
        <time>2018-06-17T11:30:35Z</time>
      </trkpt>
      <trkpt lat="40.421900" lon="-5.309033">
        <ele>1941.0</ele>
        <time>2018-06-17T11:30:36Z</time>
      </trkpt>
      <trkpt lat="40.421933" lon="-5.309100">
        <ele>1939.0</ele>
        <time>2018-06-17T11:30:37Z</time>
      </trkpt>
      <trkpt lat="40.421967" lon="-5.309183">
        <ele>1937.0</ele>
        <time>2018-06-17T11:30:38Z</time>
      </trkpt>
      <trkpt lat="40.422017" lon="-5.309267">
        <ele>1934.0</ele>
        <time>2018-06-17T11:30:39Z</time>
      </trkpt>
      <trkpt lat="40.422083" lon="-5.309333">
        <ele>1933.0</ele>
        <time>2018-06-17T11:30:40Z</time>
      </trkpt>
      <trkpt lat="40.422167" lon="-5.309400">
        <ele>1932.0</ele>
        <time>2018-06-17T11:30:41Z</time>
      </trkpt>
      <trkpt lat="40.422233" lon="-5.309467">
        <ele>1932.0</ele>
        <time>2018-06-17T11:30:42Z</time>
      </trkpt>
      <trkpt lat="40.422300" lon="-5.309550">
        <ele>1931.0</ele>
        <time>2018-06-17T11:30:43Z</time>
      </trkpt>
      <trkpt lat="40.422333" lon="-5.309650">
        <ele>1930.0</ele>
        <time>2018-06-17T11:30:44Z</time>
      </trkpt>
      <trkpt lat="40.422383" lon="-5.309733">
        <ele>1928.0</ele>
        <time>2018-06-17T11:30:45Z</time>
      </trkpt>
      <trkpt lat="40.422450" lon="-5.309817">
        <ele>1927.0</ele>
        <time>2018-06-17T11:30:46Z</time>
      </trkpt>
      <trkpt lat="40.422517" lon="-5.309867">
        <ele>1925.0</ele>
        <time>2018-06-17T11:30:47Z</time>
      </trkpt>
      <trkpt lat="40.422600" lon="-5.309900">
        <ele>1923.0</ele>
        <time>2018-06-17T11:30:48Z</time>
      </trkpt>
      <trkpt lat="40.422683" lon="-5.309917">
        <ele>1923.0</ele>
        <time>2018-06-17T11:30:49Z</time>
      </trkpt>
      <trkpt lat="40.422767" lon="-5.309933">
        <ele>1924.0</ele>
        <time>2018-06-17T11:30:50Z</time>
      </trkpt>
      <trkpt lat="40.422833" lon="-5.309950">
        <ele>1926.0</ele>
        <time>2018-06-17T11:30:51Z</time>
      </trkpt>
      <trkpt lat="40.422883" lon="-5.309967">
        <ele>1927.0</ele>
        <time>2018-06-17T11:30:52Z</time>
      </trkpt>
      <trkpt lat="40.422933" lon="-5.309983">
        <ele>1927.0</ele>
        <time>2018-06-17T11:30:53Z</time>
      </trkpt>
      <trkpt lat="40.422983" lon="-5.310000">
        <ele>1925.0</ele>
        <time>2018-06-17T11:30:54Z</time>
      </trkpt>
      <trkpt lat="40.423050" lon="-5.310017">
        <ele>1923.0</ele>
        <time>2018-06-17T11:30:55Z</time>
      </trkpt>
      <trkpt lat="40.423117" lon="-5.310017">
        <ele>1921.0</ele>
        <time>2018-06-17T11:30:56Z</time>
      </trkpt>
      <trkpt lat="40.423183" lon="-5.310000">
        <ele>1919.0</ele>
        <time>2018-06-17T11:30:57Z</time>
      </trkpt>
      <trkpt lat="40.423267" lon="-5.309967">
        <ele>1918.0</ele>
        <time>2018-06-17T11:30:58Z</time>
      </trkpt>
      <trkpt lat="40.423333" lon="-5.309933">
        <ele>1918.0</ele>
        <time>2018-06-17T11:30:59Z</time>
      </trkpt>
      <trkpt lat="40.423400" lon="-5.309867">
        <ele>1918.0</ele>
        <time>2018-06-17T11:31:00Z</time>
      </trkpt>
      <trkpt lat="40.423450" lon="-5.309800">
        <ele>1919.0</ele>
        <time>2018-06-17T11:31:01Z</time>
      </trkpt>
      <trkpt lat="40.423517" lon="-5.309733">
        <ele>1919.0</ele>
        <time>2018-06-17T11:31:02Z</time>
      </trkpt>
      <trkpt lat="40.423567" lon="-5.309683">
        <ele>1920.0</ele>
        <time>2018-06-17T11:31:03Z</time>
      </trkpt>
      <trkpt lat="40.423617" lon="-5.309617">
        <ele>1920.0</ele>
        <time>2018-06-17T11:31:04Z</time>
      </trkpt>
      <trkpt lat="40.423650" lon="-5.309550">
        <ele>1919.0</ele>
        <time>2018-06-17T11:31:05Z</time>
      </trkpt>
      <trkpt lat="40.423667" lon="-5.309450">
        <ele>1918.0</ele>
        <time>2018-06-17T11:31:06Z</time>
      </trkpt>
      <trkpt lat="40.423717" lon="-5.309367">
        <ele>1916.0</ele>
        <time>2018-06-17T11:31:07Z</time>
      </trkpt>
      <trkpt lat="40.423767" lon="-5.309300">
        <ele>1915.0</ele>
        <time>2018-06-17T11:31:08Z</time>
      </trkpt>
      <trkpt lat="40.423817" lon="-5.309250">
        <ele>1915.0</ele>
        <time>2018-06-17T11:31:09Z</time>
      </trkpt>
      <trkpt lat="40.423883" lon="-5.309233">
        <ele>1914.0</ele>
        <time>2018-06-17T11:31:10Z</time>
      </trkpt>
      <trkpt lat="40.423933" lon="-5.309250">
        <ele>1913.0</ele>
        <time>2018-06-17T11:31:11Z</time>
      </trkpt>
      <trkpt lat="40.423983" lon="-5.309283">
        <ele>1912.0</ele>
        <time>2018-06-17T11:31:12Z</time>
      </trkpt>
      <trkpt lat="40.424033" lon="-5.309350">
        <ele>1909.0</ele>
        <time>2018-06-17T11:31:13Z</time>
      </trkpt>
      <trkpt lat="40.424067" lon="-5.309450">
        <ele>1905.0</ele>
        <time>2018-06-17T11:31:14Z</time>
      </trkpt>
      <trkpt lat="40.424067" lon="-5.309583">
        <ele>1902.0</ele>
        <time>2018-06-17T11:31:15Z</time>
      </trkpt>
      <trkpt lat="40.424050" lon="-5.309717">
        <ele>1900.0</ele>
        <time>2018-06-17T11:31:16Z</time>
      </trkpt>
      <trkpt lat="40.424017" lon="-5.309850">
        <ele>1899.0</ele>
        <time>2018-06-17T11:31:17Z</time>
      </trkpt>
      <trkpt lat="40.423983" lon="-5.309983">
        <ele>1898.0</ele>
        <time>2018-06-17T11:31:18Z</time>
      </trkpt>
      <trkpt lat="40.423950" lon="-5.310083">
        <ele>1897.0</ele>
        <time>2018-06-17T11:31:19Z</time>
      </trkpt>
      <trkpt lat="40.423917" lon="-5.310200">
        <ele>1896.0</ele>
        <time>2018-06-17T11:31:20Z</time>
      </trkpt>
      <trkpt lat="40.423917" lon="-5.310300">
        <ele>1894.0</ele>
        <time>2018-06-17T11:31:21Z</time>
      </trkpt>
      <trkpt lat="40.423900" lon="-5.310417">
        <ele>1891.0</ele>
        <time>2018-06-17T11:31:22Z</time>
      </trkpt>
      <trkpt lat="40.423917" lon="-5.310550">
        <ele>1888.0</ele>
        <time>2018-06-17T11:31:23Z</time>
      </trkpt>
      <trkpt lat="40.423917" lon="-5.310683">
        <ele>1885.0</ele>
        <time>2018-06-17T11:31:24Z</time>
      </trkpt>
      <trkpt lat="40.423933" lon="-5.310817">
        <ele>1884.0</ele>
        <time>2018-06-17T11:31:25Z</time>
      </trkpt>
      <trkpt lat="40.423950" lon="-5.310950">
        <ele>1884.0</ele>
        <time>2018-06-17T11:31:26Z</time>
      </trkpt>
      <trkpt lat="40.423967" lon="-5.311067">
        <ele>1884.0</ele>
        <time>2018-06-17T11:31:27Z</time>
      </trkpt>
      <trkpt lat="40.424000" lon="-5.311183">
        <ele>1885.0</ele>
        <time>2018-06-17T11:31:28Z</time>
      </trkpt>
      <trkpt lat="40.424033" lon="-5.311283">
        <ele>1885.0</ele>
        <time>2018-06-17T11:31:29Z</time>
      </trkpt>
      <trkpt lat="40.424067" lon="-5.311383">
        <ele>1884.0</ele>
        <time>2018-06-17T11:31:30Z</time>
      </trkpt>
      <trkpt lat="40.424083" lon="-5.311483">
        <ele>1883.0</ele>
        <time>2018-06-17T11:31:31Z</time>
      </trkpt>
      <trkpt lat="40.424100" lon="-5.311600">
        <ele>1881.0</ele>
        <time>2018-06-17T11:31:32Z</time>
      </trkpt>
      <trkpt lat="40.424117" lon="-5.311700">
        <ele>1880.0</ele>
        <time>2018-06-17T11:31:33Z</time>
      </trkpt>
      <trkpt lat="40.424117" lon="-5.311817">
        <ele>1878.0</ele>
        <time>2018-06-17T11:31:34Z</time>
      </trkpt>
      <trkpt lat="40.424117" lon="-5.311933">
        <ele>1876.0</ele>
        <time>2018-06-17T11:31:35Z</time>
      </trkpt>
      <trkpt lat="40.424117" lon="-5.312067">
        <ele>1875.0</ele>
        <time>2018-06-17T11:31:36Z</time>
      </trkpt>
      <trkpt lat="40.424117" lon="-5.312183">
        <ele>1873.0</ele>
        <time>2018-06-17T11:31:37Z</time>
      </trkpt>
      <trkpt lat="40.424133" lon="-5.312300">
        <ele>1871.0</ele>
        <time>2018-06-17T11:31:38Z</time>
      </trkpt>
      <trkpt lat="40.424167" lon="-5.312417">
        <ele>1869.0</ele>
        <time>2018-06-17T11:31:39Z</time>
      </trkpt>
      <trkpt lat="40.424200" lon="-5.312517">
        <ele>1868.0</ele>
        <time>2018-06-17T11:31:40Z</time>
      </trkpt>
      <trkpt lat="40.424250" lon="-5.312633">
        <ele>1868.0</ele>
        <time>2018-06-17T11:31:41Z</time>
      </trkpt>
      <trkpt lat="40.424283" lon="-5.312717">
        <ele>1867.0</ele>
        <time>2018-06-17T11:31:42Z</time>
      </trkpt>
      <trkpt lat="40.424317" lon="-5.312817">
        <ele>1865.0</ele>
        <time>2018-06-17T11:31:43Z</time>
      </trkpt>
      <trkpt lat="40.424367" lon="-5.312917">
        <ele>1863.0</ele>
        <time>2018-06-17T11:31:44Z</time>
      </trkpt>
      <trkpt lat="40.424433" lon="-5.313017">
        <ele>1861.0</ele>
        <time>2018-06-17T11:31:45Z</time>
      </trkpt>
      <trkpt lat="40.424500" lon="-5.313117">
        <ele>1858.0</ele>
        <time>2018-06-17T11:31:46Z</time>
      </trkpt>
      <trkpt lat="40.424567" lon="-5.313217">
        <ele>1857.0</ele>
        <time>2018-06-17T11:31:47Z</time>
      </trkpt>
      <trkpt lat="40.424633" lon="-5.313317">
        <ele>1858.0</ele>
        <time>2018-06-17T11:31:48Z</time>
      </trkpt>
      <trkpt lat="40.424683" lon="-5.313400">
        <ele>1861.0</ele>
        <time>2018-06-17T11:31:49Z</time>
      </trkpt>
      <trkpt lat="40.424717" lon="-5.313467">
        <ele>1863.0</ele>
        <time>2018-06-17T11:31:50Z</time>
      </trkpt>
      <trkpt lat="40.424733" lon="-5.313533">
        <ele>1864.0</ele>
        <time>2018-06-17T11:31:51Z</time>
      </trkpt>
      <trkpt lat="40.424750" lon="-5.313583">
        <ele>1864.0</ele>
        <time>2018-06-17T11:31:52Z</time>
      </trkpt>
      <trkpt lat="40.424783" lon="-5.313633">
        <ele>1862.0</ele>
        <time>2018-06-17T11:31:53Z</time>
      </trkpt>
      <trkpt lat="40.424817" lon="-5.313683">
        <ele>1860.0</ele>
        <time>2018-06-17T11:31:54Z</time>
      </trkpt>
      <trkpt lat="40.424867" lon="-5.313733">
        <ele>1858.0</ele>
        <time>2018-06-17T11:31:55Z</time>
      </trkpt>
      <trkpt lat="40.424917" lon="-5.313783">
        <ele>1856.0</ele>
        <time>2018-06-17T11:31:56Z</time>
      </trkpt>
      <trkpt lat="40.424967" lon="-5.313850">
        <ele>1854.0</ele>
        <time>2018-06-17T11:31:57Z</time>
      </trkpt>
      <trkpt lat="40.425017" lon="-5.313917">
        <ele>1853.0</ele>
        <time>2018-06-17T11:31:58Z</time>
      </trkpt>
      <trkpt lat="40.425050" lon="-5.313983">
        <ele>1851.0</ele>
        <time>2018-06-17T11:31:59Z</time>
      </trkpt>
      <trkpt lat="40.425100" lon="-5.314050">
        <ele>1849.0</ele>
        <time>2018-06-17T11:32:00Z</time>
      </trkpt>
      <trkpt lat="40.425133" lon="-5.314117">
        <ele>1848.0</ele>
        <time>2018-06-17T11:32:01Z</time>
      </trkpt>
      <trkpt lat="40.425167" lon="-5.314200">
        <ele>1849.0</ele>
        <time>2018-06-17T11:32:02Z</time>
      </trkpt>
      <trkpt lat="40.425183" lon="-5.314283">
        <ele>1850.0</ele>
        <time>2018-06-17T11:32:03Z</time>
      </trkpt>
      <trkpt lat="40.425183" lon="-5.314383">
        <ele>1852.0</ele>
        <time>2018-06-17T11:32:04Z</time>
      </trkpt>
      <trkpt lat="40.425183" lon="-5.314483">
        <ele>1853.0</ele>
        <time>2018-06-17T11:32:05Z</time>
      </trkpt>
      <trkpt lat="40.425183" lon="-5.314583">
        <ele>1854.0</ele>
        <time>2018-06-17T11:32:06Z</time>
      </trkpt>
      <trkpt lat="40.425200" lon="-5.314683">
        <ele>1856.0</ele>
        <time>2018-06-17T11:32:07Z</time>
      </trkpt>
      <trkpt lat="40.425200" lon="-5.314783">
        <ele>1858.0</ele>
        <time>2018-06-17T11:32:08Z</time>
      </trkpt>
      <trkpt lat="40.425233" lon="-5.314883">
        <ele>1859.0</ele>
        <time>2018-06-17T11:32:09Z</time>
      </trkpt>
      <trkpt lat="40.425267" lon="-5.314967">
        <ele>1861.0</ele>
        <time>2018-06-17T11:32:10Z</time>
      </trkpt>
      <trkpt lat="40.425283" lon="-5.315067">
        <ele>1863.0</ele>
        <time>2018-06-17T11:32:11Z</time>
      </trkpt>
      <trkpt lat="40.425317" lon="-5.315150">
        <ele>1865.0</ele>
        <time>2018-06-17T11:32:12Z</time>
      </trkpt>
      <trkpt lat="40.425383" lon="-5.315217">
        <ele>1867.0</ele>
        <time>2018-06-17T11:32:13Z</time>
      </trkpt>
      <trkpt lat="40.425450" lon="-5.315250">
        <ele>1869.0</ele>
        <time>2018-06-17T11:32:14Z</time>
      </trkpt>
      <trkpt lat="40.425517" lon="-5.315217">
        <ele>1870.0</ele>
        <time>2018-06-17T11:32:15Z</time>
      </trkpt>
      <trkpt lat="40.425567" lon="-5.315117">
        <ele>1872.0</ele>
        <time>2018-06-17T11:32:16Z</time>
      </trkpt>
      <trkpt lat="40.425583" lon="-5.314983">
        <ele>1875.0</ele>
        <time>2018-06-17T11:32:17Z</time>
      </trkpt>
      <trkpt lat="40.425550" lon="-5.314850">
        <ele>1877.0</ele>
        <time>2018-06-17T11:32:18Z</time>
      </trkpt>
      <trkpt lat="40.425483" lon="-5.314717">
        <ele>1879.0</ele>
        <time>2018-06-17T11:32:19Z</time>
      </trkpt>
      <trkpt lat="40.425383" lon="-5.314617">
        <ele>1881.0</ele>
        <time>2018-06-17T11:32:20Z</time>
      </trkpt>
      <trkpt lat="40.425250" lon="-5.314533">
        <ele>1883.0</ele>
        <time>2018-06-17T11:32:21Z</time>
      </trkpt>
      <trkpt lat="40.425117" lon="-5.314533">
        <ele>1885.0</ele>
        <time>2018-06-17T11:32:22Z</time>
      </trkpt>
      <trkpt lat="40.425000" lon="-5.314567">
        <ele>1885.0</ele>
        <time>2018-06-17T11:32:23Z</time>
      </trkpt>
      <trkpt lat="40.424867" lon="-5.314617">
        <ele>1885.0</ele>
        <time>2018-06-17T11:32:24Z</time>
      </trkpt>
      <trkpt lat="40.424767" lon="-5.314700">
        <ele>1885.0</ele>
        <time>2018-06-17T11:32:25Z</time>
      </trkpt>
      <trkpt lat="40.424650" lon="-5.314783">
        <ele>1885.0</ele>
        <time>2018-06-17T11:32:26Z</time>
      </trkpt>
      <trkpt lat="40.424550" lon="-5.314883">
        <ele>1885.0</ele>
        <time>2018-06-17T11:32:27Z</time>
      </trkpt>
      <trkpt lat="40.424467" lon="-5.315033">
        <ele>1886.0</ele>
        <time>2018-06-17T11:32:28Z</time>
      </trkpt>
      <trkpt lat="40.424417" lon="-5.315183">
        <ele>1888.0</ele>
        <time>2018-06-17T11:32:29Z</time>
      </trkpt>
      <trkpt lat="40.424400" lon="-5.315333">
        <ele>1892.0</ele>
        <time>2018-06-17T11:32:30Z</time>
      </trkpt>
      <trkpt lat="40.424400" lon="-5.315450">
        <ele>1896.0</ele>
        <time>2018-06-17T11:32:31Z</time>
      </trkpt>
      <trkpt lat="40.424417" lon="-5.315533">
        <ele>1900.0</ele>
        <time>2018-06-17T11:32:32Z</time>
      </trkpt>
      <trkpt lat="40.424433" lon="-5.315583">
        <ele>1902.0</ele>
        <time>2018-06-17T11:32:33Z</time>
      </trkpt>
      <trkpt lat="40.424467" lon="-5.315617">
        <ele>1902.0</ele>
        <time>2018-06-17T11:32:34Z</time>
      </trkpt>
      <trkpt lat="40.424517" lon="-5.315650">
        <ele>1901.0</ele>
        <time>2018-06-17T11:32:35Z</time>
      </trkpt>
      <trkpt lat="40.424583" lon="-5.315667">
        <ele>1900.0</ele>
        <time>2018-06-17T11:32:36Z</time>
      </trkpt>
      <trkpt lat="40.424667" lon="-5.315633">
        <ele>1899.0</ele>
        <time>2018-06-17T11:32:37Z</time>
      </trkpt>
      <trkpt lat="40.424750" lon="-5.315550">
        <ele>1901.0</ele>
        <time>2018-06-17T11:32:38Z</time>
      </trkpt>
      <trkpt lat="40.424783" lon="-5.315433">
        <ele>1904.0</ele>
        <time>2018-06-17T11:32:39Z</time>
      </trkpt>
      <trkpt lat="40.424783" lon="-5.315283">
        <ele>1907.0</ele>
        <time>2018-06-17T11:32:40Z</time>
      </trkpt>
      <trkpt lat="40.424767" lon="-5.315133">
        <ele>1910.0</ele>
        <time>2018-06-17T11:32:41Z</time>
      </trkpt>
      <trkpt lat="40.424733" lon="-5.315000">
        <ele>1915.0</ele>
        <time>2018-06-17T11:32:42Z</time>
      </trkpt>
      <trkpt lat="40.424667" lon="-5.314900">
        <ele>1919.0</ele>
        <time>2018-06-17T11:32:43Z</time>
      </trkpt>
      <trkpt lat="40.424583" lon="-5.314800">
        <ele>1922.0</ele>
        <time>2018-06-17T11:32:44Z</time>
      </trkpt>
      <trkpt lat="40.424517" lon="-5.314717">
        <ele>1925.0</ele>
        <time>2018-06-17T11:32:45Z</time>
      </trkpt>
      <trkpt lat="40.424450" lon="-5.314617">
        <ele>1926.0</ele>
        <time>2018-06-17T11:32:46Z</time>
      </trkpt>
      <trkpt lat="40.424383" lon="-5.314517">
        <ele>1927.0</ele>
        <time>2018-06-17T11:32:47Z</time>
      </trkpt>
      <trkpt lat="40.424350" lon="-5.314400">
        <ele>1928.0</ele>
        <time>2018-06-17T11:32:48Z</time>
      </trkpt>
      <trkpt lat="40.424300" lon="-5.314300">
        <ele>1928.0</ele>
        <time>2018-06-17T11:32:49Z</time>
      </trkpt>
      <trkpt lat="40.424233" lon="-5.314217">
        <ele>1928.0</ele>
        <time>2018-06-17T11:32:50Z</time>
      </trkpt>
      <trkpt lat="40.424133" lon="-5.314150">
        <ele>1925.0</ele>
        <time>2018-06-17T11:32:51Z</time>
      </trkpt>
      <trkpt lat="40.424000" lon="-5.314117">
        <ele>1921.0</ele>
        <time>2018-06-17T11:32:52Z</time>
      </trkpt>
      <trkpt lat="40.423850" lon="-5.314133">
        <ele>1919.0</ele>
        <time>2018-06-17T11:32:53Z</time>
      </trkpt>
      <trkpt lat="40.423717" lon="-5.314200">
        <ele>1918.0</ele>
        <time>2018-06-17T11:32:54Z</time>
      </trkpt>
      <trkpt lat="40.423600" lon="-5.314300">
        <ele>1917.0</ele>
        <time>2018-06-17T11:32:55Z</time>
      </trkpt>
      <trkpt lat="40.423517" lon="-5.314433">
        <ele>1917.0</ele>
        <time>2018-06-17T11:32:56Z</time>
      </trkpt>
      <trkpt lat="40.423467" lon="-5.314583">
        <ele>1917.0</ele>
        <time>2018-06-17T11:32:57Z</time>
      </trkpt>
      <trkpt lat="40.423433" lon="-5.314733">
        <ele>1917.0</ele>
        <time>2018-06-17T11:32:58Z</time>
      </trkpt>
      <trkpt lat="40.423417" lon="-5.314867">
        <ele>1919.0</ele>
        <time>2018-06-17T11:32:59Z</time>
      </trkpt>
      <trkpt lat="40.423417" lon="-5.314983">
        <ele>1921.0</ele>
        <time>2018-06-17T11:33:00Z</time>
      </trkpt>
      <trkpt lat="40.423417" lon="-5.315117">
        <ele>1923.0</ele>
        <time>2018-06-17T11:33:01Z</time>
      </trkpt>
      <trkpt lat="40.423417" lon="-5.315233">
        <ele>1926.0</ele>
        <time>2018-06-17T11:33:02Z</time>
      </trkpt>
      <trkpt lat="40.423400" lon="-5.315350">
        <ele>1929.0</ele>
        <time>2018-06-17T11:33:03Z</time>
      </trkpt>
      <trkpt lat="40.423383" lon="-5.315483">
        <ele>1931.0</ele>
        <time>2018-06-17T11:33:04Z</time>
      </trkpt>
      <trkpt lat="40.423350" lon="-5.315600">
        <ele>1934.0</ele>
        <time>2018-06-17T11:33:05Z</time>
      </trkpt>
      <trkpt lat="40.423300" lon="-5.315700">
        <ele>1935.0</ele>
        <time>2018-06-17T11:33:06Z</time>
      </trkpt>
      <trkpt lat="40.423217" lon="-5.315783">
        <ele>1936.0</ele>
        <time>2018-06-17T11:33:07Z</time>
      </trkpt>
      <trkpt lat="40.423133" lon="-5.315867">
        <ele>1935.0</ele>
        <time>2018-06-17T11:33:08Z</time>
      </trkpt>
      <trkpt lat="40.423017" lon="-5.315900">
        <ele>1934.0</ele>
        <time>2018-06-17T11:33:09Z</time>
      </trkpt>
      <trkpt lat="40.422883" lon="-5.315900">
        <ele>1933.0</ele>
        <time>2018-06-17T11:33:10Z</time>
      </trkpt>
      <trkpt lat="40.422767" lon="-5.315850">
        <ele>1932.0</ele>
        <time>2018-06-17T11:33:11Z</time>
      </trkpt>
      <trkpt lat="40.422667" lon="-5.315767">
        <ele>1931.0</ele>
        <time>2018-06-17T11:33:12Z</time>
      </trkpt>
      <trkpt lat="40.422617" lon="-5.315667">
        <ele>1931.0</ele>
        <time>2018-06-17T11:33:13Z</time>
      </trkpt>
      <trkpt lat="40.422583" lon="-5.315550">
        <ele>1931.0</ele>
        <time>2018-06-17T11:33:14Z</time>
      </trkpt>
      <trkpt lat="40.422567" lon="-5.315450">
        <ele>1930.0</ele>
        <time>2018-06-17T11:33:15Z</time>
      </trkpt>
      <trkpt lat="40.422583" lon="-5.315333">
        <ele>1929.0</ele>
        <time>2018-06-17T11:33:16Z</time>
      </trkpt>
      <trkpt lat="40.422617" lon="-5.315233">
        <ele>1927.0</ele>
        <time>2018-06-17T11:33:17Z</time>
      </trkpt>
      <trkpt lat="40.422650" lon="-5.315133">
        <ele>1927.0</ele>
        <time>2018-06-17T11:33:18Z</time>
      </trkpt>
      <trkpt lat="40.422717" lon="-5.315033">
        <ele>1928.0</ele>
        <time>2018-06-17T11:33:19Z</time>
      </trkpt>
      <trkpt lat="40.422750" lon="-5.314933">
        <ele>1929.0</ele>
        <time>2018-06-17T11:33:20Z</time>
      </trkpt>
      <trkpt lat="40.422783" lon="-5.314833">
        <ele>1932.0</ele>
        <time>2018-06-17T11:33:21Z</time>
      </trkpt>
      <trkpt lat="40.422800" lon="-5.314733">
        <ele>1935.0</ele>
        <time>2018-06-17T11:33:22Z</time>
      </trkpt>
      <trkpt lat="40.422817" lon="-5.314667">
        <ele>1938.0</ele>
        <time>2018-06-17T11:33:23Z</time>
      </trkpt>
      <trkpt lat="40.422850" lon="-5.314617">
        <ele>1938.0</ele>
        <time>2018-06-17T11:33:24Z</time>
      </trkpt>
      <trkpt lat="40.422900" lon="-5.314633">
        <ele>1937.0</ele>
        <time>2018-06-17T11:33:25Z</time>
      </trkpt>
      <trkpt lat="40.422967" lon="-5.314667">
        <ele>1936.0</ele>
        <time>2018-06-17T11:33:26Z</time>
      </trkpt>
      <trkpt lat="40.423017" lon="-5.314733">
        <ele>1935.0</ele>
        <time>2018-06-17T11:33:27Z</time>
      </trkpt>
      <trkpt lat="40.423083" lon="-5.314817">
        <ele>1937.0</ele>
        <time>2018-06-17T11:33:28Z</time>
      </trkpt>
      <trkpt lat="40.423117" lon="-5.314900">
        <ele>1941.0</ele>
        <time>2018-06-17T11:33:29Z</time>
      </trkpt>
      <trkpt lat="40.423133" lon="-5.315000">
        <ele>1944.0</ele>
        <time>2018-06-17T11:33:30Z</time>
      </trkpt>
      <trkpt lat="40.423100" lon="-5.315117">
        <ele>1945.0</ele>
        <time>2018-06-17T11:33:31Z</time>
      </trkpt>
      <trkpt lat="40.423017" lon="-5.315233">
        <ele>1945.0</ele>
        <time>2018-06-17T11:33:32Z</time>
      </trkpt>
      <trkpt lat="40.422917" lon="-5.315333">
        <ele>1945.0</ele>
        <time>2018-06-17T11:33:33Z</time>
      </trkpt>
      <trkpt lat="40.422800" lon="-5.315433">
        <ele>1946.0</ele>
        <time>2018-06-17T11:33:34Z</time>
      </trkpt>
      <trkpt lat="40.422700" lon="-5.315517">
        <ele>1948.0</ele>
        <time>2018-06-17T11:33:35Z</time>
      </trkpt>
      <trkpt lat="40.422583" lon="-5.315617">
        <ele>1951.0</ele>
        <time>2018-06-17T11:33:36Z</time>
      </trkpt>
      <trkpt lat="40.422483" lon="-5.315700">
        <ele>1953.0</ele>
        <time>2018-06-17T11:33:37Z</time>
      </trkpt>
      <trkpt lat="40.422367" lon="-5.315783">
        <ele>1956.0</ele>
        <time>2018-06-17T11:33:38Z</time>
      </trkpt>
      <trkpt lat="40.422267" lon="-5.315817">
        <ele>1957.0</ele>
        <time>2018-06-17T11:33:39Z</time>
      </trkpt>
      <trkpt lat="40.422150" lon="-5.315833">
        <ele>1958.0</ele>
        <time>2018-06-17T11:33:40Z</time>
      </trkpt>
      <trkpt lat="40.422033" lon="-5.315783">
        <ele>1959.0</ele>
        <time>2018-06-17T11:33:41Z</time>
      </trkpt>
      <trkpt lat="40.421917" lon="-5.315717">
        <ele>1959.0</ele>
        <time>2018-06-17T11:33:42Z</time>
      </trkpt>
      <trkpt lat="40.421833" lon="-5.315633">
        <ele>1960.0</ele>
        <time>2018-06-17T11:33:43Z</time>
      </trkpt>
      <trkpt lat="40.421783" lon="-5.315517">
        <ele>1960.0</ele>
        <time>2018-06-17T11:33:44Z</time>
      </trkpt>
      <trkpt lat="40.421767" lon="-5.315400">
        <ele>1959.0</ele>
        <time>2018-06-17T11:33:45Z</time>
      </trkpt>
      <trkpt lat="40.421767" lon="-5.315283">
        <ele>1958.0</ele>
        <time>2018-06-17T11:33:46Z</time>
      </trkpt>
      <trkpt lat="40.421800" lon="-5.315167">
        <ele>1959.0</ele>
        <time>2018-06-17T11:33:47Z</time>
      </trkpt>
      <trkpt lat="40.421833" lon="-5.315067">
        <ele>1961.0</ele>
        <time>2018-06-17T11:33:48Z</time>
      </trkpt>
      <trkpt lat="40.421883" lon="-5.315017">
        <ele>1963.0</ele>
        <time>2018-06-17T11:33:49Z</time>
      </trkpt>
      <trkpt lat="40.421933" lon="-5.314983">
        <ele>1966.0</ele>
        <time>2018-06-17T11:33:50Z</time>
      </trkpt>
      <trkpt lat="40.421967" lon="-5.314950">
        <ele>1968.0</ele>
        <time>2018-06-17T11:33:51Z</time>
      </trkpt>
      <trkpt lat="40.422017" lon="-5.314933">
        <ele>1969.0</ele>
        <time>2018-06-17T11:33:52Z</time>
      </trkpt>
      <trkpt lat="40.422083" lon="-5.314933">
        <ele>1968.0</ele>
        <time>2018-06-17T11:33:53Z</time>
      </trkpt>
      <trkpt lat="40.422133" lon="-5.314933">
        <ele>1969.0</ele>
        <time>2018-06-17T11:33:54Z</time>
      </trkpt>
      <trkpt lat="40.422200" lon="-5.314950">
        <ele>1971.0</ele>
        <time>2018-06-17T11:33:55Z</time>
      </trkpt>
      <trkpt lat="40.422250" lon="-5.315017">
        <ele>1972.0</ele>
        <time>2018-06-17T11:33:56Z</time>
      </trkpt>
      <trkpt lat="40.422267" lon="-5.315100">
        <ele>1974.0</ele>
        <time>2018-06-17T11:33:57Z</time>
      </trkpt>
      <trkpt lat="40.422267" lon="-5.315200">
        <ele>1976.0</ele>
        <time>2018-06-17T11:33:58Z</time>
      </trkpt>
      <trkpt lat="40.422250" lon="-5.315317">
        <ele>1979.0</ele>
        <time>2018-06-17T11:33:59Z</time>
      </trkpt>
      <trkpt lat="40.422217" lon="-5.315417">
        <ele>1981.0</ele>
        <time>2018-06-17T11:34:00Z</time>
      </trkpt>
      <trkpt lat="40.422167" lon="-5.315517">
        <ele>1982.0</ele>
        <time>2018-06-17T11:34:01Z</time>
      </trkpt>
      <trkpt lat="40.422083" lon="-5.315633">
        <ele>1981.0</ele>
        <time>2018-06-17T11:34:02Z</time>
      </trkpt>
      <trkpt lat="40.421983" lon="-5.315733">
        <ele>1980.0</ele>
        <time>2018-06-17T11:34:03Z</time>
      </trkpt>
      <trkpt lat="40.421850" lon="-5.315817">
        <ele>1981.0</ele>
        <time>2018-06-17T11:34:04Z</time>
      </trkpt>
      <trkpt lat="40.421700" lon="-5.315867">
        <ele>1984.0</ele>
        <time>2018-06-17T11:34:05Z</time>
      </trkpt>
      <trkpt lat="40.421567" lon="-5.315867">
        <ele>1988.0</ele>
        <time>2018-06-17T11:34:06Z</time>
      </trkpt>
      <trkpt lat="40.421450" lon="-5.315833">
        <ele>1991.0</ele>
        <time>2018-06-17T11:34:07Z</time>
      </trkpt>
      <trkpt lat="40.421350" lon="-5.315750">
        <ele>1993.0</ele>
        <time>2018-06-17T11:34:08Z</time>
      </trkpt>
      <trkpt lat="40.421283" lon="-5.315650">
        <ele>1995.0</ele>
        <time>2018-06-17T11:34:09Z</time>
      </trkpt>
      <trkpt lat="40.421250" lon="-5.315533">
        <ele>1995.0</ele>
        <time>2018-06-17T11:34:10Z</time>
      </trkpt>
      <trkpt lat="40.421233" lon="-5.315417">
        <ele>1997.0</ele>
        <time>2018-06-17T11:34:11Z</time>
      </trkpt>
      <trkpt lat="40.421250" lon="-5.315317">
        <ele>1998.0</ele>
        <time>2018-06-17T11:34:12Z</time>
      </trkpt>
      <trkpt lat="40.421300" lon="-5.315250">
        <ele>2000.0</ele>
        <time>2018-06-17T11:34:13Z</time>
      </trkpt>
      <trkpt lat="40.421350" lon="-5.315200">
        <ele>2001.0</ele>
        <time>2018-06-17T11:34:14Z</time>
      </trkpt>
      <trkpt lat="40.421417" lon="-5.315200">
        <ele>2001.0</ele>
        <time>2018-06-17T11:34:15Z</time>
      </trkpt>
      <trkpt lat="40.421483" lon="-5.315233">
        <ele>2002.0</ele>
        <time>2018-06-17T11:34:16Z</time>
      </trkpt>
      <trkpt lat="40.421533" lon="-5.315283">
        <ele>2005.0</ele>
        <time>2018-06-17T11:34:17Z</time>
      </trkpt>
      <trkpt lat="40.421583" lon="-5.315333">
        <ele>2009.0</ele>
        <time>2018-06-17T11:34:18Z</time>
      </trkpt>
      <trkpt lat="40.421600" lon="-5.315383">
        <ele>2011.0</ele>
        <time>2018-06-17T11:34:19Z</time>
      </trkpt>
      <trkpt lat="40.421600" lon="-5.315417">
        <ele>2012.0</ele>
        <time>2018-06-17T11:34:20Z</time>
      </trkpt>
      <trkpt lat="40.421633" lon="-5.315467">
        <ele>2012.0</ele>
        <time>2018-06-17T11:34:21Z</time>
      </trkpt>
      <trkpt lat="40.421667" lon="-5.315550">
        <ele>2012.0</ele>
        <time>2018-06-17T11:34:22Z</time>
      </trkpt>
      <trkpt lat="40.421700" lon="-5.315667">
        <ele>2012.0</ele>
        <time>2018-06-17T11:34:23Z</time>
      </trkpt>
      <trkpt lat="40.421733" lon="-5.315783">
        <ele>2014.0</ele>
        <time>2018-06-17T11:34:24Z</time>
      </trkpt>
      <trkpt lat="40.421750" lon="-5.315900">
        <ele>2017.0</ele>
        <time>2018-06-17T11:34:25Z</time>
      </trkpt>
      <trkpt lat="40.421733" lon="-5.316000">
        <ele>2021.0</ele>
        <time>2018-06-17T11:34:26Z</time>
      </trkpt>
      <trkpt lat="40.421717" lon="-5.316100">
        <ele>2023.0</ele>
        <time>2018-06-17T11:34:27Z</time>
      </trkpt>
      <trkpt lat="40.421667" lon="-5.316200">
        <ele>2023.0</ele>
        <time>2018-06-17T11:34:28Z</time>
      </trkpt>
      <trkpt lat="40.421600" lon="-5.316300">
        <ele>2023.0</ele>
        <time>2018-06-17T11:34:29Z</time>
      </trkpt>
      <trkpt lat="40.421533" lon="-5.316383">
        <ele>2023.0</ele>
        <time>2018-06-17T11:34:30Z</time>
      </trkpt>
      <trkpt lat="40.421450" lon="-5.316500">
        <ele>2023.0</ele>
        <time>2018-06-17T11:34:31Z</time>
      </trkpt>
      <trkpt lat="40.421383" lon="-5.316617">
        <ele>2023.0</ele>
        <time>2018-06-17T11:34:32Z</time>
      </trkpt>
      <trkpt lat="40.421350" lon="-5.316733">
        <ele>2024.0</ele>
        <time>2018-06-17T11:34:33Z</time>
      </trkpt>
      <trkpt lat="40.421333" lon="-5.316850">
        <ele>2024.0</ele>
        <time>2018-06-17T11:34:34Z</time>
      </trkpt>
      <trkpt lat="40.421333" lon="-5.316967">
        <ele>2025.0</ele>
        <time>2018-06-17T11:34:35Z</time>
      </trkpt>
      <trkpt lat="40.421350" lon="-5.317083">
        <ele>2025.0</ele>
        <time>2018-06-17T11:34:36Z</time>
      </trkpt>
      <trkpt lat="40.421383" lon="-5.317183">
        <ele>2026.0</ele>
        <time>2018-06-17T11:34:37Z</time>
      </trkpt>
      <trkpt lat="40.421417" lon="-5.317267">
        <ele>2026.0</ele>
        <time>2018-06-17T11:34:38Z</time>
      </trkpt>
      <trkpt lat="40.421467" lon="-5.317350">
        <ele>2025.0</ele>
        <time>2018-06-17T11:34:39Z</time>
      </trkpt>
      <trkpt lat="40.421533" lon="-5.317400">
        <ele>2024.0</ele>
        <time>2018-06-17T11:34:40Z</time>
      </trkpt>
      <trkpt lat="40.421617" lon="-5.317450">
        <ele>2024.0</ele>
        <time>2018-06-17T11:34:41Z</time>
      </trkpt>
      <trkpt lat="40.421683" lon="-5.317483">
        <ele>2025.0</ele>
        <time>2018-06-17T11:34:42Z</time>
      </trkpt>
      <trkpt lat="40.421750" lon="-5.317500">
        <ele>2025.0</ele>
        <time>2018-06-17T11:34:43Z</time>
      </trkpt>
      <trkpt lat="40.421800" lon="-5.317517">
        <ele>2025.0</ele>
        <time>2018-06-17T11:34:44Z</time>
      </trkpt>
      <trkpt lat="40.421850" lon="-5.317517">
        <ele>2024.0</ele>
        <time>2018-06-17T11:34:45Z</time>
      </trkpt>
      <trkpt lat="40.421900" lon="-5.317550">
        <ele>2023.0</ele>
        <time>2018-06-17T11:34:46Z</time>
      </trkpt>
      <trkpt lat="40.421950" lon="-5.317567">
        <ele>2021.0</ele>
        <time>2018-06-17T11:34:47Z</time>
      </trkpt>
      <trkpt lat="40.422017" lon="-5.317600">
        <ele>2019.0</ele>
        <time>2018-06-17T11:34:48Z</time>
      </trkpt>
      <trkpt lat="40.422083" lon="-5.317617">
        <ele>2017.0</ele>
        <time>2018-06-17T11:34:49Z</time>
      </trkpt>
      <trkpt lat="40.422150" lon="-5.317617">
        <ele>2016.0</ele>
        <time>2018-06-17T11:34:50Z</time>
      </trkpt>
      <trkpt lat="40.422217" lon="-5.317633">
        <ele>2015.0</ele>
        <time>2018-06-17T11:34:51Z</time>
      </trkpt>
      <trkpt lat="40.422283" lon="-5.317650">
        <ele>2015.0</ele>
        <time>2018-06-17T11:34:52Z</time>
      </trkpt>
      <trkpt lat="40.422333" lon="-5.317667">
        <ele>2016.0</ele>
        <time>2018-06-17T11:34:53Z</time>
      </trkpt>
      <trkpt lat="40.422367" lon="-5.317667">
        <ele>2015.0</ele>
        <time>2018-06-17T11:34:54Z</time>
      </trkpt>
      <trkpt lat="40.422417" lon="-5.317667">
        <ele>2013.0</ele>
        <time>2018-06-17T11:34:55Z</time>
      </trkpt>
      <trkpt lat="40.422483" lon="-5.317650">
        <ele>2011.0</ele>
        <time>2018-06-17T11:34:56Z</time>
      </trkpt>
      <trkpt lat="40.422550" lon="-5.317633">
        <ele>2010.0</ele>
        <time>2018-06-17T11:34:57Z</time>
      </trkpt>
      <trkpt lat="40.422617" lon="-5.317617">
        <ele>2009.0</ele>
        <time>2018-06-17T11:34:58Z</time>
      </trkpt>
      <trkpt lat="40.422683" lon="-5.317617">
        <ele>2010.0</ele>
        <time>2018-06-17T11:34:59Z</time>
      </trkpt>
      <trkpt lat="40.422717" lon="-5.317633">
        <ele>2009.0</ele>
        <time>2018-06-17T11:35:00Z</time>
      </trkpt>
      <trkpt lat="40.422767" lon="-5.317617">
        <ele>2007.0</ele>
        <time>2018-06-17T11:35:01Z</time>
      </trkpt>
      <trkpt lat="40.422800" lon="-5.317600">
        <ele>2005.0</ele>
        <time>2018-06-17T11:35:02Z</time>
      </trkpt>
      <trkpt lat="40.422850" lon="-5.317567">
        <ele>2002.0</ele>
        <time>2018-06-17T11:35:03Z</time>
      </trkpt>
      <trkpt lat="40.422900" lon="-5.317567">
        <ele>2000.0</ele>
        <time>2018-06-17T11:35:04Z</time>
      </trkpt>
      <trkpt lat="40.422950" lon="-5.317567">
        <ele>1997.0</ele>
        <time>2018-06-17T11:35:05Z</time>
      </trkpt>
      <trkpt lat="40.423000" lon="-5.317583">
        <ele>1995.0</ele>
        <time>2018-06-17T11:35:06Z</time>
      </trkpt>
      <trkpt lat="40.423050" lon="-5.317600">
        <ele>1993.0</ele>
        <time>2018-06-17T11:35:07Z</time>
      </trkpt>
      <trkpt lat="40.423100" lon="-5.317617">
        <ele>1990.0</ele>
        <time>2018-06-17T11:35:08Z</time>
      </trkpt>
      <trkpt lat="40.423150" lon="-5.317633">
        <ele>1988.0</ele>
        <time>2018-06-17T11:35:09Z</time>
      </trkpt>
      <trkpt lat="40.423200" lon="-5.317667">
        <ele>1986.0</ele>
        <time>2018-06-17T11:35:10Z</time>
      </trkpt>
      <trkpt lat="40.423267" lon="-5.317700">
        <ele>1984.0</ele>
        <time>2018-06-17T11:35:11Z</time>
      </trkpt>
      <trkpt lat="40.423300" lon="-5.317750">
        <ele>1982.0</ele>
        <time>2018-06-17T11:35:12Z</time>
      </trkpt>
      <trkpt lat="40.423350" lon="-5.317783">
        <ele>1981.0</ele>
        <time>2018-06-17T11:35:13Z</time>
      </trkpt>
      <trkpt lat="40.423400" lon="-5.317817">
        <ele>1979.0</ele>
        <time>2018-06-17T11:35:14Z</time>
      </trkpt>
      <trkpt lat="40.423450" lon="-5.317867">
        <ele>1977.0</ele>
        <time>2018-06-17T11:35:15Z</time>
      </trkpt>
      <trkpt lat="40.423483" lon="-5.317917">
        <ele>1975.0</ele>
        <time>2018-06-17T11:35:16Z</time>
      </trkpt>
      <trkpt lat="40.423533" lon="-5.317950">
        <ele>1973.0</ele>
        <time>2018-06-17T11:35:17Z</time>
      </trkpt>
      <trkpt lat="40.423583" lon="-5.318000">
        <ele>1972.0</ele>
        <time>2018-06-17T11:35:18Z</time>
      </trkpt>
      <trkpt lat="40.423617" lon="-5.318050">
        <ele>1970.0</ele>
        <time>2018-06-17T11:35:19Z</time>
      </trkpt>
      <trkpt lat="40.423650" lon="-5.318133">
        <ele>1967.0</ele>
        <time>2018-06-17T11:35:20Z</time>
      </trkpt>
      <trkpt lat="40.423667" lon="-5.318233">
        <ele>1965.0</ele>
        <time>2018-06-17T11:35:21Z</time>
      </trkpt>
      <trkpt lat="40.423650" lon="-5.318350">
        <ele>1963.0</ele>
        <time>2018-06-17T11:35:22Z</time>
      </trkpt>
      <trkpt lat="40.423600" lon="-5.318467">
        <ele>1961.0</ele>
        <time>2018-06-17T11:35:23Z</time>
      </trkpt>
      <trkpt lat="40.423533" lon="-5.318567">
        <ele>1960.0</ele>
        <time>2018-06-17T11:35:24Z</time>
      </trkpt>
      <trkpt lat="40.423450" lon="-5.318650">
        <ele>1958.0</ele>
        <time>2018-06-17T11:35:25Z</time>
      </trkpt>
      <trkpt lat="40.423350" lon="-5.318717">
        <ele>1956.0</ele>
        <time>2018-06-17T11:35:26Z</time>
      </trkpt>
      <trkpt lat="40.423233" lon="-5.318767">
        <ele>1955.0</ele>
        <time>2018-06-17T11:35:27Z</time>
      </trkpt>
      <trkpt lat="40.423100" lon="-5.318783">
        <ele>1953.0</ele>
        <time>2018-06-17T11:35:28Z</time>
      </trkpt>
      <trkpt lat="40.422983" lon="-5.318783">
        <ele>1951.0</ele>
        <time>2018-06-17T11:35:29Z</time>
      </trkpt>
      <trkpt lat="40.422867" lon="-5.318750">
        <ele>1949.0</ele>
        <time>2018-06-17T11:35:30Z</time>
      </trkpt>
      <trkpt lat="40.422750" lon="-5.318683">
        <ele>1948.0</ele>
        <time>2018-06-17T11:35:31Z</time>
      </trkpt>
      <trkpt lat="40.422633" lon="-5.318600">
        <ele>1946.0</ele>
        <time>2018-06-17T11:35:32Z</time>
      </trkpt>
      <trkpt lat="40.422550" lon="-5.318500">
        <ele>1944.0</ele>
        <time>2018-06-17T11:35:33Z</time>
      </trkpt>
      <trkpt lat="40.422483" lon="-5.318400">
        <ele>1943.0</ele>
        <time>2018-06-17T11:35:34Z</time>
      </trkpt>
      <trkpt lat="40.422417" lon="-5.318283">
        <ele>1941.0</ele>
        <time>2018-06-17T11:35:35Z</time>
      </trkpt>
      <trkpt lat="40.422350" lon="-5.318183">
        <ele>1939.0</ele>
        <time>2018-06-17T11:35:36Z</time>
      </trkpt>
      <trkpt lat="40.422317" lon="-5.318067">
        <ele>1938.0</ele>
        <time>2018-06-17T11:35:37Z</time>
      </trkpt>
      <trkpt lat="40.422283" lon="-5.317933">
        <ele>1936.0</ele>
        <time>2018-06-17T11:35:38Z</time>
      </trkpt>
      <trkpt lat="40.422267" lon="-5.317817">
        <ele>1934.0</ele>
        <time>2018-06-17T11:35:39Z</time>
      </trkpt>
      <trkpt lat="40.422250" lon="-5.317700">
        <ele>1931.0</ele>
        <time>2018-06-17T11:35:40Z</time>
      </trkpt>
      <trkpt lat="40.422250" lon="-5.317583">
        <ele>1929.0</ele>
        <time>2018-06-17T11:35:41Z</time>
      </trkpt>
      <trkpt lat="40.422250" lon="-5.317467">
        <ele>1927.0</ele>
        <time>2018-06-17T11:35:42Z</time>
      </trkpt>
      <trkpt lat="40.422250" lon="-5.317350">
        <ele>1926.0</ele>
        <time>2018-06-17T11:35:43Z</time>
      </trkpt>
      <trkpt lat="40.422250" lon="-5.317250">
        <ele>1924.0</ele>
        <time>2018-06-17T11:35:44Z</time>
      </trkpt>
      <trkpt lat="40.422250" lon="-5.317133">
        <ele>1922.0</ele>
        <time>2018-06-17T11:35:45Z</time>
      </trkpt>
      <trkpt lat="40.422267" lon="-5.317033">
        <ele>1919.0</ele>
        <time>2018-06-17T11:35:46Z</time>
      </trkpt>
      <trkpt lat="40.422283" lon="-5.316933">
        <ele>1917.0</ele>
        <time>2018-06-17T11:35:47Z</time>
      </trkpt>
      <trkpt lat="40.422317" lon="-5.316817">
        <ele>1914.0</ele>
        <time>2018-06-17T11:35:48Z</time>
      </trkpt>
      <trkpt lat="40.422350" lon="-5.316700">
        <ele>1911.0</ele>
        <time>2018-06-17T11:35:49Z</time>
      </trkpt>
      <trkpt lat="40.422400" lon="-5.316600">
        <ele>1910.0</ele>
        <time>2018-06-17T11:35:50Z</time>
      </trkpt>
      <trkpt lat="40.422450" lon="-5.316500">
        <ele>1910.0</ele>
        <time>2018-06-17T11:35:51Z</time>
      </trkpt>
      <trkpt lat="40.422483" lon="-5.316417">
        <ele>1910.0</ele>
        <time>2018-06-17T11:35:52Z</time>
      </trkpt>
      <trkpt lat="40.422500" lon="-5.316317">
        <ele>1911.0</ele>
        <time>2018-06-17T11:35:53Z</time>
      </trkpt>
      <trkpt lat="40.422500" lon="-5.316200">
        <ele>1912.0</ele>
        <time>2018-06-17T11:35:54Z</time>
      </trkpt>
      <trkpt lat="40.422483" lon="-5.316083">
        <ele>1912.0</ele>
        <time>2018-06-17T11:35:55Z</time>
      </trkpt>
      <trkpt lat="40.422450" lon="-5.315950">
        <ele>1912.0</ele>
        <time>2018-06-17T11:35:56Z</time>
      </trkpt>
      <trkpt lat="40.422433" lon="-5.315817">
        <ele>1911.0</ele>
        <time>2018-06-17T11:35:57Z</time>
      </trkpt>
      <trkpt lat="40.422417" lon="-5.315683">
        <ele>1909.0</ele>
        <time>2018-06-17T11:35:58Z</time>
      </trkpt>
      <trkpt lat="40.422367" lon="-5.315550">
        <ele>1909.0</ele>
        <time>2018-06-17T11:35:59Z</time>
      </trkpt>
      <trkpt lat="40.422317" lon="-5.315433">
        <ele>1908.0</ele>
        <time>2018-06-17T11:36:00Z</time>
      </trkpt>
      <trkpt lat="40.422233" lon="-5.315317">
        <ele>1907.0</ele>
        <time>2018-06-17T11:36:01Z</time>
      </trkpt>
      <trkpt lat="40.422150" lon="-5.315200">
        <ele>1905.0</ele>
        <time>2018-06-17T11:36:02Z</time>
      </trkpt>
      <trkpt lat="40.422083" lon="-5.315083">
        <ele>1903.0</ele>
        <time>2018-06-17T11:36:03Z</time>
      </trkpt>
      <trkpt lat="40.422033" lon="-5.314950">
        <ele>1901.0</ele>
        <time>2018-06-17T11:36:04Z</time>
      </trkpt>
      <trkpt lat="40.422017" lon="-5.314833">
        <ele>1899.0</ele>
        <time>2018-06-17T11:36:05Z</time>
      </trkpt>
      <trkpt lat="40.422017" lon="-5.314733">
        <ele>1896.0</ele>
        <time>2018-06-17T11:36:06Z</time>
      </trkpt>
      <trkpt lat="40.422033" lon="-5.314633">
        <ele>1893.0</ele>
        <time>2018-06-17T11:36:07Z</time>
      </trkpt>
      <trkpt lat="40.422050" lon="-5.314533">
        <ele>1891.0</ele>
        <time>2018-06-17T11:36:08Z</time>
      </trkpt>
      <trkpt lat="40.422083" lon="-5.314467">
        <ele>1888.0</ele>
        <time>2018-06-17T11:36:09Z</time>
      </trkpt>
      <trkpt lat="40.422117" lon="-5.314383">
        <ele>1886.0</ele>
        <time>2018-06-17T11:36:10Z</time>
      </trkpt>
      <trkpt lat="40.422167" lon="-5.314333">
        <ele>1886.0</ele>
        <time>2018-06-17T11:36:11Z</time>
      </trkpt>
      <trkpt lat="40.422217" lon="-5.314283">
        <ele>1885.0</ele>
        <time>2018-06-17T11:36:12Z</time>
      </trkpt>
      <trkpt lat="40.422267" lon="-5.314267">
        <ele>1886.0</ele>
        <time>2018-06-17T11:36:13Z</time>
      </trkpt>
      <trkpt lat="40.422300" lon="-5.314233">
        <ele>1885.0</ele>
        <time>2018-06-17T11:36:14Z</time>
      </trkpt>
      <trkpt lat="40.422333" lon="-5.314200">
        <ele>1885.0</ele>
        <time>2018-06-17T11:36:15Z</time>
      </trkpt>
      <trkpt lat="40.422383" lon="-5.314150">
        <ele>1884.0</ele>
        <time>2018-06-17T11:36:16Z</time>
      </trkpt>
      <trkpt lat="40.422417" lon="-5.314100">
        <ele>1884.0</ele>
        <time>2018-06-17T11:36:17Z</time>
      </trkpt>
      <trkpt lat="40.422450" lon="-5.314017">
        <ele>1883.0</ele>
        <time>2018-06-17T11:36:18Z</time>
      </trkpt>
      <trkpt lat="40.422500" lon="-5.313950">
        <ele>1883.0</ele>
        <time>2018-06-17T11:36:19Z</time>
      </trkpt>
      <trkpt lat="40.422550" lon="-5.313867">
        <ele>1884.0</ele>
        <time>2018-06-17T11:36:20Z</time>
      </trkpt>
      <trkpt lat="40.422600" lon="-5.313817">
        <ele>1886.0</ele>
        <time>2018-06-17T11:36:21Z</time>
      </trkpt>
      <trkpt lat="40.422650" lon="-5.313783">
        <ele>1888.0</ele>
        <time>2018-06-17T11:36:22Z</time>
      </trkpt>
      <trkpt lat="40.422700" lon="-5.313750">
        <ele>1890.0</ele>
        <time>2018-06-17T11:36:23Z</time>
      </trkpt>
      <trkpt lat="40.422733" lon="-5.313717">
        <ele>1892.0</ele>
        <time>2018-06-17T11:36:24Z</time>
      </trkpt>
      <trkpt lat="40.422767" lon="-5.313700">
        <ele>1893.0</ele>
        <time>2018-06-17T11:36:25Z</time>
      </trkpt>
      <trkpt lat="40.422800" lon="-5.313683">
        <ele>1892.0</ele>
        <time>2018-06-17T11:36:26Z</time>
      </trkpt>
      <trkpt lat="40.422833" lon="-5.313667">
        <ele>1889.0</ele>
        <time>2018-06-17T11:36:27Z</time>
      </trkpt>
      <trkpt lat="40.422883" lon="-5.313700">
        <ele>1885.0</ele>
        <time>2018-06-17T11:36:28Z</time>
      </trkpt>
      <trkpt lat="40.422933" lon="-5.313733">
        <ele>1882.0</ele>
        <time>2018-06-17T11:36:29Z</time>
      </trkpt>
      <trkpt lat="40.423000" lon="-5.313783">
        <ele>1879.0</ele>
        <time>2018-06-17T11:36:30Z</time>
      </trkpt>
      <trkpt lat="40.423067" lon="-5.313817">
        <ele>1876.0</ele>
        <time>2018-06-17T11:36:31Z</time>
      </trkpt>
      <trkpt lat="40.423133" lon="-5.313833">
        <ele>1874.0</ele>
        <time>2018-06-17T11:36:32Z</time>
      </trkpt>
      <trkpt lat="40.423200" lon="-5.313817">
        <ele>1872.0</ele>
        <time>2018-06-17T11:36:33Z</time>
      </trkpt>
      <trkpt lat="40.423267" lon="-5.313783">
        <ele>1871.0</ele>
        <time>2018-06-17T11:36:34Z</time>
      </trkpt>
      <trkpt lat="40.423333" lon="-5.313733">
        <ele>1869.0</ele>
        <time>2018-06-17T11:36:35Z</time>
      </trkpt>
      <trkpt lat="40.423383" lon="-5.313650">
        <ele>1868.0</ele>
        <time>2018-06-17T11:36:36Z</time>
      </trkpt>
      <trkpt lat="40.423417" lon="-5.313550">
        <ele>1866.0</ele>
        <time>2018-06-17T11:36:37Z</time>
      </trkpt>
      <trkpt lat="40.423450" lon="-5.313450">
        <ele>1865.0</ele>
        <time>2018-06-17T11:36:38Z</time>
      </trkpt>
      <trkpt lat="40.423483" lon="-5.313317">
        <ele>1864.0</ele>
        <time>2018-06-17T11:36:39Z</time>
      </trkpt>
      <trkpt lat="40.423483" lon="-5.313200">
        <ele>1864.0</ele>
        <time>2018-06-17T11:36:40Z</time>
      </trkpt>
      <trkpt lat="40.423483" lon="-5.313067">
        <ele>1863.0</ele>
        <time>2018-06-17T11:36:41Z</time>
      </trkpt>
      <trkpt lat="40.423467" lon="-5.312933">
        <ele>1861.0</ele>
        <time>2018-06-17T11:36:42Z</time>
      </trkpt>
      <trkpt lat="40.423433" lon="-5.312817">
        <ele>1859.0</ele>
        <time>2018-06-17T11:36:43Z</time>
      </trkpt>
      <trkpt lat="40.423400" lon="-5.312700">
        <ele>1858.0</ele>
        <time>2018-06-17T11:36:44Z</time>
      </trkpt>
      <trkpt lat="40.423367" lon="-5.312567">
        <ele>1858.0</ele>
        <time>2018-06-17T11:36:45Z</time>
      </trkpt>
      <trkpt lat="40.423333" lon="-5.312433">
        <ele>1858.0</ele>
        <time>2018-06-17T11:36:46Z</time>
      </trkpt>
      <trkpt lat="40.423317" lon="-5.312300">
        <ele>1858.0</ele>
        <time>2018-06-17T11:36:47Z</time>
      </trkpt>
      <trkpt lat="40.423333" lon="-5.312183">
        <ele>1857.0</ele>
        <time>2018-06-17T11:36:48Z</time>
      </trkpt>
      <trkpt lat="40.423367" lon="-5.312083">
        <ele>1855.0</ele>
        <time>2018-06-17T11:36:49Z</time>
      </trkpt>
      <trkpt lat="40.423433" lon="-5.311983">
        <ele>1853.0</ele>
        <time>2018-06-17T11:36:50Z</time>
      </trkpt>
      <trkpt lat="40.423500" lon="-5.311917">
        <ele>1853.0</ele>
        <time>2018-06-17T11:36:51Z</time>
      </trkpt>
      <trkpt lat="40.423583" lon="-5.311900">
        <ele>1852.0</ele>
        <time>2018-06-17T11:36:52Z</time>
      </trkpt>
      <trkpt lat="40.423667" lon="-5.311933">
        <ele>1851.0</ele>
        <time>2018-06-17T11:36:53Z</time>
      </trkpt>
      <trkpt lat="40.423717" lon="-5.312000">
        <ele>1852.0</ele>
        <time>2018-06-17T11:36:54Z</time>
      </trkpt>
      <trkpt lat="40.423767" lon="-5.312083">
        <ele>1853.0</ele>
        <time>2018-06-17T11:36:55Z</time>
      </trkpt>
      <trkpt lat="40.423783" lon="-5.312183">
        <ele>1855.0</ele>
        <time>2018-06-17T11:36:56Z</time>
      </trkpt>
      <trkpt lat="40.423783" lon="-5.312283">
        <ele>1857.0</ele>
        <time>2018-06-17T11:36:57Z</time>
      </trkpt>
      <trkpt lat="40.423783" lon="-5.312383">
        <ele>1858.0</ele>
        <time>2018-06-17T11:36:58Z</time>
      </trkpt>
      <trkpt lat="40.423767" lon="-5.312483">
        <ele>1859.0</ele>
        <time>2018-06-17T11:36:59Z</time>
      </trkpt>
      <trkpt lat="40.423767" lon="-5.312583">
        <ele>1861.0</ele>
        <time>2018-06-17T11:37:00Z</time>
      </trkpt>
      <trkpt lat="40.423767" lon="-5.312683">
        <ele>1863.0</ele>
        <time>2018-06-17T11:37:01Z</time>
      </trkpt>
      <trkpt lat="40.423800" lon="-5.312767">
        <ele>1865.0</ele>
        <time>2018-06-17T11:37:02Z</time>
      </trkpt>
      <trkpt lat="40.423850" lon="-5.312833">
        <ele>1866.0</ele>
        <time>2018-06-17T11:37:03Z</time>
      </trkpt>
      <trkpt lat="40.423933" lon="-5.312850">
        <ele>1867.0</ele>
        <time>2018-06-17T11:37:04Z</time>
      </trkpt>
      <trkpt lat="40.424000" lon="-5.312833">
        <ele>1868.0</ele>
        <time>2018-06-17T11:37:05Z</time>
      </trkpt>
      <trkpt lat="40.424067" lon="-5.312750">
        <ele>1869.0</ele>
        <time>2018-06-17T11:37:06Z</time>
      </trkpt>
      <trkpt lat="40.424100" lon="-5.312650">
        <ele>1869.0</ele>
        <time>2018-06-17T11:37:07Z</time>
      </trkpt>
      <trkpt lat="40.424083" lon="-5.312500">
        <ele>1869.0</ele>
        <time>2018-06-17T11:37:08Z</time>
      </trkpt>
      <trkpt lat="40.424033" lon="-5.312367">
        <ele>1870.0</ele>
        <time>2018-06-17T11:37:09Z</time>
      </trkpt>
      <trkpt lat="40.423967" lon="-5.312250">
        <ele>1873.0</ele>
        <time>2018-06-17T11:37:10Z</time>
      </trkpt>
      <trkpt lat="40.423867" lon="-5.312167">
        <ele>1874.0</ele>
        <time>2018-06-17T11:37:11Z</time>
      </trkpt>
      <trkpt lat="40.423750" lon="-5.312133">
        <ele>1874.0</ele>
        <time>2018-06-17T11:37:12Z</time>
      </trkpt>
      <trkpt lat="40.423617" lon="-5.312133">
        <ele>1874.0</ele>
        <time>2018-06-17T11:37:13Z</time>
      </trkpt>
      <trkpt lat="40.423483" lon="-5.312183">
        <ele>1873.0</ele>
        <time>2018-06-17T11:37:14Z</time>
      </trkpt>
      <trkpt lat="40.423367" lon="-5.312250">
        <ele>1872.0</ele>
        <time>2018-06-17T11:37:15Z</time>
      </trkpt>
      <trkpt lat="40.423267" lon="-5.312367">
        <ele>1873.0</ele>
        <time>2018-06-17T11:37:16Z</time>
      </trkpt>
      <trkpt lat="40.423183" lon="-5.312500">
        <ele>1874.0</ele>
        <time>2018-06-17T11:37:17Z</time>
      </trkpt>
      <trkpt lat="40.423117" lon="-5.312633">
        <ele>1877.0</ele>
        <time>2018-06-17T11:37:18Z</time>
      </trkpt>
      <trkpt lat="40.423083" lon="-5.312750">
        <ele>1880.0</ele>
        <time>2018-06-17T11:37:19Z</time>
      </trkpt>
      <trkpt lat="40.423067" lon="-5.312850">
        <ele>1883.0</ele>
        <time>2018-06-17T11:37:20Z</time>
      </trkpt>
      <trkpt lat="40.423083" lon="-5.312950">
        <ele>1884.0</ele>
        <time>2018-06-17T11:37:21Z</time>
      </trkpt>
      <trkpt lat="40.423100" lon="-5.313017">
        <ele>1884.0</ele>
        <time>2018-06-17T11:37:22Z</time>
      </trkpt>
      <trkpt lat="40.423117" lon="-5.313100">
        <ele>1883.0</ele>
        <time>2018-06-17T11:37:23Z</time>
      </trkpt>
      <trkpt lat="40.423167" lon="-5.313167">
        <ele>1882.0</ele>
        <time>2018-06-17T11:37:24Z</time>
      </trkpt>
      <trkpt lat="40.423233" lon="-5.313200">
        <ele>1880.0</ele>
        <time>2018-06-17T11:37:25Z</time>
      </trkpt>
      <trkpt lat="40.423317" lon="-5.313200">
        <ele>1878.0</ele>
        <time>2018-06-17T11:37:26Z</time>
      </trkpt>
      <trkpt lat="40.423400" lon="-5.313133">
        <ele>1878.0</ele>
        <time>2018-06-17T11:37:27Z</time>
      </trkpt>
      <trkpt lat="40.423467" lon="-5.313050">
        <ele>1878.0</ele>
        <time>2018-06-17T11:37:28Z</time>
      </trkpt>
      <trkpt lat="40.423517" lon="-5.312933">
        <ele>1880.0</ele>
        <time>2018-06-17T11:37:29Z</time>
      </trkpt>
      <trkpt lat="40.423533" lon="-5.312833">
        <ele>1882.0</ele>
        <time>2018-06-17T11:37:30Z</time>
      </trkpt>
      <trkpt lat="40.423517" lon="-5.312717">
        <ele>1884.0</ele>
        <time>2018-06-17T11:37:31Z</time>
      </trkpt>
      <trkpt lat="40.423483" lon="-5.312617">
        <ele>1883.0</ele>
        <time>2018-06-17T11:37:32Z</time>
      </trkpt>
      <trkpt lat="40.423433" lon="-5.312500">
        <ele>1882.0</ele>
        <time>2018-06-17T11:37:33Z</time>
      </trkpt>
      <trkpt lat="40.423367" lon="-5.312383">
        <ele>1882.0</ele>
        <time>2018-06-17T11:37:34Z</time>
      </trkpt>
      <trkpt lat="40.423283" lon="-5.312283">
        <ele>1883.0</ele>
        <time>2018-06-17T11:37:35Z</time>
      </trkpt>
      <trkpt lat="40.423167" lon="-5.312233">
        <ele>1882.0</ele>
        <time>2018-06-17T11:37:36Z</time>
      </trkpt>
      <trkpt lat="40.423033" lon="-5.312250">
        <ele>1880.0</ele>
        <time>2018-06-17T11:37:37Z</time>
      </trkpt>
      <trkpt lat="40.422900" lon="-5.312317">
        <ele>1877.0</ele>
        <time>2018-06-17T11:37:38Z</time>
      </trkpt>
      <trkpt lat="40.422800" lon="-5.312433">
        <ele>1876.0</ele>
        <time>2018-06-17T11:37:39Z</time>
      </trkpt>
      <trkpt lat="40.422733" lon="-5.312567">
        <ele>1877.0</ele>
        <time>2018-06-17T11:37:40Z</time>
      </trkpt>
      <trkpt lat="40.422700" lon="-5.312700">
        <ele>1881.0</ele>
        <time>2018-06-17T11:37:41Z</time>
      </trkpt>
      <trkpt lat="40.422683" lon="-5.312800">
        <ele>1885.0</ele>
        <time>2018-06-17T11:37:42Z</time>
      </trkpt>
      <trkpt lat="40.422667" lon="-5.312883">
        <ele>1888.0</ele>
        <time>2018-06-17T11:37:43Z</time>
      </trkpt>
      <trkpt lat="40.422667" lon="-5.312950">
        <ele>1888.0</ele>
        <time>2018-06-17T11:37:44Z</time>
      </trkpt>
      <trkpt lat="40.422667" lon="-5.313017">
        <ele>1888.0</ele>
        <time>2018-06-17T11:37:45Z</time>
      </trkpt>
      <trkpt lat="40.422700" lon="-5.313117">
        <ele>1887.0</ele>
        <time>2018-06-17T11:37:46Z</time>
      </trkpt>
      <trkpt lat="40.422733" lon="-5.313200">
        <ele>1887.0</ele>
        <time>2018-06-17T11:37:47Z</time>
      </trkpt>
      <trkpt lat="40.422783" lon="-5.313267">
        <ele>1887.0</ele>
        <time>2018-06-17T11:37:48Z</time>
      </trkpt>
      <trkpt lat="40.422867" lon="-5.313300">
        <ele>1887.0</ele>
        <time>2018-06-17T11:37:49Z</time>
      </trkpt>
      <trkpt lat="40.422933" lon="-5.313283">
        <ele>1888.0</ele>
        <time>2018-06-17T11:37:50Z</time>
      </trkpt>
      <trkpt lat="40.423017" lon="-5.313250">
        <ele>1889.0</ele>
        <time>2018-06-17T11:37:51Z</time>
      </trkpt>
      <trkpt lat="40.423083" lon="-5.313200">
        <ele>1890.0</ele>
        <time>2018-06-17T11:37:52Z</time>
      </trkpt>
      <trkpt lat="40.423133" lon="-5.313133">
        <ele>1891.0</ele>
        <time>2018-06-17T11:37:53Z</time>
      </trkpt>
      <trkpt lat="40.423150" lon="-5.313017">
        <ele>1891.0</ele>
        <time>2018-06-17T11:37:54Z</time>
      </trkpt>
      <trkpt lat="40.423150" lon="-5.312900">
        <ele>1890.0</ele>
        <time>2018-06-17T11:37:55Z</time>
      </trkpt>
      <trkpt lat="40.423133" lon="-5.312767">
        <ele>1890.0</ele>
        <time>2018-06-17T11:37:56Z</time>
      </trkpt>
      <trkpt lat="40.423117" lon="-5.312650">
        <ele>1891.0</ele>
        <time>2018-06-17T11:37:57Z</time>
      </trkpt>
      <trkpt lat="40.423100" lon="-5.312550">
        <ele>1891.0</ele>
        <time>2018-06-17T11:37:58Z</time>
      </trkpt>
      <trkpt lat="40.423083" lon="-5.312450">
        <ele>1891.0</ele>
        <time>2018-06-17T11:37:59Z</time>
      </trkpt>
      <trkpt lat="40.423067" lon="-5.312350">
        <ele>1890.0</ele>
        <time>2018-06-17T11:38:00Z</time>
      </trkpt>
      <trkpt lat="40.423067" lon="-5.312250">
        <ele>1889.0</ele>
        <time>2018-06-17T11:38:01Z</time>
      </trkpt>
      <trkpt lat="40.423083" lon="-5.312167">
        <ele>1887.0</ele>
        <time>2018-06-17T11:38:02Z</time>
      </trkpt>
      <trkpt lat="40.423117" lon="-5.312083">
        <ele>1886.0</ele>
        <time>2018-06-17T11:38:03Z</time>
      </trkpt>
      <trkpt lat="40.423167" lon="-5.312050">
        <ele>1885.0</ele>
        <time>2018-06-17T11:38:04Z</time>
      </trkpt>
      <trkpt lat="40.423233" lon="-5.312033">
        <ele>1884.0</ele>
        <time>2018-06-17T11:38:05Z</time>
      </trkpt>
      <trkpt lat="40.423283" lon="-5.312050">
        <ele>1883.0</ele>
        <time>2018-06-17T11:38:06Z</time>
      </trkpt>
      <trkpt lat="40.423350" lon="-5.312083">
        <ele>1883.0</ele>
        <time>2018-06-17T11:38:07Z</time>
      </trkpt>
      <trkpt lat="40.423400" lon="-5.312133">
        <ele>1882.0</ele>
        <time>2018-06-17T11:38:08Z</time>
      </trkpt>
      <trkpt lat="40.423433" lon="-5.312200">
        <ele>1881.0</ele>
        <time>2018-06-17T11:38:09Z</time>
      </trkpt>
      <trkpt lat="40.423483" lon="-5.312267">
        <ele>1880.0</ele>
        <time>2018-06-17T11:38:10Z</time>
      </trkpt>
      <trkpt lat="40.423533" lon="-5.312333">
        <ele>1877.0</ele>
        <time>2018-06-17T11:38:11Z</time>
      </trkpt>
      <trkpt lat="40.423600" lon="-5.312417">
        <ele>1875.0</ele>
        <time>2018-06-17T11:38:12Z</time>
      </trkpt>
      <trkpt lat="40.423650" lon="-5.312500">
        <ele>1873.0</ele>
        <time>2018-06-17T11:38:13Z</time>
      </trkpt>
      <trkpt lat="40.423717" lon="-5.312550">
        <ele>1872.0</ele>
        <time>2018-06-17T11:38:14Z</time>
      </trkpt>
      <trkpt lat="40.423783" lon="-5.312600">
        <ele>1870.0</ele>
        <time>2018-06-17T11:38:15Z</time>
      </trkpt>
      <trkpt lat="40.423850" lon="-5.312617">
        <ele>1869.0</ele>
        <time>2018-06-17T11:38:16Z</time>
      </trkpt>
      <trkpt lat="40.423933" lon="-5.312650">
        <ele>1868.0</ele>
        <time>2018-06-17T11:38:17Z</time>
      </trkpt>
      <trkpt lat="40.424000" lon="-5.312683">
        <ele>1867.0</ele>
        <time>2018-06-17T11:38:18Z</time>
      </trkpt>
      <trkpt lat="40.424067" lon="-5.312733">
        <ele>1866.0</ele>
        <time>2018-06-17T11:38:19Z</time>
      </trkpt>
      <trkpt lat="40.424133" lon="-5.312767">
        <ele>1866.0</ele>
        <time>2018-06-17T11:38:20Z</time>
      </trkpt>
      <trkpt lat="40.424200" lon="-5.312800">
        <ele>1865.0</ele>
        <time>2018-06-17T11:38:21Z</time>
      </trkpt>
      <trkpt lat="40.424267" lon="-5.312833">
        <ele>1864.0</ele>
        <time>2018-06-17T11:38:22Z</time>
      </trkpt>
      <trkpt lat="40.424333" lon="-5.312883">
        <ele>1864.0</ele>
        <time>2018-06-17T11:38:23Z</time>
      </trkpt>
      <trkpt lat="40.424400" lon="-5.312933">
        <ele>1863.0</ele>
        <time>2018-06-17T11:38:24Z</time>
      </trkpt>
      <trkpt lat="40.424467" lon="-5.312983">
        <ele>1862.0</ele>
        <time>2018-06-17T11:38:25Z</time>
      </trkpt>
      <trkpt lat="40.424533" lon="-5.313017">
        <ele>1861.0</ele>
        <time>2018-06-17T11:38:26Z</time>
      </trkpt>
      <trkpt lat="40.424617" lon="-5.313033">
        <ele>1861.0</ele>
        <time>2018-06-17T11:38:27Z</time>
      </trkpt>
      <trkpt lat="40.424683" lon="-5.313050">
        <ele>1861.0</ele>
        <time>2018-06-17T11:38:28Z</time>
      </trkpt>
      <trkpt lat="40.424767" lon="-5.313083">
        <ele>1862.0</ele>
        <time>2018-06-17T11:38:29Z</time>
      </trkpt>
      <trkpt lat="40.424850" lon="-5.313133">
        <ele>1862.0</ele>
        <time>2018-06-17T11:38:30Z</time>
      </trkpt>
      <trkpt lat="40.424917" lon="-5.313183">
        <ele>1864.0</ele>
        <time>2018-06-17T11:38:31Z</time>
      </trkpt>
      <trkpt lat="40.424983" lon="-5.313217">
        <ele>1865.0</ele>
        <time>2018-06-17T11:38:32Z</time>
      </trkpt>
      <trkpt lat="40.425050" lon="-5.313267">
        <ele>1867.0</ele>
        <time>2018-06-17T11:38:33Z</time>
      </trkpt>
      <trkpt lat="40.425100" lon="-5.313317">
        <ele>1868.0</ele>
        <time>2018-06-17T11:38:34Z</time>
      </trkpt>
      <trkpt lat="40.425133" lon="-5.313400">
        <ele>1869.0</ele>
        <time>2018-06-17T11:38:35Z</time>
      </trkpt>
      <trkpt lat="40.425133" lon="-5.313500">
        <ele>1867.0</ele>
        <time>2018-06-17T11:38:36Z</time>
      </trkpt>
      <trkpt lat="40.425117" lon="-5.313633">
        <ele>1865.0</ele>
        <time>2018-06-17T11:38:37Z</time>
      </trkpt>
      <trkpt lat="40.425067" lon="-5.313767">
        <ele>1862.0</ele>
        <time>2018-06-17T11:38:38Z</time>
      </trkpt>
      <trkpt lat="40.424983" lon="-5.313883">
        <ele>1861.0</ele>
        <time>2018-06-17T11:38:39Z</time>
      </trkpt>
      <trkpt lat="40.424867" lon="-5.313950">
        <ele>1861.0</ele>
        <time>2018-06-17T11:38:40Z</time>
      </trkpt>
      <trkpt lat="40.424733" lon="-5.313983">
        <ele>1860.0</ele>
        <time>2018-06-17T11:38:41Z</time>
      </trkpt>
      <trkpt lat="40.424617" lon="-5.313950">
        <ele>1858.0</ele>
        <time>2018-06-17T11:38:42Z</time>
      </trkpt>
      <trkpt lat="40.424500" lon="-5.313883">
        <ele>1856.0</ele>
        <time>2018-06-17T11:38:43Z</time>
      </trkpt>
      <trkpt lat="40.424417" lon="-5.313767">
        <ele>1854.0</ele>
        <time>2018-06-17T11:38:44Z</time>
      </trkpt>
      <trkpt lat="40.424350" lon="-5.313650">
        <ele>1853.0</ele>
        <time>2018-06-17T11:38:45Z</time>
      </trkpt>
      <trkpt lat="40.424317" lon="-5.313500">
        <ele>1853.0</ele>
        <time>2018-06-17T11:38:46Z</time>
      </trkpt>
      <trkpt lat="40.424283" lon="-5.313383">
        <ele>1855.0</ele>
        <time>2018-06-17T11:38:47Z</time>
      </trkpt>
      <trkpt lat="40.424267" lon="-5.313267">
        <ele>1857.0</ele>
        <time>2018-06-17T11:38:48Z</time>
      </trkpt>
      <trkpt lat="40.424250" lon="-5.313150">
        <ele>1858.0</ele>
        <time>2018-06-17T11:38:49Z</time>
      </trkpt>
      <trkpt lat="40.424217" lon="-5.313033">
        <ele>1858.0</ele>
        <time>2018-06-17T11:38:50Z</time>
      </trkpt>
      <trkpt lat="40.424183" lon="-5.312917">
        <ele>1858.0</ele>
        <time>2018-06-17T11:38:51Z</time>
      </trkpt>
      <trkpt lat="40.424183" lon="-5.312800">
        <ele>1858.0</ele>
        <time>2018-06-17T11:38:52Z</time>
      </trkpt>
      <trkpt lat="40.424200" lon="-5.312683">
        <ele>1857.0</ele>
        <time>2018-06-17T11:38:53Z</time>
      </trkpt>
      <trkpt lat="40.424217" lon="-5.312583">
        <ele>1856.0</ele>
        <time>2018-06-17T11:38:54Z</time>
      </trkpt>
      <trkpt lat="40.424217" lon="-5.312450">
        <ele>1855.0</ele>
        <time>2018-06-17T11:38:55Z</time>
      </trkpt>
      <trkpt lat="40.424200" lon="-5.312333">
        <ele>1854.0</ele>
        <time>2018-06-17T11:38:56Z</time>
      </trkpt>
      <trkpt lat="40.424167" lon="-5.312200">
        <ele>1853.0</ele>
        <time>2018-06-17T11:38:57Z</time>
      </trkpt>
      <trkpt lat="40.424133" lon="-5.312100">
        <ele>1853.0</ele>
        <time>2018-06-17T11:38:58Z</time>
      </trkpt>
      <trkpt lat="40.424083" lon="-5.312000">
        <ele>1852.0</ele>
        <time>2018-06-17T11:38:59Z</time>
      </trkpt>
      <trkpt lat="40.424050" lon="-5.311900">
        <ele>1850.0</ele>
        <time>2018-06-17T11:39:00Z</time>
      </trkpt>
      <trkpt lat="40.424017" lon="-5.311783">
        <ele>1848.0</ele>
        <time>2018-06-17T11:39:01Z</time>
      </trkpt>
      <trkpt lat="40.424017" lon="-5.311667">
        <ele>1847.0</ele>
        <time>2018-06-17T11:39:02Z</time>
      </trkpt>
      <trkpt lat="40.424017" lon="-5.311567">
        <ele>1846.0</ele>
        <time>2018-06-17T11:39:03Z</time>
      </trkpt>
      <trkpt lat="40.424050" lon="-5.311500">
        <ele>1845.0</ele>
        <time>2018-06-17T11:39:04Z</time>
      </trkpt>
      <trkpt lat="40.424083" lon="-5.311450">
        <ele>1845.0</ele>
        <time>2018-06-17T11:39:05Z</time>
      </trkpt>
      <trkpt lat="40.424150" lon="-5.311433">
        <ele>1844.0</ele>
        <time>2018-06-17T11:39:06Z</time>
      </trkpt>
      <trkpt lat="40.424217" lon="-5.311467">
        <ele>1842.0</ele>
        <time>2018-06-17T11:39:07Z</time>
      </trkpt>
      <trkpt lat="40.424283" lon="-5.311517">
        <ele>1841.0</ele>
        <time>2018-06-17T11:39:08Z</time>
      </trkpt>
      <trkpt lat="40.424333" lon="-5.311600">
        <ele>1839.0</ele>
        <time>2018-06-17T11:39:09Z</time>
      </trkpt>
      <trkpt lat="40.424400" lon="-5.311683">
        <ele>1838.0</ele>
        <time>2018-06-17T11:39:10Z</time>
      </trkpt>
      <trkpt lat="40.424450" lon="-5.311767">
        <ele>1837.0</ele>
        <time>2018-06-17T11:39:11Z</time>
      </trkpt>
      <trkpt lat="40.424500" lon="-5.311833">
        <ele>1836.0</ele>
        <time>2018-06-17T11:39:12Z</time>
      </trkpt>
      <trkpt lat="40.424550" lon="-5.311900">
        <ele>1834.0</ele>
        <time>2018-06-17T11:39:13Z</time>
      </trkpt>
      <trkpt lat="40.424617" lon="-5.311967">
        <ele>1833.0</ele>
        <time>2018-06-17T11:39:14Z</time>
      </trkpt>
      <trkpt lat="40.424683" lon="-5.312033">
        <ele>1832.0</ele>
        <time>2018-06-17T11:39:15Z</time>
      </trkpt>
      <trkpt lat="40.424750" lon="-5.312117">
        <ele>1832.0</ele>
        <time>2018-06-17T11:39:16Z</time>
      </trkpt>
      <trkpt lat="40.424817" lon="-5.312200">
        <ele>1834.0</ele>
        <time>2018-06-17T11:39:17Z</time>
      </trkpt>
      <trkpt lat="40.424850" lon="-5.312283">
        <ele>1835.0</ele>
        <time>2018-06-17T11:39:18Z</time>
      </trkpt>
      <trkpt lat="40.424917" lon="-5.312350">
        <ele>1837.0</ele>
        <time>2018-06-17T11:39:19Z</time>
      </trkpt>
      <trkpt lat="40.424967" lon="-5.312400">
        <ele>1837.0</ele>
        <time>2018-06-17T11:39:20Z</time>
      </trkpt>
      <trkpt lat="40.425033" lon="-5.312467">
        <ele>1839.0</ele>
        <time>2018-06-17T11:39:21Z</time>
      </trkpt>
      <trkpt lat="40.425083" lon="-5.312550">
        <ele>1842.0</ele>
        <time>2018-06-17T11:39:22Z</time>
      </trkpt>
      <trkpt lat="40.425117" lon="-5.312633">
        <ele>1844.0</ele>
        <time>2018-06-17T11:39:23Z</time>
      </trkpt>
      <trkpt lat="40.425117" lon="-5.312733">
        <ele>1844.0</ele>
        <time>2018-06-17T11:39:24Z</time>
      </trkpt>
      <trkpt lat="40.425083" lon="-5.312850">
        <ele>1843.0</ele>
        <time>2018-06-17T11:39:25Z</time>
      </trkpt>
      <trkpt lat="40.425033" lon="-5.312967">
        <ele>1842.0</ele>
        <time>2018-06-17T11:39:26Z</time>
      </trkpt>
      <trkpt lat="40.424950" lon="-5.313083">
        <ele>1841.0</ele>
        <time>2018-06-17T11:39:27Z</time>
      </trkpt>
      <trkpt lat="40.424850" lon="-5.313167">
        <ele>1842.0</ele>
        <time>2018-06-17T11:39:28Z</time>
      </trkpt>
      <trkpt lat="40.424750" lon="-5.313217">
        <ele>1842.0</ele>
        <time>2018-06-17T11:39:29Z</time>
      </trkpt>
      <trkpt lat="40.424633" lon="-5.313217">
        <ele>1842.0</ele>
        <time>2018-06-17T11:39:30Z</time>
      </trkpt>
      <trkpt lat="40.424517" lon="-5.313183">
        <ele>1841.0</ele>
        <time>2018-06-17T11:39:31Z</time>
      </trkpt>
      <trkpt lat="40.424417" lon="-5.313150">
        <ele>1842.0</ele>
        <time>2018-06-17T11:39:32Z</time>
      </trkpt>
      <trkpt lat="40.424317" lon="-5.313083">
        <ele>1842.0</ele>
        <time>2018-06-17T11:39:33Z</time>
      </trkpt>
      <trkpt lat="40.424233" lon="-5.313000">
        <ele>1842.0</ele>
        <time>2018-06-17T11:39:34Z</time>
      </trkpt>
      <trkpt lat="40.424167" lon="-5.312900">
        <ele>1842.0</ele>
        <time>2018-06-17T11:39:35Z</time>
      </trkpt>
      <trkpt lat="40.424133" lon="-5.312783">
        <ele>1841.0</ele>
        <time>2018-06-17T11:39:36Z</time>
      </trkpt>
      <trkpt lat="40.424067" lon="-5.312667">
        <ele>1842.0</ele>
        <time>2018-06-17T11:39:37Z</time>
      </trkpt>
      <trkpt lat="40.424000" lon="-5.312533">
        <ele>1844.0</ele>
        <time>2018-06-17T11:39:38Z</time>
      </trkpt>
      <trkpt lat="40.423950" lon="-5.312433">
        <ele>1847.0</ele>
        <time>2018-06-17T11:39:39Z</time>
      </trkpt>
      <trkpt lat="40.423900" lon="-5.312333">
        <ele>1849.0</ele>
        <time>2018-06-17T11:39:40Z</time>
      </trkpt>
      <trkpt lat="40.423850" lon="-5.312267">
        <ele>1850.0</ele>
        <time>2018-06-17T11:39:41Z</time>
      </trkpt>
      <trkpt lat="40.423833" lon="-5.312167">
        <ele>1849.0</ele>
        <time>2018-06-17T11:39:42Z</time>
      </trkpt>
      <trkpt lat="40.423817" lon="-5.312067">
        <ele>1847.0</ele>
        <time>2018-06-17T11:39:43Z</time>
      </trkpt>
      <trkpt lat="40.423833" lon="-5.311950">
        <ele>1845.0</ele>
        <time>2018-06-17T11:39:44Z</time>
      </trkpt>
      <trkpt lat="40.423867" lon="-5.311850">
        <ele>1843.0</ele>
        <time>2018-06-17T11:39:45Z</time>
      </trkpt>
      <trkpt lat="40.423917" lon="-5.311767">
        <ele>1844.0</ele>
        <time>2018-06-17T11:39:46Z</time>
      </trkpt>
      <trkpt lat="40.423950" lon="-5.311700">
        <ele>1845.0</ele>
        <time>2018-06-17T11:39:47Z</time>
      </trkpt>
      <trkpt lat="40.423983" lon="-5.311617">
        <ele>1846.0</ele>
        <time>2018-06-17T11:39:48Z</time>
      </trkpt>
      <trkpt lat="40.424000" lon="-5.311517">
        <ele>1846.0</ele>
        <time>2018-06-17T11:39:49Z</time>
      </trkpt>
      <trkpt lat="40.424017" lon="-5.311417">
        <ele>1846.0</ele>
        <time>2018-06-17T11:39:50Z</time>
      </trkpt>
      <trkpt lat="40.424067" lon="-5.311350">
        <ele>1846.0</ele>
        <time>2018-06-17T11:39:51Z</time>
      </trkpt>
      <trkpt lat="40.424133" lon="-5.311317">
        <ele>1846.0</ele>
        <time>2018-06-17T11:39:52Z</time>
      </trkpt>
      <trkpt lat="40.424200" lon="-5.311333">
        <ele>1847.0</ele>
        <time>2018-06-17T11:39:53Z</time>
      </trkpt>
      <trkpt lat="40.424267" lon="-5.311350">
        <ele>1849.0</ele>
        <time>2018-06-17T11:39:54Z</time>
      </trkpt>
      <trkpt lat="40.424300" lon="-5.311400">
        <ele>1851.0</ele>
        <time>2018-06-17T11:39:55Z</time>
      </trkpt>
      <trkpt lat="40.424333" lon="-5.311467">
        <ele>1852.0</ele>
        <time>2018-06-17T11:39:56Z</time>
      </trkpt>
      <trkpt lat="40.424367" lon="-5.311550">
        <ele>1853.0</ele>
        <time>2018-06-17T11:39:57Z</time>
      </trkpt>
      <trkpt lat="40.424400" lon="-5.311633">
        <ele>1854.0</ele>
        <time>2018-06-17T11:39:58Z</time>
      </trkpt>
      <trkpt lat="40.424433" lon="-5.311717">
        <ele>1854.0</ele>
        <time>2018-06-17T11:39:59Z</time>
      </trkpt>
      <trkpt lat="40.424467" lon="-5.311817">
        <ele>1855.0</ele>
        <time>2018-06-17T11:40:00Z</time>
      </trkpt>
      <trkpt lat="40.424500" lon="-5.311917">
        <ele>1858.0</ele>
        <time>2018-06-17T11:40:01Z</time>
      </trkpt>
      <trkpt lat="40.424500" lon="-5.312017">
        <ele>1860.0</ele>
        <time>2018-06-17T11:40:02Z</time>
      </trkpt>
      <trkpt lat="40.424467" lon="-5.312117">
        <ele>1862.0</ele>
        <time>2018-06-17T11:40:03Z</time>
      </trkpt>
      <trkpt lat="40.424400" lon="-5.312233">
        <ele>1862.0</ele>
        <time>2018-06-17T11:40:04Z</time>
      </trkpt>
      <trkpt lat="40.424300" lon="-5.312333">
        <ele>1862.0</ele>
        <time>2018-06-17T11:40:05Z</time>
      </trkpt>
      <trkpt lat="40.424183" lon="-5.312417">
        <ele>1862.0</ele>
        <time>2018-06-17T11:40:06Z</time>
      </trkpt>
      <trkpt lat="40.424067" lon="-5.312467">
        <ele>1864.0</ele>
        <time>2018-06-17T11:40:07Z</time>
      </trkpt>
      <trkpt lat="40.423950" lon="-5.312500">
        <ele>1867.0</ele>
        <time>2018-06-17T11:40:08Z</time>
      </trkpt>
      <trkpt lat="40.423817" lon="-5.312500">
        <ele>1869.0</ele>
        <time>2018-06-17T11:40:09Z</time>
      </trkpt>
      <trkpt lat="40.423700" lon="-5.312467">
        <ele>1869.0</ele>
        <time>2018-06-17T11:40:10Z</time>
      </trkpt>
      <trkpt lat="40.423583" lon="-5.312400">
        <ele>1868.0</ele>
        <time>2018-06-17T11:40:11Z</time>
      </trkpt>
      <trkpt lat="40.423467" lon="-5.312300">
        <ele>1869.0</ele>
        <time>2018-06-17T11:40:12Z</time>
      </trkpt>
      <trkpt lat="40.423367" lon="-5.312167">
        <ele>1871.0</ele>
        <time>2018-06-17T11:40:13Z</time>
      </trkpt>
      <trkpt lat="40.423300" lon="-5.312033">
        <ele>1874.0</ele>
        <time>2018-06-17T11:40:14Z</time>
      </trkpt>
      <trkpt lat="40.423250" lon="-5.311917">
        <ele>1876.0</ele>
        <time>2018-06-17T11:40:15Z</time>
      </trkpt>
      <trkpt lat="40.423233" lon="-5.311783">
        <ele>1877.0</ele>
        <time>2018-06-17T11:40:16Z</time>
      </trkpt>
      <trkpt lat="40.423233" lon="-5.311650">
        <ele>1878.0</ele>
        <time>2018-06-17T11:40:17Z</time>
      </trkpt>
      <trkpt lat="40.423250" lon="-5.311533">
        <ele>1879.0</ele>
        <time>2018-06-17T11:40:18Z</time>
      </trkpt>
      <trkpt lat="40.423267" lon="-5.311417">
        <ele>1881.0</ele>
        <time>2018-06-17T11:40:19Z</time>
      </trkpt>
      <trkpt lat="40.423283" lon="-5.311300">
        <ele>1882.0</ele>
        <time>2018-06-17T11:40:20Z</time>
      </trkpt>
      <trkpt lat="40.423317" lon="-5.311233">
        <ele>1884.0</ele>
        <time>2018-06-17T11:40:21Z</time>
      </trkpt>
      <trkpt lat="40.423367" lon="-5.311167">
        <ele>1886.0</ele>
        <time>2018-06-17T11:40:22Z</time>
      </trkpt>
      <trkpt lat="40.423417" lon="-5.311117">
        <ele>1887.0</ele>
        <time>2018-06-17T11:40:23Z</time>
      </trkpt>
      <trkpt lat="40.423450" lon="-5.311083">
        <ele>1888.0</ele>
        <time>2018-06-17T11:40:24Z</time>
      </trkpt>
      <trkpt lat="40.423483" lon="-5.311067">
        <ele>1889.0</ele>
        <time>2018-06-17T11:40:25Z</time>
      </trkpt>
      <trkpt lat="40.423517" lon="-5.311067">
        <ele>1890.0</ele>
        <time>2018-06-17T11:40:26Z</time>
      </trkpt>
      <trkpt lat="40.423567" lon="-5.311100">
        <ele>1889.0</ele>
        <time>2018-06-17T11:40:27Z</time>
      </trkpt>
      <trkpt lat="40.423600" lon="-5.311167">
        <ele>1889.0</ele>
        <time>2018-06-17T11:40:28Z</time>
      </trkpt>
      <trkpt lat="40.423633" lon="-5.311217">
        <ele>1890.0</ele>
        <time>2018-06-17T11:40:29Z</time>
      </trkpt>
      <trkpt lat="40.423650" lon="-5.311300">
        <ele>1890.0</ele>
        <time>2018-06-17T11:40:30Z</time>
      </trkpt>
      <trkpt lat="40.423667" lon="-5.311367">
        <ele>1890.0</ele>
        <time>2018-06-17T11:40:31Z</time>
      </trkpt>
      <trkpt lat="40.423667" lon="-5.311450">
        <ele>1890.0</ele>
        <time>2018-06-17T11:40:32Z</time>
      </trkpt>
      <trkpt lat="40.423683" lon="-5.311550">
        <ele>1889.0</ele>
        <time>2018-06-17T11:40:33Z</time>
      </trkpt>
      <trkpt lat="40.423683" lon="-5.311650">
        <ele>1888.0</ele>
        <time>2018-06-17T11:40:34Z</time>
      </trkpt>
      <trkpt lat="40.423683" lon="-5.311767">
        <ele>1888.0</ele>
        <time>2018-06-17T11:40:35Z</time>
      </trkpt>
      <trkpt lat="40.423667" lon="-5.311883">
        <ele>1888.0</ele>
        <time>2018-06-17T11:40:36Z</time>
      </trkpt>
      <trkpt lat="40.423650" lon="-5.312000">
        <ele>1889.0</ele>
        <time>2018-06-17T11:40:37Z</time>
      </trkpt>
      <trkpt lat="40.423617" lon="-5.312117">
        <ele>1890.0</ele>
        <time>2018-06-17T11:40:38Z</time>
      </trkpt>
      <trkpt lat="40.423583" lon="-5.312233">
        <ele>1891.0</ele>
        <time>2018-06-17T11:40:39Z</time>
      </trkpt>
      <trkpt lat="40.423550" lon="-5.312350">
        <ele>1892.0</ele>
        <time>2018-06-17T11:40:40Z</time>
      </trkpt>
      <trkpt lat="40.423517" lon="-5.312467">
        <ele>1892.0</ele>
        <time>2018-06-17T11:40:41Z</time>
      </trkpt>
      <trkpt lat="40.423483" lon="-5.312583">
        <ele>1893.0</ele>
        <time>2018-06-17T11:40:42Z</time>
      </trkpt>
      <trkpt lat="40.423450" lon="-5.312700">
        <ele>1894.0</ele>
        <time>2018-06-17T11:40:43Z</time>
      </trkpt>
      <trkpt lat="40.423450" lon="-5.312800">
        <ele>1896.0</ele>
        <time>2018-06-17T11:40:44Z</time>
      </trkpt>
      <trkpt lat="40.423467" lon="-5.312883">
        <ele>1898.0</ele>
        <time>2018-06-17T11:40:45Z</time>
      </trkpt>
      <trkpt lat="40.423500" lon="-5.312917">
        <ele>1900.0</ele>
        <time>2018-06-17T11:40:46Z</time>
      </trkpt>
      <trkpt lat="40.423550" lon="-5.312933">
        <ele>1901.0</ele>
        <time>2018-06-17T11:40:47Z</time>
      </trkpt>
      <trkpt lat="40.423600" lon="-5.312917">
        <ele>1903.0</ele>
        <time>2018-06-17T11:40:48Z</time>
      </trkpt>
      <trkpt lat="40.423633" lon="-5.312867">
        <ele>1905.0</ele>
        <time>2018-06-17T11:40:49Z</time>
      </trkpt>
      <trkpt lat="40.423667" lon="-5.312767">
        <ele>1907.0</ele>
        <time>2018-06-17T11:40:50Z</time>
      </trkpt>
      <trkpt lat="40.423650" lon="-5.312650">
        <ele>1908.0</ele>
        <time>2018-06-17T11:40:51Z</time>
      </trkpt>
      <trkpt lat="40.423600" lon="-5.312517">
        <ele>1909.0</ele>
        <time>2018-06-17T11:40:52Z</time>
      </trkpt>
      <trkpt lat="40.423533" lon="-5.312383">
        <ele>1909.0</ele>
        <time>2018-06-17T11:40:53Z</time>
      </trkpt>
      <trkpt lat="40.423417" lon="-5.312283">
        <ele>1910.0</ele>
        <time>2018-06-17T11:40:54Z</time>
      </trkpt>
      <trkpt lat="40.423283" lon="-5.312217">
        <ele>1910.0</ele>
        <time>2018-06-17T11:40:55Z</time>
      </trkpt>
      <trkpt lat="40.423133" lon="-5.312183">
        <ele>1911.0</ele>
        <time>2018-06-17T11:40:56Z</time>
      </trkpt>
      <trkpt lat="40.422983" lon="-5.312200">
        <ele>1911.0</ele>
        <time>2018-06-17T11:40:57Z</time>
      </trkpt>
      <trkpt lat="40.422833" lon="-5.312250">
        <ele>1912.0</ele>
        <time>2018-06-17T11:40:58Z</time>
      </trkpt>
      <trkpt lat="40.422717" lon="-5.312333">
        <ele>1913.0</ele>
        <time>2018-06-17T11:40:59Z</time>
      </trkpt>
      <trkpt lat="40.422617" lon="-5.312433">
        <ele>1913.0</ele>
        <time>2018-06-17T11:41:00Z</time>
      </trkpt>
      <trkpt lat="40.422533" lon="-5.312567">
        <ele>1913.0</ele>
        <time>2018-06-17T11:41:01Z</time>
      </trkpt>
      <trkpt lat="40.422483" lon="-5.312700">
        <ele>1914.0</ele>
        <time>2018-06-17T11:41:02Z</time>
      </trkpt>
      <trkpt lat="40.422433" lon="-5.312817">
        <ele>1916.0</ele>
        <time>2018-06-17T11:41:03Z</time>
      </trkpt>
      <trkpt lat="40.422417" lon="-5.312900">
        <ele>1918.0</ele>
        <time>2018-06-17T11:41:04Z</time>
      </trkpt>
      <trkpt lat="40.422400" lon="-5.312983">
        <ele>1919.0</ele>
        <time>2018-06-17T11:41:05Z</time>
      </trkpt>
      <trkpt lat="40.422417" lon="-5.313067">
        <ele>1919.0</ele>
        <time>2018-06-17T11:41:06Z</time>
      </trkpt>
      <trkpt lat="40.422450" lon="-5.313133">
        <ele>1921.0</ele>
        <time>2018-06-17T11:41:07Z</time>
      </trkpt>
      <trkpt lat="40.422467" lon="-5.313167">
        <ele>1923.0</ele>
        <time>2018-06-17T11:41:08Z</time>
      </trkpt>
      <trkpt lat="40.422500" lon="-5.313183">
        <ele>1925.0</ele>
        <time>2018-06-17T11:41:09Z</time>
      </trkpt>
      <trkpt lat="40.422533" lon="-5.313183">
        <ele>1926.0</ele>
        <time>2018-06-17T11:41:10Z</time>
      </trkpt>
      <trkpt lat="40.422583" lon="-5.313133">
        <ele>1926.0</ele>
        <time>2018-06-17T11:41:11Z</time>
      </trkpt>
      <trkpt lat="40.422617" lon="-5.313050">
        <ele>1926.0</ele>
        <time>2018-06-17T11:41:12Z</time>
      </trkpt>
      <trkpt lat="40.422617" lon="-5.312917">
        <ele>1926.0</ele>
        <time>2018-06-17T11:41:13Z</time>
      </trkpt>
      <trkpt lat="40.422617" lon="-5.312767">
        <ele>1927.0</ele>
        <time>2018-06-17T11:41:14Z</time>
      </trkpt>
      <trkpt lat="40.422567" lon="-5.312600">
        <ele>1930.0</ele>
        <time>2018-06-17T11:41:15Z</time>
      </trkpt>
      <trkpt lat="40.422500" lon="-5.312450">
        <ele>1933.0</ele>
        <time>2018-06-17T11:41:16Z</time>
      </trkpt>
      <trkpt lat="40.422433" lon="-5.312333">
        <ele>1935.0</ele>
        <time>2018-06-17T11:41:17Z</time>
      </trkpt>
      <trkpt lat="40.422317" lon="-5.312250">
        <ele>1936.0</ele>
        <time>2018-06-17T11:41:18Z</time>
      </trkpt>
      <trkpt lat="40.422183" lon="-5.312200">
        <ele>1935.0</ele>
        <time>2018-06-17T11:41:19Z</time>
      </trkpt>
      <trkpt lat="40.422050" lon="-5.312200">
        <ele>1935.0</ele>
        <time>2018-06-17T11:41:20Z</time>
      </trkpt>
      <trkpt lat="40.421900" lon="-5.312233">
        <ele>1934.0</ele>
        <time>2018-06-17T11:41:21Z</time>
      </trkpt>
      <trkpt lat="40.421767" lon="-5.312300">
        <ele>1934.0</ele>
        <time>2018-06-17T11:41:22Z</time>
      </trkpt>
      <trkpt lat="40.421650" lon="-5.312400">
        <ele>1933.0</ele>
        <time>2018-06-17T11:41:23Z</time>
      </trkpt>
      <trkpt lat="40.421550" lon="-5.312517">
        <ele>1933.0</ele>
        <time>2018-06-17T11:41:24Z</time>
      </trkpt>
      <trkpt lat="40.421483" lon="-5.312633">
        <ele>1934.0</ele>
        <time>2018-06-17T11:41:25Z</time>
      </trkpt>
      <trkpt lat="40.421433" lon="-5.312750">
        <ele>1935.0</ele>
        <time>2018-06-17T11:41:26Z</time>
      </trkpt>
      <trkpt lat="40.421400" lon="-5.312867">
        <ele>1938.0</ele>
        <time>2018-06-17T11:41:27Z</time>
      </trkpt>
      <trkpt lat="40.421383" lon="-5.312967">
        <ele>1941.0</ele>
        <time>2018-06-17T11:41:28Z</time>
      </trkpt>
      <trkpt lat="40.421400" lon="-5.313033">
        <ele>1943.0</ele>
        <time>2018-06-17T11:41:29Z</time>
      </trkpt>
      <trkpt lat="40.421417" lon="-5.313100">
        <ele>1945.0</ele>
        <time>2018-06-17T11:41:30Z</time>
      </trkpt>
      <trkpt lat="40.421450" lon="-5.313150">
        <ele>1947.0</ele>
        <time>2018-06-17T11:41:31Z</time>
      </trkpt>
      <trkpt lat="40.421483" lon="-5.313200">
        <ele>1948.0</ele>
        <time>2018-06-17T11:41:32Z</time>
      </trkpt>
      <trkpt lat="40.421533" lon="-5.313233">
        <ele>1949.0</ele>
        <time>2018-06-17T11:41:33Z</time>
      </trkpt>
      <trkpt lat="40.421600" lon="-5.313217">
        <ele>1950.0</ele>
        <time>2018-06-17T11:41:34Z</time>
      </trkpt>
      <trkpt lat="40.421650" lon="-5.313183">
        <ele>1952.0</ele>
        <time>2018-06-17T11:41:35Z</time>
      </trkpt>
      <trkpt lat="40.421700" lon="-5.313117">
        <ele>1954.0</ele>
        <time>2018-06-17T11:41:36Z</time>
      </trkpt>
      <trkpt lat="40.421717" lon="-5.313017">
        <ele>1957.0</ele>
        <time>2018-06-17T11:41:37Z</time>
      </trkpt>
      <trkpt lat="40.421717" lon="-5.312900">
        <ele>1959.0</ele>
        <time>2018-06-17T11:41:38Z</time>
      </trkpt>
      <trkpt lat="40.421667" lon="-5.312783">
        <ele>1959.0</ele>
        <time>2018-06-17T11:41:39Z</time>
      </trkpt>
      <trkpt lat="40.421583" lon="-5.312667">
        <ele>1960.0</ele>
        <time>2018-06-17T11:41:40Z</time>
      </trkpt>
      <trkpt lat="40.421467" lon="-5.312583">
        <ele>1961.0</ele>
        <time>2018-06-17T11:41:41Z</time>
      </trkpt>
      <trkpt lat="40.421333" lon="-5.312517">
        <ele>1962.0</ele>
        <time>2018-06-17T11:41:42Z</time>
      </trkpt>
      <trkpt lat="40.421200" lon="-5.312500">
        <ele>1964.0</ele>
        <time>2018-06-17T11:41:43Z</time>
      </trkpt>
      <trkpt lat="40.421050" lon="-5.312517">
        <ele>1964.0</ele>
        <time>2018-06-17T11:41:44Z</time>
      </trkpt>
      <trkpt lat="40.420917" lon="-5.312583">
        <ele>1964.0</ele>
        <time>2018-06-17T11:41:45Z</time>
      </trkpt>
      <trkpt lat="40.420783" lon="-5.312683">
        <ele>1965.0</ele>
        <time>2018-06-17T11:41:46Z</time>
      </trkpt>
      <trkpt lat="40.420683" lon="-5.312800">
        <ele>1966.0</ele>
        <time>2018-06-17T11:41:47Z</time>
      </trkpt>
      <trkpt lat="40.420617" lon="-5.312950">
        <ele>1968.0</ele>
        <time>2018-06-17T11:41:48Z</time>
      </trkpt>
      <trkpt lat="40.420583" lon="-5.313050">
        <ele>1973.0</ele>
        <time>2018-06-17T11:41:49Z</time>
      </trkpt>
      <trkpt lat="40.420583" lon="-5.313133">
        <ele>1977.0</ele>
        <time>2018-06-17T11:41:50Z</time>
      </trkpt>
      <trkpt lat="40.420583" lon="-5.313200">
        <ele>1980.0</ele>
        <time>2018-06-17T11:41:51Z</time>
      </trkpt>
      <trkpt lat="40.420583" lon="-5.313250">
        <ele>1981.0</ele>
        <time>2018-06-17T11:41:52Z</time>
      </trkpt>
      <trkpt lat="40.420600" lon="-5.313317">
        <ele>1982.0</ele>
        <time>2018-06-17T11:41:53Z</time>
      </trkpt>
      <trkpt lat="40.420617" lon="-5.313400">
        <ele>1984.0</ele>
        <time>2018-06-17T11:41:54Z</time>
      </trkpt>
      <trkpt lat="40.420650" lon="-5.313450">
        <ele>1987.0</ele>
        <time>2018-06-17T11:41:55Z</time>
      </trkpt>
      <trkpt lat="40.420683" lon="-5.313467">
        <ele>1989.0</ele>
        <time>2018-06-17T11:41:56Z</time>
      </trkpt>
      <trkpt lat="40.420717" lon="-5.313433">
        <ele>1991.0</ele>
        <time>2018-06-17T11:41:57Z</time>
      </trkpt>
      <trkpt lat="40.420733" lon="-5.313350">
        <ele>1991.0</ele>
        <time>2018-06-17T11:41:58Z</time>
      </trkpt>
      <trkpt lat="40.420717" lon="-5.313233">
        <ele>1992.0</ele>
        <time>2018-06-17T11:41:59Z</time>
      </trkpt>
      <trkpt lat="40.420683" lon="-5.313100">
        <ele>1993.0</ele>
        <time>2018-06-17T11:42:00Z</time>
      </trkpt>
      <trkpt lat="40.420600" lon="-5.312967">
        <ele>1994.0</ele>
        <time>2018-06-17T11:42:01Z</time>
      </trkpt>
      <trkpt lat="40.420500" lon="-5.312850">
        <ele>1996.0</ele>
        <time>2018-06-17T11:42:02Z</time>
      </trkpt>
      <trkpt lat="40.420367" lon="-5.312767">
        <ele>1998.0</ele>
        <time>2018-06-17T11:42:03Z</time>
      </trkpt>
      <trkpt lat="40.420233" lon="-5.312717">
        <ele>1999.0</ele>
        <time>2018-06-17T11:42:04Z</time>
      </trkpt>
      <trkpt lat="40.420083" lon="-5.312683">
        <ele>2001.0</ele>
        <time>2018-06-17T11:42:05Z</time>
      </trkpt>
      <trkpt lat="40.419933" lon="-5.312700">
        <ele>2002.0</ele>
        <time>2018-06-17T11:42:06Z</time>
      </trkpt>
      <trkpt lat="40.419783" lon="-5.312733">
        <ele>2004.0</ele>
        <time>2018-06-17T11:42:07Z</time>
      </trkpt>
      <trkpt lat="40.419650" lon="-5.312800">
        <ele>2006.0</ele>
        <time>2018-06-17T11:42:08Z</time>
      </trkpt>
      <trkpt lat="40.419550" lon="-5.312917">
        <ele>2009.0</ele>
        <time>2018-06-17T11:42:09Z</time>
      </trkpt>
      <trkpt lat="40.419517" lon="-5.313050">
        <ele>2011.0</ele>
        <time>2018-06-17T11:42:10Z</time>
      </trkpt>
      <trkpt lat="40.419500" lon="-5.313183">
        <ele>2013.0</ele>
        <time>2018-06-17T11:42:11Z</time>
      </trkpt>
      <trkpt lat="40.419533" lon="-5.313300">
        <ele>2014.0</ele>
        <time>2018-06-17T11:42:12Z</time>
      </trkpt>
      <trkpt lat="40.419567" lon="-5.313383">
        <ele>2016.0</ele>
        <time>2018-06-17T11:42:13Z</time>
      </trkpt>
      <trkpt lat="40.419617" lon="-5.313450">
        <ele>2018.0</ele>
        <time>2018-06-17T11:42:14Z</time>
      </trkpt>
      <trkpt lat="40.419667" lon="-5.313467">
        <ele>2019.0</ele>
        <time>2018-06-17T11:42:15Z</time>
      </trkpt>
      <trkpt lat="40.419717" lon="-5.313450">
        <ele>2021.0</ele>
        <time>2018-06-17T11:42:16Z</time>
      </trkpt>
      <trkpt lat="40.419767" lon="-5.313433">
        <ele>2023.0</ele>
        <time>2018-06-17T11:42:17Z</time>
      </trkpt>
      <trkpt lat="40.419800" lon="-5.313383">
        <ele>2025.0</ele>
        <time>2018-06-17T11:42:18Z</time>
      </trkpt>
      <trkpt lat="40.419817" lon="-5.313317">
        <ele>2027.0</ele>
        <time>2018-06-17T11:42:19Z</time>
      </trkpt>
      <trkpt lat="40.419800" lon="-5.313217">
        <ele>2029.0</ele>
        <time>2018-06-17T11:42:20Z</time>
      </trkpt>
      <trkpt lat="40.419767" lon="-5.313083">
        <ele>2030.0</ele>
        <time>2018-06-17T11:42:21Z</time>
      </trkpt>
      <trkpt lat="40.419700" lon="-5.312950">
        <ele>2032.0</ele>
        <time>2018-06-17T11:42:22Z</time>
      </trkpt>
      <trkpt lat="40.419617" lon="-5.312817">
        <ele>2034.0</ele>
        <time>2018-06-17T11:42:23Z</time>
      </trkpt>
      <trkpt lat="40.419500" lon="-5.312700">
        <ele>2035.0</ele>
        <time>2018-06-17T11:42:24Z</time>
      </trkpt>
      <trkpt lat="40.419367" lon="-5.312633">
        <ele>2035.0</ele>
        <time>2018-06-17T11:42:25Z</time>
      </trkpt>
      <trkpt lat="40.419200" lon="-5.312617">
        <ele>2035.0</ele>
        <time>2018-06-17T11:42:26Z</time>
      </trkpt>
      <trkpt lat="40.419050" lon="-5.312633">
        <ele>2037.0</ele>
        <time>2018-06-17T11:42:27Z</time>
      </trkpt>
      <trkpt lat="40.418917" lon="-5.312700">
        <ele>2039.0</ele>
        <time>2018-06-17T11:42:28Z</time>
      </trkpt>
      <trkpt lat="40.418800" lon="-5.312767">
        <ele>2040.0</ele>
        <time>2018-06-17T11:42:29Z</time>
      </trkpt>
      <trkpt lat="40.418700" lon="-5.312867">
        <ele>2039.0</ele>
        <time>2018-06-17T11:42:30Z</time>
      </trkpt>
      <trkpt lat="40.418650" lon="-5.312983">
        <ele>2039.0</ele>
        <time>2018-06-17T11:42:31Z</time>
      </trkpt>
      <trkpt lat="40.418633" lon="-5.313117">
        <ele>2039.0</ele>
        <time>2018-06-17T11:42:32Z</time>
      </trkpt>
      <trkpt lat="40.418650" lon="-5.313233">
        <ele>2039.0</ele>
        <time>2018-06-17T11:42:33Z</time>
      </trkpt>
      <trkpt lat="40.418683" lon="-5.313317">
        <ele>2039.0</ele>
        <time>2018-06-17T11:42:34Z</time>
      </trkpt>
      <trkpt lat="40.418733" lon="-5.313383">
        <ele>2041.0</ele>
        <time>2018-06-17T11:42:35Z</time>
      </trkpt>
      <trkpt lat="40.418783" lon="-5.313400">
        <ele>2042.0</ele>
        <time>2018-06-17T11:42:36Z</time>
      </trkpt>
      <trkpt lat="40.418817" lon="-5.313400">
        <ele>2043.0</ele>
        <time>2018-06-17T11:42:37Z</time>
      </trkpt>
      <trkpt lat="40.418867" lon="-5.313383">
        <ele>2044.0</ele>
        <time>2018-06-17T11:42:38Z</time>
      </trkpt>
      <trkpt lat="40.418917" lon="-5.313350">
        <ele>2046.0</ele>
        <time>2018-06-17T11:42:39Z</time>
      </trkpt>
      <trkpt lat="40.418967" lon="-5.313283">
        <ele>2048.0</ele>
        <time>2018-06-17T11:42:40Z</time>
      </trkpt>
      <trkpt lat="40.419000" lon="-5.313200">
        <ele>2049.0</ele>
        <time>2018-06-17T11:42:41Z</time>
      </trkpt>
      <trkpt lat="40.419017" lon="-5.313083">
        <ele>2051.0</ele>
        <time>2018-06-17T11:42:42Z</time>
      </trkpt>
      <trkpt lat="40.419033" lon="-5.312950">
        <ele>2053.0</ele>
        <time>2018-06-17T11:42:43Z</time>
      </trkpt>
      <trkpt lat="40.419017" lon="-5.312783">
        <ele>2054.0</ele>
        <time>2018-06-17T11:42:44Z</time>
      </trkpt>
      <trkpt lat="40.418950" lon="-5.312617">
        <ele>2056.0</ele>
        <time>2018-06-17T11:42:45Z</time>
      </trkpt>
      <trkpt lat="40.418850" lon="-5.312467">
        <ele>2059.0</ele>
        <time>2018-06-17T11:42:46Z</time>
      </trkpt>
      <trkpt lat="40.418717" lon="-5.312367">
        <ele>2062.0</ele>
        <time>2018-06-17T11:42:47Z</time>
      </trkpt>
      <trkpt lat="40.418550" lon="-5.312300">
        <ele>2062.0</ele>
        <time>2018-06-17T11:42:48Z</time>
      </trkpt>
      <trkpt lat="40.418383" lon="-5.312283">
        <ele>2063.0</ele>
        <time>2018-06-17T11:42:49Z</time>
      </trkpt>
      <trkpt lat="40.418233" lon="-5.312317">
        <ele>2065.0</ele>
        <time>2018-06-17T11:42:50Z</time>
      </trkpt>
      <trkpt lat="40.418067" lon="-5.312350">
        <ele>2067.0</ele>
        <time>2018-06-17T11:42:51Z</time>
      </trkpt>
      <trkpt lat="40.417933" lon="-5.312433">
        <ele>2069.0</ele>
        <time>2018-06-17T11:42:52Z</time>
      </trkpt>
      <trkpt lat="40.417817" lon="-5.312517">
        <ele>2070.0</ele>
        <time>2018-06-17T11:42:53Z</time>
      </trkpt>
      <trkpt lat="40.417733" lon="-5.312617">
        <ele>2069.0</ele>
        <time>2018-06-17T11:42:54Z</time>
      </trkpt>
      <trkpt lat="40.417683" lon="-5.312750">
        <ele>2068.0</ele>
        <time>2018-06-17T11:42:55Z</time>
      </trkpt>
      <trkpt lat="40.417667" lon="-5.312867">
        <ele>2068.0</ele>
        <time>2018-06-17T11:42:56Z</time>
      </trkpt>
      <trkpt lat="40.417667" lon="-5.312983">
        <ele>2069.0</ele>
        <time>2018-06-17T11:42:57Z</time>
      </trkpt>
      <trkpt lat="40.417700" lon="-5.313067">
        <ele>2070.0</ele>
        <time>2018-06-17T11:42:58Z</time>
      </trkpt>
      <trkpt lat="40.417733" lon="-5.313133">
        <ele>2070.0</ele>
        <time>2018-06-17T11:42:59Z</time>
      </trkpt>
      <trkpt lat="40.417783" lon="-5.313183">
        <ele>2071.0</ele>
        <time>2018-06-17T11:43:00Z</time>
      </trkpt>
      <trkpt lat="40.417833" lon="-5.313217">
        <ele>2072.0</ele>
        <time>2018-06-17T11:43:01Z</time>
      </trkpt>
      <trkpt lat="40.417867" lon="-5.313217">
        <ele>2075.0</ele>
        <time>2018-06-17T11:43:02Z</time>
      </trkpt>
      <trkpt lat="40.417900" lon="-5.313200">
        <ele>2077.0</ele>
        <time>2018-06-17T11:43:03Z</time>
      </trkpt>
      <trkpt lat="40.417933" lon="-5.313167">
        <ele>2079.0</ele>
        <time>2018-06-17T11:43:04Z</time>
      </trkpt>
      <trkpt lat="40.417967" lon="-5.313167">
        <ele>2080.0</ele>
        <time>2018-06-17T11:43:05Z</time>
      </trkpt>
      <trkpt lat="40.418017" lon="-5.313167">
        <ele>2081.0</ele>
        <time>2018-06-17T11:43:06Z</time>
      </trkpt>
      <trkpt lat="40.418067" lon="-5.313167">
        <ele>2083.0</ele>
        <time>2018-06-17T11:43:07Z</time>
      </trkpt>
      <trkpt lat="40.418117" lon="-5.313183">
        <ele>2085.0</ele>
        <time>2018-06-17T11:43:08Z</time>
      </trkpt>
      <trkpt lat="40.418150" lon="-5.313200">
        <ele>2087.0</ele>
        <time>2018-06-17T11:43:09Z</time>
      </trkpt>
      <trkpt lat="40.418183" lon="-5.313233">
        <ele>2090.0</ele>
        <time>2018-06-17T11:43:10Z</time>
      </trkpt>
      <trkpt lat="40.418217" lon="-5.313267">
        <ele>2092.0</ele>
        <time>2018-06-17T11:43:11Z</time>
      </trkpt>
      <trkpt lat="40.418250" lon="-5.313317">
        <ele>2094.0</ele>
        <time>2018-06-17T11:43:12Z</time>
      </trkpt>
      <trkpt lat="40.418283" lon="-5.313333">
        <ele>2095.0</ele>
        <time>2018-06-17T11:43:13Z</time>
      </trkpt>
      <trkpt lat="40.418317" lon="-5.313333">
        <ele>2095.0</ele>
        <time>2018-06-17T11:43:14Z</time>
      </trkpt>
      <trkpt lat="40.418350" lon="-5.313300">
        <ele>2094.0</ele>
        <time>2018-06-17T11:43:15Z</time>
      </trkpt>
      <trkpt lat="40.418383" lon="-5.313217">
        <ele>2093.0</ele>
        <time>2018-06-17T11:43:16Z</time>
      </trkpt>
      <trkpt lat="40.418400" lon="-5.313117">
        <ele>2093.0</ele>
        <time>2018-06-17T11:43:17Z</time>
      </trkpt>
      <trkpt lat="40.418400" lon="-5.313000">
        <ele>2094.0</ele>
        <time>2018-06-17T11:43:18Z</time>
      </trkpt>
      <trkpt lat="40.418350" lon="-5.312867">
        <ele>2097.0</ele>
        <time>2018-06-17T11:43:19Z</time>
      </trkpt>
      <trkpt lat="40.418283" lon="-5.312750">
        <ele>2100.0</ele>
        <time>2018-06-17T11:43:20Z</time>
      </trkpt>
      <trkpt lat="40.418183" lon="-5.312650">
        <ele>2101.0</ele>
        <time>2018-06-17T11:43:21Z</time>
      </trkpt>
      <trkpt lat="40.418050" lon="-5.312583">
        <ele>2102.0</ele>
        <time>2018-06-17T11:43:22Z</time>
      </trkpt>
      <trkpt lat="40.417917" lon="-5.312517">
        <ele>2102.0</ele>
        <time>2018-06-17T11:43:23Z</time>
      </trkpt>
      <trkpt lat="40.417783" lon="-5.312500">
        <ele>2103.0</ele>
        <time>2018-06-17T11:43:24Z</time>
      </trkpt>
      <trkpt lat="40.417650" lon="-5.312517">
        <ele>2103.0</ele>
        <time>2018-06-17T11:43:25Z</time>
      </trkpt>
      <trkpt lat="40.417533" lon="-5.312583">
        <ele>2103.0</ele>
        <time>2018-06-17T11:43:26Z</time>
      </trkpt>
      <trkpt lat="40.417417" lon="-5.312667">
        <ele>2105.0</ele>
        <time>2018-06-17T11:43:27Z</time>
      </trkpt>
      <trkpt lat="40.417333" lon="-5.312783">
        <ele>2107.0</ele>
        <time>2018-06-17T11:43:28Z</time>
      </trkpt>
      <trkpt lat="40.417267" lon="-5.312883">
        <ele>2109.0</ele>
        <time>2018-06-17T11:43:29Z</time>
      </trkpt>
      <trkpt lat="40.417217" lon="-5.312983">
        <ele>2111.0</ele>
        <time>2018-06-17T11:43:30Z</time>
      </trkpt>
      <trkpt lat="40.417200" lon="-5.313083">
        <ele>2112.0</ele>
        <time>2018-06-17T11:43:31Z</time>
      </trkpt>
      <trkpt lat="40.417167" lon="-5.313167">
        <ele>2113.0</ele>
        <time>2018-06-17T11:43:32Z</time>
      </trkpt>
      <trkpt lat="40.417167" lon="-5.313267">
        <ele>2112.0</ele>
        <time>2018-06-17T11:43:33Z</time>
      </trkpt>
      <trkpt lat="40.417183" lon="-5.313350">
        <ele>2112.0</ele>
        <time>2018-06-17T11:43:34Z</time>
      </trkpt>
      <trkpt lat="40.417233" lon="-5.313433">
        <ele>2112.0</ele>
        <time>2018-06-17T11:43:35Z</time>
      </trkpt>
      <trkpt lat="40.417283" lon="-5.313467">
        <ele>2113.0</ele>
        <time>2018-06-17T11:43:36Z</time>
      </trkpt>
      <trkpt lat="40.417350" lon="-5.313483">
        <ele>2114.0</ele>
        <time>2018-06-17T11:43:37Z</time>
      </trkpt>
      <trkpt lat="40.417417" lon="-5.313483">
        <ele>2115.0</ele>
        <time>2018-06-17T11:43:38Z</time>
      </trkpt>
      <trkpt lat="40.417467" lon="-5.313483">
        <ele>2116.0</ele>
        <time>2018-06-17T11:43:39Z</time>
      </trkpt>
      <trkpt lat="40.417500" lon="-5.313483">
        <ele>2116.0</ele>
        <time>2018-06-17T11:43:40Z</time>
      </trkpt>
      <trkpt lat="40.417550" lon="-5.313483">
        <ele>2116.0</ele>
        <time>2018-06-17T11:43:41Z</time>
      </trkpt>
      <trkpt lat="40.417600" lon="-5.313467">
        <ele>2117.0</ele>
        <time>2018-06-17T11:43:42Z</time>
      </trkpt>
      <trkpt lat="40.417650" lon="-5.313467">
        <ele>2117.0</ele>
        <time>2018-06-17T11:43:43Z</time>
      </trkpt>
      <trkpt lat="40.417717" lon="-5.313467">
        <ele>2118.0</ele>
        <time>2018-06-17T11:43:44Z</time>
      </trkpt>
      <trkpt lat="40.417767" lon="-5.313500">
        <ele>2120.0</ele>
        <time>2018-06-17T11:43:45Z</time>
      </trkpt>
      <trkpt lat="40.417817" lon="-5.313533">
        <ele>2125.0</ele>
        <time>2018-06-17T11:43:46Z</time>
      </trkpt>
      <trkpt lat="40.417867" lon="-5.313550">
        <ele>2130.0</ele>
        <time>2018-06-17T11:43:47Z</time>
      </trkpt>
      <trkpt lat="40.417900" lon="-5.313567">
        <ele>2134.0</ele>
        <time>2018-06-17T11:43:48Z</time>
      </trkpt>
      <trkpt lat="40.417917" lon="-5.313533">
        <ele>2137.0</ele>
        <time>2018-06-17T11:43:49Z</time>
      </trkpt>
      <trkpt lat="40.417933" lon="-5.313450">
        <ele>2138.0</ele>
        <time>2018-06-17T11:43:50Z</time>
      </trkpt>
      <trkpt lat="40.417917" lon="-5.313333">
        <ele>2140.0</ele>
        <time>2018-06-17T11:43:51Z</time>
      </trkpt>
      <trkpt lat="40.417883" lon="-5.313183">
        <ele>2144.0</ele>
        <time>2018-06-17T11:43:52Z</time>
      </trkpt>
      <trkpt lat="40.417817" lon="-5.313067">
        <ele>2149.0</ele>
        <time>2018-06-17T11:43:53Z</time>
      </trkpt>
      <trkpt lat="40.417733" lon="-5.312967">
        <ele>2153.0</ele>
        <time>2018-06-17T11:43:54Z</time>
      </trkpt>
      <trkpt lat="40.417617" lon="-5.312900">
        <ele>2156.0</ele>
        <time>2018-06-17T11:43:55Z</time>
      </trkpt>
      <trkpt lat="40.417483" lon="-5.312850">
        <ele>2157.0</ele>
        <time>2018-06-17T11:43:56Z</time>
      </trkpt>
      <trkpt lat="40.417350" lon="-5.312833">
        <ele>2158.0</ele>
        <time>2018-06-17T11:43:57Z</time>
      </trkpt>
      <trkpt lat="40.417200" lon="-5.312850">
        <ele>2161.0</ele>
        <time>2018-06-17T11:43:58Z</time>
      </trkpt>
      <trkpt lat="40.417050" lon="-5.312900">
        <ele>2164.0</ele>
        <time>2018-06-17T11:43:59Z</time>
      </trkpt>
      <trkpt lat="40.416950" lon="-5.313000">
        <ele>2167.0</ele>
        <time>2018-06-17T11:44:00Z</time>
      </trkpt>
      <trkpt lat="40.416867" lon="-5.313117">
        <ele>2168.0</ele>
        <time>2018-06-17T11:44:01Z</time>
      </trkpt>
      <trkpt lat="40.416833" lon="-5.313250">
        <ele>2169.0</ele>
        <time>2018-06-17T11:44:02Z</time>
      </trkpt>
      <trkpt lat="40.416833" lon="-5.313383">
        <ele>2168.0</ele>
        <time>2018-06-17T11:44:03Z</time>
      </trkpt>
      <trkpt lat="40.416850" lon="-5.313500">
        <ele>2168.0</ele>
        <time>2018-06-17T11:44:04Z</time>
      </trkpt>
      <trkpt lat="40.416917" lon="-5.313600">
        <ele>2170.0</ele>
        <time>2018-06-17T11:44:05Z</time>
      </trkpt>
      <trkpt lat="40.416983" lon="-5.313650">
        <ele>2173.0</ele>
        <time>2018-06-17T11:44:06Z</time>
      </trkpt>
      <trkpt lat="40.417033" lon="-5.313667">
        <ele>2178.0</ele>
        <time>2018-06-17T11:44:07Z</time>
      </trkpt>
      <trkpt lat="40.417067" lon="-5.313667">
        <ele>2183.0</ele>
        <time>2018-06-17T11:44:08Z</time>
      </trkpt>
      <trkpt lat="40.417083" lon="-5.313633">
        <ele>2186.0</ele>
        <time>2018-06-17T11:44:09Z</time>
      </trkpt>
      <trkpt lat="40.417100" lon="-5.313567">
        <ele>2190.0</ele>
        <time>2018-06-17T11:44:10Z</time>
      </trkpt>
      <trkpt lat="40.417100" lon="-5.313500">
        <ele>2192.0</ele>
        <time>2018-06-17T11:44:11Z</time>
      </trkpt>
      <trkpt lat="40.417100" lon="-5.313417">
        <ele>2194.0</ele>
        <time>2018-06-17T11:44:12Z</time>
      </trkpt>
      <trkpt lat="40.417100" lon="-5.313333">
        <ele>2196.0</ele>
        <time>2018-06-17T11:44:13Z</time>
      </trkpt>
      <trkpt lat="40.417067" lon="-5.313233">
        <ele>2196.0</ele>
        <time>2018-06-17T11:44:14Z</time>
      </trkpt>
      <trkpt lat="40.417017" lon="-5.313100">
        <ele>2196.0</ele>
        <time>2018-06-17T11:44:15Z</time>
      </trkpt>
      <trkpt lat="40.416917" lon="-5.312967">
        <ele>2195.0</ele>
        <time>2018-06-17T11:44:16Z</time>
      </trkpt>
      <trkpt lat="40.416783" lon="-5.312867">
        <ele>2197.0</ele>
        <time>2018-06-17T11:44:17Z</time>
      </trkpt>
      <trkpt lat="40.416633" lon="-5.312833">
        <ele>2198.0</ele>
        <time>2018-06-17T11:44:18Z</time>
      </trkpt>
      <trkpt lat="40.416483" lon="-5.312867">
        <ele>2201.0</ele>
        <time>2018-06-17T11:44:19Z</time>
      </trkpt>
      <trkpt lat="40.416350" lon="-5.312967">
        <ele>2205.0</ele>
        <time>2018-06-17T11:44:20Z</time>
      </trkpt>
      <trkpt lat="40.416267" lon="-5.313083">
        <ele>2210.0</ele>
        <time>2018-06-17T11:44:21Z</time>
      </trkpt>
      <trkpt lat="40.416217" lon="-5.313217">
        <ele>2214.0</ele>
        <time>2018-06-17T11:44:22Z</time>
      </trkpt>
      <trkpt lat="40.416200" lon="-5.313333">
        <ele>2218.0</ele>
        <time>2018-06-17T11:44:23Z</time>
      </trkpt>
      <trkpt lat="40.416183" lon="-5.313467">
        <ele>2221.0</ele>
        <time>2018-06-17T11:44:24Z</time>
      </trkpt>
      <trkpt lat="40.416183" lon="-5.313567">
        <ele>2223.0</ele>
        <time>2018-06-17T11:44:25Z</time>
      </trkpt>
      <trkpt lat="40.416200" lon="-5.313667">
        <ele>2226.0</ele>
        <time>2018-06-17T11:44:26Z</time>
      </trkpt>
      <trkpt lat="40.416250" lon="-5.313700">
        <ele>2228.0</ele>
        <time>2018-06-17T11:44:27Z</time>
      </trkpt>
      <trkpt lat="40.416317" lon="-5.313700">
        <ele>2230.0</ele>
        <time>2018-06-17T11:44:28Z</time>
      </trkpt>
      <trkpt lat="40.416367" lon="-5.313667">
        <ele>2232.0</ele>
        <time>2018-06-17T11:44:29Z</time>
      </trkpt>
      <trkpt lat="40.416400" lon="-5.313617">
        <ele>2234.0</ele>
        <time>2018-06-17T11:44:30Z</time>
      </trkpt>
      <trkpt lat="40.416433" lon="-5.313550">
        <ele>2236.0</ele>
        <time>2018-06-17T11:44:31Z</time>
      </trkpt>
      <trkpt lat="40.416450" lon="-5.313483">
        <ele>2236.0</ele>
        <time>2018-06-17T11:44:32Z</time>
      </trkpt>
      <trkpt lat="40.416433" lon="-5.313367">
        <ele>2235.0</ele>
        <time>2018-06-17T11:44:33Z</time>
      </trkpt>
      <trkpt lat="40.416400" lon="-5.313233">
        <ele>2234.0</ele>
        <time>2018-06-17T11:44:34Z</time>
      </trkpt>
      <trkpt lat="40.416333" lon="-5.313083">
        <ele>2234.0</ele>
        <time>2018-06-17T11:44:35Z</time>
      </trkpt>
      <trkpt lat="40.416233" lon="-5.312967">
        <ele>2235.0</ele>
        <time>2018-06-17T11:44:36Z</time>
      </trkpt>
      <trkpt lat="40.416100" lon="-5.312900">
        <ele>2235.0</ele>
        <time>2018-06-17T11:44:37Z</time>
      </trkpt>
      <trkpt lat="40.415933" lon="-5.312867">
        <ele>2236.0</ele>
        <time>2018-06-17T11:44:38Z</time>
      </trkpt>
      <trkpt lat="40.415783" lon="-5.312867">
        <ele>2236.0</ele>
        <time>2018-06-17T11:44:39Z</time>
      </trkpt>
      <trkpt lat="40.415617" lon="-5.312900">
        <ele>2238.0</ele>
        <time>2018-06-17T11:44:40Z</time>
      </trkpt>
      <trkpt lat="40.415483" lon="-5.312933">
        <ele>2241.0</ele>
        <time>2018-06-17T11:44:41Z</time>
      </trkpt>
      <trkpt lat="40.415350" lon="-5.312983">
        <ele>2245.0</ele>
        <time>2018-06-17T11:44:42Z</time>
      </trkpt>
      <trkpt lat="40.415217" lon="-5.313067">
        <ele>2248.0</ele>
        <time>2018-06-17T11:44:43Z</time>
      </trkpt>
      <trkpt lat="40.415117" lon="-5.313167">
        <ele>2250.0</ele>
        <time>2018-06-17T11:44:44Z</time>
      </trkpt>
      <trkpt lat="40.415017" lon="-5.313267">
        <ele>2252.0</ele>
        <time>2018-06-17T11:44:45Z</time>
      </trkpt>
      <trkpt lat="40.414933" lon="-5.313400">
        <ele>2254.0</ele>
        <time>2018-06-17T11:44:46Z</time>
      </trkpt>
      <trkpt lat="40.414867" lon="-5.313533">
        <ele>2256.0</ele>
        <time>2018-06-17T11:44:47Z</time>
      </trkpt>
      <trkpt lat="40.414833" lon="-5.313667">
        <ele>2258.0</ele>
        <time>2018-06-17T11:44:48Z</time>
      </trkpt>
      <trkpt lat="40.414817" lon="-5.313783">
        <ele>2259.0</ele>
        <time>2018-06-17T11:44:49Z</time>
      </trkpt>
      <trkpt lat="40.414833" lon="-5.313883">
        <ele>2259.0</ele>
        <time>2018-06-17T11:44:50Z</time>
      </trkpt>
      <trkpt lat="40.414883" lon="-5.313950">
        <ele>2259.0</ele>
        <time>2018-06-17T11:44:51Z</time>
      </trkpt>
      <trkpt lat="40.414950" lon="-5.314000">
        <ele>2260.0</ele>
        <time>2018-06-17T11:44:52Z</time>
      </trkpt>
      <trkpt lat="40.415017" lon="-5.314000">
        <ele>2262.0</ele>
        <time>2018-06-17T11:44:53Z</time>
      </trkpt>
      <trkpt lat="40.415067" lon="-5.314000">
        <ele>2264.0</ele>
        <time>2018-06-17T11:44:54Z</time>
      </trkpt>
      <trkpt lat="40.415117" lon="-5.313983">
        <ele>2266.0</ele>
        <time>2018-06-17T11:44:55Z</time>
      </trkpt>
      <trkpt lat="40.415150" lon="-5.313917">
        <ele>2266.0</ele>
        <time>2018-06-17T11:44:56Z</time>
      </trkpt>
      <trkpt lat="40.415167" lon="-5.313817">
        <ele>2265.0</ele>
        <time>2018-06-17T11:44:57Z</time>
      </trkpt>
      <trkpt lat="40.415167" lon="-5.313683">
        <ele>2264.0</ele>
        <time>2018-06-17T11:44:58Z</time>
      </trkpt>
      <trkpt lat="40.415150" lon="-5.313533">
        <ele>2264.0</ele>
        <time>2018-06-17T11:44:59Z</time>
      </trkpt>
      <trkpt lat="40.415117" lon="-5.313383">
        <ele>2265.0</ele>
        <time>2018-06-17T11:45:00Z</time>
      </trkpt>
      <trkpt lat="40.415050" lon="-5.313267">
        <ele>2267.0</ele>
        <time>2018-06-17T11:45:01Z</time>
      </trkpt>
      <trkpt lat="40.414950" lon="-5.313167">
        <ele>2268.0</ele>
        <time>2018-06-17T11:45:02Z</time>
      </trkpt>
      <trkpt lat="40.414833" lon="-5.313083">
        <ele>2267.0</ele>
        <time>2018-06-17T11:45:03Z</time>
      </trkpt>
      <trkpt lat="40.414700" lon="-5.313017">
        <ele>2267.0</ele>
        <time>2018-06-17T11:45:04Z</time>
      </trkpt>
      <trkpt lat="40.414533" lon="-5.312983">
        <ele>2268.0</ele>
        <time>2018-06-17T11:45:05Z</time>
      </trkpt>
      <trkpt lat="40.414383" lon="-5.312967">
        <ele>2269.0</ele>
        <time>2018-06-17T11:45:06Z</time>
      </trkpt>
      <trkpt lat="40.414233" lon="-5.313000">
        <ele>2271.0</ele>
        <time>2018-06-17T11:45:07Z</time>
      </trkpt>
      <trkpt lat="40.414083" lon="-5.313050">
        <ele>2273.0</ele>
        <time>2018-06-17T11:45:08Z</time>
      </trkpt>
      <trkpt lat="40.413983" lon="-5.313133">
        <ele>2275.0</ele>
        <time>2018-06-17T11:45:09Z</time>
      </trkpt>
      <trkpt lat="40.413883" lon="-5.313233">
        <ele>2277.0</ele>
        <time>2018-06-17T11:45:10Z</time>
      </trkpt>
      <trkpt lat="40.413817" lon="-5.313333">
        <ele>2279.0</ele>
        <time>2018-06-17T11:45:11Z</time>
      </trkpt>
      <trkpt lat="40.413767" lon="-5.313450">
        <ele>2280.0</ele>
        <time>2018-06-17T11:45:12Z</time>
      </trkpt>
      <trkpt lat="40.413733" lon="-5.313567">
        <ele>2280.0</ele>
        <time>2018-06-17T11:45:13Z</time>
      </trkpt>
      <trkpt lat="40.413750" lon="-5.313667">
        <ele>2281.0</ele>
        <time>2018-06-17T11:45:14Z</time>
      </trkpt>
      <trkpt lat="40.413783" lon="-5.313767">
        <ele>2280.0</ele>
        <time>2018-06-17T11:45:15Z</time>
      </trkpt>
      <trkpt lat="40.413833" lon="-5.313850">
        <ele>2280.0</ele>
        <time>2018-06-17T11:45:16Z</time>
      </trkpt>
      <trkpt lat="40.413900" lon="-5.313900">
        <ele>2282.0</ele>
        <time>2018-06-17T11:45:17Z</time>
      </trkpt>
      <trkpt lat="40.413950" lon="-5.313950">
        <ele>2284.0</ele>
        <time>2018-06-17T11:45:18Z</time>
      </trkpt>
      <trkpt lat="40.414000" lon="-5.313983">
        <ele>2287.0</ele>
        <time>2018-06-17T11:45:19Z</time>
      </trkpt>
      <trkpt lat="40.414033" lon="-5.313983">
        <ele>2289.0</ele>
        <time>2018-06-17T11:45:20Z</time>
      </trkpt>
      <trkpt lat="40.414067" lon="-5.313967">
        <ele>2289.0</ele>
        <time>2018-06-17T11:45:21Z</time>
      </trkpt>
      <trkpt lat="40.414117" lon="-5.313933">
        <ele>2287.0</ele>
        <time>2018-06-17T11:45:22Z</time>
      </trkpt>
      <trkpt lat="40.414150" lon="-5.313850">
        <ele>2284.0</ele>
        <time>2018-06-17T11:45:23Z</time>
      </trkpt>
      <trkpt lat="40.414167" lon="-5.313733">
        <ele>2282.0</ele>
        <time>2018-06-17T11:45:24Z</time>
      </trkpt>
      <trkpt lat="40.414183" lon="-5.313583">
        <ele>2281.0</ele>
        <time>2018-06-17T11:45:25Z</time>
      </trkpt>
      <trkpt lat="40.414150" lon="-5.313433">
        <ele>2280.0</ele>
        <time>2018-06-17T11:45:26Z</time>
      </trkpt>
      <trkpt lat="40.414067" lon="-5.313300">
        <ele>2279.0</ele>
        <time>2018-06-17T11:45:27Z</time>
      </trkpt>
      <trkpt lat="40.413967" lon="-5.313183">
        <ele>2278.0</ele>
        <time>2018-06-17T11:45:28Z</time>
      </trkpt>
      <trkpt lat="40.413850" lon="-5.313117">
        <ele>2279.0</ele>
        <time>2018-06-17T11:45:29Z</time>
      </trkpt>
      <trkpt lat="40.413733" lon="-5.313067">
        <ele>2279.0</ele>
        <time>2018-06-17T11:45:30Z</time>
      </trkpt>
      <trkpt lat="40.413600" lon="-5.313083">
        <ele>2279.0</ele>
        <time>2018-06-17T11:45:31Z</time>
      </trkpt>
      <trkpt lat="40.413483" lon="-5.313133">
        <ele>2278.0</ele>
        <time>2018-06-17T11:45:32Z</time>
      </trkpt>
      <trkpt lat="40.413383" lon="-5.313233">
        <ele>2278.0</ele>
        <time>2018-06-17T11:45:33Z</time>
      </trkpt>
      <trkpt lat="40.413283" lon="-5.313350">
        <ele>2278.0</ele>
        <time>2018-06-17T11:45:34Z</time>
      </trkpt>
      <trkpt lat="40.413200" lon="-5.313483">
        <ele>2279.0</ele>
        <time>2018-06-17T11:45:35Z</time>
      </trkpt>
      <trkpt lat="40.413150" lon="-5.313617">
        <ele>2281.0</ele>
        <time>2018-06-17T11:45:36Z</time>
      </trkpt>
      <trkpt lat="40.413133" lon="-5.313750">
        <ele>2282.0</ele>
        <time>2018-06-17T11:45:37Z</time>
      </trkpt>
      <trkpt lat="40.413133" lon="-5.313867">
        <ele>2283.0</ele>
        <time>2018-06-17T11:45:38Z</time>
      </trkpt>
      <trkpt lat="40.413150" lon="-5.313967">
        <ele>2283.0</ele>
        <time>2018-06-17T11:45:39Z</time>
      </trkpt>
      <trkpt lat="40.413183" lon="-5.314050">
        <ele>2282.0</ele>
        <time>2018-06-17T11:45:40Z</time>
      </trkpt>
      <trkpt lat="40.413233" lon="-5.314117">
        <ele>2280.0</ele>
        <time>2018-06-17T11:45:41Z</time>
      </trkpt>
      <trkpt lat="40.413300" lon="-5.314167">
        <ele>2280.0</ele>
        <time>2018-06-17T11:45:42Z</time>
      </trkpt>
      <trkpt lat="40.413367" lon="-5.314183">
        <ele>2280.0</ele>
        <time>2018-06-17T11:45:43Z</time>
      </trkpt>
      <trkpt lat="40.413433" lon="-5.314183">
        <ele>2281.0</ele>
        <time>2018-06-17T11:45:44Z</time>
      </trkpt>
      <trkpt lat="40.413483" lon="-5.314167">
        <ele>2282.0</ele>
        <time>2018-06-17T11:45:45Z</time>
      </trkpt>
      <trkpt lat="40.413517" lon="-5.314117">
        <ele>2283.0</ele>
        <time>2018-06-17T11:45:46Z</time>
      </trkpt>
      <trkpt lat="40.413567" lon="-5.314067">
        <ele>2282.0</ele>
        <time>2018-06-17T11:45:47Z</time>
      </trkpt>
      <trkpt lat="40.413600" lon="-5.314000">
        <ele>2280.0</ele>
        <time>2018-06-17T11:45:48Z</time>
      </trkpt>
      <trkpt lat="40.413650" lon="-5.313917">
        <ele>2279.0</ele>
        <time>2018-06-17T11:45:49Z</time>
      </trkpt>
      <trkpt lat="40.413700" lon="-5.313833">
        <ele>2278.0</ele>
        <time>2018-06-17T11:45:50Z</time>
      </trkpt>
      <trkpt lat="40.413750" lon="-5.313783">
        <ele>2278.0</ele>
        <time>2018-06-17T11:45:51Z</time>
      </trkpt>
      <trkpt lat="40.413800" lon="-5.313733">
        <ele>2277.0</ele>
        <time>2018-06-17T11:45:52Z</time>
      </trkpt>
      <trkpt lat="40.413850" lon="-5.313700">
        <ele>2276.0</ele>
        <time>2018-06-17T11:45:53Z</time>
      </trkpt>
      <trkpt lat="40.413900" lon="-5.313667">
        <ele>2273.0</ele>
        <time>2018-06-17T11:45:54Z</time>
      </trkpt>
      <trkpt lat="40.413950" lon="-5.313650">
        <ele>2271.0</ele>
        <time>2018-06-17T11:45:55Z</time>
      </trkpt>
      <trkpt lat="40.414017" lon="-5.313650">
        <ele>2268.0</ele>
        <time>2018-06-17T11:45:56Z</time>
      </trkpt>
      <trkpt lat="40.414067" lon="-5.313683">
        <ele>2266.0</ele>
        <time>2018-06-17T11:45:57Z</time>
      </trkpt>
      <trkpt lat="40.414117" lon="-5.313700">
        <ele>2263.0</ele>
        <time>2018-06-17T11:45:58Z</time>
      </trkpt>
      <trkpt lat="40.414183" lon="-5.313717">
        <ele>2260.0</ele>
        <time>2018-06-17T11:45:59Z</time>
      </trkpt>
      <trkpt lat="40.414233" lon="-5.313750">
        <ele>2258.0</ele>
        <time>2018-06-17T11:46:00Z</time>
      </trkpt>
      <trkpt lat="40.414283" lon="-5.313800">
        <ele>2255.0</ele>
        <time>2018-06-17T11:46:01Z</time>
      </trkpt>
      <trkpt lat="40.414317" lon="-5.313883">
        <ele>2253.0</ele>
        <time>2018-06-17T11:46:02Z</time>
      </trkpt>
      <trkpt lat="40.414333" lon="-5.313967">
        <ele>2251.0</ele>
        <time>2018-06-17T11:46:03Z</time>
      </trkpt>
      <trkpt lat="40.414367" lon="-5.314033">
        <ele>2250.0</ele>
        <time>2018-06-17T11:46:04Z</time>
      </trkpt>
      <trkpt lat="40.414400" lon="-5.314083">
        <ele>2247.0</ele>
        <time>2018-06-17T11:46:05Z</time>
      </trkpt>
      <trkpt lat="40.414433" lon="-5.314133">
        <ele>2245.0</ele>
        <time>2018-06-17T11:46:06Z</time>
      </trkpt>
      <trkpt lat="40.414483" lon="-5.314200">
        <ele>2242.0</ele>
        <time>2018-06-17T11:46:07Z</time>
      </trkpt>
      <trkpt lat="40.414533" lon="-5.314267">
        <ele>2240.0</ele>
        <time>2018-06-17T11:46:08Z</time>
      </trkpt>
      <trkpt lat="40.414583" lon="-5.314333">
        <ele>2239.0</ele>
        <time>2018-06-17T11:46:09Z</time>
      </trkpt>
      <trkpt lat="40.414617" lon="-5.314383">
        <ele>2239.0</ele>
        <time>2018-06-17T11:46:10Z</time>
      </trkpt>
      <trkpt lat="40.414667" lon="-5.314417">
        <ele>2237.0</ele>
        <time>2018-06-17T11:46:11Z</time>
      </trkpt>
      <trkpt lat="40.414717" lon="-5.314433">
        <ele>2236.0</ele>
        <time>2018-06-17T11:46:12Z</time>
      </trkpt>
      <trkpt lat="40.414750" lon="-5.314483">
        <ele>2236.0</ele>
        <time>2018-06-17T11:46:13Z</time>
      </trkpt>
      <trkpt lat="40.414783" lon="-5.314517">
        <ele>2235.0</ele>
        <time>2018-06-17T11:46:14Z</time>
      </trkpt>
      <trkpt lat="40.414817" lon="-5.314550">
        <ele>2234.0</ele>
        <time>2018-06-17T11:46:15Z</time>
      </trkpt>
      <trkpt lat="40.414850" lon="-5.314600">
        <ele>2232.0</ele>
        <time>2018-06-17T11:46:16Z</time>
      </trkpt>
      <trkpt lat="40.414900" lon="-5.314617">
        <ele>2230.0</ele>
        <time>2018-06-17T11:46:17Z</time>
      </trkpt>
      <trkpt lat="40.414933" lon="-5.314667">
        <ele>2227.0</ele>
        <time>2018-06-17T11:46:18Z</time>
      </trkpt>
      <trkpt lat="40.414967" lon="-5.314733">
        <ele>2224.0</ele>
        <time>2018-06-17T11:46:19Z</time>
      </trkpt>
      <trkpt lat="40.415000" lon="-5.314800">
        <ele>2222.0</ele>
        <time>2018-06-17T11:46:20Z</time>
      </trkpt>
      <trkpt lat="40.415033" lon="-5.314883">
        <ele>2220.0</ele>
        <time>2018-06-17T11:46:21Z</time>
      </trkpt>
      <trkpt lat="40.415067" lon="-5.314950">
        <ele>2218.0</ele>
        <time>2018-06-17T11:46:22Z</time>
      </trkpt>
      <trkpt lat="40.415117" lon="-5.315033">
        <ele>2217.0</ele>
        <time>2018-06-17T11:46:23Z</time>
      </trkpt>
      <trkpt lat="40.415150" lon="-5.315100">
        <ele>2215.0</ele>
        <time>2018-06-17T11:46:24Z</time>
      </trkpt>
      <trkpt lat="40.415183" lon="-5.315167">
        <ele>2213.0</ele>
        <time>2018-06-17T11:46:25Z</time>
      </trkpt>
      <trkpt lat="40.415233" lon="-5.315233">
        <ele>2212.0</ele>
        <time>2018-06-17T11:46:26Z</time>
      </trkpt>
      <trkpt lat="40.415267" lon="-5.315300">
        <ele>2210.0</ele>
        <time>2018-06-17T11:46:27Z</time>
      </trkpt>
      <trkpt lat="40.415300" lon="-5.315367">
        <ele>2209.0</ele>
        <time>2018-06-17T11:46:28Z</time>
      </trkpt>
      <trkpt lat="40.415317" lon="-5.315433">
        <ele>2207.0</ele>
        <time>2018-06-17T11:46:29Z</time>
      </trkpt>
      <trkpt lat="40.415350" lon="-5.315500">
        <ele>2206.0</ele>
        <time>2018-06-17T11:46:30Z</time>
      </trkpt>
      <trkpt lat="40.415350" lon="-5.315567">
        <ele>2205.0</ele>
        <time>2018-06-17T11:46:31Z</time>
      </trkpt>
      <trkpt lat="40.415367" lon="-5.315617">
        <ele>2203.0</ele>
        <time>2018-06-17T11:46:32Z</time>
      </trkpt>
      <trkpt lat="40.415400" lon="-5.315683">
        <ele>2200.0</ele>
        <time>2018-06-17T11:46:33Z</time>
      </trkpt>
      <trkpt lat="40.415417" lon="-5.315733">
        <ele>2197.0</ele>
        <time>2018-06-17T11:46:34Z</time>
      </trkpt>
      <trkpt lat="40.415450" lon="-5.315783">
        <ele>2195.0</ele>
        <time>2018-06-17T11:46:35Z</time>
      </trkpt>
      <trkpt lat="40.415483" lon="-5.315833">
        <ele>2193.0</ele>
        <time>2018-06-17T11:46:36Z</time>
      </trkpt>
      <trkpt lat="40.415517" lon="-5.315883">
        <ele>2191.0</ele>
        <time>2018-06-17T11:46:37Z</time>
      </trkpt>
      <trkpt lat="40.415567" lon="-5.315933">
        <ele>2188.0</ele>
        <time>2018-06-17T11:46:38Z</time>
      </trkpt>
      <trkpt lat="40.415600" lon="-5.315967">
        <ele>2186.0</ele>
        <time>2018-06-17T11:46:39Z</time>
      </trkpt>
      <trkpt lat="40.415650" lon="-5.316017">
        <ele>2183.0</ele>
        <time>2018-06-17T11:46:40Z</time>
      </trkpt>
      <trkpt lat="40.415683" lon="-5.316067">
        <ele>2180.0</ele>
        <time>2018-06-17T11:46:41Z</time>
      </trkpt>
      <trkpt lat="40.415733" lon="-5.316117">
        <ele>2178.0</ele>
        <time>2018-06-17T11:46:42Z</time>
      </trkpt>
      <trkpt lat="40.415767" lon="-5.316167">
        <ele>2175.0</ele>
        <time>2018-06-17T11:46:43Z</time>
      </trkpt>
      <trkpt lat="40.415817" lon="-5.316217">
        <ele>2174.0</ele>
        <time>2018-06-17T11:46:44Z</time>
      </trkpt>
      <trkpt lat="40.415850" lon="-5.316283">
        <ele>2172.0</ele>
        <time>2018-06-17T11:46:45Z</time>
      </trkpt>
      <trkpt lat="40.415867" lon="-5.316350">
        <ele>2171.0</ele>
        <time>2018-06-17T11:46:46Z</time>
      </trkpt>
      <trkpt lat="40.415883" lon="-5.316417">
        <ele>2168.0</ele>
        <time>2018-06-17T11:46:47Z</time>
      </trkpt>
      <trkpt lat="40.415900" lon="-5.316500">
        <ele>2165.0</ele>
        <time>2018-06-17T11:46:48Z</time>
      </trkpt>
      <trkpt lat="40.415933" lon="-5.316600">
        <ele>2160.0</ele>
        <time>2018-06-17T11:46:49Z</time>
      </trkpt>
      <trkpt lat="40.415967" lon="-5.316700">
        <ele>2156.0</ele>
        <time>2018-06-17T11:46:50Z</time>
      </trkpt>
      <trkpt lat="40.416000" lon="-5.316783">
        <ele>2154.0</ele>
        <time>2018-06-17T11:46:51Z</time>
      </trkpt>
      <trkpt lat="40.416017" lon="-5.316883">
        <ele>2153.0</ele>
        <time>2018-06-17T11:46:52Z</time>
      </trkpt>
      <trkpt lat="40.416033" lon="-5.316967">
        <ele>2151.0</ele>
        <time>2018-06-17T11:46:53Z</time>
      </trkpt>
      <trkpt lat="40.416050" lon="-5.317050">
        <ele>2148.0</ele>
        <time>2018-06-17T11:46:54Z</time>
      </trkpt>
      <trkpt lat="40.416067" lon="-5.317133">
        <ele>2145.0</ele>
        <time>2018-06-17T11:46:55Z</time>
      </trkpt>
      <trkpt lat="40.416100" lon="-5.317250">
        <ele>2141.0</ele>
        <time>2018-06-17T11:46:56Z</time>
      </trkpt>
      <trkpt lat="40.416117" lon="-5.317367">
        <ele>2138.0</ele>
        <time>2018-06-17T11:46:57Z</time>
      </trkpt>
      <trkpt lat="40.416150" lon="-5.317483">
        <ele>2137.0</ele>
        <time>2018-06-17T11:46:58Z</time>
      </trkpt>
      <trkpt lat="40.416183" lon="-5.317617">
        <ele>2137.0</ele>
        <time>2018-06-17T11:46:59Z</time>
      </trkpt>
      <trkpt lat="40.416200" lon="-5.317717">
        <ele>2137.0</ele>
        <time>2018-06-17T11:47:00Z</time>
      </trkpt>
      <trkpt lat="40.416217" lon="-5.317800">
        <ele>2138.0</ele>
        <time>2018-06-17T11:47:01Z</time>
      </trkpt>
      <trkpt lat="40.416250" lon="-5.317883">
        <ele>2138.0</ele>
        <time>2018-06-17T11:47:02Z</time>
      </trkpt>
      <trkpt lat="40.416267" lon="-5.317967">
        <ele>2138.0</ele>
        <time>2018-06-17T11:47:03Z</time>
      </trkpt>
      <trkpt lat="40.416283" lon="-5.318050">
        <ele>2138.0</ele>
        <time>2018-06-17T11:47:04Z</time>
      </trkpt>
      <trkpt lat="40.416317" lon="-5.318117">
        <ele>2137.0</ele>
        <time>2018-06-17T11:47:05Z</time>
      </trkpt>
      <trkpt lat="40.416350" lon="-5.318183">
        <ele>2136.0</ele>
        <time>2018-06-17T11:47:06Z</time>
      </trkpt>
      <trkpt lat="40.416367" lon="-5.318233">
        <ele>2135.0</ele>
        <time>2018-06-17T11:47:07Z</time>
      </trkpt>
      <trkpt lat="40.416400" lon="-5.318300">
        <ele>2135.0</ele>
        <time>2018-06-17T11:47:08Z</time>
      </trkpt>
      <trkpt lat="40.416417" lon="-5.318367">
        <ele>2133.0</ele>
        <time>2018-06-17T11:47:09Z</time>
      </trkpt>
      <trkpt lat="40.416450" lon="-5.318450">
        <ele>2132.0</ele>
        <time>2018-06-17T11:47:10Z</time>
      </trkpt>
      <trkpt lat="40.416483" lon="-5.318517">
        <ele>2131.0</ele>
        <time>2018-06-17T11:47:11Z</time>
      </trkpt>
      <trkpt lat="40.416517" lon="-5.318583">
        <ele>2129.0</ele>
        <time>2018-06-17T11:47:12Z</time>
      </trkpt>
      <trkpt lat="40.416567" lon="-5.318650">
        <ele>2128.0</ele>
        <time>2018-06-17T11:47:13Z</time>
      </trkpt>
      <trkpt lat="40.416600" lon="-5.318733">
        <ele>2128.0</ele>
        <time>2018-06-17T11:47:14Z</time>
      </trkpt>
      <trkpt lat="40.416617" lon="-5.318833">
        <ele>2127.0</ele>
        <time>2018-06-17T11:47:15Z</time>
      </trkpt>
      <trkpt lat="40.416617" lon="-5.318933">
        <ele>2125.0</ele>
        <time>2018-06-17T11:47:16Z</time>
      </trkpt>
      <trkpt lat="40.416633" lon="-5.319050">
        <ele>2124.0</ele>
        <time>2018-06-17T11:47:17Z</time>
      </trkpt>
      <trkpt lat="40.416667" lon="-5.319150">
        <ele>2121.0</ele>
        <time>2018-06-17T11:47:18Z</time>
      </trkpt>
      <trkpt lat="40.416700" lon="-5.319250">
        <ele>2120.0</ele>
        <time>2018-06-17T11:47:19Z</time>
      </trkpt>
      <trkpt lat="40.416717" lon="-5.319350">
        <ele>2119.0</ele>
        <time>2018-06-17T11:47:20Z</time>
      </trkpt>
      <trkpt lat="40.416733" lon="-5.319450">
        <ele>2119.0</ele>
        <time>2018-06-17T11:47:21Z</time>
      </trkpt>
      <trkpt lat="40.416750" lon="-5.319550">
        <ele>2119.0</ele>
        <time>2018-06-17T11:47:22Z</time>
      </trkpt>
      <trkpt lat="40.416767" lon="-5.319633">
        <ele>2119.0</ele>
        <time>2018-06-17T11:47:23Z</time>
      </trkpt>
      <trkpt lat="40.416800" lon="-5.319717">
        <ele>2118.0</ele>
        <time>2018-06-17T11:47:24Z</time>
      </trkpt>
      <trkpt lat="40.416833" lon="-5.319800">
        <ele>2118.0</ele>
        <time>2018-06-17T11:47:25Z</time>
      </trkpt>
      <trkpt lat="40.416867" lon="-5.319883">
        <ele>2117.0</ele>
        <time>2018-06-17T11:47:26Z</time>
      </trkpt>
      <trkpt lat="40.416900" lon="-5.319967">
        <ele>2116.0</ele>
        <time>2018-06-17T11:47:27Z</time>
      </trkpt>
      <trkpt lat="40.416933" lon="-5.320067">
        <ele>2115.0</ele>
        <time>2018-06-17T11:47:28Z</time>
      </trkpt>
      <trkpt lat="40.416967" lon="-5.320167">
        <ele>2114.0</ele>
        <time>2018-06-17T11:47:29Z</time>
      </trkpt>
      <trkpt lat="40.417000" lon="-5.320283">
        <ele>2113.0</ele>
        <time>2018-06-17T11:47:30Z</time>
      </trkpt>
      <trkpt lat="40.417000" lon="-5.320400">
        <ele>2112.0</ele>
        <time>2018-06-17T11:47:31Z</time>
      </trkpt>
      <trkpt lat="40.417000" lon="-5.320533">
        <ele>2112.0</ele>
        <time>2018-06-17T11:47:32Z</time>
      </trkpt>
      <trkpt lat="40.417000" lon="-5.320667">
        <ele>2111.0</ele>
        <time>2018-06-17T11:47:33Z</time>
      </trkpt>
      <trkpt lat="40.417000" lon="-5.320783">
        <ele>2110.0</ele>
        <time>2018-06-17T11:47:34Z</time>
      </trkpt>
      <trkpt lat="40.417000" lon="-5.320917">
        <ele>2109.0</ele>
        <time>2018-06-17T11:47:35Z</time>
      </trkpt>
      <trkpt lat="40.417000" lon="-5.321017">
        <ele>2108.0</ele>
        <time>2018-06-17T11:47:36Z</time>
      </trkpt>
      <trkpt lat="40.417017" lon="-5.321150">
        <ele>2106.0</ele>
        <time>2018-06-17T11:47:37Z</time>
      </trkpt>
      <trkpt lat="40.417000" lon="-5.321267">
        <ele>2106.0</ele>
        <time>2018-06-17T11:47:38Z</time>
      </trkpt>
      <trkpt lat="40.416983" lon="-5.321383">
        <ele>2105.0</ele>
        <time>2018-06-17T11:47:39Z</time>
      </trkpt>
      <trkpt lat="40.416983" lon="-5.321500">
        <ele>2104.0</ele>
        <time>2018-06-17T11:47:40Z</time>
      </trkpt>
      <trkpt lat="40.416983" lon="-5.321617">
        <ele>2102.0</ele>
        <time>2018-06-17T11:47:41Z</time>
      </trkpt>
      <trkpt lat="40.417000" lon="-5.321733">
        <ele>2099.0</ele>
        <time>2018-06-17T11:47:42Z</time>
      </trkpt>
      <trkpt lat="40.417000" lon="-5.321850">
        <ele>2097.0</ele>
        <time>2018-06-17T11:47:43Z</time>
      </trkpt>
      <trkpt lat="40.417017" lon="-5.321967">
        <ele>2094.0</ele>
        <time>2018-06-17T11:47:44Z</time>
      </trkpt>
      <trkpt lat="40.417017" lon="-5.322100">
        <ele>2092.0</ele>
        <time>2018-06-17T11:47:45Z</time>
      </trkpt>
      <trkpt lat="40.417000" lon="-5.322233">
        <ele>2090.0</ele>
        <time>2018-06-17T11:47:46Z</time>
      </trkpt>
      <trkpt lat="40.416983" lon="-5.322367">
        <ele>2090.0</ele>
        <time>2018-06-17T11:47:47Z</time>
      </trkpt>
      <trkpt lat="40.416983" lon="-5.322483">
        <ele>2093.0</ele>
        <time>2018-06-17T11:47:48Z</time>
      </trkpt>
      <trkpt lat="40.416950" lon="-5.322567">
        <ele>2095.0</ele>
        <time>2018-06-17T11:47:49Z</time>
      </trkpt>
      <trkpt lat="40.416917" lon="-5.322667">
        <ele>2096.0</ele>
        <time>2018-06-17T11:47:50Z</time>
      </trkpt>
      <trkpt lat="40.416883" lon="-5.322750">
        <ele>2096.0</ele>
        <time>2018-06-17T11:47:51Z</time>
      </trkpt>
      <trkpt lat="40.416850" lon="-5.322867">
        <ele>2096.0</ele>
        <time>2018-06-17T11:47:52Z</time>
      </trkpt>
      <trkpt lat="40.416817" lon="-5.322983">
        <ele>2095.0</ele>
        <time>2018-06-17T11:47:53Z</time>
      </trkpt>
      <trkpt lat="40.416800" lon="-5.323100">
        <ele>2095.0</ele>
        <time>2018-06-17T11:47:54Z</time>
      </trkpt>
      <trkpt lat="40.416783" lon="-5.323217">
        <ele>2095.0</ele>
        <time>2018-06-17T11:47:55Z</time>
      </trkpt>
      <trkpt lat="40.416783" lon="-5.323333">
        <ele>2095.0</ele>
        <time>2018-06-17T11:47:56Z</time>
      </trkpt>
      <trkpt lat="40.416800" lon="-5.323450">
        <ele>2095.0</ele>
        <time>2018-06-17T11:47:57Z</time>
      </trkpt>
      <trkpt lat="40.416817" lon="-5.323550">
        <ele>2096.0</ele>
        <time>2018-06-17T11:47:58Z</time>
      </trkpt>
      <trkpt lat="40.416817" lon="-5.323667">
        <ele>2098.0</ele>
        <time>2018-06-17T11:47:59Z</time>
      </trkpt>
      <trkpt lat="40.416817" lon="-5.323783">
        <ele>2100.0</ele>
        <time>2018-06-17T11:48:00Z</time>
      </trkpt>
      <trkpt lat="40.416817" lon="-5.323883">
        <ele>2102.0</ele>
        <time>2018-06-17T11:48:01Z</time>
      </trkpt>
      <trkpt lat="40.416817" lon="-5.323983">
        <ele>2105.0</ele>
        <time>2018-06-17T11:48:02Z</time>
      </trkpt>
      <trkpt lat="40.416833" lon="-5.324083">
        <ele>2107.0</ele>
        <time>2018-06-17T11:48:03Z</time>
      </trkpt>
      <trkpt lat="40.416850" lon="-5.324167">
        <ele>2110.0</ele>
        <time>2018-06-17T11:48:04Z</time>
      </trkpt>
      <trkpt lat="40.416833" lon="-5.324267">
        <ele>2113.0</ele>
        <time>2018-06-17T11:48:05Z</time>
      </trkpt>
      <trkpt lat="40.416800" lon="-5.324383">
        <ele>2115.0</ele>
        <time>2018-06-17T11:48:06Z</time>
      </trkpt>
      <trkpt lat="40.416733" lon="-5.324517">
        <ele>2114.0</ele>
        <time>2018-06-17T11:48:07Z</time>
      </trkpt>
      <trkpt lat="40.416617" lon="-5.324633">
        <ele>2113.0</ele>
        <time>2018-06-17T11:48:08Z</time>
      </trkpt>
      <trkpt lat="40.416483" lon="-5.324733">
        <ele>2113.0</ele>
        <time>2018-06-17T11:48:09Z</time>
      </trkpt>
      <trkpt lat="40.416317" lon="-5.324767">
        <ele>2114.0</ele>
        <time>2018-06-17T11:48:10Z</time>
      </trkpt>
      <trkpt lat="40.416150" lon="-5.324733">
        <ele>2117.0</ele>
        <time>2018-06-17T11:48:11Z</time>
      </trkpt>
      <trkpt lat="40.416000" lon="-5.324667">
        <ele>2120.0</ele>
        <time>2018-06-17T11:48:12Z</time>
      </trkpt>
      <trkpt lat="40.415883" lon="-5.324600">
        <ele>2124.0</ele>
        <time>2018-06-17T11:48:13Z</time>
      </trkpt>
      <trkpt lat="40.415783" lon="-5.324533">
        <ele>2128.0</ele>
        <time>2018-06-17T11:48:14Z</time>
      </trkpt>
      <trkpt lat="40.415733" lon="-5.324450">
        <ele>2130.0</ele>
        <time>2018-06-17T11:48:15Z</time>
      </trkpt>
      <trkpt lat="40.415717" lon="-5.324383">
        <ele>2131.0</ele>
        <time>2018-06-17T11:48:16Z</time>
      </trkpt>
      <trkpt lat="40.415733" lon="-5.324300">
        <ele>2130.0</ele>
        <time>2018-06-17T11:48:17Z</time>
      </trkpt>
      <trkpt lat="40.415750" lon="-5.324217">
        <ele>2130.0</ele>
        <time>2018-06-17T11:48:18Z</time>
      </trkpt>
      <trkpt lat="40.415800" lon="-5.324150">
        <ele>2131.0</ele>
        <time>2018-06-17T11:48:19Z</time>
      </trkpt>
      <trkpt lat="40.415850" lon="-5.324100">
        <ele>2134.0</ele>
        <time>2018-06-17T11:48:20Z</time>
      </trkpt>
      <trkpt lat="40.415900" lon="-5.324100">
        <ele>2138.0</ele>
        <time>2018-06-17T11:48:21Z</time>
      </trkpt>
      <trkpt lat="40.415933" lon="-5.324117">
        <ele>2142.0</ele>
        <time>2018-06-17T11:48:22Z</time>
      </trkpt>
      <trkpt lat="40.415950" lon="-5.324133">
        <ele>2146.0</ele>
        <time>2018-06-17T11:48:23Z</time>
      </trkpt>
      <trkpt lat="40.415950" lon="-5.324150">
        <ele>2148.0</ele>
        <time>2018-06-17T11:48:24Z</time>
      </trkpt>
      <trkpt lat="40.415933" lon="-5.324167">
        <ele>2147.0</ele>
        <time>2018-06-17T11:48:25Z</time>
      </trkpt>
      <trkpt lat="40.415933" lon="-5.324233">
        <ele>2147.0</ele>
        <time>2018-06-17T11:48:26Z</time>
      </trkpt>
      <trkpt lat="40.415950" lon="-5.324317">
        <ele>2146.0</ele>
        <time>2018-06-17T11:48:27Z</time>
      </trkpt>
      <trkpt lat="40.415983" lon="-5.324450">
        <ele>2144.0</ele>
        <time>2018-06-17T11:48:28Z</time>
      </trkpt>
      <trkpt lat="40.416000" lon="-5.324600">
        <ele>2146.0</ele>
        <time>2018-06-17T11:48:29Z</time>
      </trkpt>
      <trkpt lat="40.416000" lon="-5.324733">
        <ele>2150.0</ele>
        <time>2018-06-17T11:48:30Z</time>
      </trkpt>
      <trkpt lat="40.415933" lon="-5.324867">
        <ele>2153.0</ele>
        <time>2018-06-17T11:48:31Z</time>
      </trkpt>
      <trkpt lat="40.415850" lon="-5.324967">
        <ele>2154.0</ele>
        <time>2018-06-17T11:48:32Z</time>
      </trkpt>
      <trkpt lat="40.415733" lon="-5.325050">
        <ele>2153.0</ele>
        <time>2018-06-17T11:48:33Z</time>
      </trkpt>
      <trkpt lat="40.415567" lon="-5.325100">
        <ele>2151.0</ele>
        <time>2018-06-17T11:48:34Z</time>
      </trkpt>
      <trkpt lat="40.415400" lon="-5.325117">
        <ele>2149.0</ele>
        <time>2018-06-17T11:48:35Z</time>
      </trkpt>
      <trkpt lat="40.415233" lon="-5.325067">
        <ele>2148.0</ele>
        <time>2018-06-17T11:48:36Z</time>
      </trkpt>
      <trkpt lat="40.415083" lon="-5.324983">
        <ele>2149.0</ele>
        <time>2018-06-17T11:48:37Z</time>
      </trkpt>
      <trkpt lat="40.414950" lon="-5.324900">
        <ele>2150.0</ele>
        <time>2018-06-17T11:48:38Z</time>
      </trkpt>
      <trkpt lat="40.414800" lon="-5.324833">
        <ele>2153.0</ele>
        <time>2018-06-17T11:48:39Z</time>
      </trkpt>
      <trkpt lat="40.414683" lon="-5.324750">
        <ele>2155.0</ele>
        <time>2018-06-17T11:48:40Z</time>
      </trkpt>
      <trkpt lat="40.414567" lon="-5.324683">
        <ele>2157.0</ele>
        <time>2018-06-17T11:48:41Z</time>
      </trkpt>
      <trkpt lat="40.414467" lon="-5.324583">
        <ele>2159.0</ele>
        <time>2018-06-17T11:48:42Z</time>
      </trkpt>
      <trkpt lat="40.414400" lon="-5.324483">
        <ele>2159.0</ele>
        <time>2018-06-17T11:48:43Z</time>
      </trkpt>
      <trkpt lat="40.414367" lon="-5.324367">
        <ele>2159.0</ele>
        <time>2018-06-17T11:48:44Z</time>
      </trkpt>
      <trkpt lat="40.414367" lon="-5.324267">
        <ele>2160.0</ele>
        <time>2018-06-17T11:48:45Z</time>
      </trkpt>
      <trkpt lat="40.414383" lon="-5.324183">
        <ele>2161.0</ele>
        <time>2018-06-17T11:48:46Z</time>
      </trkpt>
      <trkpt lat="40.414400" lon="-5.324133">
        <ele>2161.0</ele>
        <time>2018-06-17T11:48:47Z</time>
      </trkpt>
      <trkpt lat="40.414450" lon="-5.324117">
        <ele>2162.0</ele>
        <time>2018-06-17T11:48:48Z</time>
      </trkpt>
      <trkpt lat="40.414483" lon="-5.324117">
        <ele>2163.0</ele>
        <time>2018-06-17T11:48:49Z</time>
      </trkpt>
      <trkpt lat="40.414533" lon="-5.324133">
        <ele>2164.0</ele>
        <time>2018-06-17T11:48:50Z</time>
      </trkpt>
      <trkpt lat="40.414567" lon="-5.324133">
        <ele>2165.0</ele>
        <time>2018-06-17T11:48:51Z</time>
      </trkpt>
      <trkpt lat="40.414600" lon="-5.324150">
        <ele>2166.0</ele>
        <time>2018-06-17T11:48:52Z</time>
      </trkpt>
      <trkpt lat="40.414633" lon="-5.324183">
        <ele>2167.0</ele>
        <time>2018-06-17T11:48:53Z</time>
      </trkpt>
      <trkpt lat="40.414667" lon="-5.324250">
        <ele>2168.0</ele>
        <time>2018-06-17T11:48:54Z</time>
      </trkpt>
      <trkpt lat="40.414683" lon="-5.324333">
        <ele>2170.0</ele>
        <time>2018-06-17T11:48:55Z</time>
      </trkpt>
      <trkpt lat="40.414667" lon="-5.324450">
        <ele>2171.0</ele>
        <time>2018-06-17T11:48:56Z</time>
      </trkpt>
      <trkpt lat="40.414633" lon="-5.324567">
        <ele>2173.0</ele>
        <time>2018-06-17T11:48:57Z</time>
      </trkpt>
      <trkpt lat="40.414567" lon="-5.324683">
        <ele>2175.0</ele>
        <time>2018-06-17T11:48:58Z</time>
      </trkpt>
      <trkpt lat="40.414483" lon="-5.324800">
        <ele>2177.0</ele>
        <time>2018-06-17T11:48:59Z</time>
      </trkpt>
      <trkpt lat="40.414367" lon="-5.324883">
        <ele>2178.0</ele>
        <time>2018-06-17T11:49:00Z</time>
      </trkpt>
      <trkpt lat="40.414217" lon="-5.324950">
        <ele>2179.0</ele>
        <time>2018-06-17T11:49:01Z</time>
      </trkpt>
      <trkpt lat="40.414067" lon="-5.324950">
        <ele>2179.0</ele>
        <time>2018-06-17T11:49:02Z</time>
      </trkpt>
      <trkpt lat="40.413900" lon="-5.324917">
        <ele>2178.0</ele>
        <time>2018-06-17T11:49:03Z</time>
      </trkpt>
      <trkpt lat="40.413767" lon="-5.324833">
        <ele>2178.0</ele>
        <time>2018-06-17T11:49:04Z</time>
      </trkpt>
      <trkpt lat="40.413667" lon="-5.324700">
        <ele>2179.0</ele>
        <time>2018-06-17T11:49:05Z</time>
      </trkpt>
      <trkpt lat="40.413600" lon="-5.324567">
        <ele>2180.0</ele>
        <time>2018-06-17T11:49:06Z</time>
      </trkpt>
      <trkpt lat="40.413583" lon="-5.324450">
        <ele>2182.0</ele>
        <time>2018-06-17T11:49:07Z</time>
      </trkpt>
      <trkpt lat="40.413583" lon="-5.324350">
        <ele>2183.0</ele>
        <time>2018-06-17T11:49:08Z</time>
      </trkpt>
      <trkpt lat="40.413617" lon="-5.324267">
        <ele>2185.0</ele>
        <time>2018-06-17T11:49:09Z</time>
      </trkpt>
      <trkpt lat="40.413650" lon="-5.324200">
        <ele>2186.0</ele>
        <time>2018-06-17T11:49:10Z</time>
      </trkpt>
      <trkpt lat="40.413667" lon="-5.324167">
        <ele>2188.0</ele>
        <time>2018-06-17T11:49:11Z</time>
      </trkpt>
      <trkpt lat="40.413700" lon="-5.324167">
        <ele>2188.0</ele>
        <time>2018-06-17T11:49:12Z</time>
      </trkpt>
      <trkpt lat="40.413750" lon="-5.324183">
        <ele>2189.0</ele>
        <time>2018-06-17T11:49:13Z</time>
      </trkpt>
      <trkpt lat="40.413783" lon="-5.324233">
        <ele>2191.0</ele>
        <time>2018-06-17T11:49:14Z</time>
      </trkpt>
      <trkpt lat="40.413817" lon="-5.324317">
        <ele>2194.0</ele>
        <time>2018-06-17T11:49:15Z</time>
      </trkpt>
      <trkpt lat="40.413800" lon="-5.324417">
        <ele>2197.0</ele>
        <time>2018-06-17T11:49:16Z</time>
      </trkpt>
      <trkpt lat="40.413767" lon="-5.324533">
        <ele>2199.0</ele>
        <time>2018-06-17T11:49:17Z</time>
      </trkpt>
      <trkpt lat="40.413700" lon="-5.324633">
        <ele>2201.0</ele>
        <time>2018-06-17T11:49:18Z</time>
      </trkpt>
      <trkpt lat="40.413600" lon="-5.324733">
        <ele>2202.0</ele>
        <time>2018-06-17T11:49:19Z</time>
      </trkpt>
      <trkpt lat="40.413500" lon="-5.324833">
        <ele>2203.0</ele>
        <time>2018-06-17T11:49:20Z</time>
      </trkpt>
      <trkpt lat="40.413350" lon="-5.324900">
        <ele>2204.0</ele>
        <time>2018-06-17T11:49:21Z</time>
      </trkpt>
      <trkpt lat="40.413200" lon="-5.324933">
        <ele>2204.0</ele>
        <time>2018-06-17T11:49:22Z</time>
      </trkpt>
      <trkpt lat="40.413050" lon="-5.324900">
        <ele>2205.0</ele>
        <time>2018-06-17T11:49:23Z</time>
      </trkpt>
      <trkpt lat="40.412900" lon="-5.324817">
        <ele>2206.0</ele>
        <time>2018-06-17T11:49:24Z</time>
      </trkpt>
      <trkpt lat="40.412783" lon="-5.324733">
        <ele>2207.0</ele>
        <time>2018-06-17T11:49:25Z</time>
      </trkpt>
      <trkpt lat="40.412700" lon="-5.324617">
        <ele>2208.0</ele>
        <time>2018-06-17T11:49:26Z</time>
      </trkpt>
      <trkpt lat="40.412633" lon="-5.324500">
        <ele>2208.0</ele>
        <time>2018-06-17T11:49:27Z</time>
      </trkpt>
      <trkpt lat="40.412583" lon="-5.324383">
        <ele>2207.0</ele>
        <time>2018-06-17T11:49:28Z</time>
      </trkpt>
      <trkpt lat="40.412567" lon="-5.324250">
        <ele>2207.0</ele>
        <time>2018-06-17T11:49:29Z</time>
      </trkpt>
      <trkpt lat="40.412567" lon="-5.324117">
        <ele>2207.0</ele>
        <time>2018-06-17T11:49:30Z</time>
      </trkpt>
      <trkpt lat="40.412583" lon="-5.324033">
        <ele>2208.0</ele>
        <time>2018-06-17T11:49:31Z</time>
      </trkpt>
      <trkpt lat="40.412633" lon="-5.323967">
        <ele>2209.0</ele>
        <time>2018-06-17T11:49:32Z</time>
      </trkpt>
      <trkpt lat="40.412667" lon="-5.323933">
        <ele>2210.0</ele>
        <time>2018-06-17T11:49:33Z</time>
      </trkpt>
      <trkpt lat="40.412717" lon="-5.323933">
        <ele>2210.0</ele>
        <time>2018-06-17T11:49:34Z</time>
      </trkpt>
      <trkpt lat="40.412750" lon="-5.323967">
        <ele>2211.0</ele>
        <time>2018-06-17T11:49:35Z</time>
      </trkpt>
      <trkpt lat="40.412783" lon="-5.324033">
        <ele>2212.0</ele>
        <time>2018-06-17T11:49:36Z</time>
      </trkpt>
      <trkpt lat="40.412817" lon="-5.324117">
        <ele>2213.0</ele>
        <time>2018-06-17T11:49:37Z</time>
      </trkpt>
      <trkpt lat="40.412817" lon="-5.324233">
        <ele>2214.0</ele>
        <time>2018-06-17T11:49:38Z</time>
      </trkpt>
      <trkpt lat="40.412800" lon="-5.324350">
        <ele>2216.0</ele>
        <time>2018-06-17T11:49:39Z</time>
      </trkpt>
      <trkpt lat="40.412767" lon="-5.324483">
        <ele>2219.0</ele>
        <time>2018-06-17T11:49:40Z</time>
      </trkpt>
      <trkpt lat="40.412700" lon="-5.324600">
        <ele>2221.0</ele>
        <time>2018-06-17T11:49:41Z</time>
      </trkpt>
      <trkpt lat="40.412600" lon="-5.324700">
        <ele>2223.0</ele>
        <time>2018-06-17T11:49:42Z</time>
      </trkpt>
      <trkpt lat="40.412483" lon="-5.324783">
        <ele>2224.0</ele>
        <time>2018-06-17T11:49:43Z</time>
      </trkpt>
      <trkpt lat="40.412333" lon="-5.324850">
        <ele>2225.0</ele>
        <time>2018-06-17T11:49:44Z</time>
      </trkpt>
      <trkpt lat="40.412183" lon="-5.324850">
        <ele>2226.0</ele>
        <time>2018-06-17T11:49:45Z</time>
      </trkpt>
      <trkpt lat="40.412033" lon="-5.324817">
        <ele>2228.0</ele>
        <time>2018-06-17T11:49:46Z</time>
      </trkpt>
      <trkpt lat="40.411900" lon="-5.324750">
        <ele>2230.0</ele>
        <time>2018-06-17T11:49:47Z</time>
      </trkpt>
      <trkpt lat="40.411800" lon="-5.324650">
        <ele>2231.0</ele>
        <time>2018-06-17T11:49:48Z</time>
      </trkpt>
      <trkpt lat="40.411717" lon="-5.324533">
        <ele>2233.0</ele>
        <time>2018-06-17T11:49:49Z</time>
      </trkpt>
      <trkpt lat="40.411667" lon="-5.324400">
        <ele>2233.0</ele>
        <time>2018-06-17T11:49:50Z</time>
      </trkpt>
      <trkpt lat="40.411667" lon="-5.324283">
        <ele>2234.0</ele>
        <time>2018-06-17T11:49:51Z</time>
      </trkpt>
      <trkpt lat="40.411700" lon="-5.324183">
        <ele>2234.0</ele>
        <time>2018-06-17T11:49:52Z</time>
      </trkpt>
      <trkpt lat="40.411750" lon="-5.324100">
        <ele>2236.0</ele>
        <time>2018-06-17T11:49:53Z</time>
      </trkpt>
      <trkpt lat="40.411800" lon="-5.324083">
        <ele>2238.0</ele>
        <time>2018-06-17T11:49:54Z</time>
      </trkpt>
      <trkpt lat="40.411833" lon="-5.324083">
        <ele>2240.0</ele>
        <time>2018-06-17T11:49:55Z</time>
      </trkpt>
      <trkpt lat="40.411867" lon="-5.324133">
        <ele>2242.0</ele>
        <time>2018-06-17T11:49:56Z</time>
      </trkpt>
      <trkpt lat="40.411883" lon="-5.324183">
        <ele>2243.0</ele>
        <time>2018-06-17T11:49:57Z</time>
      </trkpt>
      <trkpt lat="40.411900" lon="-5.324233">
        <ele>2245.0</ele>
        <time>2018-06-17T11:49:58Z</time>
      </trkpt>
      <trkpt lat="40.411900" lon="-5.324317">
        <ele>2246.0</ele>
        <time>2018-06-17T11:49:59Z</time>
      </trkpt>
      <trkpt lat="40.411900" lon="-5.324417">
        <ele>2246.0</ele>
        <time>2018-06-17T11:50:00Z</time>
      </trkpt>
      <trkpt lat="40.411867" lon="-5.324550">
        <ele>2246.0</ele>
        <time>2018-06-17T11:50:01Z</time>
      </trkpt>
      <trkpt lat="40.411800" lon="-5.324683">
        <ele>2247.0</ele>
        <time>2018-06-17T11:50:02Z</time>
      </trkpt>
      <trkpt lat="40.411717" lon="-5.324800">
        <ele>2250.0</ele>
        <time>2018-06-17T11:50:03Z</time>
      </trkpt>
      <trkpt lat="40.411617" lon="-5.324900">
        <ele>2252.0</ele>
        <time>2018-06-17T11:50:04Z</time>
      </trkpt>
      <trkpt lat="40.411483" lon="-5.324950">
        <ele>2254.0</ele>
        <time>2018-06-17T11:50:05Z</time>
      </trkpt>
      <trkpt lat="40.411350" lon="-5.324983">
        <ele>2255.0</ele>
        <time>2018-06-17T11:50:06Z</time>
      </trkpt>
      <trkpt lat="40.411217" lon="-5.324967">
        <ele>2255.0</ele>
        <time>2018-06-17T11:50:07Z</time>
      </trkpt>
      <trkpt lat="40.411067" lon="-5.324917">
        <ele>2256.0</ele>
        <time>2018-06-17T11:50:08Z</time>
      </trkpt>
      <trkpt lat="40.410950" lon="-5.324817">
        <ele>2256.0</ele>
        <time>2018-06-17T11:50:09Z</time>
      </trkpt>
      <trkpt lat="40.410867" lon="-5.324667">
        <ele>2256.0</ele>
        <time>2018-06-17T11:50:10Z</time>
      </trkpt>
      <trkpt lat="40.410833" lon="-5.324517">
        <ele>2258.0</ele>
        <time>2018-06-17T11:50:11Z</time>
      </trkpt>
      <trkpt lat="40.410833" lon="-5.324383">
        <ele>2260.0</ele>
        <time>2018-06-17T11:50:12Z</time>
      </trkpt>
      <trkpt lat="40.410867" lon="-5.324283">
        <ele>2262.0</ele>
        <time>2018-06-17T11:50:13Z</time>
      </trkpt>
      <trkpt lat="40.410900" lon="-5.324217">
        <ele>2264.0</ele>
        <time>2018-06-17T11:50:14Z</time>
      </trkpt>
      <trkpt lat="40.410950" lon="-5.324200">
        <ele>2264.0</ele>
        <time>2018-06-17T11:50:15Z</time>
      </trkpt>
      <trkpt lat="40.411017" lon="-5.324217">
        <ele>2265.0</ele>
        <time>2018-06-17T11:50:16Z</time>
      </trkpt>
      <trkpt lat="40.411067" lon="-5.324267">
        <ele>2266.0</ele>
        <time>2018-06-17T11:50:17Z</time>
      </trkpt>
      <trkpt lat="40.411117" lon="-5.324350">
        <ele>2269.0</ele>
        <time>2018-06-17T11:50:18Z</time>
      </trkpt>
      <trkpt lat="40.411133" lon="-5.324467">
        <ele>2271.0</ele>
        <time>2018-06-17T11:50:19Z</time>
      </trkpt>
      <trkpt lat="40.411133" lon="-5.324600">
        <ele>2275.0</ele>
        <time>2018-06-17T11:50:20Z</time>
      </trkpt>
      <trkpt lat="40.411100" lon="-5.324750">
        <ele>2279.0</ele>
        <time>2018-06-17T11:50:21Z</time>
      </trkpt>
      <trkpt lat="40.411067" lon="-5.324867">
        <ele>2283.0</ele>
        <time>2018-06-17T11:50:22Z</time>
      </trkpt>
      <trkpt lat="40.411000" lon="-5.324967">
        <ele>2286.0</ele>
        <time>2018-06-17T11:50:23Z</time>
      </trkpt>
      <trkpt lat="40.410917" lon="-5.325050">
        <ele>2288.0</ele>
        <time>2018-06-17T11:50:24Z</time>
      </trkpt>
      <trkpt lat="40.410800" lon="-5.325133">
        <ele>2289.0</ele>
        <time>2018-06-17T11:50:25Z</time>
      </trkpt>
      <trkpt lat="40.410667" lon="-5.325183">
        <ele>2289.0</ele>
        <time>2018-06-17T11:50:26Z</time>
      </trkpt>
      <trkpt lat="40.410500" lon="-5.325200">
        <ele>2290.0</ele>
        <time>2018-06-17T11:50:27Z</time>
      </trkpt>
      <trkpt lat="40.410350" lon="-5.325167">
        <ele>2291.0</ele>
        <time>2018-06-17T11:50:28Z</time>
      </trkpt>
      <trkpt lat="40.410233" lon="-5.325100">
        <ele>2293.0</ele>
        <time>2018-06-17T11:50:29Z</time>
      </trkpt>
      <trkpt lat="40.410117" lon="-5.325017">
        <ele>2295.0</ele>
        <time>2018-06-17T11:50:30Z</time>
      </trkpt>
      <trkpt lat="40.410017" lon="-5.324933">
        <ele>2295.0</ele>
        <time>2018-06-17T11:50:31Z</time>
      </trkpt>
      <trkpt lat="40.409950" lon="-5.324800">
        <ele>2296.0</ele>
        <time>2018-06-17T11:50:32Z</time>
      </trkpt>
      <trkpt lat="40.409917" lon="-5.324667">
        <ele>2297.0</ele>
        <time>2018-06-17T11:50:33Z</time>
      </trkpt>
      <trkpt lat="40.409900" lon="-5.324533">
        <ele>2297.0</ele>
        <time>2018-06-17T11:50:34Z</time>
      </trkpt>
      <trkpt lat="40.409933" lon="-5.324400">
        <ele>2299.0</ele>
        <time>2018-06-17T11:50:35Z</time>
      </trkpt>
      <trkpt lat="40.409983" lon="-5.324300">
        <ele>2301.0</ele>
        <time>2018-06-17T11:50:36Z</time>
      </trkpt>
      <trkpt lat="40.410033" lon="-5.324250">
        <ele>2304.0</ele>
        <time>2018-06-17T11:50:37Z</time>
      </trkpt>
      <trkpt lat="40.410100" lon="-5.324217">
        <ele>2308.0</ele>
        <time>2018-06-17T11:50:38Z</time>
      </trkpt>
      <trkpt lat="40.410167" lon="-5.324233">
        <ele>2312.0</ele>
        <time>2018-06-17T11:50:39Z</time>
      </trkpt>
      <trkpt lat="40.410217" lon="-5.324283">
        <ele>2316.0</ele>
        <time>2018-06-17T11:50:40Z</time>
      </trkpt>
      <trkpt lat="40.410233" lon="-5.324350">
        <ele>2318.0</ele>
        <time>2018-06-17T11:50:41Z</time>
      </trkpt>
      <trkpt lat="40.410250" lon="-5.324450">
        <ele>2320.0</ele>
        <time>2018-06-17T11:50:42Z</time>
      </trkpt>
      <trkpt lat="40.410267" lon="-5.324567">
        <ele>2322.0</ele>
        <time>2018-06-17T11:50:43Z</time>
      </trkpt>
      <trkpt lat="40.410267" lon="-5.324683">
        <ele>2324.0</ele>
        <time>2018-06-17T11:50:44Z</time>
      </trkpt>
      <trkpt lat="40.410250" lon="-5.324817">
        <ele>2327.0</ele>
        <time>2018-06-17T11:50:45Z</time>
      </trkpt>
      <trkpt lat="40.410200" lon="-5.324933">
        <ele>2330.0</ele>
        <time>2018-06-17T11:50:46Z</time>
      </trkpt>
      <trkpt lat="40.410133" lon="-5.325050">
        <ele>2332.0</ele>
        <time>2018-06-17T11:50:47Z</time>
      </trkpt>
      <trkpt lat="40.410017" lon="-5.325133">
        <ele>2334.0</ele>
        <time>2018-06-17T11:50:48Z</time>
      </trkpt>
      <trkpt lat="40.409917" lon="-5.325200">
        <ele>2336.0</ele>
        <time>2018-06-17T11:50:49Z</time>
      </trkpt>
      <trkpt lat="40.409783" lon="-5.325217">
        <ele>2337.0</ele>
        <time>2018-06-17T11:50:50Z</time>
      </trkpt>
      <trkpt lat="40.409650" lon="-5.325217">
        <ele>2338.0</ele>
        <time>2018-06-17T11:50:51Z</time>
      </trkpt>
      <trkpt lat="40.409500" lon="-5.325183">
        <ele>2338.0</ele>
        <time>2018-06-17T11:50:52Z</time>
      </trkpt>
      <trkpt lat="40.409367" lon="-5.325117">
        <ele>2339.0</ele>
        <time>2018-06-17T11:50:53Z</time>
      </trkpt>
      <trkpt lat="40.409250" lon="-5.325017">
        <ele>2340.0</ele>
        <time>2018-06-17T11:50:54Z</time>
      </trkpt>
      <trkpt lat="40.409150" lon="-5.324917">
        <ele>2341.0</ele>
        <time>2018-06-17T11:50:55Z</time>
      </trkpt>
      <trkpt lat="40.409100" lon="-5.324783">
        <ele>2342.0</ele>
        <time>2018-06-17T11:50:56Z</time>
      </trkpt>
      <trkpt lat="40.409083" lon="-5.324633">
        <ele>2343.0</ele>
        <time>2018-06-17T11:50:57Z</time>
      </trkpt>
      <trkpt lat="40.409067" lon="-5.324500">
        <ele>2344.0</ele>
        <time>2018-06-17T11:50:58Z</time>
      </trkpt>
      <trkpt lat="40.409083" lon="-5.324383">
        <ele>2346.0</ele>
        <time>2018-06-17T11:50:59Z</time>
      </trkpt>
      <trkpt lat="40.409133" lon="-5.324300">
        <ele>2349.0</ele>
        <time>2018-06-17T11:51:00Z</time>
      </trkpt>
      <trkpt lat="40.409183" lon="-5.324250">
        <ele>2350.0</ele>
        <time>2018-06-17T11:51:01Z</time>
      </trkpt>
      <trkpt lat="40.409267" lon="-5.324250">
        <ele>2351.0</ele>
        <time>2018-06-17T11:51:02Z</time>
      </trkpt>
      <trkpt lat="40.409333" lon="-5.324300">
        <ele>2354.0</ele>
        <time>2018-06-17T11:51:03Z</time>
      </trkpt>
      <trkpt lat="40.409367" lon="-5.324383">
        <ele>2357.0</ele>
        <time>2018-06-17T11:51:04Z</time>
      </trkpt>
      <trkpt lat="40.409383" lon="-5.324500">
        <ele>2361.0</ele>
        <time>2018-06-17T11:51:05Z</time>
      </trkpt>
      <trkpt lat="40.409350" lon="-5.324600">
        <ele>2364.0</ele>
        <time>2018-06-17T11:51:06Z</time>
      </trkpt>
      <trkpt lat="40.409283" lon="-5.324717">
        <ele>2367.0</ele>
        <time>2018-06-17T11:51:07Z</time>
      </trkpt>
      <trkpt lat="40.409217" lon="-5.324817">
        <ele>2368.0</ele>
        <time>2018-06-17T11:51:08Z</time>
      </trkpt>
      <trkpt lat="40.409150" lon="-5.324917">
        <ele>2369.0</ele>
        <time>2018-06-17T11:51:09Z</time>
      </trkpt>
      <trkpt lat="40.409050" lon="-5.325000">
        <ele>2370.0</ele>
        <time>2018-06-17T11:51:10Z</time>
      </trkpt>
      <trkpt lat="40.408933" lon="-5.325067">
        <ele>2370.0</ele>
        <time>2018-06-17T11:51:11Z</time>
      </trkpt>
      <trkpt lat="40.408783" lon="-5.325117">
        <ele>2370.0</ele>
        <time>2018-06-17T11:51:12Z</time>
      </trkpt>
      <trkpt lat="40.408617" lon="-5.325100">
        <ele>2370.0</ele>
        <time>2018-06-17T11:51:13Z</time>
      </trkpt>
      <trkpt lat="40.408467" lon="-5.325050">
        <ele>2371.0</ele>
        <time>2018-06-17T11:51:14Z</time>
      </trkpt>
      <trkpt lat="40.408317" lon="-5.324983">
        <ele>2372.0</ele>
        <time>2018-06-17T11:51:15Z</time>
      </trkpt>
      <trkpt lat="40.408200" lon="-5.324867">
        <ele>2374.0</ele>
        <time>2018-06-17T11:51:16Z</time>
      </trkpt>
      <trkpt lat="40.408117" lon="-5.324750">
        <ele>2375.0</ele>
        <time>2018-06-17T11:51:17Z</time>
      </trkpt>
      <trkpt lat="40.408050" lon="-5.324600">
        <ele>2377.0</ele>
        <time>2018-06-17T11:51:18Z</time>
      </trkpt>
      <trkpt lat="40.408017" lon="-5.324467">
        <ele>2380.0</ele>
        <time>2018-06-17T11:51:19Z</time>
      </trkpt>
      <trkpt lat="40.407983" lon="-5.324350">
        <ele>2383.0</ele>
        <time>2018-06-17T11:51:20Z</time>
      </trkpt>
      <trkpt lat="40.407983" lon="-5.324233">
        <ele>2385.0</ele>
        <time>2018-06-17T11:51:21Z</time>
      </trkpt>
      <trkpt lat="40.408000" lon="-5.324133">
        <ele>2387.0</ele>
        <time>2018-06-17T11:51:22Z</time>
      </trkpt>
      <trkpt lat="40.408050" lon="-5.324050">
        <ele>2388.0</ele>
        <time>2018-06-17T11:51:23Z</time>
      </trkpt>
      <trkpt lat="40.408117" lon="-5.324000">
        <ele>2390.0</ele>
        <time>2018-06-17T11:51:24Z</time>
      </trkpt>
      <trkpt lat="40.408183" lon="-5.323967">
        <ele>2393.0</ele>
        <time>2018-06-17T11:51:25Z</time>
      </trkpt>
      <trkpt lat="40.408233" lon="-5.323950">
        <ele>2397.0</ele>
        <time>2018-06-17T11:51:26Z</time>
      </trkpt>
      <trkpt lat="40.408283" lon="-5.323967">
        <ele>2401.0</ele>
        <time>2018-06-17T11:51:27Z</time>
      </trkpt>
      <trkpt lat="40.408317" lon="-5.323983">
        <ele>2404.0</ele>
        <time>2018-06-17T11:51:28Z</time>
      </trkpt>
      <trkpt lat="40.408333" lon="-5.324033">
        <ele>2406.0</ele>
        <time>2018-06-17T11:51:29Z</time>
      </trkpt>
      <trkpt lat="40.408367" lon="-5.324100">
        <ele>2408.0</ele>
        <time>2018-06-17T11:51:30Z</time>
      </trkpt>
      <trkpt lat="40.408367" lon="-5.324200">
        <ele>2410.0</ele>
        <time>2018-06-17T11:51:31Z</time>
      </trkpt>
      <trkpt lat="40.408367" lon="-5.324317">
        <ele>2412.0</ele>
        <time>2018-06-17T11:51:32Z</time>
      </trkpt>
      <trkpt lat="40.408350" lon="-5.324433">
        <ele>2415.0</ele>
        <time>2018-06-17T11:51:33Z</time>
      </trkpt>
      <trkpt lat="40.408317" lon="-5.324567">
        <ele>2418.0</ele>
        <time>2018-06-17T11:51:34Z</time>
      </trkpt>
      <trkpt lat="40.408267" lon="-5.324683">
        <ele>2421.0</ele>
        <time>2018-06-17T11:51:35Z</time>
      </trkpt>
      <trkpt lat="40.408200" lon="-5.324800">
        <ele>2423.0</ele>
        <time>2018-06-17T11:51:36Z</time>
      </trkpt>
      <trkpt lat="40.408100" lon="-5.324917">
        <ele>2425.0</ele>
        <time>2018-06-17T11:51:37Z</time>
      </trkpt>
      <trkpt lat="40.408000" lon="-5.325017">
        <ele>2426.0</ele>
        <time>2018-06-17T11:51:38Z</time>
      </trkpt>
      <trkpt lat="40.407883" lon="-5.325117">
        <ele>2428.0</ele>
        <time>2018-06-17T11:51:39Z</time>
      </trkpt>
      <trkpt lat="40.407767" lon="-5.325200">
        <ele>2430.0</ele>
        <time>2018-06-17T11:51:40Z</time>
      </trkpt>
      <trkpt lat="40.407633" lon="-5.325233">
        <ele>2432.0</ele>
        <time>2018-06-17T11:51:41Z</time>
      </trkpt>
      <trkpt lat="40.407483" lon="-5.325233">
        <ele>2431.0</ele>
        <time>2018-06-17T11:51:42Z</time>
      </trkpt>
      <trkpt lat="40.407350" lon="-5.325183">
        <ele>2431.0</ele>
        <time>2018-06-17T11:51:43Z</time>
      </trkpt>
      <trkpt lat="40.407200" lon="-5.325100">
        <ele>2430.0</ele>
        <time>2018-06-17T11:51:44Z</time>
      </trkpt>
      <trkpt lat="40.407083" lon="-5.324983">
        <ele>2430.0</ele>
        <time>2018-06-17T11:51:45Z</time>
      </trkpt>
      <trkpt lat="40.406983" lon="-5.324850">
        <ele>2431.0</ele>
        <time>2018-06-17T11:51:46Z</time>
      </trkpt>
      <trkpt lat="40.406917" lon="-5.324717">
        <ele>2432.0</ele>
        <time>2018-06-17T11:51:47Z</time>
      </trkpt>
      <trkpt lat="40.406883" lon="-5.324583">
        <ele>2435.0</ele>
        <time>2018-06-17T11:51:48Z</time>
      </trkpt>
      <trkpt lat="40.406850" lon="-5.324467">
        <ele>2437.0</ele>
        <time>2018-06-17T11:51:49Z</time>
      </trkpt>
      <trkpt lat="40.406850" lon="-5.324350">
        <ele>2438.0</ele>
        <time>2018-06-17T11:51:50Z</time>
      </trkpt>
      <trkpt lat="40.406867" lon="-5.324233">
        <ele>2439.0</ele>
        <time>2018-06-17T11:51:51Z</time>
      </trkpt>
      <trkpt lat="40.406900" lon="-5.324133">
        <ele>2440.0</ele>
        <time>2018-06-17T11:51:52Z</time>
      </trkpt>
      <trkpt lat="40.406950" lon="-5.324033">
        <ele>2442.0</ele>
        <time>2018-06-17T11:51:53Z</time>
      </trkpt>
      <trkpt lat="40.407017" lon="-5.323983">
        <ele>2445.0</ele>
        <time>2018-06-17T11:51:54Z</time>
      </trkpt>
      <trkpt lat="40.407100" lon="-5.323950">
        <ele>2447.0</ele>
        <time>2018-06-17T11:51:55Z</time>
      </trkpt>
      <trkpt lat="40.407167" lon="-5.323950">
        <ele>2450.0</ele>
        <time>2018-06-17T11:51:56Z</time>
      </trkpt>
      <trkpt lat="40.407233" lon="-5.323967">
        <ele>2453.0</ele>
        <time>2018-06-17T11:51:57Z</time>
      </trkpt>
      <trkpt lat="40.407300" lon="-5.324017">
        <ele>2456.0</ele>
        <time>2018-06-17T11:51:58Z</time>
      </trkpt>
      <trkpt lat="40.407350" lon="-5.324067">
        <ele>2459.0</ele>
        <time>2018-06-17T11:51:59Z</time>
      </trkpt>
      <trkpt lat="40.407400" lon="-5.324150">
        <ele>2462.0</ele>
        <time>2018-06-17T11:52:00Z</time>
      </trkpt>
      <trkpt lat="40.407417" lon="-5.324267">
        <ele>2464.0</ele>
        <time>2018-06-17T11:52:01Z</time>
      </trkpt>
      <trkpt lat="40.407400" lon="-5.324400">
        <ele>2467.0</ele>
        <time>2018-06-17T11:52:02Z</time>
      </trkpt>
      <trkpt lat="40.407350" lon="-5.324533">
        <ele>2469.0</ele>
        <time>2018-06-17T11:52:03Z</time>
      </trkpt>
      <trkpt lat="40.407283" lon="-5.324667">
        <ele>2472.0</ele>
        <time>2018-06-17T11:52:04Z</time>
      </trkpt>
      <trkpt lat="40.407200" lon="-5.324767">
        <ele>2475.0</ele>
        <time>2018-06-17T11:52:05Z</time>
      </trkpt>
      <trkpt lat="40.407083" lon="-5.324850">
        <ele>2478.0</ele>
        <time>2018-06-17T11:52:06Z</time>
      </trkpt>
      <trkpt lat="40.406967" lon="-5.324900">
        <ele>2479.0</ele>
        <time>2018-06-17T11:52:07Z</time>
      </trkpt>
      <trkpt lat="40.406833" lon="-5.324900">
        <ele>2480.0</ele>
        <time>2018-06-17T11:52:08Z</time>
      </trkpt>
      <trkpt lat="40.406700" lon="-5.324867">
        <ele>2480.0</ele>
        <time>2018-06-17T11:52:09Z</time>
      </trkpt>
      <trkpt lat="40.406567" lon="-5.324783">
        <ele>2481.0</ele>
        <time>2018-06-17T11:52:10Z</time>
      </trkpt>
      <trkpt lat="40.406467" lon="-5.324683">
        <ele>2482.0</ele>
        <time>2018-06-17T11:52:11Z</time>
      </trkpt>
      <trkpt lat="40.406400" lon="-5.324550">
        <ele>2484.0</ele>
        <time>2018-06-17T11:52:12Z</time>
      </trkpt>
      <trkpt lat="40.406350" lon="-5.324417">
        <ele>2486.0</ele>
        <time>2018-06-17T11:52:13Z</time>
      </trkpt>
      <trkpt lat="40.406350" lon="-5.324300">
        <ele>2488.0</ele>
        <time>2018-06-17T11:52:14Z</time>
      </trkpt>
      <trkpt lat="40.406367" lon="-5.324200">
        <ele>2490.0</ele>
        <time>2018-06-17T11:52:15Z</time>
      </trkpt>
      <trkpt lat="40.406400" lon="-5.324100">
        <ele>2491.0</ele>
        <time>2018-06-17T11:52:16Z</time>
      </trkpt>
      <trkpt lat="40.406467" lon="-5.324033">
        <ele>2494.0</ele>
        <time>2018-06-17T11:52:17Z</time>
      </trkpt>
      <trkpt lat="40.406517" lon="-5.323983">
        <ele>2497.0</ele>
        <time>2018-06-17T11:52:18Z</time>
      </trkpt>
      <trkpt lat="40.406583" lon="-5.323983">
        <ele>2499.0</ele>
        <time>2018-06-17T11:52:19Z</time>
      </trkpt>
      <trkpt lat="40.406650" lon="-5.324017">
        <ele>2500.0</ele>
        <time>2018-06-17T11:52:20Z</time>
      </trkpt>
      <trkpt lat="40.406683" lon="-5.324100">
        <ele>2502.0</ele>
        <time>2018-06-17T11:52:21Z</time>
      </trkpt>
      <trkpt lat="40.406683" lon="-5.324217">
        <ele>2503.0</ele>
        <time>2018-06-17T11:52:22Z</time>
      </trkpt>
      <trkpt lat="40.406667" lon="-5.324350">
        <ele>2505.0</ele>
        <time>2018-06-17T11:52:23Z</time>
      </trkpt>
      <trkpt lat="40.406600" lon="-5.324483">
        <ele>2507.0</ele>
        <time>2018-06-17T11:52:24Z</time>
      </trkpt>
      <trkpt lat="40.406517" lon="-5.324600">
        <ele>2508.0</ele>
        <time>2018-06-17T11:52:25Z</time>
      </trkpt>
      <trkpt lat="40.406417" lon="-5.324700">
        <ele>2508.0</ele>
        <time>2018-06-17T11:52:26Z</time>
      </trkpt>
      <trkpt lat="40.406283" lon="-5.324750">
        <ele>2509.0</ele>
        <time>2018-06-17T11:52:27Z</time>
      </trkpt>
      <trkpt lat="40.406133" lon="-5.324767">
        <ele>2511.0</ele>
        <time>2018-06-17T11:52:28Z</time>
      </trkpt>
      <trkpt lat="40.406000" lon="-5.324733">
        <ele>2513.0</ele>
        <time>2018-06-17T11:52:29Z</time>
      </trkpt>
      <trkpt lat="40.405867" lon="-5.324667">
        <ele>2515.0</ele>
        <time>2018-06-17T11:52:30Z</time>
      </trkpt>
      <trkpt lat="40.405783" lon="-5.324583">
        <ele>2517.0</ele>
        <time>2018-06-17T11:52:31Z</time>
      </trkpt>
      <trkpt lat="40.405700" lon="-5.324483">
        <ele>2519.0</ele>
        <time>2018-06-17T11:52:32Z</time>
      </trkpt>
      <trkpt lat="40.405667" lon="-5.324367">
        <ele>2520.0</ele>
        <time>2018-06-17T11:52:33Z</time>
      </trkpt>
      <trkpt lat="40.405650" lon="-5.324250">
        <ele>2521.0</ele>
        <time>2018-06-17T11:52:34Z</time>
      </trkpt>
      <trkpt lat="40.405667" lon="-5.324133">
        <ele>2522.0</ele>
        <time>2018-06-17T11:52:35Z</time>
      </trkpt>
      <trkpt lat="40.405717" lon="-5.324033">
        <ele>2523.0</ele>
        <time>2018-06-17T11:52:36Z</time>
      </trkpt>
      <trkpt lat="40.405767" lon="-5.323967">
        <ele>2526.0</ele>
        <time>2018-06-17T11:52:37Z</time>
      </trkpt>
      <trkpt lat="40.405817" lon="-5.323950">
        <ele>2528.0</ele>
        <time>2018-06-17T11:52:38Z</time>
      </trkpt>
      <trkpt lat="40.405850" lon="-5.323967">
        <ele>2530.0</ele>
        <time>2018-06-17T11:52:39Z</time>
      </trkpt>
      <trkpt lat="40.405883" lon="-5.324017">
        <ele>2531.0</ele>
        <time>2018-06-17T11:52:40Z</time>
      </trkpt>
      <trkpt lat="40.405917" lon="-5.324067">
        <ele>2531.0</ele>
        <time>2018-06-17T11:52:41Z</time>
      </trkpt>
      <trkpt lat="40.405950" lon="-5.324167">
        <ele>2531.0</ele>
        <time>2018-06-17T11:52:42Z</time>
      </trkpt>
      <trkpt lat="40.405983" lon="-5.324267">
        <ele>2534.0</ele>
        <time>2018-06-17T11:52:43Z</time>
      </trkpt>
      <trkpt lat="40.405983" lon="-5.324400">
        <ele>2536.0</ele>
        <time>2018-06-17T11:52:44Z</time>
      </trkpt>
      <trkpt lat="40.405983" lon="-5.324517">
        <ele>2539.0</ele>
        <time>2018-06-17T11:52:45Z</time>
      </trkpt>
      <trkpt lat="40.405967" lon="-5.324617">
        <ele>2541.0</ele>
        <time>2018-06-17T11:52:46Z</time>
      </trkpt>
      <trkpt lat="40.405933" lon="-5.324717">
        <ele>2542.0</ele>
        <time>2018-06-17T11:52:47Z</time>
      </trkpt>
      <trkpt lat="40.405867" lon="-5.324833">
        <ele>2542.0</ele>
        <time>2018-06-17T11:52:48Z</time>
      </trkpt>
      <trkpt lat="40.405767" lon="-5.324950">
        <ele>2540.0</ele>
        <time>2018-06-17T11:52:49Z</time>
      </trkpt>
      <trkpt lat="40.405650" lon="-5.325050">
        <ele>2539.0</ele>
        <time>2018-06-17T11:52:50Z</time>
      </trkpt>
      <trkpt lat="40.405500" lon="-5.325117">
        <ele>2539.0</ele>
        <time>2018-06-17T11:52:51Z</time>
      </trkpt>
      <trkpt lat="40.405350" lon="-5.325133">
        <ele>2540.0</ele>
        <time>2018-06-17T11:52:52Z</time>
      </trkpt>
      <trkpt lat="40.405217" lon="-5.325117">
        <ele>2541.0</ele>
        <time>2018-06-17T11:52:53Z</time>
      </trkpt>
      <trkpt lat="40.405083" lon="-5.325050">
        <ele>2542.0</ele>
        <time>2018-06-17T11:52:54Z</time>
      </trkpt>
      <trkpt lat="40.404967" lon="-5.324967">
        <ele>2545.0</ele>
        <time>2018-06-17T11:52:55Z</time>
      </trkpt>
      <trkpt lat="40.404883" lon="-5.324867">
        <ele>2546.0</ele>
        <time>2018-06-17T11:52:56Z</time>
      </trkpt>
      <trkpt lat="40.404833" lon="-5.324767">
        <ele>2546.0</ele>
        <time>2018-06-17T11:52:57Z</time>
      </trkpt>
      <trkpt lat="40.404783" lon="-5.324650">
        <ele>2546.0</ele>
        <time>2018-06-17T11:52:58Z</time>
      </trkpt>
      <trkpt lat="40.404733" lon="-5.324533">
        <ele>2546.0</ele>
        <time>2018-06-17T11:52:59Z</time>
      </trkpt>
      <trkpt lat="40.404717" lon="-5.324417">
        <ele>2547.0</ele>
        <time>2018-06-17T11:53:00Z</time>
      </trkpt>
      <trkpt lat="40.404717" lon="-5.324317">
        <ele>2548.0</ele>
        <time>2018-06-17T11:53:01Z</time>
      </trkpt>
      <trkpt lat="40.404767" lon="-5.324250">
        <ele>2548.0</ele>
        <time>2018-06-17T11:53:02Z</time>
      </trkpt>
      <trkpt lat="40.404817" lon="-5.324200">
        <ele>2549.0</ele>
        <time>2018-06-17T11:53:03Z</time>
      </trkpt>
      <trkpt lat="40.404867" lon="-5.324167">
        <ele>2551.0</ele>
        <time>2018-06-17T11:53:04Z</time>
      </trkpt>
      <trkpt lat="40.404933" lon="-5.324150">
        <ele>2553.0</ele>
        <time>2018-06-17T11:53:05Z</time>
      </trkpt>
      <trkpt lat="40.404983" lon="-5.324150">
        <ele>2555.0</ele>
        <time>2018-06-17T11:53:06Z</time>
      </trkpt>
      <trkpt lat="40.405050" lon="-5.324167">
        <ele>2558.0</ele>
        <time>2018-06-17T11:53:07Z</time>
      </trkpt>
      <trkpt lat="40.405100" lon="-5.324200">
        <ele>2560.0</ele>
        <time>2018-06-17T11:53:08Z</time>
      </trkpt>
      <trkpt lat="40.405150" lon="-5.324233">
        <ele>2563.0</ele>
        <time>2018-06-17T11:53:09Z</time>
      </trkpt>
      <trkpt lat="40.405183" lon="-5.324283">
        <ele>2565.0</ele>
        <time>2018-06-17T11:53:10Z</time>
      </trkpt>
      <trkpt lat="40.405217" lon="-5.324367">
        <ele>2567.0</ele>
        <time>2018-06-17T11:53:11Z</time>
      </trkpt>
      <trkpt lat="40.405250" lon="-5.324450">
        <ele>2568.0</ele>
        <time>2018-06-17T11:53:12Z</time>
      </trkpt>
      <trkpt lat="40.405250" lon="-5.324550">
        <ele>2570.0</ele>
        <time>2018-06-17T11:53:13Z</time>
      </trkpt>
      <trkpt lat="40.405250" lon="-5.324667">
        <ele>2572.0</ele>
        <time>2018-06-17T11:53:14Z</time>
      </trkpt>
      <trkpt lat="40.405250" lon="-5.324783">
        <ele>2573.0</ele>
        <time>2018-06-17T11:53:15Z</time>
      </trkpt>
      <trkpt lat="40.405250" lon="-5.324900">
        <ele>2575.0</ele>
        <time>2018-06-17T11:53:16Z</time>
      </trkpt>
      <trkpt lat="40.405250" lon="-5.325017">
        <ele>2576.0</ele>
        <time>2018-06-17T11:53:17Z</time>
      </trkpt>
      <trkpt lat="40.405233" lon="-5.325133">
        <ele>2577.0</ele>
        <time>2018-06-17T11:53:18Z</time>
      </trkpt>
      <trkpt lat="40.405233" lon="-5.325250">
        <ele>2579.0</ele>
        <time>2018-06-17T11:53:19Z</time>
      </trkpt>
      <trkpt lat="40.405217" lon="-5.325383">
        <ele>2581.0</ele>
        <time>2018-06-17T11:53:20Z</time>
      </trkpt>
      <trkpt lat="40.405183" lon="-5.325500">
        <ele>2582.0</ele>
        <time>2018-06-17T11:53:21Z</time>
      </trkpt>
      <trkpt lat="40.405167" lon="-5.325633">
        <ele>2583.0</ele>
        <time>2018-06-17T11:53:22Z</time>
      </trkpt>
      <trkpt lat="40.405150" lon="-5.325767">
        <ele>2585.0</ele>
        <time>2018-06-17T11:53:23Z</time>
      </trkpt>
      <trkpt lat="40.405133" lon="-5.325900">
        <ele>2587.0</ele>
        <time>2018-06-17T11:53:24Z</time>
      </trkpt>
      <trkpt lat="40.405100" lon="-5.326033">
        <ele>2589.0</ele>
        <time>2018-06-17T11:53:25Z</time>
      </trkpt>
      <trkpt lat="40.405067" lon="-5.326167">
        <ele>2591.0</ele>
        <time>2018-06-17T11:53:26Z</time>
      </trkpt>
      <trkpt lat="40.405033" lon="-5.326283">
        <ele>2593.0</ele>
        <time>2018-06-17T11:53:27Z</time>
      </trkpt>
      <trkpt lat="40.405017" lon="-5.326417">
        <ele>2595.0</ele>
        <time>2018-06-17T11:53:28Z</time>
      </trkpt>
      <trkpt lat="40.405000" lon="-5.326550">
        <ele>2596.0</ele>
        <time>2018-06-17T11:53:29Z</time>
      </trkpt>
      <trkpt lat="40.405000" lon="-5.326683">
        <ele>2598.0</ele>
        <time>2018-06-17T11:53:30Z</time>
      </trkpt>
      <trkpt lat="40.405000" lon="-5.326817">
        <ele>2600.0</ele>
        <time>2018-06-17T11:53:31Z</time>
      </trkpt>
      <trkpt lat="40.405017" lon="-5.326933">
        <ele>2602.0</ele>
        <time>2018-06-17T11:53:32Z</time>
      </trkpt>
      <trkpt lat="40.405017" lon="-5.327050">
        <ele>2603.0</ele>
        <time>2018-06-17T11:53:33Z</time>
      </trkpt>
      <trkpt lat="40.405017" lon="-5.327167">
        <ele>2604.0</ele>
        <time>2018-06-17T11:53:34Z</time>
      </trkpt>
      <trkpt lat="40.405017" lon="-5.327283">
        <ele>2604.0</ele>
        <time>2018-06-17T11:53:35Z</time>
      </trkpt>
      <trkpt lat="40.405017" lon="-5.327400">
        <ele>2604.0</ele>
        <time>2018-06-17T11:53:36Z</time>
      </trkpt>
      <trkpt lat="40.405033" lon="-5.327533">
        <ele>2605.0</ele>
        <time>2018-06-17T11:53:37Z</time>
      </trkpt>
      <trkpt lat="40.405017" lon="-5.327650">
        <ele>2605.0</ele>
        <time>2018-06-17T11:53:38Z</time>
      </trkpt>
      <trkpt lat="40.405017" lon="-5.327783">
        <ele>2606.0</ele>
        <time>2018-06-17T11:53:39Z</time>
      </trkpt>
      <trkpt lat="40.405000" lon="-5.327917">
        <ele>2606.0</ele>
        <time>2018-06-17T11:53:40Z</time>
      </trkpt>
      <trkpt lat="40.404983" lon="-5.328050">
        <ele>2605.0</ele>
        <time>2018-06-17T11:53:41Z</time>
      </trkpt>
      <trkpt lat="40.404983" lon="-5.328200">
        <ele>2605.0</ele>
        <time>2018-06-17T11:53:42Z</time>
      </trkpt>
      <trkpt lat="40.405000" lon="-5.328333">
        <ele>2606.0</ele>
        <time>2018-06-17T11:53:43Z</time>
      </trkpt>
      <trkpt lat="40.405017" lon="-5.328467">
        <ele>2607.0</ele>
        <time>2018-06-17T11:53:44Z</time>
      </trkpt>
      <trkpt lat="40.405050" lon="-5.328600">
        <ele>2608.0</ele>
        <time>2018-06-17T11:53:45Z</time>
      </trkpt>
      <trkpt lat="40.405100" lon="-5.328717">
        <ele>2608.0</ele>
        <time>2018-06-17T11:53:46Z</time>
      </trkpt>
      <trkpt lat="40.405150" lon="-5.328817">
        <ele>2610.0</ele>
        <time>2018-06-17T11:53:47Z</time>
      </trkpt>
      <trkpt lat="40.405200" lon="-5.328933">
        <ele>2611.0</ele>
        <time>2018-06-17T11:53:48Z</time>
      </trkpt>
      <trkpt lat="40.405250" lon="-5.329033">
        <ele>2612.0</ele>
        <time>2018-06-17T11:53:49Z</time>
      </trkpt>
      <trkpt lat="40.405300" lon="-5.329150">
        <ele>2612.0</ele>
        <time>2018-06-17T11:53:50Z</time>
      </trkpt>
      <trkpt lat="40.405333" lon="-5.329250">
        <ele>2613.0</ele>
        <time>2018-06-17T11:53:51Z</time>
      </trkpt>
      <trkpt lat="40.405317" lon="-5.329383">
        <ele>2613.0</ele>
        <time>2018-06-17T11:53:52Z</time>
      </trkpt>
      <trkpt lat="40.405283" lon="-5.329500">
        <ele>2612.0</ele>
        <time>2018-06-17T11:53:53Z</time>
      </trkpt>
      <trkpt lat="40.405200" lon="-5.329583">
        <ele>2611.0</ele>
        <time>2018-06-17T11:53:54Z</time>
      </trkpt>
      <trkpt lat="40.405083" lon="-5.329650">
        <ele>2611.0</ele>
        <time>2018-06-17T11:53:55Z</time>
      </trkpt>
      <trkpt lat="40.404967" lon="-5.329650">
        <ele>2613.0</ele>
        <time>2018-06-17T11:53:56Z</time>
      </trkpt>
      <trkpt lat="40.404867" lon="-5.329617">
        <ele>2616.0</ele>
        <time>2018-06-17T11:53:57Z</time>
      </trkpt>
      <trkpt lat="40.404800" lon="-5.329567">
        <ele>2619.0</ele>
        <time>2018-06-17T11:53:58Z</time>
      </trkpt>
      <trkpt lat="40.404733" lon="-5.329500">
        <ele>2620.0</ele>
        <time>2018-06-17T11:53:59Z</time>
      </trkpt>
      <trkpt lat="40.404683" lon="-5.329433">
        <ele>2621.0</ele>
        <time>2018-06-17T11:54:00Z</time>
      </trkpt>
      <trkpt lat="40.404633" lon="-5.329350">
        <ele>2621.0</ele>
        <time>2018-06-17T11:54:01Z</time>
      </trkpt>
      <trkpt lat="40.404617" lon="-5.329233">
        <ele>2619.0</ele>
        <time>2018-06-17T11:54:02Z</time>
      </trkpt>
      <trkpt lat="40.404617" lon="-5.329117">
        <ele>2619.0</ele>
        <time>2018-06-17T11:54:03Z</time>
      </trkpt>
      <trkpt lat="40.404633" lon="-5.329017">
        <ele>2619.0</ele>
        <time>2018-06-17T11:54:04Z</time>
      </trkpt>
      <trkpt lat="40.404700" lon="-5.328917">
        <ele>2619.0</ele>
        <time>2018-06-17T11:54:05Z</time>
      </trkpt>
      <trkpt lat="40.404800" lon="-5.328867">
        <ele>2619.0</ele>
        <time>2018-06-17T11:54:06Z</time>
      </trkpt>
      <trkpt lat="40.404900" lon="-5.328850">
        <ele>2621.0</ele>
        <time>2018-06-17T11:54:07Z</time>
      </trkpt>
      <trkpt lat="40.404967" lon="-5.328867">
        <ele>2623.0</ele>
        <time>2018-06-17T11:54:08Z</time>
      </trkpt>
      <trkpt lat="40.405050" lon="-5.328917">
        <ele>2623.0</ele>
        <time>2018-06-17T11:54:09Z</time>
      </trkpt>
      <trkpt lat="40.405100" lon="-5.328983">
        <ele>2623.0</ele>
        <time>2018-06-17T11:54:10Z</time>
      </trkpt>
      <trkpt lat="40.405150" lon="-5.329067">
        <ele>2622.0</ele>
        <time>2018-06-17T11:54:11Z</time>
      </trkpt>
      <trkpt lat="40.405200" lon="-5.329167">
        <ele>2621.0</ele>
        <time>2018-06-17T11:54:12Z</time>
      </trkpt>
      <trkpt lat="40.405250" lon="-5.329283">
        <ele>2621.0</ele>
        <time>2018-06-17T11:54:13Z</time>
      </trkpt>
      <trkpt lat="40.405300" lon="-5.329383">
        <ele>2622.0</ele>
        <time>2018-06-17T11:54:14Z</time>
      </trkpt>
      <trkpt lat="40.405350" lon="-5.329483">
        <ele>2622.0</ele>
        <time>2018-06-17T11:54:15Z</time>
      </trkpt>
      <trkpt lat="40.405400" lon="-5.329583">
        <ele>2623.0</ele>
        <time>2018-06-17T11:54:16Z</time>
      </trkpt>
      <trkpt lat="40.405433" lon="-5.329700">
        <ele>2622.0</ele>
        <time>2018-06-17T11:54:17Z</time>
      </trkpt>
      <trkpt lat="40.405483" lon="-5.329800">
        <ele>2621.0</ele>
        <time>2018-06-17T11:54:18Z</time>
      </trkpt>
      <trkpt lat="40.405533" lon="-5.329883">
        <ele>2619.0</ele>
        <time>2018-06-17T11:54:19Z</time>
      </trkpt>
      <trkpt lat="40.405583" lon="-5.329967">
        <ele>2616.0</ele>
        <time>2018-06-17T11:54:20Z</time>
      </trkpt>
      <trkpt lat="40.405633" lon="-5.330050">
        <ele>2612.0</ele>
        <time>2018-06-17T11:54:21Z</time>
      </trkpt>
      <trkpt lat="40.405683" lon="-5.330167">
        <ele>2607.0</ele>
        <time>2018-06-17T11:54:22Z</time>
      </trkpt>
      <trkpt lat="40.405733" lon="-5.330300">
        <ele>2602.0</ele>
        <time>2018-06-17T11:54:23Z</time>
      </trkpt>
      <trkpt lat="40.405783" lon="-5.330450">
        <ele>2600.0</ele>
        <time>2018-06-17T11:54:24Z</time>
      </trkpt>
      <trkpt lat="40.405850" lon="-5.330583">
        <ele>2600.0</ele>
        <time>2018-06-17T11:54:25Z</time>
      </trkpt>
      <trkpt lat="40.405917" lon="-5.330683">
        <ele>2600.0</ele>
        <time>2018-06-17T11:54:26Z</time>
      </trkpt>
      <trkpt lat="40.406000" lon="-5.330750">
        <ele>2600.0</ele>
        <time>2018-06-17T11:54:27Z</time>
      </trkpt>
      <trkpt lat="40.406067" lon="-5.330767">
        <ele>2599.0</ele>
        <time>2018-06-17T11:54:28Z</time>
      </trkpt>
      <trkpt lat="40.406117" lon="-5.330783">
        <ele>2598.0</ele>
        <time>2018-06-17T11:54:29Z</time>
      </trkpt>
      <trkpt lat="40.406183" lon="-5.330783">
        <ele>2595.0</ele>
        <time>2018-06-17T11:54:30Z</time>
      </trkpt>
      <trkpt lat="40.406250" lon="-5.330817">
        <ele>2593.0</ele>
        <time>2018-06-17T11:54:31Z</time>
      </trkpt>
      <trkpt lat="40.406317" lon="-5.330850">
        <ele>2590.0</ele>
        <time>2018-06-17T11:54:32Z</time>
      </trkpt>
      <trkpt lat="40.406383" lon="-5.330917">
        <ele>2587.0</ele>
        <time>2018-06-17T11:54:33Z</time>
      </trkpt>
      <trkpt lat="40.406433" lon="-5.331017">
        <ele>2585.0</ele>
        <time>2018-06-17T11:54:34Z</time>
      </trkpt>
      <trkpt lat="40.406483" lon="-5.331117">
        <ele>2584.0</ele>
        <time>2018-06-17T11:54:35Z</time>
      </trkpt>
      <trkpt lat="40.406500" lon="-5.331217">
        <ele>2584.0</ele>
        <time>2018-06-17T11:54:36Z</time>
      </trkpt>
      <trkpt lat="40.406517" lon="-5.331317">
        <ele>2583.0</ele>
        <time>2018-06-17T11:54:37Z</time>
      </trkpt>
      <trkpt lat="40.406533" lon="-5.331400">
        <ele>2581.0</ele>
        <time>2018-06-17T11:54:38Z</time>
      </trkpt>
      <trkpt lat="40.406550" lon="-5.331500">
        <ele>2579.0</ele>
        <time>2018-06-17T11:54:39Z</time>
      </trkpt>
      <trkpt lat="40.406567" lon="-5.331583">
        <ele>2578.0</ele>
        <time>2018-06-17T11:54:40Z</time>
      </trkpt>
      <trkpt lat="40.406567" lon="-5.331700">
        <ele>2576.0</ele>
        <time>2018-06-17T11:54:41Z</time>
      </trkpt>
      <trkpt lat="40.406583" lon="-5.331800">
        <ele>2574.0</ele>
        <time>2018-06-17T11:54:42Z</time>
      </trkpt>
      <trkpt lat="40.406583" lon="-5.331917">
        <ele>2573.0</ele>
        <time>2018-06-17T11:54:43Z</time>
      </trkpt>
      <trkpt lat="40.406583" lon="-5.332033">
        <ele>2571.0</ele>
        <time>2018-06-17T11:54:44Z</time>
      </trkpt>
      <trkpt lat="40.406600" lon="-5.332150">
        <ele>2571.0</ele>
        <time>2018-06-17T11:54:45Z</time>
      </trkpt>
      <trkpt lat="40.406617" lon="-5.332250">
        <ele>2570.0</ele>
        <time>2018-06-17T11:54:46Z</time>
      </trkpt>
      <trkpt lat="40.406650" lon="-5.332350">
        <ele>2570.0</ele>
        <time>2018-06-17T11:54:47Z</time>
      </trkpt>
      <trkpt lat="40.406667" lon="-5.332450">
        <ele>2569.0</ele>
        <time>2018-06-17T11:54:48Z</time>
      </trkpt>
      <trkpt lat="40.406683" lon="-5.332567">
        <ele>2568.0</ele>
        <time>2018-06-17T11:54:49Z</time>
      </trkpt>
      <trkpt lat="40.406717" lon="-5.332683">
        <ele>2567.0</ele>
        <time>2018-06-17T11:54:50Z</time>
      </trkpt>
      <trkpt lat="40.406750" lon="-5.332800">
        <ele>2563.0</ele>
        <time>2018-06-17T11:54:51Z</time>
      </trkpt>
      <trkpt lat="40.406800" lon="-5.332900">
        <ele>2559.0</ele>
        <time>2018-06-17T11:54:52Z</time>
      </trkpt>
      <trkpt lat="40.406850" lon="-5.333000">
        <ele>2555.0</ele>
        <time>2018-06-17T11:54:53Z</time>
      </trkpt>
      <trkpt lat="40.406883" lon="-5.333100">
        <ele>2552.0</ele>
        <time>2018-06-17T11:54:54Z</time>
      </trkpt>
      <trkpt lat="40.406933" lon="-5.333217">
        <ele>2548.0</ele>
        <time>2018-06-17T11:54:55Z</time>
      </trkpt>
      <trkpt lat="40.406983" lon="-5.333300">
        <ele>2545.0</ele>
        <time>2018-06-17T11:54:56Z</time>
      </trkpt>
      <trkpt lat="40.407017" lon="-5.333417">
        <ele>2542.0</ele>
        <time>2018-06-17T11:54:57Z</time>
      </trkpt>
      <trkpt lat="40.407067" lon="-5.333533">
        <ele>2538.0</ele>
        <time>2018-06-17T11:54:58Z</time>
      </trkpt>
      <trkpt lat="40.407100" lon="-5.333667">
        <ele>2536.0</ele>
        <time>2018-06-17T11:54:59Z</time>
      </trkpt>
      <trkpt lat="40.407150" lon="-5.333800">
        <ele>2533.0</ele>
        <time>2018-06-17T11:55:00Z</time>
      </trkpt>
      <trkpt lat="40.407200" lon="-5.333917">
        <ele>2532.0</ele>
        <time>2018-06-17T11:55:01Z</time>
      </trkpt>
      <trkpt lat="40.407250" lon="-5.334033">
        <ele>2531.0</ele>
        <time>2018-06-17T11:55:02Z</time>
      </trkpt>
      <trkpt lat="40.407300" lon="-5.334117">
        <ele>2529.0</ele>
        <time>2018-06-17T11:55:03Z</time>
      </trkpt>
      <trkpt lat="40.407350" lon="-5.334217">
        <ele>2527.0</ele>
        <time>2018-06-17T11:55:04Z</time>
      </trkpt>
      <trkpt lat="40.407400" lon="-5.334283">
        <ele>2524.0</ele>
        <time>2018-06-17T11:55:05Z</time>
      </trkpt>
      <trkpt lat="40.407467" lon="-5.334383">
        <ele>2521.0</ele>
        <time>2018-06-17T11:55:06Z</time>
      </trkpt>
      <trkpt lat="40.407533" lon="-5.334483">
        <ele>2518.0</ele>
        <time>2018-06-17T11:55:07Z</time>
      </trkpt>
      <trkpt lat="40.407583" lon="-5.334583">
        <ele>2517.0</ele>
        <time>2018-06-17T11:55:08Z</time>
      </trkpt>
      <trkpt lat="40.407633" lon="-5.334700">
        <ele>2518.0</ele>
        <time>2018-06-17T11:55:09Z</time>
      </trkpt>
      <trkpt lat="40.407667" lon="-5.334783">
        <ele>2517.0</ele>
        <time>2018-06-17T11:55:10Z</time>
      </trkpt>
      <trkpt lat="40.407700" lon="-5.334867">
        <ele>2516.0</ele>
        <time>2018-06-17T11:55:11Z</time>
      </trkpt>
      <trkpt lat="40.407733" lon="-5.334933">
        <ele>2513.0</ele>
        <time>2018-06-17T11:55:12Z</time>
      </trkpt>
      <trkpt lat="40.407767" lon="-5.335033">
        <ele>2510.0</ele>
        <time>2018-06-17T11:55:13Z</time>
      </trkpt>
      <trkpt lat="40.407800" lon="-5.335150">
        <ele>2507.0</ele>
        <time>2018-06-17T11:55:14Z</time>
      </trkpt>
      <trkpt lat="40.407833" lon="-5.335283">
        <ele>2505.0</ele>
        <time>2018-06-17T11:55:15Z</time>
      </trkpt>
      <trkpt lat="40.407867" lon="-5.335417">
        <ele>2503.0</ele>
        <time>2018-06-17T11:55:16Z</time>
      </trkpt>
      <trkpt lat="40.407900" lon="-5.335533">
        <ele>2503.0</ele>
        <time>2018-06-17T11:55:17Z</time>
      </trkpt>
      <trkpt lat="40.407950" lon="-5.335650">
        <ele>2501.0</ele>
        <time>2018-06-17T11:55:18Z</time>
      </trkpt>
      <trkpt lat="40.408000" lon="-5.335750">
        <ele>2499.0</ele>
        <time>2018-06-17T11:55:19Z</time>
      </trkpt>
      <trkpt lat="40.408050" lon="-5.335867">
        <ele>2497.0</ele>
        <time>2018-06-17T11:55:20Z</time>
      </trkpt>
      <trkpt lat="40.408083" lon="-5.335983">
        <ele>2495.0</ele>
        <time>2018-06-17T11:55:21Z</time>
      </trkpt>
      <trkpt lat="40.408133" lon="-5.336100">
        <ele>2493.0</ele>
        <time>2018-06-17T11:55:22Z</time>
      </trkpt>
      <trkpt lat="40.408167" lon="-5.336200">
        <ele>2491.0</ele>
        <time>2018-06-17T11:55:23Z</time>
      </trkpt>
      <trkpt lat="40.408217" lon="-5.336317">
        <ele>2488.0</ele>
        <time>2018-06-17T11:55:24Z</time>
      </trkpt>
      <trkpt lat="40.408250" lon="-5.336450">
        <ele>2485.0</ele>
        <time>2018-06-17T11:55:25Z</time>
      </trkpt>
      <trkpt lat="40.408300" lon="-5.336583">
        <ele>2482.0</ele>
        <time>2018-06-17T11:55:26Z</time>
      </trkpt>
      <trkpt lat="40.408350" lon="-5.336717">
        <ele>2480.0</ele>
        <time>2018-06-17T11:55:27Z</time>
      </trkpt>
      <trkpt lat="40.408400" lon="-5.336833">
        <ele>2479.0</ele>
        <time>2018-06-17T11:55:28Z</time>
      </trkpt>
      <trkpt lat="40.408450" lon="-5.336950">
        <ele>2479.0</ele>
        <time>2018-06-17T11:55:29Z</time>
      </trkpt>
      <trkpt lat="40.408500" lon="-5.337033">
        <ele>2478.0</ele>
        <time>2018-06-17T11:55:30Z</time>
      </trkpt>
      <trkpt lat="40.408533" lon="-5.337133">
        <ele>2477.0</ele>
        <time>2018-06-17T11:55:31Z</time>
      </trkpt>
      <trkpt lat="40.408567" lon="-5.337233">
        <ele>2475.0</ele>
        <time>2018-06-17T11:55:32Z</time>
      </trkpt>
      <trkpt lat="40.408600" lon="-5.337350">
        <ele>2474.0</ele>
        <time>2018-06-17T11:55:33Z</time>
      </trkpt>
      <trkpt lat="40.408617" lon="-5.337467">
        <ele>2472.0</ele>
        <time>2018-06-17T11:55:34Z</time>
      </trkpt>
      <trkpt lat="40.408633" lon="-5.337600">
        <ele>2470.0</ele>
        <time>2018-06-17T11:55:35Z</time>
      </trkpt>
      <trkpt lat="40.408650" lon="-5.337717">
        <ele>2468.0</ele>
        <time>2018-06-17T11:55:36Z</time>
      </trkpt>
      <trkpt lat="40.408683" lon="-5.337833">
        <ele>2467.0</ele>
        <time>2018-06-17T11:55:37Z</time>
      </trkpt>
      <trkpt lat="40.408700" lon="-5.337933">
        <ele>2466.0</ele>
        <time>2018-06-17T11:55:38Z</time>
      </trkpt>
      <trkpt lat="40.408733" lon="-5.338050">
        <ele>2464.0</ele>
        <time>2018-06-17T11:55:39Z</time>
      </trkpt>
      <trkpt lat="40.408767" lon="-5.338167">
        <ele>2462.0</ele>
        <time>2018-06-17T11:55:40Z</time>
      </trkpt>
      <trkpt lat="40.408817" lon="-5.338283">
        <ele>2460.0</ele>
        <time>2018-06-17T11:55:41Z</time>
      </trkpt>
      <trkpt lat="40.408867" lon="-5.338383">
        <ele>2459.0</ele>
        <time>2018-06-17T11:55:42Z</time>
      </trkpt>
      <trkpt lat="40.408917" lon="-5.338483">
        <ele>2458.0</ele>
        <time>2018-06-17T11:55:43Z</time>
      </trkpt>
      <trkpt lat="40.408967" lon="-5.338550">
        <ele>2456.0</ele>
        <time>2018-06-17T11:55:44Z</time>
      </trkpt>
      <trkpt lat="40.409033" lon="-5.338633">
        <ele>2455.0</ele>
        <time>2018-06-17T11:55:45Z</time>
      </trkpt>
      <trkpt lat="40.409083" lon="-5.338700">
        <ele>2454.0</ele>
        <time>2018-06-17T11:55:46Z</time>
      </trkpt>
      <trkpt lat="40.409133" lon="-5.338783">
        <ele>2452.0</ele>
        <time>2018-06-17T11:55:47Z</time>
      </trkpt>
      <trkpt lat="40.409200" lon="-5.338883">
        <ele>2451.0</ele>
        <time>2018-06-17T11:55:48Z</time>
      </trkpt>
      <trkpt lat="40.409250" lon="-5.338967">
        <ele>2450.0</ele>
        <time>2018-06-17T11:55:49Z</time>
      </trkpt>
      <trkpt lat="40.409300" lon="-5.339050">
        <ele>2449.0</ele>
        <time>2018-06-17T11:55:50Z</time>
      </trkpt>
      <trkpt lat="40.409367" lon="-5.339117">
        <ele>2448.0</ele>
        <time>2018-06-17T11:55:51Z</time>
      </trkpt>
      <trkpt lat="40.409433" lon="-5.339167">
        <ele>2446.0</ele>
        <time>2018-06-17T11:55:52Z</time>
      </trkpt>
      <trkpt lat="40.409483" lon="-5.339250">
        <ele>2443.0</ele>
        <time>2018-06-17T11:55:53Z</time>
      </trkpt>
      <trkpt lat="40.409550" lon="-5.339333">
        <ele>2441.0</ele>
        <time>2018-06-17T11:55:54Z</time>
      </trkpt>
      <trkpt lat="40.409600" lon="-5.339417">
        <ele>2439.0</ele>
        <time>2018-06-17T11:55:55Z</time>
      </trkpt>
      <trkpt lat="40.409650" lon="-5.339517">
        <ele>2436.0</ele>
        <time>2018-06-17T11:55:56Z</time>
      </trkpt>
      <trkpt lat="40.409717" lon="-5.339617">
        <ele>2434.0</ele>
        <time>2018-06-17T11:55:57Z</time>
      </trkpt>
      <trkpt lat="40.409783" lon="-5.339717">
        <ele>2432.0</ele>
        <time>2018-06-17T11:55:58Z</time>
      </trkpt>
      <trkpt lat="40.409850" lon="-5.339817">
        <ele>2430.0</ele>
        <time>2018-06-17T11:55:59Z</time>
      </trkpt>
      <trkpt lat="40.409917" lon="-5.339933">
        <ele>2429.0</ele>
        <time>2018-06-17T11:56:00Z</time>
      </trkpt>
      <trkpt lat="40.409967" lon="-5.340033">
        <ele>2429.0</ele>
        <time>2018-06-17T11:56:01Z</time>
      </trkpt>
      <trkpt lat="40.410017" lon="-5.340133">
        <ele>2429.0</ele>
        <time>2018-06-17T11:56:02Z</time>
      </trkpt>
      <trkpt lat="40.410067" lon="-5.340233">
        <ele>2430.0</ele>
        <time>2018-06-17T11:56:03Z</time>
      </trkpt>
      <trkpt lat="40.410117" lon="-5.340333">
        <ele>2429.0</ele>
        <time>2018-06-17T11:56:04Z</time>
      </trkpt>
      <trkpt lat="40.410167" lon="-5.340433">
        <ele>2428.0</ele>
        <time>2018-06-17T11:56:05Z</time>
      </trkpt>
      <trkpt lat="40.410217" lon="-5.340517">
        <ele>2427.0</ele>
        <time>2018-06-17T11:56:06Z</time>
      </trkpt>
      <trkpt lat="40.410267" lon="-5.340617">
        <ele>2426.0</ele>
        <time>2018-06-17T11:56:07Z</time>
      </trkpt>
      <trkpt lat="40.410317" lon="-5.340700">
        <ele>2425.0</ele>
        <time>2018-06-17T11:56:08Z</time>
      </trkpt>
      <trkpt lat="40.410367" lon="-5.340783">
        <ele>2423.0</ele>
        <time>2018-06-17T11:56:09Z</time>
      </trkpt>
      <trkpt lat="40.410417" lon="-5.340867">
        <ele>2422.0</ele>
        <time>2018-06-17T11:56:10Z</time>
      </trkpt>
      <trkpt lat="40.410450" lon="-5.340967">
        <ele>2419.0</ele>
        <time>2018-06-17T11:56:11Z</time>
      </trkpt>
      <trkpt lat="40.410483" lon="-5.341067">
        <ele>2418.0</ele>
        <time>2018-06-17T11:56:12Z</time>
      </trkpt>
      <trkpt lat="40.410533" lon="-5.341167">
        <ele>2416.0</ele>
        <time>2018-06-17T11:56:13Z</time>
      </trkpt>
      <trkpt lat="40.410567" lon="-5.341267">
        <ele>2414.0</ele>
        <time>2018-06-17T11:56:14Z</time>
      </trkpt>
      <trkpt lat="40.410600" lon="-5.341350">
        <ele>2412.0</ele>
        <time>2018-06-17T11:56:15Z</time>
      </trkpt>
      <trkpt lat="40.410650" lon="-5.341417">
        <ele>2410.0</ele>
        <time>2018-06-17T11:56:16Z</time>
      </trkpt>
      <trkpt lat="40.410700" lon="-5.341500">
        <ele>2407.0</ele>
        <time>2018-06-17T11:56:17Z</time>
      </trkpt>
      <trkpt lat="40.410750" lon="-5.341567">
        <ele>2405.0</ele>
        <time>2018-06-17T11:56:18Z</time>
      </trkpt>
      <trkpt lat="40.410800" lon="-5.341650">
        <ele>2402.0</ele>
        <time>2018-06-17T11:56:19Z</time>
      </trkpt>
      <trkpt lat="40.410833" lon="-5.341733">
        <ele>2400.0</ele>
        <time>2018-06-17T11:56:20Z</time>
      </trkpt>
      <trkpt lat="40.410883" lon="-5.341800">
        <ele>2397.0</ele>
        <time>2018-06-17T11:56:21Z</time>
      </trkpt>
      <trkpt lat="40.410933" lon="-5.341883">
        <ele>2394.0</ele>
        <time>2018-06-17T11:56:22Z</time>
      </trkpt>
      <trkpt lat="40.411000" lon="-5.341950">
        <ele>2392.0</ele>
        <time>2018-06-17T11:56:23Z</time>
      </trkpt>
      <trkpt lat="40.411050" lon="-5.342017">
        <ele>2389.0</ele>
        <time>2018-06-17T11:56:24Z</time>
      </trkpt>
      <trkpt lat="40.411117" lon="-5.342083">
        <ele>2387.0</ele>
        <time>2018-06-17T11:56:25Z</time>
      </trkpt>
      <trkpt lat="40.411167" lon="-5.342150">
        <ele>2384.0</ele>
        <time>2018-06-17T11:56:26Z</time>
      </trkpt>
      <trkpt lat="40.411233" lon="-5.342233">
        <ele>2382.0</ele>
        <time>2018-06-17T11:56:27Z</time>
      </trkpt>
      <trkpt lat="40.411283" lon="-5.342300">
        <ele>2380.0</ele>
        <time>2018-06-17T11:56:28Z</time>
      </trkpt>
      <trkpt lat="40.411333" lon="-5.342383">
        <ele>2378.0</ele>
        <time>2018-06-17T11:56:29Z</time>
      </trkpt>
      <trkpt lat="40.411400" lon="-5.342433">
        <ele>2376.0</ele>
        <time>2018-06-17T11:56:30Z</time>
      </trkpt>
      <trkpt lat="40.411467" lon="-5.342500">
        <ele>2374.0</ele>
        <time>2018-06-17T11:56:31Z</time>
      </trkpt>
      <trkpt lat="40.411533" lon="-5.342567">
        <ele>2373.0</ele>
        <time>2018-06-17T11:56:32Z</time>
      </trkpt>
      <trkpt lat="40.411583" lon="-5.342633">
        <ele>2373.0</ele>
        <time>2018-06-17T11:56:33Z</time>
      </trkpt>
      <trkpt lat="40.411633" lon="-5.342700">
        <ele>2372.0</ele>
        <time>2018-06-17T11:56:34Z</time>
      </trkpt>
      <trkpt lat="40.411683" lon="-5.342767">
        <ele>2371.0</ele>
        <time>2018-06-17T11:56:35Z</time>
      </trkpt>
      <trkpt lat="40.411733" lon="-5.342833">
        <ele>2369.0</ele>
        <time>2018-06-17T11:56:36Z</time>
      </trkpt>
      <trkpt lat="40.411767" lon="-5.342883">
        <ele>2368.0</ele>
        <time>2018-06-17T11:56:37Z</time>
      </trkpt>
      <trkpt lat="40.411817" lon="-5.342950">
        <ele>2367.0</ele>
        <time>2018-06-17T11:56:38Z</time>
      </trkpt>
      <trkpt lat="40.411867" lon="-5.343017">
        <ele>2366.0</ele>
        <time>2018-06-17T11:56:39Z</time>
      </trkpt>
      <trkpt lat="40.411917" lon="-5.343067">
        <ele>2364.0</ele>
        <time>2018-06-17T11:56:40Z</time>
      </trkpt>
      <trkpt lat="40.411967" lon="-5.343100">
        <ele>2363.0</ele>
        <time>2018-06-17T11:56:41Z</time>
      </trkpt>
      <trkpt lat="40.412017" lon="-5.343133">
        <ele>2361.0</ele>
        <time>2018-06-17T11:56:42Z</time>
      </trkpt>
      <trkpt lat="40.412067" lon="-5.343150">
        <ele>2359.0</ele>
        <time>2018-06-17T11:56:43Z</time>
      </trkpt>
      <trkpt lat="40.412133" lon="-5.343167">
        <ele>2357.0</ele>
        <time>2018-06-17T11:56:44Z</time>
      </trkpt>
      <trkpt lat="40.412200" lon="-5.343183">
        <ele>2355.0</ele>
        <time>2018-06-17T11:56:45Z</time>
      </trkpt>
      <trkpt lat="40.412267" lon="-5.343200">
        <ele>2353.0</ele>
        <time>2018-06-17T11:56:46Z</time>
      </trkpt>
      <trkpt lat="40.412333" lon="-5.343217">
        <ele>2352.0</ele>
        <time>2018-06-17T11:56:47Z</time>
      </trkpt>
      <trkpt lat="40.412383" lon="-5.343233">
        <ele>2352.0</ele>
        <time>2018-06-17T11:56:48Z</time>
      </trkpt>
      <trkpt lat="40.412450" lon="-5.343233">
        <ele>2352.0</ele>
        <time>2018-06-17T11:56:49Z</time>
      </trkpt>
      <trkpt lat="40.412483" lon="-5.343217">
        <ele>2351.0</ele>
        <time>2018-06-17T11:56:50Z</time>
      </trkpt>
      <trkpt lat="40.412533" lon="-5.343200">
        <ele>2349.0</ele>
        <time>2018-06-17T11:56:51Z</time>
      </trkpt>
      <trkpt lat="40.412583" lon="-5.343200">
        <ele>2347.0</ele>
        <time>2018-06-17T11:56:52Z</time>
      </trkpt>
      <trkpt lat="40.412650" lon="-5.343183">
        <ele>2345.0</ele>
        <time>2018-06-17T11:56:53Z</time>
      </trkpt>
      <trkpt lat="40.412700" lon="-5.343167">
        <ele>2343.0</ele>
        <time>2018-06-17T11:56:54Z</time>
      </trkpt>
      <trkpt lat="40.412767" lon="-5.343167">
        <ele>2342.0</ele>
        <time>2018-06-17T11:56:55Z</time>
      </trkpt>
      <trkpt lat="40.412833" lon="-5.343150">
        <ele>2341.0</ele>
        <time>2018-06-17T11:56:56Z</time>
      </trkpt>
      <trkpt lat="40.412900" lon="-5.343133">
        <ele>2340.0</ele>
        <time>2018-06-17T11:56:57Z</time>
      </trkpt>
      <trkpt lat="40.412950" lon="-5.343133">
        <ele>2338.0</ele>
        <time>2018-06-17T11:56:58Z</time>
      </trkpt>
      <trkpt lat="40.413017" lon="-5.343117">
        <ele>2336.0</ele>
        <time>2018-06-17T11:56:59Z</time>
      </trkpt>
      <trkpt lat="40.413083" lon="-5.343117">
        <ele>2333.0</ele>
        <time>2018-06-17T11:57:00Z</time>
      </trkpt>
      <trkpt lat="40.413150" lon="-5.343100">
        <ele>2331.0</ele>
        <time>2018-06-17T11:57:01Z</time>
      </trkpt>
      <trkpt lat="40.413233" lon="-5.343083">
        <ele>2330.0</ele>
        <time>2018-06-17T11:57:02Z</time>
      </trkpt>
      <trkpt lat="40.413300" lon="-5.343083">
        <ele>2328.0</ele>
        <time>2018-06-17T11:57:03Z</time>
      </trkpt>
      <trkpt lat="40.413350" lon="-5.343067">
        <ele>2327.0</ele>
        <time>2018-06-17T11:57:04Z</time>
      </trkpt>
      <trkpt lat="40.413417" lon="-5.343067">
        <ele>2326.0</ele>
        <time>2018-06-17T11:57:05Z</time>
      </trkpt>
      <trkpt lat="40.413483" lon="-5.343067">
        <ele>2324.0</ele>
        <time>2018-06-17T11:57:06Z</time>
      </trkpt>
      <trkpt lat="40.413533" lon="-5.343067">
        <ele>2322.0</ele>
        <time>2018-06-17T11:57:07Z</time>
      </trkpt>
      <trkpt lat="40.413600" lon="-5.343067">
        <ele>2320.0</ele>
        <time>2018-06-17T11:57:08Z</time>
      </trkpt>
      <trkpt lat="40.413667" lon="-5.343083">
        <ele>2318.0</ele>
        <time>2018-06-17T11:57:09Z</time>
      </trkpt>
      <trkpt lat="40.413733" lon="-5.343083">
        <ele>2315.0</ele>
        <time>2018-06-17T11:57:10Z</time>
      </trkpt>
      <trkpt lat="40.413800" lon="-5.343100">
        <ele>2313.0</ele>
        <time>2018-06-17T11:57:11Z</time>
      </trkpt>
      <trkpt lat="40.413850" lon="-5.343100">
        <ele>2311.0</ele>
        <time>2018-06-17T11:57:12Z</time>
      </trkpt>
      <trkpt lat="40.413917" lon="-5.343083">
        <ele>2308.0</ele>
        <time>2018-06-17T11:57:13Z</time>
      </trkpt>
      <trkpt lat="40.413967" lon="-5.343050">
        <ele>2305.0</ele>
        <time>2018-06-17T11:57:14Z</time>
      </trkpt>
      <trkpt lat="40.414033" lon="-5.343033">
        <ele>2303.0</ele>
        <time>2018-06-17T11:57:15Z</time>
      </trkpt>
      <trkpt lat="40.414083" lon="-5.343000">
        <ele>2300.0</ele>
        <time>2018-06-17T11:57:16Z</time>
      </trkpt>
      <trkpt lat="40.414150" lon="-5.342950">
        <ele>2299.0</ele>
        <time>2018-06-17T11:57:17Z</time>
      </trkpt>
      <trkpt lat="40.414200" lon="-5.342900">
        <ele>2297.0</ele>
        <time>2018-06-17T11:57:18Z</time>
      </trkpt>
      <trkpt lat="40.414233" lon="-5.342850">
        <ele>2296.0</ele>
        <time>2018-06-17T11:57:19Z</time>
      </trkpt>
      <trkpt lat="40.414283" lon="-5.342817">
        <ele>2294.0</ele>
        <time>2018-06-17T11:57:20Z</time>
      </trkpt>
      <trkpt lat="40.414333" lon="-5.342800">
        <ele>2291.0</ele>
        <time>2018-06-17T11:57:21Z</time>
      </trkpt>
      <trkpt lat="40.414400" lon="-5.342800">
        <ele>2288.0</ele>
        <time>2018-06-17T11:57:22Z</time>
      </trkpt>
      <trkpt lat="40.414467" lon="-5.342817">
        <ele>2285.0</ele>
        <time>2018-06-17T11:57:23Z</time>
      </trkpt>
      <trkpt lat="40.414533" lon="-5.342817">
        <ele>2284.0</ele>
        <time>2018-06-17T11:57:24Z</time>
      </trkpt>
      <trkpt lat="40.414583" lon="-5.342850">
        <ele>2284.0</ele>
        <time>2018-06-17T11:57:25Z</time>
      </trkpt>
      <trkpt lat="40.414633" lon="-5.342867">
        <ele>2284.0</ele>
        <time>2018-06-17T11:57:26Z</time>
      </trkpt>
      <trkpt lat="40.414667" lon="-5.342900">
        <ele>2283.0</ele>
        <time>2018-06-17T11:57:27Z</time>
      </trkpt>
      <trkpt lat="40.414700" lon="-5.342933">
        <ele>2281.0</ele>
        <time>2018-06-17T11:57:28Z</time>
      </trkpt>
      <trkpt lat="40.414733" lon="-5.342967">
        <ele>2278.0</ele>
        <time>2018-06-17T11:57:29Z</time>
      </trkpt>
      <trkpt lat="40.414783" lon="-5.343000">
        <ele>2275.0</ele>
        <time>2018-06-17T11:57:30Z</time>
      </trkpt>
      <trkpt lat="40.414833" lon="-5.343050">
        <ele>2272.0</ele>
        <time>2018-06-17T11:57:31Z</time>
      </trkpt>
      <trkpt lat="40.414900" lon="-5.343083">
        <ele>2270.0</ele>
        <time>2018-06-17T11:57:32Z</time>
      </trkpt>
      <trkpt lat="40.414950" lon="-5.343100">
        <ele>2268.0</ele>
        <time>2018-06-17T11:57:33Z</time>
      </trkpt>
      <trkpt lat="40.415000" lon="-5.343117">
        <ele>2267.0</ele>
        <time>2018-06-17T11:57:34Z</time>
      </trkpt>
      <trkpt lat="40.415050" lon="-5.343117">
        <ele>2264.0</ele>
        <time>2018-06-17T11:57:35Z</time>
      </trkpt>
      <trkpt lat="40.415100" lon="-5.343117">
        <ele>2262.0</ele>
        <time>2018-06-17T11:57:36Z</time>
      </trkpt>
      <trkpt lat="40.415167" lon="-5.343117">
        <ele>2259.0</ele>
        <time>2018-06-17T11:57:37Z</time>
      </trkpt>
      <trkpt lat="40.415233" lon="-5.343150">
        <ele>2256.0</ele>
        <time>2018-06-17T11:57:38Z</time>
      </trkpt>
      <trkpt lat="40.415283" lon="-5.343183">
        <ele>2254.0</ele>
        <time>2018-06-17T11:57:39Z</time>
      </trkpt>
      <trkpt lat="40.415333" lon="-5.343217">
        <ele>2253.0</ele>
        <time>2018-06-17T11:57:40Z</time>
      </trkpt>
      <trkpt lat="40.415383" lon="-5.343250">
        <ele>2251.0</ele>
        <time>2018-06-17T11:57:41Z</time>
      </trkpt>
      <trkpt lat="40.415433" lon="-5.343267">
        <ele>2249.0</ele>
        <time>2018-06-17T11:57:42Z</time>
      </trkpt>
      <trkpt lat="40.415483" lon="-5.343283">
        <ele>2246.0</ele>
        <time>2018-06-17T11:57:43Z</time>
      </trkpt>
      <trkpt lat="40.415533" lon="-5.343300">
        <ele>2242.0</ele>
        <time>2018-06-17T11:57:44Z</time>
      </trkpt>
      <trkpt lat="40.415600" lon="-5.343300">
        <ele>2239.0</ele>
        <time>2018-06-17T11:57:45Z</time>
      </trkpt>
      <trkpt lat="40.415667" lon="-5.343300">
        <ele>2236.0</ele>
        <time>2018-06-17T11:57:46Z</time>
      </trkpt>
      <trkpt lat="40.415733" lon="-5.343267">
        <ele>2234.0</ele>
        <time>2018-06-17T11:57:47Z</time>
      </trkpt>
      <trkpt lat="40.415800" lon="-5.343233">
        <ele>2233.0</ele>
        <time>2018-06-17T11:57:48Z</time>
      </trkpt>
      <trkpt lat="40.415850" lon="-5.343200">
        <ele>2233.0</ele>
        <time>2018-06-17T11:57:49Z</time>
      </trkpt>
      <trkpt lat="40.415900" lon="-5.343167">
        <ele>2232.0</ele>
        <time>2018-06-17T11:57:50Z</time>
      </trkpt>
      <trkpt lat="40.415950" lon="-5.343133">
        <ele>2231.0</ele>
        <time>2018-06-17T11:57:51Z</time>
      </trkpt>
      <trkpt lat="40.416000" lon="-5.343100">
        <ele>2229.0</ele>
        <time>2018-06-17T11:57:52Z</time>
      </trkpt>
      <trkpt lat="40.416050" lon="-5.343067">
        <ele>2227.0</ele>
        <time>2018-06-17T11:57:53Z</time>
      </trkpt>
      <trkpt lat="40.416117" lon="-5.343033">
        <ele>2224.0</ele>
        <time>2018-06-17T11:57:54Z</time>
      </trkpt>
      <trkpt lat="40.416183" lon="-5.343000">
        <ele>2222.0</ele>
        <time>2018-06-17T11:57:55Z</time>
      </trkpt>
      <trkpt lat="40.416250" lon="-5.342983">
        <ele>2221.0</ele>
        <time>2018-06-17T11:57:56Z</time>
      </trkpt>
      <trkpt lat="40.416317" lon="-5.342967">
        <ele>2221.0</ele>
        <time>2018-06-17T11:57:57Z</time>
      </trkpt>
      <trkpt lat="40.416383" lon="-5.342967">
        <ele>2220.0</ele>
        <time>2018-06-17T11:57:58Z</time>
      </trkpt>
      <trkpt lat="40.416450" lon="-5.342950">
        <ele>2220.0</ele>
        <time>2018-06-17T11:57:59Z</time>
      </trkpt>
      <trkpt lat="40.416500" lon="-5.342950">
        <ele>2217.0</ele>
        <time>2018-06-17T11:58:00Z</time>
      </trkpt>
      <trkpt lat="40.416567" lon="-5.342950">
        <ele>2215.0</ele>
        <time>2018-06-17T11:58:01Z</time>
      </trkpt>
      <trkpt lat="40.416633" lon="-5.342967">
        <ele>2213.0</ele>
        <time>2018-06-17T11:58:02Z</time>
      </trkpt>
      <trkpt lat="40.416717" lon="-5.342983">
        <ele>2211.0</ele>
        <time>2018-06-17T11:58:03Z</time>
      </trkpt>
      <trkpt lat="40.416783" lon="-5.343017">
        <ele>2210.0</ele>
        <time>2018-06-17T11:58:04Z</time>
      </trkpt>
      <trkpt lat="40.416850" lon="-5.343033">
        <ele>2209.0</ele>
        <time>2018-06-17T11:58:05Z</time>
      </trkpt>
      <trkpt lat="40.416917" lon="-5.343067">
        <ele>2208.0</ele>
        <time>2018-06-17T11:58:06Z</time>
      </trkpt>
      <trkpt lat="40.416967" lon="-5.343083">
        <ele>2206.0</ele>
        <time>2018-06-17T11:58:07Z</time>
      </trkpt>
      <trkpt lat="40.417033" lon="-5.343117">
        <ele>2204.0</ele>
        <time>2018-06-17T11:58:08Z</time>
      </trkpt>
      <trkpt lat="40.417100" lon="-5.343133">
        <ele>2201.0</ele>
        <time>2018-06-17T11:58:09Z</time>
      </trkpt>
      <trkpt lat="40.417167" lon="-5.343150">
        <ele>2200.0</ele>
        <time>2018-06-17T11:58:10Z</time>
      </trkpt>
      <trkpt lat="40.417233" lon="-5.343167">
        <ele>2199.0</ele>
        <time>2018-06-17T11:58:11Z</time>
      </trkpt>
      <trkpt lat="40.417300" lon="-5.343183">
        <ele>2199.0</ele>
        <time>2018-06-17T11:58:12Z</time>
      </trkpt>
      <trkpt lat="40.417350" lon="-5.343200">
        <ele>2198.0</ele>
        <time>2018-06-17T11:58:13Z</time>
      </trkpt>
      <trkpt lat="40.417417" lon="-5.343217">
        <ele>2196.0</ele>
        <time>2018-06-17T11:58:14Z</time>
      </trkpt>
      <trkpt lat="40.417483" lon="-5.343217">
        <ele>2193.0</ele>
        <time>2018-06-17T11:58:15Z</time>
      </trkpt>
      <trkpt lat="40.417550" lon="-5.343250">
        <ele>2191.0</ele>
        <time>2018-06-17T11:58:16Z</time>
      </trkpt>
      <trkpt lat="40.417617" lon="-5.343267">
        <ele>2189.0</ele>
        <time>2018-06-17T11:58:17Z</time>
      </trkpt>
      <trkpt lat="40.417667" lon="-5.343317">
        <ele>2187.0</ele>
        <time>2018-06-17T11:58:18Z</time>
      </trkpt>
      <trkpt lat="40.417733" lon="-5.343350">
        <ele>2185.0</ele>
        <time>2018-06-17T11:58:19Z</time>
      </trkpt>
      <trkpt lat="40.417783" lon="-5.343400">
        <ele>2183.0</ele>
        <time>2018-06-17T11:58:20Z</time>
      </trkpt>
      <trkpt lat="40.417833" lon="-5.343450">
        <ele>2181.0</ele>
        <time>2018-06-17T11:58:21Z</time>
      </trkpt>
      <trkpt lat="40.417900" lon="-5.343517">
        <ele>2179.0</ele>
        <time>2018-06-17T11:58:22Z</time>
      </trkpt>
      <trkpt lat="40.417950" lon="-5.343550">
        <ele>2178.0</ele>
        <time>2018-06-17T11:58:23Z</time>
      </trkpt>
      <trkpt lat="40.418017" lon="-5.343600">
        <ele>2176.0</ele>
        <time>2018-06-17T11:58:24Z</time>
      </trkpt>
      <trkpt lat="40.418067" lon="-5.343633">
        <ele>2175.0</ele>
        <time>2018-06-17T11:58:25Z</time>
      </trkpt>
      <trkpt lat="40.418117" lon="-5.343683">
        <ele>2174.0</ele>
        <time>2018-06-17T11:58:26Z</time>
      </trkpt>
      <trkpt lat="40.418167" lon="-5.343717">
        <ele>2172.0</ele>
        <time>2018-06-17T11:58:27Z</time>
      </trkpt>
      <trkpt lat="40.418233" lon="-5.343750">
        <ele>2169.0</ele>
        <time>2018-06-17T11:58:28Z</time>
      </trkpt>
      <trkpt lat="40.418283" lon="-5.343800">
        <ele>2167.0</ele>
        <time>2018-06-17T11:58:29Z</time>
      </trkpt>
      <trkpt lat="40.418350" lon="-5.343833">
        <ele>2165.0</ele>
        <time>2018-06-17T11:58:30Z</time>
      </trkpt>
      <trkpt lat="40.418417" lon="-5.343867">
        <ele>2163.0</ele>
        <time>2018-06-17T11:58:31Z</time>
      </trkpt>
      <trkpt lat="40.418483" lon="-5.343900">
        <ele>2162.0</ele>
        <time>2018-06-17T11:58:32Z</time>
      </trkpt>
      <trkpt lat="40.418550" lon="-5.343950">
        <ele>2161.0</ele>
        <time>2018-06-17T11:58:33Z</time>
      </trkpt>
      <trkpt lat="40.418600" lon="-5.344000">
        <ele>2160.0</ele>
        <time>2018-06-17T11:58:34Z</time>
      </trkpt>
      <trkpt lat="40.418650" lon="-5.344050">
        <ele>2158.0</ele>
        <time>2018-06-17T11:58:35Z</time>
      </trkpt>
      <trkpt lat="40.418717" lon="-5.344100">
        <ele>2155.0</ele>
        <time>2018-06-17T11:58:36Z</time>
      </trkpt>
      <trkpt lat="40.418767" lon="-5.344150">
        <ele>2152.0</ele>
        <time>2018-06-17T11:58:37Z</time>
      </trkpt>
      <trkpt lat="40.418833" lon="-5.344217">
        <ele>2150.0</ele>
        <time>2018-06-17T11:58:38Z</time>
      </trkpt>
      <trkpt lat="40.418917" lon="-5.344283">
        <ele>2148.0</ele>
        <time>2018-06-17T11:58:39Z</time>
      </trkpt>
      <trkpt lat="40.418983" lon="-5.344333">
        <ele>2148.0</ele>
        <time>2018-06-17T11:58:40Z</time>
      </trkpt>
      <trkpt lat="40.419033" lon="-5.344383">
        <ele>2148.0</ele>
        <time>2018-06-17T11:58:41Z</time>
      </trkpt>
      <trkpt lat="40.419100" lon="-5.344433">
        <ele>2148.0</ele>
        <time>2018-06-17T11:58:42Z</time>
      </trkpt>
      <trkpt lat="40.419133" lon="-5.344467">
        <ele>2146.0</ele>
        <time>2018-06-17T11:58:43Z</time>
      </trkpt>
      <trkpt lat="40.419200" lon="-5.344517">
        <ele>2143.0</ele>
        <time>2018-06-17T11:58:44Z</time>
      </trkpt>
      <trkpt lat="40.419250" lon="-5.344567">
        <ele>2140.0</ele>
        <time>2018-06-17T11:58:45Z</time>
      </trkpt>
      <trkpt lat="40.419317" lon="-5.344600">
        <ele>2138.0</ele>
        <time>2018-06-17T11:58:46Z</time>
      </trkpt>
      <trkpt lat="40.419383" lon="-5.344650">
        <ele>2135.0</ele>
        <time>2018-06-17T11:58:47Z</time>
      </trkpt>
      <trkpt lat="40.419450" lon="-5.344700">
        <ele>2133.0</ele>
        <time>2018-06-17T11:58:48Z</time>
      </trkpt>
      <trkpt lat="40.419533" lon="-5.344733">
        <ele>2131.0</ele>
        <time>2018-06-17T11:58:49Z</time>
      </trkpt>
      <trkpt lat="40.419600" lon="-5.344750">
        <ele>2130.0</ele>
        <time>2018-06-17T11:58:50Z</time>
      </trkpt>
      <trkpt lat="40.419667" lon="-5.344767">
        <ele>2129.0</ele>
        <time>2018-06-17T11:58:51Z</time>
      </trkpt>
      <trkpt lat="40.419717" lon="-5.344767">
        <ele>2128.0</ele>
        <time>2018-06-17T11:58:52Z</time>
      </trkpt>
      <trkpt lat="40.419783" lon="-5.344767">
        <ele>2127.0</ele>
        <time>2018-06-17T11:58:53Z</time>
      </trkpt>
      <trkpt lat="40.419850" lon="-5.344767">
        <ele>2126.0</ele>
        <time>2018-06-17T11:58:54Z</time>
      </trkpt>
      <trkpt lat="40.419900" lon="-5.344783">
        <ele>2124.0</ele>
        <time>2018-06-17T11:58:55Z</time>
      </trkpt>
      <trkpt lat="40.419967" lon="-5.344800">
        <ele>2122.0</ele>
        <time>2018-06-17T11:58:56Z</time>
      </trkpt>
      <trkpt lat="40.420017" lon="-5.344833">
        <ele>2120.0</ele>
        <time>2018-06-17T11:58:57Z</time>
      </trkpt>
      <trkpt lat="40.420083" lon="-5.344883">
        <ele>2118.0</ele>
        <time>2018-06-17T11:58:58Z</time>
      </trkpt>
      <trkpt lat="40.420133" lon="-5.344917">
        <ele>2116.0</ele>
        <time>2018-06-17T11:58:59Z</time>
      </trkpt>
      <trkpt lat="40.420183" lon="-5.344967">
        <ele>2114.0</ele>
        <time>2018-06-17T11:59:00Z</time>
      </trkpt>
      <trkpt lat="40.420233" lon="-5.345000">
        <ele>2112.0</ele>
        <time>2018-06-17T11:59:01Z</time>
      </trkpt>
      <trkpt lat="40.420283" lon="-5.345017">
        <ele>2109.0</ele>
        <time>2018-06-17T11:59:02Z</time>
      </trkpt>
      <trkpt lat="40.420350" lon="-5.345033">
        <ele>2107.0</ele>
        <time>2018-06-17T11:59:03Z</time>
      </trkpt>
      <trkpt lat="40.420417" lon="-5.345050">
        <ele>2105.0</ele>
        <time>2018-06-17T11:59:04Z</time>
      </trkpt>
      <trkpt lat="40.420467" lon="-5.345050">
        <ele>2103.0</ele>
        <time>2018-06-17T11:59:05Z</time>
      </trkpt>
      <trkpt lat="40.420517" lon="-5.345067">
        <ele>2102.0</ele>
        <time>2018-06-17T11:59:06Z</time>
      </trkpt>
      <trkpt lat="40.420567" lon="-5.345067">
        <ele>2101.0</ele>
        <time>2018-06-17T11:59:07Z</time>
      </trkpt>
      <trkpt lat="40.420617" lon="-5.345083">
        <ele>2098.0</ele>
        <time>2018-06-17T11:59:08Z</time>
      </trkpt>
      <trkpt lat="40.420683" lon="-5.345067">
        <ele>2096.0</ele>
        <time>2018-06-17T11:59:09Z</time>
      </trkpt>
      <trkpt lat="40.420733" lon="-5.345067">
        <ele>2093.0</ele>
        <time>2018-06-17T11:59:10Z</time>
      </trkpt>
      <trkpt lat="40.420800" lon="-5.345083">
        <ele>2091.0</ele>
        <time>2018-06-17T11:59:11Z</time>
      </trkpt>
      <trkpt lat="40.420867" lon="-5.345100">
        <ele>2091.0</ele>
        <time>2018-06-17T11:59:12Z</time>
      </trkpt>
      <trkpt lat="40.420917" lon="-5.345133">
        <ele>2090.0</ele>
        <time>2018-06-17T11:59:13Z</time>
      </trkpt>
      <trkpt lat="40.420967" lon="-5.345183">
        <ele>2089.0</ele>
        <time>2018-06-17T11:59:14Z</time>
      </trkpt>
      <trkpt lat="40.421000" lon="-5.345233">
        <ele>2088.0</ele>
        <time>2018-06-17T11:59:15Z</time>
      </trkpt>
      <trkpt lat="40.421050" lon="-5.345267">
        <ele>2086.0</ele>
        <time>2018-06-17T11:59:16Z</time>
      </trkpt>
      <trkpt lat="40.421100" lon="-5.345300">
        <ele>2083.0</ele>
        <time>2018-06-17T11:59:17Z</time>
      </trkpt>
      <trkpt lat="40.421167" lon="-5.345333">
        <ele>2080.0</ele>
        <time>2018-06-17T11:59:18Z</time>
      </trkpt>
      <trkpt lat="40.421233" lon="-5.345367">
        <ele>2077.0</ele>
        <time>2018-06-17T11:59:19Z</time>
      </trkpt>
      <trkpt lat="40.421300" lon="-5.345400">
        <ele>2075.0</ele>
        <time>2018-06-17T11:59:20Z</time>
      </trkpt>
      <trkpt lat="40.421367" lon="-5.345450">
        <ele>2074.0</ele>
        <time>2018-06-17T11:59:21Z</time>
      </trkpt>
      <trkpt lat="40.421433" lon="-5.345500">
        <ele>2074.0</ele>
        <time>2018-06-17T11:59:22Z</time>
      </trkpt>
      <trkpt lat="40.421483" lon="-5.345550">
        <ele>2073.0</ele>
        <time>2018-06-17T11:59:23Z</time>
      </trkpt>
      <trkpt lat="40.421550" lon="-5.345583">
        <ele>2072.0</ele>
        <time>2018-06-17T11:59:24Z</time>
      </trkpt>
      <trkpt lat="40.421600" lon="-5.345617">
        <ele>2071.0</ele>
        <time>2018-06-17T11:59:25Z</time>
      </trkpt>
      <trkpt lat="40.421667" lon="-5.345650">
        <ele>2070.0</ele>
        <time>2018-06-17T11:59:26Z</time>
      </trkpt>
      <trkpt lat="40.421750" lon="-5.345683">
        <ele>2069.0</ele>
        <time>2018-06-17T11:59:27Z</time>
      </trkpt>
      <trkpt lat="40.421817" lon="-5.345717">
        <ele>2067.0</ele>
        <time>2018-06-17T11:59:28Z</time>
      </trkpt>
      <trkpt lat="40.421883" lon="-5.345733">
        <ele>2066.0</ele>
        <time>2018-06-17T11:59:29Z</time>
      </trkpt>
      <trkpt lat="40.421950" lon="-5.345750">
        <ele>2064.0</ele>
        <time>2018-06-17T11:59:30Z</time>
      </trkpt>
      <trkpt lat="40.422000" lon="-5.345750">
        <ele>2062.0</ele>
        <time>2018-06-17T11:59:31Z</time>
      </trkpt>
      <trkpt lat="40.422067" lon="-5.345750">
        <ele>2060.0</ele>
        <time>2018-06-17T11:59:32Z</time>
      </trkpt>
      <trkpt lat="40.422150" lon="-5.345733">
        <ele>2058.0</ele>
        <time>2018-06-17T11:59:33Z</time>
      </trkpt>
      <trkpt lat="40.422233" lon="-5.345733">
        <ele>2056.0</ele>
        <time>2018-06-17T11:59:34Z</time>
      </trkpt>
      <trkpt lat="40.422300" lon="-5.345733">
        <ele>2056.0</ele>
        <time>2018-06-17T11:59:35Z</time>
      </trkpt>
      <trkpt lat="40.422367" lon="-5.345717">
        <ele>2056.0</ele>
        <time>2018-06-17T11:59:36Z</time>
      </trkpt>
      <trkpt lat="40.422433" lon="-5.345700">
        <ele>2056.0</ele>
        <time>2018-06-17T11:59:37Z</time>
      </trkpt>
      <trkpt lat="40.422500" lon="-5.345700">
        <ele>2056.0</ele>
        <time>2018-06-17T11:59:38Z</time>
      </trkpt>
      <trkpt lat="40.422567" lon="-5.345717">
        <ele>2057.0</ele>
        <time>2018-06-17T11:59:39Z</time>
      </trkpt>
      <trkpt lat="40.422617" lon="-5.345750">
        <ele>2057.0</ele>
        <time>2018-06-17T11:59:40Z</time>
      </trkpt>
      <trkpt lat="40.422667" lon="-5.345817">
        <ele>2057.0</ele>
        <time>2018-06-17T11:59:41Z</time>
      </trkpt>
      <trkpt lat="40.422717" lon="-5.345883">
        <ele>2057.0</ele>
        <time>2018-06-17T11:59:42Z</time>
      </trkpt>
      <trkpt lat="40.422767" lon="-5.345933">
        <ele>2056.0</ele>
        <time>2018-06-17T11:59:43Z</time>
      </trkpt>
      <trkpt lat="40.422833" lon="-5.345983">
        <ele>2055.0</ele>
        <time>2018-06-17T11:59:44Z</time>
      </trkpt>
      <trkpt lat="40.422900" lon="-5.346017">
        <ele>2054.0</ele>
        <time>2018-06-17T11:59:45Z</time>
      </trkpt>
      <trkpt lat="40.422967" lon="-5.346067">
        <ele>2054.0</ele>
        <time>2018-06-17T11:59:46Z</time>
      </trkpt>
      <trkpt lat="40.423033" lon="-5.346133">
        <ele>2055.0</ele>
        <time>2018-06-17T11:59:47Z</time>
      </trkpt>
      <trkpt lat="40.423100" lon="-5.346183">
        <ele>2056.0</ele>
        <time>2018-06-17T11:59:48Z</time>
      </trkpt>
      <trkpt lat="40.423150" lon="-5.346233">
        <ele>2056.0</ele>
        <time>2018-06-17T11:59:49Z</time>
      </trkpt>
      <trkpt lat="40.423217" lon="-5.346283">
        <ele>2055.0</ele>
        <time>2018-06-17T11:59:50Z</time>
      </trkpt>
      <trkpt lat="40.423283" lon="-5.346317">
        <ele>2054.0</ele>
        <time>2018-06-17T11:59:51Z</time>
      </trkpt>
      <trkpt lat="40.423367" lon="-5.346350">
        <ele>2054.0</ele>
        <time>2018-06-17T11:59:52Z</time>
      </trkpt>
      <trkpt lat="40.423450" lon="-5.346383">
        <ele>2054.0</ele>
        <time>2018-06-17T11:59:53Z</time>
      </trkpt>
      <trkpt lat="40.423517" lon="-5.346433">
        <ele>2055.0</ele>
        <time>2018-06-17T11:59:54Z</time>
      </trkpt>
      <trkpt lat="40.423583" lon="-5.346483">
        <ele>2056.0</ele>
        <time>2018-06-17T11:59:55Z</time>
      </trkpt>
      <trkpt lat="40.423650" lon="-5.346500">
        <ele>2056.0</ele>
        <time>2018-06-17T11:59:56Z</time>
      </trkpt>
      <trkpt lat="40.423733" lon="-5.346517">
        <ele>2055.0</ele>
        <time>2018-06-17T11:59:57Z</time>
      </trkpt>
      <trkpt lat="40.423817" lon="-5.346517">
        <ele>2055.0</ele>
        <time>2018-06-17T11:59:58Z</time>
      </trkpt>
      <trkpt lat="40.423883" lon="-5.346517">
        <ele>2056.0</ele>
        <time>2018-06-17T11:59:59Z</time>
      </trkpt>
      <trkpt lat="40.423967" lon="-5.346517">
        <ele>2058.0</ele>
        <time>2018-06-17T12:00:00Z</time>
      </trkpt>
      <trkpt lat="40.424033" lon="-5.346533">
        <ele>2059.0</ele>
        <time>2018-06-17T12:00:01Z</time>
      </trkpt>
      <trkpt lat="40.424083" lon="-5.346533">
        <ele>2059.0</ele>
        <time>2018-06-17T12:00:02Z</time>
      </trkpt>
      <trkpt lat="40.424133" lon="-5.346533">
        <ele>2058.0</ele>
        <time>2018-06-17T12:00:03Z</time>
      </trkpt>
      <trkpt lat="40.424200" lon="-5.346533">
        <ele>2056.0</ele>
        <time>2018-06-17T12:00:04Z</time>
      </trkpt>
      <trkpt lat="40.424267" lon="-5.346517">
        <ele>2054.0</ele>
        <time>2018-06-17T12:00:05Z</time>
      </trkpt>
      <trkpt lat="40.424333" lon="-5.346517">
        <ele>2053.0</ele>
        <time>2018-06-17T12:00:06Z</time>
      </trkpt>
      <trkpt lat="40.424400" lon="-5.346517">
        <ele>2051.0</ele>
        <time>2018-06-17T12:00:07Z</time>
      </trkpt>
      <trkpt lat="40.424483" lon="-5.346533">
        <ele>2049.0</ele>
        <time>2018-06-17T12:00:08Z</time>
      </trkpt>
      <trkpt lat="40.424567" lon="-5.346550">
        <ele>2047.0</ele>
        <time>2018-06-17T12:00:09Z</time>
      </trkpt>
      <trkpt lat="40.424650" lon="-5.346567">
        <ele>2045.0</ele>
        <time>2018-06-17T12:00:10Z</time>
      </trkpt>
      <trkpt lat="40.424733" lon="-5.346567">
        <ele>2044.0</ele>
        <time>2018-06-17T12:00:11Z</time>
      </trkpt>
      <trkpt lat="40.424817" lon="-5.346567">
        <ele>2044.0</ele>
        <time>2018-06-17T12:00:12Z</time>
      </trkpt>
      <trkpt lat="40.424883" lon="-5.346567">
        <ele>2044.0</ele>
        <time>2018-06-17T12:00:13Z</time>
      </trkpt>
      <trkpt lat="40.424967" lon="-5.346583">
        <ele>2043.0</ele>
        <time>2018-06-17T12:00:14Z</time>
      </trkpt>
      <trkpt lat="40.425067" lon="-5.346633">
        <ele>2042.0</ele>
        <time>2018-06-17T12:00:15Z</time>
      </trkpt>
      <trkpt lat="40.425150" lon="-5.346700">
        <ele>2041.0</ele>
        <time>2018-06-17T12:00:16Z</time>
      </trkpt>
      <trkpt lat="40.425250" lon="-5.346767">
        <ele>2043.0</ele>
        <time>2018-06-17T12:00:17Z</time>
      </trkpt>
      <trkpt lat="40.425333" lon="-5.346833">
        <ele>2045.0</ele>
        <time>2018-06-17T12:00:18Z</time>
      </trkpt>
      <trkpt lat="40.425400" lon="-5.346917">
        <ele>2048.0</ele>
        <time>2018-06-17T12:00:19Z</time>
      </trkpt>
      <trkpt lat="40.425467" lon="-5.346983">
        <ele>2049.0</ele>
        <time>2018-06-17T12:00:20Z</time>
      </trkpt>
      <trkpt lat="40.425533" lon="-5.347050">
        <ele>2049.0</ele>
        <time>2018-06-17T12:00:21Z</time>
      </trkpt>
      <trkpt lat="40.425583" lon="-5.347133">
        <ele>2049.0</ele>
        <time>2018-06-17T12:00:22Z</time>
      </trkpt>
      <trkpt lat="40.425650" lon="-5.347217">
        <ele>2050.0</ele>
        <time>2018-06-17T12:00:23Z</time>
      </trkpt>
      <trkpt lat="40.425700" lon="-5.347317">
        <ele>2051.0</ele>
        <time>2018-06-17T12:00:24Z</time>
      </trkpt>
      <trkpt lat="40.425733" lon="-5.347417">
        <ele>2053.0</ele>
        <time>2018-06-17T12:00:25Z</time>
      </trkpt>
      <trkpt lat="40.425767" lon="-5.347533">
        <ele>2054.0</ele>
        <time>2018-06-17T12:00:26Z</time>
      </trkpt>
      <trkpt lat="40.425783" lon="-5.347650">
        <ele>2055.0</ele>
        <time>2018-06-17T12:00:27Z</time>
      </trkpt>
      <trkpt lat="40.425800" lon="-5.347767">
        <ele>2055.0</ele>
        <time>2018-06-17T12:00:28Z</time>
      </trkpt>
      <trkpt lat="40.425800" lon="-5.347900">
        <ele>2055.0</ele>
        <time>2018-06-17T12:00:29Z</time>
      </trkpt>
      <trkpt lat="40.425817" lon="-5.348033">
        <ele>2054.0</ele>
        <time>2018-06-17T12:00:30Z</time>
      </trkpt>
      <trkpt lat="40.425817" lon="-5.348150">
        <ele>2053.0</ele>
        <time>2018-06-17T12:00:31Z</time>
      </trkpt>
      <trkpt lat="40.425833" lon="-5.348283">
        <ele>2052.0</ele>
        <time>2018-06-17T12:00:32Z</time>
      </trkpt>
      <trkpt lat="40.425867" lon="-5.348400">
        <ele>2051.0</ele>
        <time>2018-06-17T12:00:33Z</time>
      </trkpt>
      <trkpt lat="40.425917" lon="-5.348517">
        <ele>2050.0</ele>
        <time>2018-06-17T12:00:34Z</time>
      </trkpt>
      <trkpt lat="40.425983" lon="-5.348633">
        <ele>2049.0</ele>
        <time>2018-06-17T12:00:35Z</time>
      </trkpt>
      <trkpt lat="40.426050" lon="-5.348733">
        <ele>2048.0</ele>
        <time>2018-06-17T12:00:36Z</time>
      </trkpt>
      <trkpt lat="40.426133" lon="-5.348800">
        <ele>2049.0</ele>
        <time>2018-06-17T12:00:37Z</time>
      </trkpt>
      <trkpt lat="40.426200" lon="-5.348867">
        <ele>2050.0</ele>
        <time>2018-06-17T12:00:38Z</time>
      </trkpt>
      <trkpt lat="40.426283" lon="-5.348917">
        <ele>2051.0</ele>
        <time>2018-06-17T12:00:39Z</time>
      </trkpt>
      <trkpt lat="40.426350" lon="-5.348950">
        <ele>2051.0</ele>
        <time>2018-06-17T12:00:40Z</time>
      </trkpt>
      <trkpt lat="40.426433" lon="-5.348967">
        <ele>2050.0</ele>
        <time>2018-06-17T12:00:41Z</time>
      </trkpt>
      <trkpt lat="40.426517" lon="-5.348967">
        <ele>2049.0</ele>
        <time>2018-06-17T12:00:42Z</time>
      </trkpt>
      <trkpt lat="40.426617" lon="-5.348950">
        <ele>2048.0</ele>
        <time>2018-06-17T12:00:43Z</time>
      </trkpt>
      <trkpt lat="40.426700" lon="-5.348917">
        <ele>2049.0</ele>
        <time>2018-06-17T12:00:44Z</time>
      </trkpt>
      <trkpt lat="40.426767" lon="-5.348883">
        <ele>2051.0</ele>
        <time>2018-06-17T12:00:45Z</time>
      </trkpt>
      <trkpt lat="40.426833" lon="-5.348867">
        <ele>2054.0</ele>
        <time>2018-06-17T12:00:46Z</time>
      </trkpt>
      <trkpt lat="40.426883" lon="-5.348817">
        <ele>2056.0</ele>
        <time>2018-06-17T12:00:47Z</time>
      </trkpt>
      <trkpt lat="40.426933" lon="-5.348767">
        <ele>2057.0</ele>
        <time>2018-06-17T12:00:48Z</time>
      </trkpt>
      <trkpt lat="40.426967" lon="-5.348700">
        <ele>2057.0</ele>
        <time>2018-06-17T12:00:49Z</time>
      </trkpt>
      <trkpt lat="40.427000" lon="-5.348617">
        <ele>2057.0</ele>
        <time>2018-06-17T12:00:50Z</time>
      </trkpt>
      <trkpt lat="40.427050" lon="-5.348533">
        <ele>2058.0</ele>
        <time>2018-06-17T12:00:51Z</time>
      </trkpt>
      <trkpt lat="40.427100" lon="-5.348450">
        <ele>2059.0</ele>
        <time>2018-06-17T12:00:52Z</time>
      </trkpt>
      <trkpt lat="40.427167" lon="-5.348400">
        <ele>2061.0</ele>
        <time>2018-06-17T12:00:53Z</time>
      </trkpt>
      <trkpt lat="40.427233" lon="-5.348383">
        <ele>2063.0</ele>
        <time>2018-06-17T12:00:54Z</time>
      </trkpt>
      <trkpt lat="40.427317" lon="-5.348417">
        <ele>2064.0</ele>
        <time>2018-06-17T12:00:55Z</time>
      </trkpt>
      <trkpt lat="40.427383" lon="-5.348483">
        <ele>2064.0</ele>
        <time>2018-06-17T12:00:56Z</time>
      </trkpt>
      <trkpt lat="40.427417" lon="-5.348600">
        <ele>2065.0</ele>
        <time>2018-06-17T12:00:57Z</time>
      </trkpt>
      <trkpt lat="40.427433" lon="-5.348750">
        <ele>2065.0</ele>
        <time>2018-06-17T12:00:58Z</time>
      </trkpt>
      <trkpt lat="40.427400" lon="-5.348900">
        <ele>2066.0</ele>
        <time>2018-06-17T12:00:59Z</time>
      </trkpt>
      <trkpt lat="40.427350" lon="-5.349050">
        <ele>2066.0</ele>
        <time>2018-06-17T12:01:00Z</time>
      </trkpt>
      <trkpt lat="40.427250" lon="-5.349167">
        <ele>2066.0</ele>
        <time>2018-06-17T12:01:01Z</time>
      </trkpt>
      <trkpt lat="40.427150" lon="-5.349267">
        <ele>2066.0</ele>
        <time>2018-06-17T12:01:02Z</time>
      </trkpt>
      <trkpt lat="40.427017" lon="-5.349333">
        <ele>2065.0</ele>
        <time>2018-06-17T12:01:03Z</time>
      </trkpt>
      <trkpt lat="40.426883" lon="-5.349333">
        <ele>2064.0</ele>
        <time>2018-06-17T12:01:04Z</time>
      </trkpt>
      <trkpt lat="40.426750" lon="-5.349300">
        <ele>2064.0</ele>
        <time>2018-06-17T12:01:05Z</time>
      </trkpt>
      <trkpt lat="40.426650" lon="-5.349233">
        <ele>2065.0</ele>
        <time>2018-06-17T12:01:06Z</time>
      </trkpt>
      <trkpt lat="40.426583" lon="-5.349133">
        <ele>2066.0</ele>
        <time>2018-06-17T12:01:07Z</time>
      </trkpt>
      <trkpt lat="40.426550" lon="-5.349033">
        <ele>2067.0</ele>
        <time>2018-06-17T12:01:08Z</time>
      </trkpt>
      <trkpt lat="40.426533" lon="-5.348933">
        <ele>2068.0</ele>
        <time>2018-06-17T12:01:09Z</time>
      </trkpt>
      <trkpt lat="40.426550" lon="-5.348833">
        <ele>2068.0</ele>
        <time>2018-06-17T12:01:10Z</time>
      </trkpt>
      <trkpt lat="40.426583" lon="-5.348750">
        <ele>2068.0</ele>
        <time>2018-06-17T12:01:11Z</time>
      </trkpt>
      <trkpt lat="40.426633" lon="-5.348667">
        <ele>2068.0</ele>
        <time>2018-06-17T12:01:12Z</time>
      </trkpt>
      <trkpt lat="40.426700" lon="-5.348583">
        <ele>2068.0</ele>
        <time>2018-06-17T12:01:13Z</time>
      </trkpt>
      <trkpt lat="40.426750" lon="-5.348517">
        <ele>2068.0</ele>
        <time>2018-06-17T12:01:14Z</time>
      </trkpt>
      <trkpt lat="40.426817" lon="-5.348450">
        <ele>2069.0</ele>
        <time>2018-06-17T12:01:15Z</time>
      </trkpt>
      <trkpt lat="40.426883" lon="-5.348383">
        <ele>2071.0</ele>
        <time>2018-06-17T12:01:16Z</time>
      </trkpt>
      <trkpt lat="40.426950" lon="-5.348333">
        <ele>2074.0</ele>
        <time>2018-06-17T12:01:17Z</time>
      </trkpt>
      <trkpt lat="40.427017" lon="-5.348300">
        <ele>2076.0</ele>
        <time>2018-06-17T12:01:18Z</time>
      </trkpt>
      <trkpt lat="40.427067" lon="-5.348267">
        <ele>2078.0</ele>
        <time>2018-06-17T12:01:19Z</time>
      </trkpt>
      <trkpt lat="40.427117" lon="-5.348233">
        <ele>2079.0</ele>
        <time>2018-06-17T12:01:20Z</time>
      </trkpt>
      <trkpt lat="40.427183" lon="-5.348217">
        <ele>2081.0</ele>
        <time>2018-06-17T12:01:21Z</time>
      </trkpt>
      <trkpt lat="40.427250" lon="-5.348200">
        <ele>2082.0</ele>
        <time>2018-06-17T12:01:22Z</time>
      </trkpt>
      <trkpt lat="40.427333" lon="-5.348233">
        <ele>2083.0</ele>
        <time>2018-06-17T12:01:23Z</time>
      </trkpt>
      <trkpt lat="40.427417" lon="-5.348300">
        <ele>2084.0</ele>
        <time>2018-06-17T12:01:24Z</time>
      </trkpt>
      <trkpt lat="40.427483" lon="-5.348400">
        <ele>2086.0</ele>
        <time>2018-06-17T12:01:25Z</time>
      </trkpt>
      <trkpt lat="40.427533" lon="-5.348517">
        <ele>2087.0</ele>
        <time>2018-06-17T12:01:26Z</time>
      </trkpt>
      <trkpt lat="40.427533" lon="-5.348667">
        <ele>2087.0</ele>
        <time>2018-06-17T12:01:27Z</time>
      </trkpt>
      <trkpt lat="40.427517" lon="-5.348817">
        <ele>2087.0</ele>
        <time>2018-06-17T12:01:28Z</time>
      </trkpt>
      <trkpt lat="40.427467" lon="-5.348967">
        <ele>2087.0</ele>
        <time>2018-06-17T12:01:29Z</time>
      </trkpt>
      <trkpt lat="40.427400" lon="-5.349100">
        <ele>2089.0</ele>
        <time>2018-06-17T12:01:30Z</time>
      </trkpt>
      <trkpt lat="40.427317" lon="-5.349183">
        <ele>2092.0</ele>
        <time>2018-06-17T12:01:31Z</time>
      </trkpt>
      <trkpt lat="40.427217" lon="-5.349217">
        <ele>2092.0</ele>
        <time>2018-06-17T12:01:32Z</time>
      </trkpt>
      <trkpt lat="40.427117" lon="-5.349217">
        <ele>2091.0</ele>
        <time>2018-06-17T12:01:33Z</time>
      </trkpt>
      <trkpt lat="40.427017" lon="-5.349200">
        <ele>2089.0</ele>
        <time>2018-06-17T12:01:34Z</time>
      </trkpt>
      <trkpt lat="40.426900" lon="-5.349167">
        <ele>2086.0</ele>
        <time>2018-06-17T12:01:35Z</time>
      </trkpt>
      <trkpt lat="40.426800" lon="-5.349100">
        <ele>2085.0</ele>
        <time>2018-06-17T12:01:36Z</time>
      </trkpt>
      <trkpt lat="40.426700" lon="-5.349000">
        <ele>2084.0</ele>
        <time>2018-06-17T12:01:37Z</time>
      </trkpt>
      <trkpt lat="40.426650" lon="-5.348867">
        <ele>2084.0</ele>
        <time>2018-06-17T12:01:38Z</time>
      </trkpt>
      <trkpt lat="40.426600" lon="-5.348733">
        <ele>2085.0</ele>
        <time>2018-06-17T12:01:39Z</time>
      </trkpt>
      <trkpt lat="40.426567" lon="-5.348617">
        <ele>2088.0</ele>
        <time>2018-06-17T12:01:40Z</time>
      </trkpt>
      <trkpt lat="40.426533" lon="-5.348517">
        <ele>2090.0</ele>
        <time>2018-06-17T12:01:41Z</time>
      </trkpt>
      <trkpt lat="40.426517" lon="-5.348417">
        <ele>2092.0</ele>
        <time>2018-06-17T12:01:42Z</time>
      </trkpt>
      <trkpt lat="40.426500" lon="-5.348317">
        <ele>2093.0</ele>
        <time>2018-06-17T12:01:43Z</time>
      </trkpt>
      <trkpt lat="40.426483" lon="-5.348217">
        <ele>2094.0</ele>
        <time>2018-06-17T12:01:44Z</time>
      </trkpt>
      <trkpt lat="40.426500" lon="-5.348117">
        <ele>2095.0</ele>
        <time>2018-06-17T12:01:45Z</time>
      </trkpt>
      <trkpt lat="40.426533" lon="-5.348033">
        <ele>2096.0</ele>
        <time>2018-06-17T12:01:46Z</time>
      </trkpt>
      <trkpt lat="40.426583" lon="-5.347933">
        <ele>2097.0</ele>
        <time>2018-06-17T12:01:47Z</time>
      </trkpt>
      <trkpt lat="40.426617" lon="-5.347850">
        <ele>2099.0</ele>
        <time>2018-06-17T12:01:48Z</time>
      </trkpt>
      <trkpt lat="40.426650" lon="-5.347767">
        <ele>2102.0</ele>
        <time>2018-06-17T12:01:49Z</time>
      </trkpt>
      <trkpt lat="40.426667" lon="-5.347700">
        <ele>2104.0</ele>
        <time>2018-06-17T12:01:50Z</time>
      </trkpt>
      <trkpt lat="40.426700" lon="-5.347650">
        <ele>2105.0</ele>
        <time>2018-06-17T12:01:51Z</time>
      </trkpt>
      <trkpt lat="40.426733" lon="-5.347600">
        <ele>2105.0</ele>
        <time>2018-06-17T12:01:52Z</time>
      </trkpt>
      <trkpt lat="40.426783" lon="-5.347550">
        <ele>2104.0</ele>
        <time>2018-06-17T12:01:53Z</time>
      </trkpt>
      <trkpt lat="40.426867" lon="-5.347517">
        <ele>2104.0</ele>
        <time>2018-06-17T12:01:54Z</time>
      </trkpt>
      <trkpt lat="40.426933" lon="-5.347517">
        <ele>2104.0</ele>
        <time>2018-06-17T12:01:55Z</time>
      </trkpt>
      <trkpt lat="40.427000" lon="-5.347550">
        <ele>2104.0</ele>
        <time>2018-06-17T12:01:56Z</time>
      </trkpt>
      <trkpt lat="40.427067" lon="-5.347600">
        <ele>2105.0</ele>
        <time>2018-06-17T12:01:57Z</time>
      </trkpt>
      <trkpt lat="40.427133" lon="-5.347650">
        <ele>2106.0</ele>
        <time>2018-06-17T12:01:58Z</time>
      </trkpt>
      <trkpt lat="40.427167" lon="-5.347717">
        <ele>2106.0</ele>
        <time>2018-06-17T12:01:59Z</time>
      </trkpt>
      <trkpt lat="40.427217" lon="-5.347800">
        <ele>2105.0</ele>
        <time>2018-06-17T12:02:00Z</time>
      </trkpt>
      <trkpt lat="40.427233" lon="-5.347917">
        <ele>2104.0</ele>
        <time>2018-06-17T12:02:01Z</time>
      </trkpt>
      <trkpt lat="40.427250" lon="-5.348033">
        <ele>2102.0</ele>
        <time>2018-06-17T12:02:02Z</time>
      </trkpt>
      <trkpt lat="40.427250" lon="-5.348167">
        <ele>2101.0</ele>
        <time>2018-06-17T12:02:03Z</time>
      </trkpt>
      <trkpt lat="40.427233" lon="-5.348317">
        <ele>2099.0</ele>
        <time>2018-06-17T12:02:04Z</time>
      </trkpt>
      <trkpt lat="40.427200" lon="-5.348467">
        <ele>2098.0</ele>
        <time>2018-06-17T12:02:05Z</time>
      </trkpt>
      <trkpt lat="40.427150" lon="-5.348600">
        <ele>2098.0</ele>
        <time>2018-06-17T12:02:06Z</time>
      </trkpt>
      <trkpt lat="40.427050" lon="-5.348717">
        <ele>2098.0</ele>
        <time>2018-06-17T12:02:07Z</time>
      </trkpt>
      <trkpt lat="40.426950" lon="-5.348783">
        <ele>2097.0</ele>
        <time>2018-06-17T12:02:08Z</time>
      </trkpt>
      <trkpt lat="40.426817" lon="-5.348833">
        <ele>2097.0</ele>
        <time>2018-06-17T12:02:09Z</time>
      </trkpt>
      <trkpt lat="40.426700" lon="-5.348850">
        <ele>2097.0</ele>
        <time>2018-06-17T12:02:10Z</time>
      </trkpt>
      <trkpt lat="40.426600" lon="-5.348850">
        <ele>2097.0</ele>
        <time>2018-06-17T12:02:11Z</time>
      </trkpt>
      <trkpt lat="40.426483" lon="-5.348833">
        <ele>2097.0</ele>
        <time>2018-06-17T12:02:12Z</time>
      </trkpt>
      <trkpt lat="40.426367" lon="-5.348800">
        <ele>2096.0</ele>
        <time>2018-06-17T12:02:13Z</time>
      </trkpt>
      <trkpt lat="40.426283" lon="-5.348733">
        <ele>2096.0</ele>
        <time>2018-06-17T12:02:14Z</time>
      </trkpt>
      <trkpt lat="40.426200" lon="-5.348650">
        <ele>2095.0</ele>
        <time>2018-06-17T12:02:15Z</time>
      </trkpt>
      <trkpt lat="40.426150" lon="-5.348533">
        <ele>2096.0</ele>
        <time>2018-06-17T12:02:16Z</time>
      </trkpt>
      <trkpt lat="40.426100" lon="-5.348433">
        <ele>2097.0</ele>
        <time>2018-06-17T12:02:17Z</time>
      </trkpt>
      <trkpt lat="40.426067" lon="-5.348333">
        <ele>2098.0</ele>
        <time>2018-06-17T12:02:18Z</time>
      </trkpt>
      <trkpt lat="40.426050" lon="-5.348217">
        <ele>2099.0</ele>
        <time>2018-06-17T12:02:19Z</time>
      </trkpt>
      <trkpt lat="40.426017" lon="-5.348117">
        <ele>2099.0</ele>
        <time>2018-06-17T12:02:20Z</time>
      </trkpt>
      <trkpt lat="40.426017" lon="-5.348000">
        <ele>2099.0</ele>
        <time>2018-06-17T12:02:21Z</time>
      </trkpt>
      <trkpt lat="40.426017" lon="-5.347900">
        <ele>2098.0</ele>
        <time>2018-06-17T12:02:22Z</time>
      </trkpt>
      <trkpt lat="40.426050" lon="-5.347817">
        <ele>2098.0</ele>
        <time>2018-06-17T12:02:23Z</time>
      </trkpt>
      <trkpt lat="40.426083" lon="-5.347750">
        <ele>2097.0</ele>
        <time>2018-06-17T12:02:24Z</time>
      </trkpt>
      <trkpt lat="40.426117" lon="-5.347700">
        <ele>2096.0</ele>
        <time>2018-06-17T12:02:25Z</time>
      </trkpt>
      <trkpt lat="40.426183" lon="-5.347650">
        <ele>2095.0</ele>
        <time>2018-06-17T12:02:26Z</time>
      </trkpt>
      <trkpt lat="40.426233" lon="-5.347633">
        <ele>2093.0</ele>
        <time>2018-06-17T12:02:27Z</time>
      </trkpt>
      <trkpt lat="40.426300" lon="-5.347650">
        <ele>2092.0</ele>
        <time>2018-06-17T12:02:28Z</time>
      </trkpt>
      <trkpt lat="40.426367" lon="-5.347683">
        <ele>2091.0</ele>
        <time>2018-06-17T12:02:29Z</time>
      </trkpt>
      <trkpt lat="40.426433" lon="-5.347733">
        <ele>2090.0</ele>
        <time>2018-06-17T12:02:30Z</time>
      </trkpt>
      <trkpt lat="40.426483" lon="-5.347800">
        <ele>2089.0</ele>
        <time>2018-06-17T12:02:31Z</time>
      </trkpt>
      <trkpt lat="40.426550" lon="-5.347850">
        <ele>2088.0</ele>
        <time>2018-06-17T12:02:32Z</time>
      </trkpt>
      <trkpt lat="40.426617" lon="-5.347917">
        <ele>2086.0</ele>
        <time>2018-06-17T12:02:33Z</time>
      </trkpt>
      <trkpt lat="40.426683" lon="-5.347967">
        <ele>2085.0</ele>
        <time>2018-06-17T12:02:34Z</time>
      </trkpt>
      <trkpt lat="40.426750" lon="-5.348017">
        <ele>2086.0</ele>
        <time>2018-06-17T12:02:35Z</time>
      </trkpt>
      <trkpt lat="40.426817" lon="-5.348067">
        <ele>2086.0</ele>
        <time>2018-06-17T12:02:36Z</time>
      </trkpt>
      <trkpt lat="40.426883" lon="-5.348100">
        <ele>2086.0</ele>
        <time>2018-06-17T12:02:37Z</time>
      </trkpt>
      <trkpt lat="40.426933" lon="-5.348150">
        <ele>2085.0</ele>
        <time>2018-06-17T12:02:38Z</time>
      </trkpt>
      <trkpt lat="40.427000" lon="-5.348183">
        <ele>2083.0</ele>
        <time>2018-06-17T12:02:39Z</time>
      </trkpt>
      <trkpt lat="40.427067" lon="-5.348200">
        <ele>2082.0</ele>
        <time>2018-06-17T12:02:40Z</time>
      </trkpt>
      <trkpt lat="40.427133" lon="-5.348200">
        <ele>2081.0</ele>
        <time>2018-06-17T12:02:41Z</time>
      </trkpt>
      <trkpt lat="40.427200" lon="-5.348200">
        <ele>2080.0</ele>
        <time>2018-06-17T12:02:42Z</time>
      </trkpt>
      <trkpt lat="40.427267" lon="-5.348217">
        <ele>2080.0</ele>
        <time>2018-06-17T12:02:43Z</time>
      </trkpt>
      <trkpt lat="40.427317" lon="-5.348233">
        <ele>2079.0</ele>
        <time>2018-06-17T12:02:44Z</time>
      </trkpt>
      <trkpt lat="40.427367" lon="-5.348267">
        <ele>2078.0</ele>
        <time>2018-06-17T12:02:45Z</time>
      </trkpt>
      <trkpt lat="40.427433" lon="-5.348300">
        <ele>2077.0</ele>
        <time>2018-06-17T12:02:46Z</time>
      </trkpt>
      <trkpt lat="40.427483" lon="-5.348333">
        <ele>2075.0</ele>
        <time>2018-06-17T12:02:47Z</time>
      </trkpt>
      <trkpt lat="40.427533" lon="-5.348367">
        <ele>2073.0</ele>
        <time>2018-06-17T12:02:48Z</time>
      </trkpt>
      <trkpt lat="40.427600" lon="-5.348400">
        <ele>2071.0</ele>
        <time>2018-06-17T12:02:49Z</time>
      </trkpt>
      <trkpt lat="40.427650" lon="-5.348467">
        <ele>2069.0</ele>
        <time>2018-06-17T12:02:50Z</time>
      </trkpt>
      <trkpt lat="40.427717" lon="-5.348533">
        <ele>2067.0</ele>
        <time>2018-06-17T12:02:51Z</time>
      </trkpt>
      <trkpt lat="40.427767" lon="-5.348617">
        <ele>2065.0</ele>
        <time>2018-06-17T12:02:52Z</time>
      </trkpt>
      <trkpt lat="40.427833" lon="-5.348683">
        <ele>2064.0</ele>
        <time>2018-06-17T12:02:53Z</time>
      </trkpt>
      <trkpt lat="40.427900" lon="-5.348733">
        <ele>2062.0</ele>
        <time>2018-06-17T12:02:54Z</time>
      </trkpt>
      <trkpt lat="40.427967" lon="-5.348750">
        <ele>2061.0</ele>
        <time>2018-06-17T12:02:55Z</time>
      </trkpt>
      <trkpt lat="40.428033" lon="-5.348767">
        <ele>2060.0</ele>
        <time>2018-06-17T12:02:56Z</time>
      </trkpt>
      <trkpt lat="40.428100" lon="-5.348767">
        <ele>2058.0</ele>
        <time>2018-06-17T12:02:57Z</time>
      </trkpt>
      <trkpt lat="40.428167" lon="-5.348767">
        <ele>2056.0</ele>
        <time>2018-06-17T12:02:58Z</time>
      </trkpt>
      <trkpt lat="40.428233" lon="-5.348767">
        <ele>2054.0</ele>
        <time>2018-06-17T12:02:59Z</time>
      </trkpt>
      <trkpt lat="40.428300" lon="-5.348783">
        <ele>2053.0</ele>
        <time>2018-06-17T12:03:00Z</time>
      </trkpt>
      <trkpt lat="40.428367" lon="-5.348817">
        <ele>2052.0</ele>
        <time>2018-06-17T12:03:01Z</time>
      </trkpt>
      <trkpt lat="40.428433" lon="-5.348867">
        <ele>2050.0</ele>
        <time>2018-06-17T12:03:02Z</time>
      </trkpt>
      <trkpt lat="40.428500" lon="-5.348933">
        <ele>2050.0</ele>
        <time>2018-06-17T12:03:03Z</time>
      </trkpt>
      <trkpt lat="40.428550" lon="-5.349017">
        <ele>2049.0</ele>
        <time>2018-06-17T12:03:04Z</time>
      </trkpt>
      <trkpt lat="40.428600" lon="-5.349100">
        <ele>2048.0</ele>
        <time>2018-06-17T12:03:05Z</time>
      </trkpt>
      <trkpt lat="40.428633" lon="-5.349200">
        <ele>2046.0</ele>
        <time>2018-06-17T12:03:06Z</time>
      </trkpt>
      <trkpt lat="40.428667" lon="-5.349300">
        <ele>2044.0</ele>
        <time>2018-06-17T12:03:07Z</time>
      </trkpt>
      <trkpt lat="40.428717" lon="-5.349400">
        <ele>2043.0</ele>
        <time>2018-06-17T12:03:08Z</time>
      </trkpt>
      <trkpt lat="40.428750" lon="-5.349517">
        <ele>2041.0</ele>
        <time>2018-06-17T12:03:09Z</time>
      </trkpt>
      <trkpt lat="40.428783" lon="-5.349650">
        <ele>2041.0</ele>
        <time>2018-06-17T12:03:10Z</time>
      </trkpt>
      <trkpt lat="40.428833" lon="-5.349767">
        <ele>2041.0</ele>
        <time>2018-06-17T12:03:11Z</time>
      </trkpt>
      <trkpt lat="40.428883" lon="-5.349867">
        <ele>2042.0</ele>
        <time>2018-06-17T12:03:12Z</time>
      </trkpt>
      <trkpt lat="40.428933" lon="-5.349967">
        <ele>2042.0</ele>
        <time>2018-06-17T12:03:13Z</time>
      </trkpt>
      <trkpt lat="40.428967" lon="-5.350067">
        <ele>2042.0</ele>
        <time>2018-06-17T12:03:14Z</time>
      </trkpt>
      <trkpt lat="40.429000" lon="-5.350167">
        <ele>2042.0</ele>
        <time>2018-06-17T12:03:15Z</time>
      </trkpt>
      <trkpt lat="40.429050" lon="-5.350267">
        <ele>2040.0</ele>
        <time>2018-06-17T12:03:16Z</time>
      </trkpt>
      <trkpt lat="40.429083" lon="-5.350383">
        <ele>2039.0</ele>
        <time>2018-06-17T12:03:17Z</time>
      </trkpt>
      <trkpt lat="40.429133" lon="-5.350500">
        <ele>2039.0</ele>
        <time>2018-06-17T12:03:18Z</time>
      </trkpt>
      <trkpt lat="40.429167" lon="-5.350600">
        <ele>2038.0</ele>
        <time>2018-06-17T12:03:19Z</time>
      </trkpt>
      <trkpt lat="40.429200" lon="-5.350717">
        <ele>2038.0</ele>
        <time>2018-06-17T12:03:20Z</time>
      </trkpt>
      <trkpt lat="40.429233" lon="-5.350833">
        <ele>2037.0</ele>
        <time>2018-06-17T12:03:21Z</time>
      </trkpt>
      <trkpt lat="40.429250" lon="-5.350967">
        <ele>2037.0</ele>
        <time>2018-06-17T12:03:22Z</time>
      </trkpt>
      <trkpt lat="40.429267" lon="-5.351083">
        <ele>2036.0</ele>
        <time>2018-06-17T12:03:23Z</time>
      </trkpt>
      <trkpt lat="40.429300" lon="-5.351200">
        <ele>2035.0</ele>
        <time>2018-06-17T12:03:24Z</time>
      </trkpt>
      <trkpt lat="40.429317" lon="-5.351300">
        <ele>2033.0</ele>
        <time>2018-06-17T12:03:25Z</time>
      </trkpt>
      <trkpt lat="40.429367" lon="-5.351400">
        <ele>2030.0</ele>
        <time>2018-06-17T12:03:26Z</time>
      </trkpt>
      <trkpt lat="40.429417" lon="-5.351517">
        <ele>2029.0</ele>
        <time>2018-06-17T12:03:27Z</time>
      </trkpt>
      <trkpt lat="40.429467" lon="-5.351633">
        <ele>2030.0</ele>
        <time>2018-06-17T12:03:28Z</time>
      </trkpt>
      <trkpt lat="40.429500" lon="-5.351733">
        <ele>2031.0</ele>
        <time>2018-06-17T12:03:29Z</time>
      </trkpt>
      <trkpt lat="40.429533" lon="-5.351833">
        <ele>2033.0</ele>
        <time>2018-06-17T12:03:30Z</time>
      </trkpt>
      <trkpt lat="40.429583" lon="-5.351917">
        <ele>2035.0</ele>
        <time>2018-06-17T12:03:31Z</time>
      </trkpt>
      <trkpt lat="40.429617" lon="-5.351983">
        <ele>2035.0</ele>
        <time>2018-06-17T12:03:32Z</time>
      </trkpt>
      <trkpt lat="40.429667" lon="-5.352050">
        <ele>2035.0</ele>
        <time>2018-06-17T12:03:33Z</time>
      </trkpt>
      <trkpt lat="40.429717" lon="-5.352100">
        <ele>2034.0</ele>
        <time>2018-06-17T12:03:34Z</time>
      </trkpt>
      <trkpt lat="40.429767" lon="-5.352150">
        <ele>2033.0</ele>
        <time>2018-06-17T12:03:35Z</time>
      </trkpt>
      <trkpt lat="40.429833" lon="-5.352217">
        <ele>2033.0</ele>
        <time>2018-06-17T12:03:36Z</time>
      </trkpt>
      <trkpt lat="40.429883" lon="-5.352317">
        <ele>2033.0</ele>
        <time>2018-06-17T12:03:37Z</time>
      </trkpt>
      <trkpt lat="40.429933" lon="-5.352433">
        <ele>2033.0</ele>
        <time>2018-06-17T12:03:38Z</time>
      </trkpt>
      <trkpt lat="40.429967" lon="-5.352567">
        <ele>2034.0</ele>
        <time>2018-06-17T12:03:39Z</time>
      </trkpt>
      <trkpt lat="40.429983" lon="-5.352700">
        <ele>2035.0</ele>
        <time>2018-06-17T12:03:40Z</time>
      </trkpt>
      <trkpt lat="40.429983" lon="-5.352867">
        <ele>2036.0</ele>
        <time>2018-06-17T12:03:41Z</time>
      </trkpt>
      <trkpt lat="40.429983" lon="-5.353033">
        <ele>2038.0</ele>
        <time>2018-06-17T12:03:42Z</time>
      </trkpt>
      <trkpt lat="40.429967" lon="-5.353200">
        <ele>2041.0</ele>
        <time>2018-06-17T12:03:43Z</time>
      </trkpt>
      <trkpt lat="40.429917" lon="-5.353333">
        <ele>2043.0</ele>
        <time>2018-06-17T12:03:44Z</time>
      </trkpt>
      <trkpt lat="40.429850" lon="-5.353483">
        <ele>2044.0</ele>
        <time>2018-06-17T12:03:45Z</time>
      </trkpt>
      <trkpt lat="40.429767" lon="-5.353617">
        <ele>2045.0</ele>
        <time>2018-06-17T12:03:46Z</time>
      </trkpt>
      <trkpt lat="40.429683" lon="-5.353767">
        <ele>2046.0</ele>
        <time>2018-06-17T12:03:47Z</time>
      </trkpt>
      <trkpt lat="40.429617" lon="-5.353917">
        <ele>2049.0</ele>
        <time>2018-06-17T12:03:48Z</time>
      </trkpt>
      <trkpt lat="40.429533" lon="-5.354067">
        <ele>2052.0</ele>
        <time>2018-06-17T12:03:49Z</time>
      </trkpt>
      <trkpt lat="40.429467" lon="-5.354183">
        <ele>2055.0</ele>
        <time>2018-06-17T12:03:50Z</time>
      </trkpt>
      <trkpt lat="40.429400" lon="-5.354283">
        <ele>2057.0</ele>
        <time>2018-06-17T12:03:51Z</time>
      </trkpt>
      <trkpt lat="40.429300" lon="-5.354350">
        <ele>2057.0</ele>
        <time>2018-06-17T12:03:52Z</time>
      </trkpt>
      <trkpt lat="40.429200" lon="-5.354417">
        <ele>2055.0</ele>
        <time>2018-06-17T12:03:53Z</time>
      </trkpt>
      <trkpt lat="40.429083" lon="-5.354467">
        <ele>2054.0</ele>
        <time>2018-06-17T12:03:54Z</time>
      </trkpt>
      <trkpt lat="40.428950" lon="-5.354500">
        <ele>2054.0</ele>
        <time>2018-06-17T12:03:55Z</time>
      </trkpt>
      <trkpt lat="40.428833" lon="-5.354533">
        <ele>2055.0</ele>
        <time>2018-06-17T12:03:56Z</time>
      </trkpt>
      <trkpt lat="40.428700" lon="-5.354550">
        <ele>2056.0</ele>
        <time>2018-06-17T12:03:57Z</time>
      </trkpt>
      <trkpt lat="40.428583" lon="-5.354550">
        <ele>2057.0</ele>
        <time>2018-06-17T12:03:58Z</time>
      </trkpt>
      <trkpt lat="40.428483" lon="-5.354550">
        <ele>2057.0</ele>
        <time>2018-06-17T12:03:59Z</time>
      </trkpt>
      <trkpt lat="40.428367" lon="-5.354517">
        <ele>2057.0</ele>
        <time>2018-06-17T12:04:00Z</time>
      </trkpt>
      <trkpt lat="40.428267" lon="-5.354467">
        <ele>2055.0</ele>
        <time>2018-06-17T12:04:01Z</time>
      </trkpt>
      <trkpt lat="40.428183" lon="-5.354383">
        <ele>2053.0</ele>
        <time>2018-06-17T12:04:02Z</time>
      </trkpt>
      <trkpt lat="40.428100" lon="-5.354283">
        <ele>2053.0</ele>
        <time>2018-06-17T12:04:03Z</time>
      </trkpt>
      <trkpt lat="40.428050" lon="-5.354167">
        <ele>2053.0</ele>
        <time>2018-06-17T12:04:04Z</time>
      </trkpt>
      <trkpt lat="40.428033" lon="-5.354067">
        <ele>2054.0</ele>
        <time>2018-06-17T12:04:05Z</time>
      </trkpt>
      <trkpt lat="40.428017" lon="-5.353983">
        <ele>2054.0</ele>
        <time>2018-06-17T12:04:06Z</time>
      </trkpt>
      <trkpt lat="40.428033" lon="-5.353917">
        <ele>2053.0</ele>
        <time>2018-06-17T12:04:07Z</time>
      </trkpt>
      <trkpt lat="40.428050" lon="-5.353850">
        <ele>2052.0</ele>
        <time>2018-06-17T12:04:08Z</time>
      </trkpt>
      <trkpt lat="40.428083" lon="-5.353783">
        <ele>2050.0</ele>
        <time>2018-06-17T12:04:09Z</time>
      </trkpt>
      <trkpt lat="40.428150" lon="-5.353750">
        <ele>2048.0</ele>
        <time>2018-06-17T12:04:10Z</time>
      </trkpt>
      <trkpt lat="40.428217" lon="-5.353717">
        <ele>2047.0</ele>
        <time>2018-06-17T12:04:11Z</time>
      </trkpt>
      <trkpt lat="40.428283" lon="-5.353700">
        <ele>2046.0</ele>
        <time>2018-06-17T12:04:12Z</time>
      </trkpt>
      <trkpt lat="40.428367" lon="-5.353683">
        <ele>2047.0</ele>
        <time>2018-06-17T12:04:13Z</time>
      </trkpt>
      <trkpt lat="40.428433" lon="-5.353683">
        <ele>2047.0</ele>
        <time>2018-06-17T12:04:14Z</time>
      </trkpt>
      <trkpt lat="40.428517" lon="-5.353683">
        <ele>2048.0</ele>
        <time>2018-06-17T12:04:15Z</time>
      </trkpt>
      <trkpt lat="40.428600" lon="-5.353717">
        <ele>2051.0</ele>
        <time>2018-06-17T12:04:16Z</time>
      </trkpt>
      <trkpt lat="40.428667" lon="-5.353750">
        <ele>2055.0</ele>
        <time>2018-06-17T12:04:17Z</time>
      </trkpt>
      <trkpt lat="40.428733" lon="-5.353800">
        <ele>2058.0</ele>
        <time>2018-06-17T12:04:18Z</time>
      </trkpt>
      <trkpt lat="40.428767" lon="-5.353817">
        <ele>2060.0</ele>
        <time>2018-06-17T12:04:19Z</time>
      </trkpt>
      <trkpt lat="40.428800" lon="-5.353833">
        <ele>2061.0</ele>
        <time>2018-06-17T12:04:20Z</time>
      </trkpt>
      <trkpt lat="40.428850" lon="-5.353817">
        <ele>2061.0</ele>
        <time>2018-06-17T12:04:21Z</time>
      </trkpt>
      <trkpt lat="40.428900" lon="-5.353783">
        <ele>2061.0</ele>
        <time>2018-06-17T12:04:22Z</time>
      </trkpt>
      <trkpt lat="40.428950" lon="-5.353733">
        <ele>2061.0</ele>
        <time>2018-06-17T12:04:23Z</time>
      </trkpt>
      <trkpt lat="40.428967" lon="-5.353633">
        <ele>2062.0</ele>
        <time>2018-06-17T12:04:24Z</time>
      </trkpt>
      <trkpt lat="40.428933" lon="-5.353533">
        <ele>2063.0</ele>
        <time>2018-06-17T12:04:25Z</time>
      </trkpt>
      <trkpt lat="40.428850" lon="-5.353433">
        <ele>2063.0</ele>
        <time>2018-06-17T12:04:26Z</time>
      </trkpt>
      <trkpt lat="40.428750" lon="-5.353350">
        <ele>2064.0</ele>
        <time>2018-06-17T12:04:27Z</time>
      </trkpt>
      <trkpt lat="40.428617" lon="-5.353283">
        <ele>2066.0</ele>
        <time>2018-06-17T12:04:28Z</time>
      </trkpt>
      <trkpt lat="40.428483" lon="-5.353267">
        <ele>2070.0</ele>
        <time>2018-06-17T12:04:29Z</time>
      </trkpt>
      <trkpt lat="40.428367" lon="-5.353283">
        <ele>2073.0</ele>
        <time>2018-06-17T12:04:30Z</time>
      </trkpt>
      <trkpt lat="40.428250" lon="-5.353350">
        <ele>2075.0</ele>
        <time>2018-06-17T12:04:31Z</time>
      </trkpt>
      <trkpt lat="40.428133" lon="-5.353450">
        <ele>2076.0</ele>
        <time>2018-06-17T12:04:32Z</time>
      </trkpt>
      <trkpt lat="40.428050" lon="-5.353583">
        <ele>2077.0</ele>
        <time>2018-06-17T12:04:33Z</time>
      </trkpt>
      <trkpt lat="40.428000" lon="-5.353733">
        <ele>2078.0</ele>
        <time>2018-06-17T12:04:34Z</time>
      </trkpt>
      <trkpt lat="40.427967" lon="-5.353900">
        <ele>2079.0</ele>
        <time>2018-06-17T12:04:35Z</time>
      </trkpt>
      <trkpt lat="40.427967" lon="-5.354050">
        <ele>2080.0</ele>
        <time>2018-06-17T12:04:36Z</time>
      </trkpt>
      <trkpt lat="40.428000" lon="-5.354167">
        <ele>2080.0</ele>
        <time>2018-06-17T12:04:37Z</time>
      </trkpt>
      <trkpt lat="40.428050" lon="-5.354283">
        <ele>2080.0</ele>
        <time>2018-06-17T12:04:38Z</time>
      </trkpt>
      <trkpt lat="40.428133" lon="-5.354350">
        <ele>2081.0</ele>
        <time>2018-06-17T12:04:39Z</time>
      </trkpt>
      <trkpt lat="40.428200" lon="-5.354400">
        <ele>2082.0</ele>
        <time>2018-06-17T12:04:40Z</time>
      </trkpt>
      <trkpt lat="40.428267" lon="-5.354400">
        <ele>2084.0</ele>
        <time>2018-06-17T12:04:41Z</time>
      </trkpt>
      <trkpt lat="40.428333" lon="-5.354400">
        <ele>2085.0</ele>
        <time>2018-06-17T12:04:42Z</time>
      </trkpt>
      <trkpt lat="40.428400" lon="-5.354367">
        <ele>2087.0</ele>
        <time>2018-06-17T12:04:43Z</time>
      </trkpt>
      <trkpt lat="40.428450" lon="-5.354300">
        <ele>2088.0</ele>
        <time>2018-06-17T12:04:44Z</time>
      </trkpt>
      <trkpt lat="40.428500" lon="-5.354233">
        <ele>2089.0</ele>
        <time>2018-06-17T12:04:45Z</time>
      </trkpt>
      <trkpt lat="40.428517" lon="-5.354133">
        <ele>2091.0</ele>
        <time>2018-06-17T12:04:46Z</time>
      </trkpt>
      <trkpt lat="40.428517" lon="-5.354017">
        <ele>2093.0</ele>
        <time>2018-06-17T12:04:47Z</time>
      </trkpt>
      <trkpt lat="40.428500" lon="-5.353900">
        <ele>2096.0</ele>
        <time>2018-06-17T12:04:48Z</time>
      </trkpt>
      <trkpt lat="40.428483" lon="-5.353783">
        <ele>2098.0</ele>
        <time>2018-06-17T12:04:49Z</time>
      </trkpt>
      <trkpt lat="40.428467" lon="-5.353683">
        <ele>2103.0</ele>
        <time>2018-06-17T12:04:50Z</time>
      </trkpt>
      <trkpt lat="40.428433" lon="-5.353600">
        <ele>2107.0</ele>
        <time>2018-06-17T12:04:51Z</time>
      </trkpt>
      <trkpt lat="40.428367" lon="-5.353533">
        <ele>2109.0</ele>
        <time>2018-06-17T12:04:52Z</time>
      </trkpt>
      <trkpt lat="40.428283" lon="-5.353483">
        <ele>2110.0</ele>
        <time>2018-06-17T12:04:53Z</time>
      </trkpt>
      <trkpt lat="40.428183" lon="-5.353450">
        <ele>2110.0</ele>
        <time>2018-06-17T12:04:54Z</time>
      </trkpt>
      <trkpt lat="40.428050" lon="-5.353450">
        <ele>2111.0</ele>
        <time>2018-06-17T12:04:55Z</time>
      </trkpt>
      <trkpt lat="40.427917" lon="-5.353533">
        <ele>2112.0</ele>
        <time>2018-06-17T12:04:56Z</time>
      </trkpt>
      <trkpt lat="40.427800" lon="-5.353650">
        <ele>2112.0</ele>
        <time>2018-06-17T12:04:57Z</time>
      </trkpt>
      <trkpt lat="40.427717" lon="-5.353800">
        <ele>2114.0</ele>
        <time>2018-06-17T12:04:58Z</time>
      </trkpt>
      <trkpt lat="40.427667" lon="-5.353967">
        <ele>2117.0</ele>
        <time>2018-06-17T12:04:59Z</time>
      </trkpt>
      <trkpt lat="40.427667" lon="-5.354100">
        <ele>2120.0</ele>
        <time>2018-06-17T12:05:00Z</time>
      </trkpt>
      <trkpt lat="40.427683" lon="-5.354217">
        <ele>2122.0</ele>
        <time>2018-06-17T12:05:01Z</time>
      </trkpt>
      <trkpt lat="40.427717" lon="-5.354333">
        <ele>2123.0</ele>
        <time>2018-06-17T12:05:02Z</time>
      </trkpt>
      <trkpt lat="40.427767" lon="-5.354433">
        <ele>2125.0</ele>
        <time>2018-06-17T12:05:03Z</time>
      </trkpt>
      <trkpt lat="40.427817" lon="-5.354517">
        <ele>2127.0</ele>
        <time>2018-06-17T12:05:04Z</time>
      </trkpt>
      <trkpt lat="40.427883" lon="-5.354583">
        <ele>2129.0</ele>
        <time>2018-06-17T12:05:05Z</time>
      </trkpt>
      <trkpt lat="40.427950" lon="-5.354617">
        <ele>2132.0</ele>
        <time>2018-06-17T12:05:06Z</time>
      </trkpt>
      <trkpt lat="40.428017" lon="-5.354600">
        <ele>2134.0</ele>
        <time>2018-06-17T12:05:07Z</time>
      </trkpt>
      <trkpt lat="40.428067" lon="-5.354533">
        <ele>2135.0</ele>
        <time>2018-06-17T12:05:08Z</time>
      </trkpt>
      <trkpt lat="40.428083" lon="-5.354433">
        <ele>2137.0</ele>
        <time>2018-06-17T12:05:09Z</time>
      </trkpt>
      <trkpt lat="40.428067" lon="-5.354300">
        <ele>2138.0</ele>
        <time>2018-06-17T12:05:10Z</time>
      </trkpt>
      <trkpt lat="40.428033" lon="-5.354183">
        <ele>2141.0</ele>
        <time>2018-06-17T12:05:11Z</time>
      </trkpt>
      <trkpt lat="40.427967" lon="-5.354100">
        <ele>2144.0</ele>
        <time>2018-06-17T12:05:12Z</time>
      </trkpt>
      <trkpt lat="40.427883" lon="-5.354050">
        <ele>2146.0</ele>
        <time>2018-06-17T12:05:13Z</time>
      </trkpt>
      <trkpt lat="40.427767" lon="-5.354033">
        <ele>2146.0</ele>
        <time>2018-06-17T12:05:14Z</time>
      </trkpt>
      <trkpt lat="40.427650" lon="-5.354033">
        <ele>2146.0</ele>
        <time>2018-06-17T12:05:15Z</time>
      </trkpt>
      <trkpt lat="40.427533" lon="-5.354067">
        <ele>2146.0</ele>
        <time>2018-06-17T12:05:16Z</time>
      </trkpt>
      <trkpt lat="40.427400" lon="-5.354117">
        <ele>2146.0</ele>
        <time>2018-06-17T12:05:17Z</time>
      </trkpt>
      <trkpt lat="40.427283" lon="-5.354217">
        <ele>2147.0</ele>
        <time>2018-06-17T12:05:18Z</time>
      </trkpt>
      <trkpt lat="40.427183" lon="-5.354350">
        <ele>2148.0</ele>
        <time>2018-06-17T12:05:19Z</time>
      </trkpt>
      <trkpt lat="40.427100" lon="-5.354500">
        <ele>2150.0</ele>
        <time>2018-06-17T12:05:20Z</time>
      </trkpt>
      <trkpt lat="40.427050" lon="-5.354650">
        <ele>2151.0</ele>
        <time>2018-06-17T12:05:21Z</time>
      </trkpt>
      <trkpt lat="40.427017" lon="-5.354800">
        <ele>2153.0</ele>
        <time>2018-06-17T12:05:22Z</time>
      </trkpt>
      <trkpt lat="40.427033" lon="-5.354950">
        <ele>2154.0</ele>
        <time>2018-06-17T12:05:23Z</time>
      </trkpt>
      <trkpt lat="40.427067" lon="-5.355100">
        <ele>2155.0</ele>
        <time>2018-06-17T12:05:24Z</time>
      </trkpt>
      <trkpt lat="40.427100" lon="-5.355233">
        <ele>2157.0</ele>
        <time>2018-06-17T12:05:25Z</time>
      </trkpt>
      <trkpt lat="40.427150" lon="-5.355367">
        <ele>2160.0</ele>
        <time>2018-06-17T12:05:26Z</time>
      </trkpt>
      <trkpt lat="40.427183" lon="-5.355467">
        <ele>2163.0</ele>
        <time>2018-06-17T12:05:27Z</time>
      </trkpt>
      <trkpt lat="40.427233" lon="-5.355550">
        <ele>2165.0</ele>
        <time>2018-06-17T12:05:28Z</time>
      </trkpt>
      <trkpt lat="40.427267" lon="-5.355600">
        <ele>2166.0</ele>
        <time>2018-06-17T12:05:29Z</time>
      </trkpt>
      <trkpt lat="40.427317" lon="-5.355633">
        <ele>2166.0</ele>
        <time>2018-06-17T12:05:30Z</time>
      </trkpt>
      <trkpt lat="40.427367" lon="-5.355633">
        <ele>2166.0</ele>
        <time>2018-06-17T12:05:31Z</time>
      </trkpt>
      <trkpt lat="40.427400" lon="-5.355600">
        <ele>2165.0</ele>
        <time>2018-06-17T12:05:32Z</time>
      </trkpt>
      <trkpt lat="40.427450" lon="-5.355550">
        <ele>2164.0</ele>
        <time>2018-06-17T12:05:33Z</time>
      </trkpt>
      <trkpt lat="40.427467" lon="-5.355467">
        <ele>2163.0</ele>
        <time>2018-06-17T12:05:34Z</time>
      </trkpt>
      <trkpt lat="40.427450" lon="-5.355367">
        <ele>2163.0</ele>
        <time>2018-06-17T12:05:35Z</time>
      </trkpt>
      <trkpt lat="40.427400" lon="-5.355267">
        <ele>2162.0</ele>
        <time>2018-06-17T12:05:36Z</time>
      </trkpt>
      <trkpt lat="40.427333" lon="-5.355167">
        <ele>2162.0</ele>
        <time>2018-06-17T12:05:37Z</time>
      </trkpt>
      <trkpt lat="40.427233" lon="-5.355083">
        <ele>2163.0</ele>
        <time>2018-06-17T12:05:38Z</time>
      </trkpt>
      <trkpt lat="40.427117" lon="-5.355033">
        <ele>2164.0</ele>
        <time>2018-06-17T12:05:39Z</time>
      </trkpt>
      <trkpt lat="40.426983" lon="-5.355033">
        <ele>2166.0</ele>
        <time>2018-06-17T12:05:40Z</time>
      </trkpt>
      <trkpt lat="40.426867" lon="-5.355067">
        <ele>2167.0</ele>
        <time>2018-06-17T12:05:41Z</time>
      </trkpt>
      <trkpt lat="40.426750" lon="-5.355150">
        <ele>2168.0</ele>
        <time>2018-06-17T12:05:42Z</time>
      </trkpt>
      <trkpt lat="40.426633" lon="-5.355250">
        <ele>2169.0</ele>
        <time>2018-06-17T12:05:43Z</time>
      </trkpt>
      <trkpt lat="40.426533" lon="-5.355367">
        <ele>2171.0</ele>
        <time>2018-06-17T12:05:44Z</time>
      </trkpt>
      <trkpt lat="40.426450" lon="-5.355483">
        <ele>2173.0</ele>
        <time>2018-06-17T12:05:45Z</time>
      </trkpt>
      <trkpt lat="40.426383" lon="-5.355600">
        <ele>2175.0</ele>
        <time>2018-06-17T12:05:46Z</time>
      </trkpt>
      <trkpt lat="40.426350" lon="-5.355733">
        <ele>2177.0</ele>
        <time>2018-06-17T12:05:47Z</time>
      </trkpt>
      <trkpt lat="40.426333" lon="-5.355850">
        <ele>2177.0</ele>
        <time>2018-06-17T12:05:48Z</time>
      </trkpt>
      <trkpt lat="40.426350" lon="-5.355983">
        <ele>2177.0</ele>
        <time>2018-06-17T12:05:49Z</time>
      </trkpt>
      <trkpt lat="40.426383" lon="-5.356100">
        <ele>2177.0</ele>
        <time>2018-06-17T12:05:50Z</time>
      </trkpt>
      <trkpt lat="40.426433" lon="-5.356217">
        <ele>2178.0</ele>
        <time>2018-06-17T12:05:51Z</time>
      </trkpt>
      <trkpt lat="40.426483" lon="-5.356283">
        <ele>2178.0</ele>
        <time>2018-06-17T12:05:52Z</time>
      </trkpt>
      <trkpt lat="40.426550" lon="-5.356350">
        <ele>2179.0</ele>
        <time>2018-06-17T12:05:53Z</time>
      </trkpt>
      <trkpt lat="40.426600" lon="-5.356417">
        <ele>2180.0</ele>
        <time>2018-06-17T12:05:54Z</time>
      </trkpt>
      <trkpt lat="40.426633" lon="-5.356467">
        <ele>2180.0</ele>
        <time>2018-06-17T12:05:55Z</time>
      </trkpt>
      <trkpt lat="40.426683" lon="-5.356533">
        <ele>2181.0</ele>
        <time>2018-06-17T12:05:56Z</time>
      </trkpt>
      <trkpt lat="40.426733" lon="-5.356583">
        <ele>2180.0</ele>
        <time>2018-06-17T12:05:57Z</time>
      </trkpt>
      <trkpt lat="40.426783" lon="-5.356633">
        <ele>2179.0</ele>
        <time>2018-06-17T12:05:58Z</time>
      </trkpt>
      <trkpt lat="40.426833" lon="-5.356683">
        <ele>2179.0</ele>
        <time>2018-06-17T12:05:59Z</time>
      </trkpt>
      <trkpt lat="40.426883" lon="-5.356733">
        <ele>2179.0</ele>
        <time>2018-06-17T12:06:00Z</time>
      </trkpt>
      <trkpt lat="40.426933" lon="-5.356800">
        <ele>2179.0</ele>
        <time>2018-06-17T12:06:01Z</time>
      </trkpt>
      <trkpt lat="40.426983" lon="-5.356867">
        <ele>2178.0</ele>
        <time>2018-06-17T12:06:02Z</time>
      </trkpt>
      <trkpt lat="40.427033" lon="-5.356917">
        <ele>2177.0</ele>
        <time>2018-06-17T12:06:03Z</time>
      </trkpt>
      <trkpt lat="40.427083" lon="-5.356967">
        <ele>2176.0</ele>
        <time>2018-06-17T12:06:04Z</time>
      </trkpt>
      <trkpt lat="40.427117" lon="-5.357017">
        <ele>2175.0</ele>
        <time>2018-06-17T12:06:05Z</time>
      </trkpt>
      <trkpt lat="40.427167" lon="-5.357067">
        <ele>2174.0</ele>
        <time>2018-06-17T12:06:06Z</time>
      </trkpt>
      <trkpt lat="40.427217" lon="-5.357133">
        <ele>2171.0</ele>
        <time>2018-06-17T12:06:07Z</time>
      </trkpt>
      <trkpt lat="40.427267" lon="-5.357183">
        <ele>2169.0</ele>
        <time>2018-06-17T12:06:08Z</time>
      </trkpt>
      <trkpt lat="40.427317" lon="-5.357233">
        <ele>2166.0</ele>
        <time>2018-06-17T12:06:09Z</time>
      </trkpt>
      <trkpt lat="40.427400" lon="-5.357267">
        <ele>2162.0</ele>
        <time>2018-06-17T12:06:10Z</time>
      </trkpt>
      <trkpt lat="40.427467" lon="-5.357300">
        <ele>2160.0</ele>
        <time>2018-06-17T12:06:11Z</time>
      </trkpt>
      <trkpt lat="40.427550" lon="-5.357317">
        <ele>2158.0</ele>
        <time>2018-06-17T12:06:12Z</time>
      </trkpt>
      <trkpt lat="40.427633" lon="-5.357333">
        <ele>2157.0</ele>
        <time>2018-06-17T12:06:13Z</time>
      </trkpt>
      <trkpt lat="40.427717" lon="-5.357367">
        <ele>2157.0</ele>
        <time>2018-06-17T12:06:14Z</time>
      </trkpt>
      <trkpt lat="40.427783" lon="-5.357400">
        <ele>2157.0</ele>
        <time>2018-06-17T12:06:15Z</time>
      </trkpt>
      <trkpt lat="40.427850" lon="-5.357417">
        <ele>2157.0</ele>
        <time>2018-06-17T12:06:16Z</time>
      </trkpt>
      <trkpt lat="40.427917" lon="-5.357433">
        <ele>2158.0</ele>
        <time>2018-06-17T12:06:17Z</time>
      </trkpt>
      <trkpt lat="40.428000" lon="-5.357433">
        <ele>2159.0</ele>
        <time>2018-06-17T12:06:18Z</time>
      </trkpt>
      <trkpt lat="40.428083" lon="-5.357450">
        <ele>2159.0</ele>
        <time>2018-06-17T12:06:19Z</time>
      </trkpt>
      <trkpt lat="40.428150" lon="-5.357483">
        <ele>2160.0</ele>
        <time>2018-06-17T12:06:20Z</time>
      </trkpt>
      <trkpt lat="40.428233" lon="-5.357533">
        <ele>2161.0</ele>
        <time>2018-06-17T12:06:21Z</time>
      </trkpt>
      <trkpt lat="40.428300" lon="-5.357567">
        <ele>2163.0</ele>
        <time>2018-06-17T12:06:22Z</time>
      </trkpt>
      <trkpt lat="40.428367" lon="-5.357617">
        <ele>2164.0</ele>
        <time>2018-06-17T12:06:23Z</time>
      </trkpt>
      <trkpt lat="40.428433" lon="-5.357650">
        <ele>2164.0</ele>
        <time>2018-06-17T12:06:24Z</time>
      </trkpt>
      <trkpt lat="40.428500" lon="-5.357683">
        <ele>2164.0</ele>
        <time>2018-06-17T12:06:25Z</time>
      </trkpt>
      <trkpt lat="40.428567" lon="-5.357750">
        <ele>2163.0</ele>
        <time>2018-06-17T12:06:26Z</time>
      </trkpt>
      <trkpt lat="40.428633" lon="-5.357817">
        <ele>2163.0</ele>
        <time>2018-06-17T12:06:27Z</time>
      </trkpt>
      <trkpt lat="40.428717" lon="-5.357867">
        <ele>2163.0</ele>
        <time>2018-06-17T12:06:28Z</time>
      </trkpt>
      <trkpt lat="40.428783" lon="-5.357917">
        <ele>2164.0</ele>
        <time>2018-06-17T12:06:29Z</time>
      </trkpt>
      <trkpt lat="40.428867" lon="-5.357950">
        <ele>2163.0</ele>
        <time>2018-06-17T12:06:30Z</time>
      </trkpt>
      <trkpt lat="40.428933" lon="-5.357967">
        <ele>2163.0</ele>
        <time>2018-06-17T12:06:31Z</time>
      </trkpt>
      <trkpt lat="40.429000" lon="-5.358000">
        <ele>2161.0</ele>
        <time>2018-06-17T12:06:32Z</time>
      </trkpt>
      <trkpt lat="40.429083" lon="-5.358033">
        <ele>2158.0</ele>
        <time>2018-06-17T12:06:33Z</time>
      </trkpt>
      <trkpt lat="40.429167" lon="-5.358050">
        <ele>2156.0</ele>
        <time>2018-06-17T12:06:34Z</time>
      </trkpt>
      <trkpt lat="40.429250" lon="-5.358050">
        <ele>2154.0</ele>
        <time>2018-06-17T12:06:35Z</time>
      </trkpt>
      <trkpt lat="40.429333" lon="-5.358050">
        <ele>2154.0</ele>
        <time>2018-06-17T12:06:36Z</time>
      </trkpt>
      <trkpt lat="40.429400" lon="-5.358050">
        <ele>2155.0</ele>
        <time>2018-06-17T12:06:37Z</time>
      </trkpt>
      <trkpt lat="40.429467" lon="-5.358033">
        <ele>2156.0</ele>
        <time>2018-06-17T12:06:38Z</time>
      </trkpt>
      <trkpt lat="40.429517" lon="-5.358033">
        <ele>2155.0</ele>
        <time>2018-06-17T12:06:39Z</time>
      </trkpt>
      <trkpt lat="40.429567" lon="-5.358050">
        <ele>2153.0</ele>
        <time>2018-06-17T12:06:40Z</time>
      </trkpt>
      <trkpt lat="40.429617" lon="-5.358067">
        <ele>2152.0</ele>
        <time>2018-06-17T12:06:41Z</time>
      </trkpt>
      <trkpt lat="40.429683" lon="-5.358100">
        <ele>2149.0</ele>
        <time>2018-06-17T12:06:42Z</time>
      </trkpt>
      <trkpt lat="40.429750" lon="-5.358150">
        <ele>2147.0</ele>
        <time>2018-06-17T12:06:43Z</time>
      </trkpt>
      <trkpt lat="40.429833" lon="-5.358200">
        <ele>2146.0</ele>
        <time>2018-06-17T12:06:44Z</time>
      </trkpt>
      <trkpt lat="40.429900" lon="-5.358267">
        <ele>2145.0</ele>
        <time>2018-06-17T12:06:45Z</time>
      </trkpt>
      <trkpt lat="40.429967" lon="-5.358317">
        <ele>2145.0</ele>
        <time>2018-06-17T12:06:46Z</time>
      </trkpt>
      <trkpt lat="40.430017" lon="-5.358350">
        <ele>2145.0</ele>
        <time>2018-06-17T12:06:47Z</time>
      </trkpt>
      <trkpt lat="40.430083" lon="-5.358400">
        <ele>2144.0</ele>
        <time>2018-06-17T12:06:48Z</time>
      </trkpt>
      <trkpt lat="40.430150" lon="-5.358450">
        <ele>2143.0</ele>
        <time>2018-06-17T12:06:49Z</time>
      </trkpt>
      <trkpt lat="40.430217" lon="-5.358483">
        <ele>2143.0</ele>
        <time>2018-06-17T12:06:50Z</time>
      </trkpt>
      <trkpt lat="40.430267" lon="-5.358533">
        <ele>2142.0</ele>
        <time>2018-06-17T12:06:51Z</time>
      </trkpt>
      <trkpt lat="40.430317" lon="-5.358550">
        <ele>2141.0</ele>
        <time>2018-06-17T12:06:52Z</time>
      </trkpt>
      <trkpt lat="40.430383" lon="-5.358567">
        <ele>2139.0</ele>
        <time>2018-06-17T12:06:53Z</time>
      </trkpt>
      <trkpt lat="40.430433" lon="-5.358583">
        <ele>2137.0</ele>
        <time>2018-06-17T12:06:54Z</time>
      </trkpt>
      <trkpt lat="40.430500" lon="-5.358600">
        <ele>2136.0</ele>
        <time>2018-06-17T12:06:55Z</time>
      </trkpt>
      <trkpt lat="40.430567" lon="-5.358617">
        <ele>2135.0</ele>
        <time>2018-06-17T12:06:56Z</time>
      </trkpt>
      <trkpt lat="40.430633" lon="-5.358633">
        <ele>2134.0</ele>
        <time>2018-06-17T12:06:57Z</time>
      </trkpt>
      <trkpt lat="40.430700" lon="-5.358650">
        <ele>2133.0</ele>
        <time>2018-06-17T12:06:58Z</time>
      </trkpt>
      <trkpt lat="40.430767" lon="-5.358683">
        <ele>2131.0</ele>
        <time>2018-06-17T12:06:59Z</time>
      </trkpt>
      <trkpt lat="40.430833" lon="-5.358717">
        <ele>2130.0</ele>
        <time>2018-06-17T12:07:00Z</time>
      </trkpt>
      <trkpt lat="40.430900" lon="-5.358750">
        <ele>2129.0</ele>
        <time>2018-06-17T12:07:01Z</time>
      </trkpt>
      <trkpt lat="40.430967" lon="-5.358767">
        <ele>2128.0</ele>
        <time>2018-06-17T12:07:02Z</time>
      </trkpt>
      <trkpt lat="40.431017" lon="-5.358767">
        <ele>2127.0</ele>
        <time>2018-06-17T12:07:03Z</time>
      </trkpt>
      <trkpt lat="40.431083" lon="-5.358783">
        <ele>2126.0</ele>
        <time>2018-06-17T12:07:04Z</time>
      </trkpt>
      <trkpt lat="40.431150" lon="-5.358800">
        <ele>2125.0</ele>
        <time>2018-06-17T12:07:05Z</time>
      </trkpt>
      <trkpt lat="40.431217" lon="-5.358817">
        <ele>2124.0</ele>
        <time>2018-06-17T12:07:06Z</time>
      </trkpt>
      <trkpt lat="40.431267" lon="-5.358850">
        <ele>2123.0</ele>
        <time>2018-06-17T12:07:07Z</time>
      </trkpt>
      <trkpt lat="40.431333" lon="-5.358867">
        <ele>2121.0</ele>
        <time>2018-06-17T12:07:08Z</time>
      </trkpt>
      <trkpt lat="40.431400" lon="-5.358900">
        <ele>2119.0</ele>
        <time>2018-06-17T12:07:09Z</time>
      </trkpt>
      <trkpt lat="40.431467" lon="-5.358917">
        <ele>2117.0</ele>
        <time>2018-06-17T12:07:10Z</time>
      </trkpt>
      <trkpt lat="40.431533" lon="-5.358933">
        <ele>2116.0</ele>
        <time>2018-06-17T12:07:11Z</time>
      </trkpt>
      <trkpt lat="40.431600" lon="-5.358967">
        <ele>2115.0</ele>
        <time>2018-06-17T12:07:12Z</time>
      </trkpt>
      <trkpt lat="40.431667" lon="-5.359000">
        <ele>2114.0</ele>
        <time>2018-06-17T12:07:13Z</time>
      </trkpt>
      <trkpt lat="40.431733" lon="-5.359050">
        <ele>2114.0</ele>
        <time>2018-06-17T12:07:14Z</time>
      </trkpt>
      <trkpt lat="40.431800" lon="-5.359117">
        <ele>2115.0</ele>
        <time>2018-06-17T12:07:15Z</time>
      </trkpt>
      <trkpt lat="40.431850" lon="-5.359183">
        <ele>2115.0</ele>
        <time>2018-06-17T12:07:16Z</time>
      </trkpt>
      <trkpt lat="40.431900" lon="-5.359283">
        <ele>2116.0</ele>
        <time>2018-06-17T12:07:17Z</time>
      </trkpt>
      <trkpt lat="40.431950" lon="-5.359383">
        <ele>2116.0</ele>
        <time>2018-06-17T12:07:18Z</time>
      </trkpt>
      <trkpt lat="40.431983" lon="-5.359483">
        <ele>2117.0</ele>
        <time>2018-06-17T12:07:19Z</time>
      </trkpt>
      <trkpt lat="40.432033" lon="-5.359567">
        <ele>2117.0</ele>
        <time>2018-06-17T12:07:20Z</time>
      </trkpt>
      <trkpt lat="40.432100" lon="-5.359667">
        <ele>2118.0</ele>
        <time>2018-06-17T12:07:21Z</time>
      </trkpt>
      <trkpt lat="40.432133" lon="-5.359783">
        <ele>2118.0</ele>
        <time>2018-06-17T12:07:22Z</time>
      </trkpt>
      <trkpt lat="40.432183" lon="-5.359900">
        <ele>2119.0</ele>
        <time>2018-06-17T12:07:23Z</time>
      </trkpt>
      <trkpt lat="40.432200" lon="-5.360017">
        <ele>2121.0</ele>
        <time>2018-06-17T12:07:24Z</time>
      </trkpt>
      <trkpt lat="40.432250" lon="-5.360150">
        <ele>2122.0</ele>
        <time>2018-06-17T12:07:25Z</time>
      </trkpt>
      <trkpt lat="40.432283" lon="-5.360267">
        <ele>2124.0</ele>
        <time>2018-06-17T12:07:26Z</time>
      </trkpt>
      <trkpt lat="40.432333" lon="-5.360350">
        <ele>2124.0</ele>
        <time>2018-06-17T12:07:27Z</time>
      </trkpt>
      <trkpt lat="40.432417" lon="-5.360417">
        <ele>2124.0</ele>
        <time>2018-06-17T12:07:28Z</time>
      </trkpt>
      <trkpt lat="40.432500" lon="-5.360417">
        <ele>2124.0</ele>
        <time>2018-06-17T12:07:29Z</time>
      </trkpt>
      <trkpt lat="40.432567" lon="-5.360383">
        <ele>2124.0</ele>
        <time>2018-06-17T12:07:30Z</time>
      </trkpt>
      <trkpt lat="40.432617" lon="-5.360317">
        <ele>2124.0</ele>
        <time>2018-06-17T12:07:31Z</time>
      </trkpt>
      <trkpt lat="40.432650" lon="-5.360217">
        <ele>2126.0</ele>
        <time>2018-06-17T12:07:32Z</time>
      </trkpt>
      <trkpt lat="40.432633" lon="-5.360100">
        <ele>2127.0</ele>
        <time>2018-06-17T12:07:33Z</time>
      </trkpt>
      <trkpt lat="40.432583" lon="-5.360000">
        <ele>2128.0</ele>
        <time>2018-06-17T12:07:34Z</time>
      </trkpt>
      <trkpt lat="40.432500" lon="-5.359917">
        <ele>2130.0</ele>
        <time>2018-06-17T12:07:35Z</time>
      </trkpt>
      <trkpt lat="40.432417" lon="-5.359850">
        <ele>2132.0</ele>
        <time>2018-06-17T12:07:36Z</time>
      </trkpt>
      <trkpt lat="40.432300" lon="-5.359817">
        <ele>2133.0</ele>
        <time>2018-06-17T12:07:37Z</time>
      </trkpt>
      <trkpt lat="40.432167" lon="-5.359817">
        <ele>2134.0</ele>
        <time>2018-06-17T12:07:38Z</time>
      </trkpt>
      <trkpt lat="40.432033" lon="-5.359850">
        <ele>2136.0</ele>
        <time>2018-06-17T12:07:39Z</time>
      </trkpt>
      <trkpt lat="40.431917" lon="-5.359900">
        <ele>2138.0</ele>
        <time>2018-06-17T12:07:40Z</time>
      </trkpt>
      <trkpt lat="40.431817" lon="-5.360000">
        <ele>2141.0</ele>
        <time>2018-06-17T12:07:41Z</time>
      </trkpt>
      <trkpt lat="40.431717" lon="-5.360100">
        <ele>2143.0</ele>
        <time>2018-06-17T12:07:42Z</time>
      </trkpt>
      <trkpt lat="40.431633" lon="-5.360233">
        <ele>2144.0</ele>
        <time>2018-06-17T12:07:43Z</time>
      </trkpt>
      <trkpt lat="40.431567" lon="-5.360383">
        <ele>2146.0</ele>
        <time>2018-06-17T12:07:44Z</time>
      </trkpt>
      <trkpt lat="40.431517" lon="-5.360533">
        <ele>2147.0</ele>
        <time>2018-06-17T12:07:45Z</time>
      </trkpt>
      <trkpt lat="40.431500" lon="-5.360700">
        <ele>2148.0</ele>
        <time>2018-06-17T12:07:46Z</time>
      </trkpt>
      <trkpt lat="40.431500" lon="-5.360850">
        <ele>2149.0</ele>
        <time>2018-06-17T12:07:47Z</time>
      </trkpt>
      <trkpt lat="40.431533" lon="-5.361000">
        <ele>2149.0</ele>
        <time>2018-06-17T12:07:48Z</time>
      </trkpt>
      <trkpt lat="40.431600" lon="-5.361117">
        <ele>2149.0</ele>
        <time>2018-06-17T12:07:49Z</time>
      </trkpt>
      <trkpt lat="40.431650" lon="-5.361200">
        <ele>2149.0</ele>
        <time>2018-06-17T12:07:50Z</time>
      </trkpt>
      <trkpt lat="40.431717" lon="-5.361267">
        <ele>2149.0</ele>
        <time>2018-06-17T12:07:51Z</time>
      </trkpt>
      <trkpt lat="40.431783" lon="-5.361317">
        <ele>2148.0</ele>
        <time>2018-06-17T12:07:52Z</time>
      </trkpt>
      <trkpt lat="40.431867" lon="-5.361350">
        <ele>2146.0</ele>
        <time>2018-06-17T12:07:53Z</time>
      </trkpt>
      <trkpt lat="40.431967" lon="-5.361383">
        <ele>2144.0</ele>
        <time>2018-06-17T12:07:54Z</time>
      </trkpt>
      <trkpt lat="40.432067" lon="-5.361400">
        <ele>2144.0</ele>
        <time>2018-06-17T12:07:55Z</time>
      </trkpt>
      <trkpt lat="40.432150" lon="-5.361450">
        <ele>2145.0</ele>
        <time>2018-06-17T12:07:56Z</time>
      </trkpt>
      <trkpt lat="40.432233" lon="-5.361500">
        <ele>2146.0</ele>
        <time>2018-06-17T12:07:57Z</time>
      </trkpt>
      <trkpt lat="40.432317" lon="-5.361567">
        <ele>2147.0</ele>
        <time>2018-06-17T12:07:58Z</time>
      </trkpt>
      <trkpt lat="40.432383" lon="-5.361633">
        <ele>2146.0</ele>
        <time>2018-06-17T12:07:59Z</time>
      </trkpt>
      <trkpt lat="40.432467" lon="-5.361700">
        <ele>2145.0</ele>
        <time>2018-06-17T12:08:00Z</time>
      </trkpt>
      <trkpt lat="40.432550" lon="-5.361767">
        <ele>2145.0</ele>
        <time>2018-06-17T12:08:01Z</time>
      </trkpt>
      <trkpt lat="40.432633" lon="-5.361817">
        <ele>2144.0</ele>
        <time>2018-06-17T12:08:02Z</time>
      </trkpt>
      <trkpt lat="40.432733" lon="-5.361850">
        <ele>2143.0</ele>
        <time>2018-06-17T12:08:03Z</time>
      </trkpt>
      <trkpt lat="40.432833" lon="-5.361867">
        <ele>2142.0</ele>
        <time>2018-06-17T12:08:04Z</time>
      </trkpt>
      <trkpt lat="40.432933" lon="-5.361867">
        <ele>2143.0</ele>
        <time>2018-06-17T12:08:05Z</time>
      </trkpt>
      <trkpt lat="40.433017" lon="-5.361867">
        <ele>2143.0</ele>
        <time>2018-06-17T12:08:06Z</time>
      </trkpt>
      <trkpt lat="40.433100" lon="-5.361850">
        <ele>2144.0</ele>
        <time>2018-06-17T12:08:07Z</time>
      </trkpt>
      <trkpt lat="40.433183" lon="-5.361850">
        <ele>2145.0</ele>
        <time>2018-06-17T12:08:08Z</time>
      </trkpt>
      <trkpt lat="40.433250" lon="-5.361850">
        <ele>2145.0</ele>
        <time>2018-06-17T12:08:09Z</time>
      </trkpt>
      <trkpt lat="40.433317" lon="-5.361833">
        <ele>2145.0</ele>
        <time>2018-06-17T12:08:10Z</time>
      </trkpt>
      <trkpt lat="40.433383" lon="-5.361833">
        <ele>2145.0</ele>
        <time>2018-06-17T12:08:11Z</time>
      </trkpt>
      <trkpt lat="40.433450" lon="-5.361833">
        <ele>2145.0</ele>
        <time>2018-06-17T12:08:12Z</time>
      </trkpt>
      <trkpt lat="40.433500" lon="-5.361833">
        <ele>2145.0</ele>
        <time>2018-06-17T12:08:13Z</time>
      </trkpt>
      <trkpt lat="40.433567" lon="-5.361850">
        <ele>2143.0</ele>
        <time>2018-06-17T12:08:14Z</time>
      </trkpt>
      <trkpt lat="40.433650" lon="-5.361850">
        <ele>2141.0</ele>
        <time>2018-06-17T12:08:15Z</time>
      </trkpt>
      <trkpt lat="40.433717" lon="-5.361867">
        <ele>2138.0</ele>
        <time>2018-06-17T12:08:16Z</time>
      </trkpt>
      <trkpt lat="40.433800" lon="-5.361900">
        <ele>2136.0</ele>
        <time>2018-06-17T12:08:17Z</time>
      </trkpt>
      <trkpt lat="40.433883" lon="-5.361967">
        <ele>2133.0</ele>
        <time>2018-06-17T12:08:18Z</time>
      </trkpt>
      <trkpt lat="40.433983" lon="-5.362033">
        <ele>2131.0</ele>
        <time>2018-06-17T12:08:19Z</time>
      </trkpt>
      <trkpt lat="40.434067" lon="-5.362117">
        <ele>2129.0</ele>
        <time>2018-06-17T12:08:20Z</time>
      </trkpt>
      <trkpt lat="40.434150" lon="-5.362183">
        <ele>2128.0</ele>
        <time>2018-06-17T12:08:21Z</time>
      </trkpt>
      <trkpt lat="40.434233" lon="-5.362250">
        <ele>2127.0</ele>
        <time>2018-06-17T12:08:22Z</time>
      </trkpt>
      <trkpt lat="40.434317" lon="-5.362300">
        <ele>2125.0</ele>
        <time>2018-06-17T12:08:23Z</time>
      </trkpt>
      <trkpt lat="40.434400" lon="-5.362350">
        <ele>2122.0</ele>
        <time>2018-06-17T12:08:24Z</time>
      </trkpt>
      <trkpt lat="40.434500" lon="-5.362383">
        <ele>2120.0</ele>
        <time>2018-06-17T12:08:25Z</time>
      </trkpt>
      <trkpt lat="40.434583" lon="-5.362400">
        <ele>2117.0</ele>
        <time>2018-06-17T12:08:26Z</time>
      </trkpt>
      <trkpt lat="40.434683" lon="-5.362417">
        <ele>2115.0</ele>
        <time>2018-06-17T12:08:27Z</time>
      </trkpt>
      <trkpt lat="40.434767" lon="-5.362450">
        <ele>2112.0</ele>
        <time>2018-06-17T12:08:28Z</time>
      </trkpt>
      <trkpt lat="40.434850" lon="-5.362483">
        <ele>2110.0</ele>
        <time>2018-06-17T12:08:29Z</time>
      </trkpt>
      <trkpt lat="40.434950" lon="-5.362517">
        <ele>2108.0</ele>
        <time>2018-06-17T12:08:30Z</time>
      </trkpt>
      <trkpt lat="40.435033" lon="-5.362550">
        <ele>2107.0</ele>
        <time>2018-06-17T12:08:31Z</time>
      </trkpt>
      <trkpt lat="40.435117" lon="-5.362567">
        <ele>2106.0</ele>
        <time>2018-06-17T12:08:32Z</time>
      </trkpt>
      <trkpt lat="40.435183" lon="-5.362617">
        <ele>2105.0</ele>
        <time>2018-06-17T12:08:33Z</time>
      </trkpt>
      <trkpt lat="40.435250" lon="-5.362667">
        <ele>2103.0</ele>
        <time>2018-06-17T12:08:34Z</time>
      </trkpt>
      <trkpt lat="40.435333" lon="-5.362717">
        <ele>2100.0</ele>
        <time>2018-06-17T12:08:35Z</time>
      </trkpt>
      <trkpt lat="40.435417" lon="-5.362767">
        <ele>2096.0</ele>
        <time>2018-06-17T12:08:36Z</time>
      </trkpt>
      <trkpt lat="40.435500" lon="-5.362800">
        <ele>2092.0</ele>
        <time>2018-06-17T12:08:37Z</time>
      </trkpt>
      <trkpt lat="40.435600" lon="-5.362833">
        <ele>2090.0</ele>
        <time>2018-06-17T12:08:38Z</time>
      </trkpt>
      <trkpt lat="40.435683" lon="-5.362867">
        <ele>2087.0</ele>
        <time>2018-06-17T12:08:39Z</time>
      </trkpt>
      <trkpt lat="40.435767" lon="-5.362900">
        <ele>2085.0</ele>
        <time>2018-06-17T12:08:40Z</time>
      </trkpt>
      <trkpt lat="40.435850" lon="-5.362933">
        <ele>2083.0</ele>
        <time>2018-06-17T12:08:41Z</time>
      </trkpt>
      <trkpt lat="40.435933" lon="-5.362983">
        <ele>2080.0</ele>
        <time>2018-06-17T12:08:42Z</time>
      </trkpt>
      <trkpt lat="40.436017" lon="-5.363050">
        <ele>2078.0</ele>
        <time>2018-06-17T12:08:43Z</time>
      </trkpt>
      <trkpt lat="40.436100" lon="-5.363117">
        <ele>2077.0</ele>
        <time>2018-06-17T12:08:44Z</time>
      </trkpt>
      <trkpt lat="40.436167" lon="-5.363183">
        <ele>2078.0</ele>
        <time>2018-06-17T12:08:45Z</time>
      </trkpt>
      <trkpt lat="40.436233" lon="-5.363267">
        <ele>2078.0</ele>
        <time>2018-06-17T12:08:46Z</time>
      </trkpt>
      <trkpt lat="40.436300" lon="-5.363367">
        <ele>2077.0</ele>
        <time>2018-06-17T12:08:47Z</time>
      </trkpt>
      <trkpt lat="40.436350" lon="-5.363467">
        <ele>2075.0</ele>
        <time>2018-06-17T12:08:48Z</time>
      </trkpt>
      <trkpt lat="40.436417" lon="-5.363567">
        <ele>2074.0</ele>
        <time>2018-06-17T12:08:49Z</time>
      </trkpt>
      <trkpt lat="40.436467" lon="-5.363667">
        <ele>2072.0</ele>
        <time>2018-06-17T12:08:50Z</time>
      </trkpt>
      <trkpt lat="40.436533" lon="-5.363767">
        <ele>2070.0</ele>
        <time>2018-06-17T12:08:51Z</time>
      </trkpt>
      <trkpt lat="40.436583" lon="-5.363867">
        <ele>2069.0</ele>
        <time>2018-06-17T12:08:52Z</time>
      </trkpt>
      <trkpt lat="40.436633" lon="-5.363983">
        <ele>2067.0</ele>
        <time>2018-06-17T12:08:53Z</time>
      </trkpt>
      <trkpt lat="40.436667" lon="-5.364100">
        <ele>2065.0</ele>
        <time>2018-06-17T12:08:54Z</time>
      </trkpt>
      <trkpt lat="40.436717" lon="-5.364200">
        <ele>2062.0</ele>
        <time>2018-06-17T12:08:55Z</time>
      </trkpt>
      <trkpt lat="40.436767" lon="-5.364317">
        <ele>2059.0</ele>
        <time>2018-06-17T12:08:56Z</time>
      </trkpt>
      <trkpt lat="40.436817" lon="-5.364417">
        <ele>2055.0</ele>
        <time>2018-06-17T12:08:57Z</time>
      </trkpt>
      <trkpt lat="40.436883" lon="-5.364517">
        <ele>2053.0</ele>
        <time>2018-06-17T12:08:58Z</time>
      </trkpt>
      <trkpt lat="40.436950" lon="-5.364600">
        <ele>2050.0</ele>
        <time>2018-06-17T12:08:59Z</time>
      </trkpt>
      <trkpt lat="40.437017" lon="-5.364683">
        <ele>2049.0</ele>
        <time>2018-06-17T12:09:00Z</time>
      </trkpt>
      <trkpt lat="40.437083" lon="-5.364767">
        <ele>2047.0</ele>
        <time>2018-06-17T12:09:01Z</time>
      </trkpt>
      <trkpt lat="40.437133" lon="-5.364850">
        <ele>2044.0</ele>
        <time>2018-06-17T12:09:02Z</time>
      </trkpt>
      <trkpt lat="40.437167" lon="-5.364950">
        <ele>2041.0</ele>
        <time>2018-06-17T12:09:03Z</time>
      </trkpt>
      <trkpt lat="40.437217" lon="-5.365067">
        <ele>2038.0</ele>
        <time>2018-06-17T12:09:04Z</time>
      </trkpt>
      <trkpt lat="40.437250" lon="-5.365183">
        <ele>2035.0</ele>
        <time>2018-06-17T12:09:05Z</time>
      </trkpt>
      <trkpt lat="40.437300" lon="-5.365300">
        <ele>2032.0</ele>
        <time>2018-06-17T12:09:06Z</time>
      </trkpt>
      <trkpt lat="40.437350" lon="-5.365400">
        <ele>2030.0</ele>
        <time>2018-06-17T12:09:07Z</time>
      </trkpt>
      <trkpt lat="40.437383" lon="-5.365517">
        <ele>2027.0</ele>
        <time>2018-06-17T12:09:08Z</time>
      </trkpt>
      <trkpt lat="40.437417" lon="-5.365617">
        <ele>2024.0</ele>
        <time>2018-06-17T12:09:09Z</time>
      </trkpt>
      <trkpt lat="40.437467" lon="-5.365717">
        <ele>2021.0</ele>
        <time>2018-06-17T12:09:10Z</time>
      </trkpt>
      <trkpt lat="40.437517" lon="-5.365833">
        <ele>2017.0</ele>
        <time>2018-06-17T12:09:11Z</time>
      </trkpt>
      <trkpt lat="40.437567" lon="-5.365950">
        <ele>2014.0</ele>
        <time>2018-06-17T12:09:12Z</time>
      </trkpt>
      <trkpt lat="40.437617" lon="-5.366067">
        <ele>2012.0</ele>
        <time>2018-06-17T12:09:13Z</time>
      </trkpt>
      <trkpt lat="40.437667" lon="-5.366183">
        <ele>2011.0</ele>
        <time>2018-06-17T12:09:14Z</time>
      </trkpt>
      <trkpt lat="40.437717" lon="-5.366267">
        <ele>2010.0</ele>
        <time>2018-06-17T12:09:15Z</time>
      </trkpt>
      <trkpt lat="40.437767" lon="-5.366367">
        <ele>2009.0</ele>
        <time>2018-06-17T12:09:16Z</time>
      </trkpt>
      <trkpt lat="40.437817" lon="-5.366450">
        <ele>2008.0</ele>
        <time>2018-06-17T12:09:17Z</time>
      </trkpt>
      <trkpt lat="40.437883" lon="-5.366533">
        <ele>2006.0</ele>
        <time>2018-06-17T12:09:18Z</time>
      </trkpt>
      <trkpt lat="40.437950" lon="-5.366617">
        <ele>2004.0</ele>
        <time>2018-06-17T12:09:19Z</time>
      </trkpt>
      <trkpt lat="40.438000" lon="-5.366683">
        <ele>2003.0</ele>
        <time>2018-06-17T12:09:20Z</time>
      </trkpt>
      <trkpt lat="40.438067" lon="-5.366750">
        <ele>2001.0</ele>
        <time>2018-06-17T12:09:21Z</time>
      </trkpt>
      <trkpt lat="40.438133" lon="-5.366783">
        <ele>2000.0</ele>
        <time>2018-06-17T12:09:22Z</time>
      </trkpt>
      <trkpt lat="40.438200" lon="-5.366817">
        <ele>1999.0</ele>
        <time>2018-06-17T12:09:23Z</time>
      </trkpt>
      <trkpt lat="40.438267" lon="-5.366850">
        <ele>1997.0</ele>
        <time>2018-06-17T12:09:24Z</time>
      </trkpt>
      <trkpt lat="40.438333" lon="-5.366867">
        <ele>1996.0</ele>
        <time>2018-06-17T12:09:25Z</time>
      </trkpt>
      <trkpt lat="40.438400" lon="-5.366900">
        <ele>1995.0</ele>
        <time>2018-06-17T12:09:26Z</time>
      </trkpt>
      <trkpt lat="40.438467" lon="-5.366900">
        <ele>1994.0</ele>
        <time>2018-06-17T12:09:27Z</time>
      </trkpt>
      <trkpt lat="40.438533" lon="-5.366900">
        <ele>1992.0</ele>
        <time>2018-06-17T12:09:28Z</time>
      </trkpt>
      <trkpt lat="40.438600" lon="-5.366883">
        <ele>1992.0</ele>
        <time>2018-06-17T12:09:29Z</time>
      </trkpt>
      <trkpt lat="40.438667" lon="-5.366883">
        <ele>1993.0</ele>
        <time>2018-06-17T12:09:30Z</time>
      </trkpt>
      <trkpt lat="40.438733" lon="-5.366867">
        <ele>1994.0</ele>
        <time>2018-06-17T12:09:31Z</time>
      </trkpt>
      <trkpt lat="40.438800" lon="-5.366867">
        <ele>1996.0</ele>
        <time>2018-06-17T12:09:32Z</time>
      </trkpt>
      <trkpt lat="40.438850" lon="-5.366883">
        <ele>1999.0</ele>
        <time>2018-06-17T12:09:33Z</time>
      </trkpt>
      <trkpt lat="40.438900" lon="-5.366917">
        <ele>2000.0</ele>
        <time>2018-06-17T12:09:34Z</time>
      </trkpt>
      <trkpt lat="40.438950" lon="-5.366950">
        <ele>2001.0</ele>
        <time>2018-06-17T12:09:35Z</time>
      </trkpt>
      <trkpt lat="40.439017" lon="-5.366933">
        <ele>2002.0</ele>
        <time>2018-06-17T12:09:36Z</time>
      </trkpt>
      <trkpt lat="40.439050" lon="-5.366883">
        <ele>2003.0</ele>
        <time>2018-06-17T12:09:37Z</time>
      </trkpt>
      <trkpt lat="40.439067" lon="-5.366783">
        <ele>2003.0</ele>
        <time>2018-06-17T12:09:38Z</time>
      </trkpt>
      <trkpt lat="40.439033" lon="-5.366667">
        <ele>2004.0</ele>
        <time>2018-06-17T12:09:39Z</time>
      </trkpt>
      <trkpt lat="40.438983" lon="-5.366567">
        <ele>2005.0</ele>
        <time>2018-06-17T12:09:40Z</time>
      </trkpt>
      <trkpt lat="40.438883" lon="-5.366517">
        <ele>2005.0</ele>
        <time>2018-06-17T12:09:41Z</time>
      </trkpt>
      <trkpt lat="40.438767" lon="-5.366500">
        <ele>2006.0</ele>
        <time>2018-06-17T12:09:42Z</time>
      </trkpt>
      <trkpt lat="40.438650" lon="-5.366517">
        <ele>2006.0</ele>
        <time>2018-06-17T12:09:43Z</time>
      </trkpt>
      <trkpt lat="40.438517" lon="-5.366583">
        <ele>2006.0</ele>
        <time>2018-06-17T12:09:44Z</time>
      </trkpt>
      <trkpt lat="40.438417" lon="-5.366683">
        <ele>2006.0</ele>
        <time>2018-06-17T12:09:45Z</time>
      </trkpt>
      <trkpt lat="40.438333" lon="-5.366817">
        <ele>2005.0</ele>
        <time>2018-06-17T12:09:46Z</time>
      </trkpt>
      <trkpt lat="40.438267" lon="-5.366983">
        <ele>2004.0</ele>
        <time>2018-06-17T12:09:47Z</time>
      </trkpt>
      <trkpt lat="40.438217" lon="-5.367133">
        <ele>2004.0</ele>
        <time>2018-06-17T12:09:48Z</time>
      </trkpt>
      <trkpt lat="40.438183" lon="-5.367283">
        <ele>2004.0</ele>
        <time>2018-06-17T12:09:49Z</time>
      </trkpt>
      <trkpt lat="40.438150" lon="-5.367450">
        <ele>2004.0</ele>
        <time>2018-06-17T12:09:50Z</time>
      </trkpt>
      <trkpt lat="40.438133" lon="-5.367600">
        <ele>2004.0</ele>
        <time>2018-06-17T12:09:51Z</time>
      </trkpt>
      <trkpt lat="40.438117" lon="-5.367750">
        <ele>2005.0</ele>
        <time>2018-06-17T12:09:52Z</time>
      </trkpt>
      <trkpt lat="40.438100" lon="-5.367900">
        <ele>2006.0</ele>
        <time>2018-06-17T12:09:53Z</time>
      </trkpt>
      <trkpt lat="40.438083" lon="-5.368033">
        <ele>2006.0</ele>
        <time>2018-06-17T12:09:54Z</time>
      </trkpt>
      <trkpt lat="40.438100" lon="-5.368167">
        <ele>2006.0</ele>
        <time>2018-06-17T12:09:55Z</time>
      </trkpt>
      <trkpt lat="40.438117" lon="-5.368300">
        <ele>2006.0</ele>
        <time>2018-06-17T12:09:56Z</time>
      </trkpt>
      <trkpt lat="40.438167" lon="-5.368400">
        <ele>2005.0</ele>
        <time>2018-06-17T12:09:57Z</time>
      </trkpt>
      <trkpt lat="40.438217" lon="-5.368483">
        <ele>2003.0</ele>
        <time>2018-06-17T12:09:58Z</time>
      </trkpt>
      <trkpt lat="40.438283" lon="-5.368533">
        <ele>2002.0</ele>
        <time>2018-06-17T12:09:59Z</time>
      </trkpt>
      <trkpt lat="40.438367" lon="-5.368550">
        <ele>2001.0</ele>
        <time>2018-06-17T12:10:00Z</time>
      </trkpt>
      <trkpt lat="40.438433" lon="-5.368583">
        <ele>2000.0</ele>
        <time>2018-06-17T12:10:01Z</time>
      </trkpt>
      <trkpt lat="40.438483" lon="-5.368600">
        <ele>1999.0</ele>
        <time>2018-06-17T12:10:02Z</time>
      </trkpt>
      <trkpt lat="40.438550" lon="-5.368633">
        <ele>1998.0</ele>
        <time>2018-06-17T12:10:03Z</time>
      </trkpt>
      <trkpt lat="40.438617" lon="-5.368683">
        <ele>1997.0</ele>
        <time>2018-06-17T12:10:04Z</time>
      </trkpt>
      <trkpt lat="40.438667" lon="-5.368733">
        <ele>1995.0</ele>
        <time>2018-06-17T12:10:05Z</time>
      </trkpt>
      <trkpt lat="40.438733" lon="-5.368817">
        <ele>1993.0</ele>
        <time>2018-06-17T12:10:06Z</time>
      </trkpt>
      <trkpt lat="40.438800" lon="-5.368900">
        <ele>1991.0</ele>
        <time>2018-06-17T12:10:07Z</time>
      </trkpt>
      <trkpt lat="40.438850" lon="-5.369000">
        <ele>1991.0</ele>
        <time>2018-06-17T12:10:08Z</time>
      </trkpt>
      <trkpt lat="40.438917" lon="-5.369100">
        <ele>1990.0</ele>
        <time>2018-06-17T12:10:09Z</time>
      </trkpt>
      <trkpt lat="40.438950" lon="-5.369200">
        <ele>1990.0</ele>
        <time>2018-06-17T12:10:10Z</time>
      </trkpt>
      <trkpt lat="40.439000" lon="-5.369300">
        <ele>1989.0</ele>
        <time>2018-06-17T12:10:11Z</time>
      </trkpt>
      <trkpt lat="40.439033" lon="-5.369400">
        <ele>1988.0</ele>
        <time>2018-06-17T12:10:12Z</time>
      </trkpt>
      <trkpt lat="40.439067" lon="-5.369517">
        <ele>1987.0</ele>
        <time>2018-06-17T12:10:13Z</time>
      </trkpt>
      <trkpt lat="40.439100" lon="-5.369633">
        <ele>1984.0</ele>
        <time>2018-06-17T12:10:14Z</time>
      </trkpt>
      <trkpt lat="40.439133" lon="-5.369750">
        <ele>1981.0</ele>
        <time>2018-06-17T12:10:15Z</time>
      </trkpt>
      <trkpt lat="40.439183" lon="-5.369883">
        <ele>1979.0</ele>
        <time>2018-06-17T12:10:16Z</time>
      </trkpt>
      <trkpt lat="40.439250" lon="-5.370017">
        <ele>1977.0</ele>
        <time>2018-06-17T12:10:17Z</time>
      </trkpt>
      <trkpt lat="40.439317" lon="-5.370150">
        <ele>1976.0</ele>
        <time>2018-06-17T12:10:18Z</time>
      </trkpt>
      <trkpt lat="40.439367" lon="-5.370267">
        <ele>1977.0</ele>
        <time>2018-06-17T12:10:19Z</time>
      </trkpt>
      <trkpt lat="40.439417" lon="-5.370383">
        <ele>1977.0</ele>
        <time>2018-06-17T12:10:20Z</time>
      </trkpt>
      <trkpt lat="40.439433" lon="-5.370483">
        <ele>1975.0</ele>
        <time>2018-06-17T12:10:21Z</time>
      </trkpt>
      <trkpt lat="40.439467" lon="-5.370583">
        <ele>1974.0</ele>
        <time>2018-06-17T12:10:22Z</time>
      </trkpt>
      <trkpt lat="40.439483" lon="-5.370683">
        <ele>1972.0</ele>
        <time>2018-06-17T12:10:23Z</time>
      </trkpt>
      <trkpt lat="40.439517" lon="-5.370800">
        <ele>1970.0</ele>
        <time>2018-06-17T12:10:24Z</time>
      </trkpt>
      <trkpt lat="40.439533" lon="-5.370900">
        <ele>1968.0</ele>
        <time>2018-06-17T12:10:25Z</time>
      </trkpt>
      <trkpt lat="40.439567" lon="-5.371017">
        <ele>1965.0</ele>
        <time>2018-06-17T12:10:26Z</time>
      </trkpt>
      <trkpt lat="40.439583" lon="-5.371133">
        <ele>1963.0</ele>
        <time>2018-06-17T12:10:27Z</time>
      </trkpt>
      <trkpt lat="40.439617" lon="-5.371250">
        <ele>1961.0</ele>
        <time>2018-06-17T12:10:28Z</time>
      </trkpt>
      <trkpt lat="40.439633" lon="-5.371383">
        <ele>1958.0</ele>
        <time>2018-06-17T12:10:29Z</time>
      </trkpt>
      <trkpt lat="40.439650" lon="-5.371517">
        <ele>1956.0</ele>
        <time>2018-06-17T12:10:30Z</time>
      </trkpt>
      <trkpt lat="40.439667" lon="-5.371633">
        <ele>1954.0</ele>
        <time>2018-06-17T12:10:31Z</time>
      </trkpt>
      <trkpt lat="40.439667" lon="-5.371767">
        <ele>1952.0</ele>
        <time>2018-06-17T12:10:32Z</time>
      </trkpt>
      <trkpt lat="40.439683" lon="-5.371900">
        <ele>1950.0</ele>
        <time>2018-06-17T12:10:33Z</time>
      </trkpt>
      <trkpt lat="40.439700" lon="-5.372033">
        <ele>1948.0</ele>
        <time>2018-06-17T12:10:34Z</time>
      </trkpt>
      <trkpt lat="40.439733" lon="-5.372150">
        <ele>1945.0</ele>
        <time>2018-06-17T12:10:35Z</time>
      </trkpt>
      <trkpt lat="40.439750" lon="-5.372283">
        <ele>1944.0</ele>
        <time>2018-06-17T12:10:36Z</time>
      </trkpt>
      <trkpt lat="40.439783" lon="-5.372417">
        <ele>1942.0</ele>
        <time>2018-06-17T12:10:37Z</time>
      </trkpt>
      <trkpt lat="40.439817" lon="-5.372533">
        <ele>1941.0</ele>
        <time>2018-06-17T12:10:38Z</time>
      </trkpt>
      <trkpt lat="40.439850" lon="-5.372617">
        <ele>1940.0</ele>
        <time>2018-06-17T12:10:39Z</time>
      </trkpt>
      <trkpt lat="40.439883" lon="-5.372717">
        <ele>1938.0</ele>
        <time>2018-06-17T12:10:40Z</time>
      </trkpt>
      <trkpt lat="40.439917" lon="-5.372800">
        <ele>1936.0</ele>
        <time>2018-06-17T12:10:41Z</time>
      </trkpt>
      <trkpt lat="40.439967" lon="-5.372883">
        <ele>1933.0</ele>
        <time>2018-06-17T12:10:42Z</time>
      </trkpt>
      <trkpt lat="40.440017" lon="-5.372983">
        <ele>1930.0</ele>
        <time>2018-06-17T12:10:43Z</time>
      </trkpt>
      <trkpt lat="40.440050" lon="-5.373100">
        <ele>1928.0</ele>
        <time>2018-06-17T12:10:44Z</time>
      </trkpt>
      <trkpt lat="40.440083" lon="-5.373217">
        <ele>1927.0</ele>
        <time>2018-06-17T12:10:45Z</time>
      </trkpt>
      <trkpt lat="40.440117" lon="-5.373333">
        <ele>1926.0</ele>
        <time>2018-06-17T12:10:46Z</time>
      </trkpt>
      <trkpt lat="40.440133" lon="-5.373450">
        <ele>1925.0</ele>
        <time>2018-06-17T12:10:47Z</time>
      </trkpt>
      <trkpt lat="40.440150" lon="-5.373583">
        <ele>1923.0</ele>
        <time>2018-06-17T12:10:48Z</time>
      </trkpt>
      <trkpt lat="40.440167" lon="-5.373733">
        <ele>1920.0</ele>
        <time>2018-06-17T12:10:49Z</time>
      </trkpt>
      <trkpt lat="40.440183" lon="-5.373883">
        <ele>1918.0</ele>
        <time>2018-06-17T12:10:50Z</time>
      </trkpt>
      <trkpt lat="40.440200" lon="-5.374033">
        <ele>1917.0</ele>
        <time>2018-06-17T12:10:51Z</time>
      </trkpt>
      <trkpt lat="40.440217" lon="-5.374183">
        <ele>1917.0</ele>
        <time>2018-06-17T12:10:52Z</time>
      </trkpt>
      <trkpt lat="40.440233" lon="-5.374317">
        <ele>1916.0</ele>
        <time>2018-06-17T12:10:53Z</time>
      </trkpt>
      <trkpt lat="40.440233" lon="-5.374433">
        <ele>1915.0</ele>
        <time>2018-06-17T12:10:54Z</time>
      </trkpt>
      <trkpt lat="40.440250" lon="-5.374567">
        <ele>1913.0</ele>
        <time>2018-06-17T12:10:55Z</time>
      </trkpt>
      <trkpt lat="40.440283" lon="-5.374700">
        <ele>1911.0</ele>
        <time>2018-06-17T12:10:56Z</time>
      </trkpt>
      <trkpt lat="40.440317" lon="-5.374850">
        <ele>1910.0</ele>
        <time>2018-06-17T12:10:57Z</time>
      </trkpt>
      <trkpt lat="40.440350" lon="-5.374967">
        <ele>1910.0</ele>
        <time>2018-06-17T12:10:58Z</time>
      </trkpt>
      <trkpt lat="40.440400" lon="-5.375083">
        <ele>1911.0</ele>
        <time>2018-06-17T12:10:59Z</time>
      </trkpt>
      <trkpt lat="40.440417" lon="-5.375167">
        <ele>1913.0</ele>
        <time>2018-06-17T12:11:00Z</time>
      </trkpt>
      <trkpt lat="40.440450" lon="-5.375250">
        <ele>1913.0</ele>
        <time>2018-06-17T12:11:01Z</time>
      </trkpt>
      <trkpt lat="40.440467" lon="-5.375333">
        <ele>1912.0</ele>
        <time>2018-06-17T12:11:02Z</time>
      </trkpt>
      <trkpt lat="40.440467" lon="-5.375433">
        <ele>1909.0</ele>
        <time>2018-06-17T12:11:03Z</time>
      </trkpt>
      <trkpt lat="40.440483" lon="-5.375550">
        <ele>1907.0</ele>
        <time>2018-06-17T12:11:04Z</time>
      </trkpt>
      <trkpt lat="40.440500" lon="-5.375683">
        <ele>1904.0</ele>
        <time>2018-06-17T12:11:05Z</time>
      </trkpt>
      <trkpt lat="40.440517" lon="-5.375800">
        <ele>1902.0</ele>
        <time>2018-06-17T12:11:06Z</time>
      </trkpt>
      <trkpt lat="40.440550" lon="-5.375917">
        <ele>1900.0</ele>
        <time>2018-06-17T12:11:07Z</time>
      </trkpt>
      <trkpt lat="40.440583" lon="-5.376000">
        <ele>1899.0</ele>
        <time>2018-06-17T12:11:08Z</time>
      </trkpt>
      <trkpt lat="40.440633" lon="-5.376067">
        <ele>1897.0</ele>
        <time>2018-06-17T12:11:09Z</time>
      </trkpt>
      <trkpt lat="40.440667" lon="-5.376117">
        <ele>1896.0</ele>
        <time>2018-06-17T12:11:10Z</time>
      </trkpt>
      <trkpt lat="40.440700" lon="-5.376167">
        <ele>1893.0</ele>
        <time>2018-06-17T12:11:11Z</time>
      </trkpt>
      <trkpt lat="40.440750" lon="-5.376233">
        <ele>1891.0</ele>
        <time>2018-06-17T12:11:12Z</time>
      </trkpt>
      <trkpt lat="40.440800" lon="-5.376283">
        <ele>1889.0</ele>
        <time>2018-06-17T12:11:13Z</time>
      </trkpt>
      <trkpt lat="40.440850" lon="-5.376333">
        <ele>1887.0</ele>
        <time>2018-06-17T12:11:14Z</time>
      </trkpt>
      <trkpt lat="40.440900" lon="-5.376383">
        <ele>1887.0</ele>
        <time>2018-06-17T12:11:15Z</time>
      </trkpt>
      <trkpt lat="40.440950" lon="-5.376450">
        <ele>1889.0</ele>
        <time>2018-06-17T12:11:16Z</time>
      </trkpt>
      <trkpt lat="40.440967" lon="-5.376517">
        <ele>1890.0</ele>
        <time>2018-06-17T12:11:17Z</time>
      </trkpt>
      <trkpt lat="40.440983" lon="-5.376600">
        <ele>1891.0</ele>
        <time>2018-06-17T12:11:18Z</time>
      </trkpt>
      <trkpt lat="40.441000" lon="-5.376700">
        <ele>1890.0</ele>
        <time>2018-06-17T12:11:19Z</time>
      </trkpt>
      <trkpt lat="40.441017" lon="-5.376783">
        <ele>1889.0</ele>
        <time>2018-06-17T12:11:20Z</time>
      </trkpt>
      <trkpt lat="40.441050" lon="-5.376850">
        <ele>1888.0</ele>
        <time>2018-06-17T12:11:21Z</time>
      </trkpt>
      <trkpt lat="40.441083" lon="-5.376917">
        <ele>1888.0</ele>
        <time>2018-06-17T12:11:22Z</time>
      </trkpt>
      <trkpt lat="40.441133" lon="-5.376967">
        <ele>1888.0</ele>
        <time>2018-06-17T12:11:23Z</time>
      </trkpt>
      <trkpt lat="40.441167" lon="-5.377000">
        <ele>1888.0</ele>
        <time>2018-06-17T12:11:24Z</time>
      </trkpt>
      <trkpt lat="40.441217" lon="-5.377017">
        <ele>1888.0</ele>
        <time>2018-06-17T12:11:25Z</time>
      </trkpt>
      <trkpt lat="40.441250" lon="-5.377050">
        <ele>1889.0</ele>
        <time>2018-06-17T12:11:26Z</time>
      </trkpt>
      <trkpt lat="40.441283" lon="-5.377067">
        <ele>1889.0</ele>
        <time>2018-06-17T12:11:27Z</time>
      </trkpt>
      <trkpt lat="40.441333" lon="-5.377100">
        <ele>1889.0</ele>
        <time>2018-06-17T12:11:28Z</time>
      </trkpt>
      <trkpt lat="40.441367" lon="-5.377150">
        <ele>1888.0</ele>
        <time>2018-06-17T12:11:29Z</time>
      </trkpt>
      <trkpt lat="40.441400" lon="-5.377200">
        <ele>1888.0</ele>
        <time>2018-06-17T12:11:30Z</time>
      </trkpt>
      <trkpt lat="40.441433" lon="-5.377250">
        <ele>1887.0</ele>
        <time>2018-06-17T12:11:31Z</time>
      </trkpt>
      <trkpt lat="40.441467" lon="-5.377300">
        <ele>1887.0</ele>
        <time>2018-06-17T12:11:32Z</time>
      </trkpt>
      <trkpt lat="40.441500" lon="-5.377350">
        <ele>1886.0</ele>
        <time>2018-06-17T12:11:33Z</time>
      </trkpt>
      <trkpt lat="40.441533" lon="-5.377400">
        <ele>1885.0</ele>
        <time>2018-06-17T12:11:34Z</time>
      </trkpt>
      <trkpt lat="40.441583" lon="-5.377467">
        <ele>1883.0</ele>
        <time>2018-06-17T12:11:35Z</time>
      </trkpt>
      <trkpt lat="40.441617" lon="-5.377517">
        <ele>1882.0</ele>
        <time>2018-06-17T12:11:36Z</time>
      </trkpt>
      <trkpt lat="40.441650" lon="-5.377567">
        <ele>1881.0</ele>
        <time>2018-06-17T12:11:37Z</time>
      </trkpt>
      <trkpt lat="40.441683" lon="-5.377617">
        <ele>1880.0</ele>
        <time>2018-06-17T12:11:38Z</time>
      </trkpt>
      <trkpt lat="40.441717" lon="-5.377650">
        <ele>1879.0</ele>
        <time>2018-06-17T12:11:39Z</time>
      </trkpt>
      <trkpt lat="40.441750" lon="-5.377717">
        <ele>1878.0</ele>
        <time>2018-06-17T12:11:40Z</time>
      </trkpt>
      <trkpt lat="40.441783" lon="-5.377800">
        <ele>1876.0</ele>
        <time>2018-06-17T12:11:41Z</time>
      </trkpt>
      <trkpt lat="40.441800" lon="-5.377867">
        <ele>1875.0</ele>
        <time>2018-06-17T12:11:42Z</time>
      </trkpt>
      <trkpt lat="40.441833" lon="-5.377933">
        <ele>1875.0</ele>
        <time>2018-06-17T12:11:43Z</time>
      </trkpt>
      <trkpt lat="40.441883" lon="-5.377983">
        <ele>1874.0</ele>
        <time>2018-06-17T12:11:44Z</time>
      </trkpt>
      <trkpt lat="40.441900" lon="-5.378017">
        <ele>1874.0</ele>
        <time>2018-06-17T12:11:45Z</time>
      </trkpt>
      <trkpt lat="40.441933" lon="-5.378050">
        <ele>1874.0</ele>
        <time>2018-06-17T12:11:46Z</time>
      </trkpt>
      <trkpt lat="40.441967" lon="-5.378067">
        <ele>1872.0</ele>
        <time>2018-06-17T12:11:47Z</time>
      </trkpt>
      <trkpt lat="40.442000" lon="-5.378100">
        <ele>1871.0</ele>
        <time>2018-06-17T12:11:48Z</time>
      </trkpt>
      <trkpt lat="40.442050" lon="-5.378133">
        <ele>1870.0</ele>
        <time>2018-06-17T12:11:49Z</time>
      </trkpt>
      <trkpt lat="40.442083" lon="-5.378167">
        <ele>1869.0</ele>
        <time>2018-06-17T12:11:50Z</time>
      </trkpt>
      <trkpt lat="40.442133" lon="-5.378200">
        <ele>1867.0</ele>
        <time>2018-06-17T12:11:51Z</time>
      </trkpt>
      <trkpt lat="40.442167" lon="-5.378250">
        <ele>1866.0</ele>
        <time>2018-06-17T12:11:52Z</time>
      </trkpt>
      <trkpt lat="40.442200" lon="-5.378300">
        <ele>1865.0</ele>
        <time>2018-06-17T12:11:53Z</time>
      </trkpt>
      <trkpt lat="40.442250" lon="-5.378350">
        <ele>1863.0</ele>
        <time>2018-06-17T12:11:54Z</time>
      </trkpt>
      <trkpt lat="40.442283" lon="-5.378383">
        <ele>1861.0</ele>
        <time>2018-06-17T12:11:55Z</time>
      </trkpt>
      <trkpt lat="40.442317" lon="-5.378433">
        <ele>1860.0</ele>
        <time>2018-06-17T12:11:56Z</time>
      </trkpt>
      <trkpt lat="40.442350" lon="-5.378500">
        <ele>1858.0</ele>
        <time>2018-06-17T12:11:57Z</time>
      </trkpt>
      <trkpt lat="40.442383" lon="-5.378583">
        <ele>1857.0</ele>
        <time>2018-06-17T12:11:58Z</time>
      </trkpt>
      <trkpt lat="40.442417" lon="-5.378683">
        <ele>1857.0</ele>
        <time>2018-06-17T12:11:59Z</time>
      </trkpt>
      <trkpt lat="40.442450" lon="-5.378767">
        <ele>1859.0</ele>
        <time>2018-06-17T12:12:00Z</time>
      </trkpt>
      <trkpt lat="40.442483" lon="-5.378850">
        <ele>1861.0</ele>
        <time>2018-06-17T12:12:01Z</time>
      </trkpt>
      <trkpt lat="40.442500" lon="-5.378917">
        <ele>1863.0</ele>
        <time>2018-06-17T12:12:02Z</time>
      </trkpt>
      <trkpt lat="40.442500" lon="-5.378983">
        <ele>1864.0</ele>
        <time>2018-06-17T12:12:03Z</time>
      </trkpt>
      <trkpt lat="40.442500" lon="-5.379033">
        <ele>1864.0</ele>
        <time>2018-06-17T12:12:04Z</time>
      </trkpt>
      <trkpt lat="40.442517" lon="-5.379083">
        <ele>1863.0</ele>
        <time>2018-06-17T12:12:05Z</time>
      </trkpt>
      <trkpt lat="40.442550" lon="-5.379117">
        <ele>1862.0</ele>
        <time>2018-06-17T12:12:06Z</time>
      </trkpt>
      <trkpt lat="40.442600" lon="-5.379133">
        <ele>1860.0</ele>
        <time>2018-06-17T12:12:07Z</time>
      </trkpt>
      <trkpt lat="40.442650" lon="-5.379150">
        <ele>1858.0</ele>
        <time>2018-06-17T12:12:08Z</time>
      </trkpt>
      <trkpt lat="40.442700" lon="-5.379167">
        <ele>1858.0</ele>
        <time>2018-06-17T12:12:09Z</time>
      </trkpt>
      <trkpt lat="40.442750" lon="-5.379217">
        <ele>1858.0</ele>
        <time>2018-06-17T12:12:10Z</time>
      </trkpt>
      <trkpt lat="40.442783" lon="-5.379267">
        <ele>1858.0</ele>
        <time>2018-06-17T12:12:11Z</time>
      </trkpt>
      <trkpt lat="40.442833" lon="-5.379333">
        <ele>1857.0</ele>
        <time>2018-06-17T12:12:12Z</time>
      </trkpt>
      <trkpt lat="40.442883" lon="-5.379383">
        <ele>1857.0</ele>
        <time>2018-06-17T12:12:13Z</time>
      </trkpt>
      <trkpt lat="40.442933" lon="-5.379450">
        <ele>1857.0</ele>
        <time>2018-06-17T12:12:14Z</time>
      </trkpt>
      <trkpt lat="40.442983" lon="-5.379517">
        <ele>1858.0</ele>
        <time>2018-06-17T12:12:15Z</time>
      </trkpt>
      <trkpt lat="40.443017" lon="-5.379583">
        <ele>1859.0</ele>
        <time>2018-06-17T12:12:16Z</time>
      </trkpt>
      <trkpt lat="40.443067" lon="-5.379650">
        <ele>1861.0</ele>
        <time>2018-06-17T12:12:17Z</time>
      </trkpt>
      <trkpt lat="40.443100" lon="-5.379700">
        <ele>1862.0</ele>
        <time>2018-06-17T12:12:18Z</time>
      </trkpt>
      <trkpt lat="40.443133" lon="-5.379750">
        <ele>1862.0</ele>
        <time>2018-06-17T12:12:19Z</time>
      </trkpt>
      <trkpt lat="40.443183" lon="-5.379767">
        <ele>1862.0</ele>
        <time>2018-06-17T12:12:20Z</time>
      </trkpt>
      <trkpt lat="40.443233" lon="-5.379767">
        <ele>1862.0</ele>
        <time>2018-06-17T12:12:21Z</time>
      </trkpt>
      <trkpt lat="40.443267" lon="-5.379733">
        <ele>1862.0</ele>
        <time>2018-06-17T12:12:22Z</time>
      </trkpt>
      <trkpt lat="40.443300" lon="-5.379683">
        <ele>1862.0</ele>
        <time>2018-06-17T12:12:23Z</time>
      </trkpt>
      <trkpt lat="40.443317" lon="-5.379617">
        <ele>1863.0</ele>
        <time>2018-06-17T12:12:24Z</time>
      </trkpt>
      <trkpt lat="40.443317" lon="-5.379550">
        <ele>1864.0</ele>
        <time>2018-06-17T12:12:25Z</time>
      </trkpt>
      <trkpt lat="40.443317" lon="-5.379467">
        <ele>1863.0</ele>
        <time>2018-06-17T12:12:26Z</time>
      </trkpt>
      <trkpt lat="40.443267" lon="-5.379367">
        <ele>1862.0</ele>
        <time>2018-06-17T12:12:27Z</time>
      </trkpt>
      <trkpt lat="40.443200" lon="-5.379267">
        <ele>1860.0</ele>
        <time>2018-06-17T12:12:28Z</time>
      </trkpt>
      <trkpt lat="40.443117" lon="-5.379183">
        <ele>1859.0</ele>
        <time>2018-06-17T12:12:29Z</time>
      </trkpt>
      <trkpt lat="40.443000" lon="-5.379100">
        <ele>1858.0</ele>
        <time>2018-06-17T12:12:30Z</time>
      </trkpt>
      <trkpt lat="40.442867" lon="-5.379067">
        <ele>1859.0</ele>
        <time>2018-06-17T12:12:31Z</time>
      </trkpt>
      <trkpt lat="40.442733" lon="-5.379067">
        <ele>1860.0</ele>
        <time>2018-06-17T12:12:32Z</time>
      </trkpt>
      <trkpt lat="40.442600" lon="-5.379100">
        <ele>1859.0</ele>
        <time>2018-06-17T12:12:33Z</time>
      </trkpt>
      <trkpt lat="40.442467" lon="-5.379167">
        <ele>1857.0</ele>
        <time>2018-06-17T12:12:34Z</time>
      </trkpt>
      <trkpt lat="40.442350" lon="-5.379250">
        <ele>1857.0</ele>
        <time>2018-06-17T12:12:35Z</time>
      </trkpt>
      <trkpt lat="40.442233" lon="-5.379367">
        <ele>1858.0</ele>
        <time>2018-06-17T12:12:36Z</time>
      </trkpt>
      <trkpt lat="40.442133" lon="-5.379500">
        <ele>1859.0</ele>
        <time>2018-06-17T12:12:37Z</time>
      </trkpt>
      <trkpt lat="40.442067" lon="-5.379633">
        <ele>1861.0</ele>
        <time>2018-06-17T12:12:38Z</time>
      </trkpt>
      <trkpt lat="40.441983" lon="-5.379750">
        <ele>1862.0</ele>
        <time>2018-06-17T12:12:39Z</time>
      </trkpt>
      <trkpt lat="40.441883" lon="-5.379850">
        <ele>1863.0</ele>
        <time>2018-06-17T12:12:40Z</time>
      </trkpt>
      <trkpt lat="40.441800" lon="-5.379983">
        <ele>1862.0</ele>
        <time>2018-06-17T12:12:41Z</time>
      </trkpt>
      <trkpt lat="40.441733" lon="-5.380117">
        <ele>1862.0</ele>
        <time>2018-06-17T12:12:42Z</time>
      </trkpt>
      <trkpt lat="40.441683" lon="-5.380267">
        <ele>1860.0</ele>
        <time>2018-06-17T12:12:43Z</time>
      </trkpt>
      <trkpt lat="40.441650" lon="-5.380417">
        <ele>1859.0</ele>
        <time>2018-06-17T12:12:44Z</time>
      </trkpt>
      <trkpt lat="40.441650" lon="-5.380567">
        <ele>1860.0</ele>
        <time>2018-06-17T12:12:45Z</time>
      </trkpt>
      <trkpt lat="40.441633" lon="-5.380683">
        <ele>1861.0</ele>
        <time>2018-06-17T12:12:46Z</time>
      </trkpt>
      <trkpt lat="40.441633" lon="-5.380817">
        <ele>1861.0</ele>
        <time>2018-06-17T12:12:47Z</time>
      </trkpt>
      <trkpt lat="40.441633" lon="-5.380950">
        <ele>1861.0</ele>
        <time>2018-06-17T12:12:48Z</time>
      </trkpt>
      <trkpt lat="40.441633" lon="-5.381067">
        <ele>1861.0</ele>
        <time>2018-06-17T12:12:49Z</time>
      </trkpt>
      <trkpt lat="40.441650" lon="-5.381183">
        <ele>1861.0</ele>
        <time>2018-06-17T12:12:50Z</time>
      </trkpt>
      <trkpt lat="40.441667" lon="-5.381300">
        <ele>1861.0</ele>
        <time>2018-06-17T12:12:51Z</time>
      </trkpt>
      <trkpt lat="40.441683" lon="-5.381400">
        <ele>1862.0</ele>
        <time>2018-06-17T12:12:52Z</time>
      </trkpt>
      <trkpt lat="40.441683" lon="-5.381517">
        <ele>1862.0</ele>
        <time>2018-06-17T12:12:53Z</time>
      </trkpt>
      <trkpt lat="40.441683" lon="-5.381650">
        <ele>1862.0</ele>
        <time>2018-06-17T12:12:54Z</time>
      </trkpt>
      <trkpt lat="40.441667" lon="-5.381767">
        <ele>1861.0</ele>
        <time>2018-06-17T12:12:55Z</time>
      </trkpt>
      <trkpt lat="40.441683" lon="-5.381883">
        <ele>1860.0</ele>
        <time>2018-06-17T12:12:56Z</time>
      </trkpt>
      <trkpt lat="40.441717" lon="-5.381983">
        <ele>1859.0</ele>
        <time>2018-06-17T12:12:57Z</time>
      </trkpt>
      <trkpt lat="40.441767" lon="-5.382083">
        <ele>1859.0</ele>
        <time>2018-06-17T12:12:58Z</time>
      </trkpt>
      <trkpt lat="40.441800" lon="-5.382167">
        <ele>1860.0</ele>
        <time>2018-06-17T12:12:59Z</time>
      </trkpt>
      <trkpt lat="40.441817" lon="-5.382250">
        <ele>1862.0</ele>
        <time>2018-06-17T12:13:00Z</time>
      </trkpt>
      <trkpt lat="40.441833" lon="-5.382317">
        <ele>1863.0</ele>
        <time>2018-06-17T12:13:01Z</time>
      </trkpt>
      <trkpt lat="40.441833" lon="-5.382400">
        <ele>1863.0</ele>
        <time>2018-06-17T12:13:02Z</time>
      </trkpt>
      <trkpt lat="40.441850" lon="-5.382500">
        <ele>1862.0</ele>
        <time>2018-06-17T12:13:03Z</time>
      </trkpt>
      <trkpt lat="40.441850" lon="-5.382600">
        <ele>1861.0</ele>
        <time>2018-06-17T12:13:04Z</time>
      </trkpt>
      <trkpt lat="40.441867" lon="-5.382717">
        <ele>1861.0</ele>
        <time>2018-06-17T12:13:05Z</time>
      </trkpt>
      <trkpt lat="40.441867" lon="-5.382850">
        <ele>1861.0</ele>
        <time>2018-06-17T12:13:06Z</time>
      </trkpt>
      <trkpt lat="40.441850" lon="-5.382967">
        <ele>1863.0</ele>
        <time>2018-06-17T12:13:07Z</time>
      </trkpt>
      <trkpt lat="40.441833" lon="-5.383067">
        <ele>1866.0</ele>
        <time>2018-06-17T12:13:08Z</time>
      </trkpt>
      <trkpt lat="40.441800" lon="-5.383167">
        <ele>1869.0</ele>
        <time>2018-06-17T12:13:09Z</time>
      </trkpt>
      <trkpt lat="40.441767" lon="-5.383233">
        <ele>1870.0</ele>
        <time>2018-06-17T12:13:10Z</time>
      </trkpt>
      <trkpt lat="40.441750" lon="-5.383317">
        <ele>1871.0</ele>
        <time>2018-06-17T12:13:11Z</time>
      </trkpt>
      <trkpt lat="40.441750" lon="-5.383383">
        <ele>1871.0</ele>
        <time>2018-06-17T12:13:12Z</time>
      </trkpt>
      <trkpt lat="40.441783" lon="-5.383417">
        <ele>1871.0</ele>
        <time>2018-06-17T12:13:13Z</time>
      </trkpt>
      <trkpt lat="40.441817" lon="-5.383433">
        <ele>1871.0</ele>
        <time>2018-06-17T12:13:14Z</time>
      </trkpt>
      <trkpt lat="40.441850" lon="-5.383383">
        <ele>1872.0</ele>
        <time>2018-06-17T12:13:15Z</time>
      </trkpt>
      <trkpt lat="40.441867" lon="-5.383300">
        <ele>1872.0</ele>
        <time>2018-06-17T12:13:16Z</time>
      </trkpt>
      <trkpt lat="40.441833" lon="-5.383183">
        <ele>1873.0</ele>
        <time>2018-06-17T12:13:17Z</time>
      </trkpt>
      <trkpt lat="40.441767" lon="-5.383067">
        <ele>1873.0</ele>
        <time>2018-06-17T12:13:18Z</time>
      </trkpt>
      <trkpt lat="40.441650" lon="-5.382950">
        <ele>1874.0</ele>
        <time>2018-06-17T12:13:19Z</time>
      </trkpt>
      <trkpt lat="40.441533" lon="-5.382883">
        <ele>1875.0</ele>
        <time>2018-06-17T12:13:20Z</time>
      </trkpt>
      <trkpt lat="40.441383" lon="-5.382850">
        <ele>1876.0</ele>
        <time>2018-06-17T12:13:21Z</time>
      </trkpt>
      <trkpt lat="40.441233" lon="-5.382867">
        <ele>1876.0</ele>
        <time>2018-06-17T12:13:22Z</time>
      </trkpt>
      <trkpt lat="40.441083" lon="-5.382933">
        <ele>1876.0</ele>
        <time>2018-06-17T12:13:23Z</time>
      </trkpt>
      <trkpt lat="40.440933" lon="-5.383000">
        <ele>1877.0</ele>
        <time>2018-06-17T12:13:24Z</time>
      </trkpt>
      <trkpt lat="40.440817" lon="-5.383100">
        <ele>1878.0</ele>
        <time>2018-06-17T12:13:25Z</time>
      </trkpt>
      <trkpt lat="40.440700" lon="-5.383200">
        <ele>1879.0</ele>
        <time>2018-06-17T12:13:26Z</time>
      </trkpt>
      <trkpt lat="40.440583" lon="-5.383300">
        <ele>1879.0</ele>
        <time>2018-06-17T12:13:27Z</time>
      </trkpt>
      <trkpt lat="40.440500" lon="-5.383417">
        <ele>1880.0</ele>
        <time>2018-06-17T12:13:28Z</time>
      </trkpt>
      <trkpt lat="40.440417" lon="-5.383533">
        <ele>1880.0</ele>
        <time>2018-06-17T12:13:29Z</time>
      </trkpt>
      <trkpt lat="40.440350" lon="-5.383667">
        <ele>1880.0</ele>
        <time>2018-06-17T12:13:30Z</time>
      </trkpt>
      <trkpt lat="40.440300" lon="-5.383800">
        <ele>1881.0</ele>
        <time>2018-06-17T12:13:31Z</time>
      </trkpt>
      <trkpt lat="40.440250" lon="-5.383933">
        <ele>1883.0</ele>
        <time>2018-06-17T12:13:32Z</time>
      </trkpt>
      <trkpt lat="40.440233" lon="-5.384033">
        <ele>1885.0</ele>
        <time>2018-06-17T12:13:33Z</time>
      </trkpt>
      <trkpt lat="40.440233" lon="-5.384133">
        <ele>1887.0</ele>
        <time>2018-06-17T12:13:34Z</time>
      </trkpt>
      <trkpt lat="40.440217" lon="-5.384200">
        <ele>1889.0</ele>
        <time>2018-06-17T12:13:35Z</time>
      </trkpt>
      <trkpt lat="40.440233" lon="-5.384267">
        <ele>1890.0</ele>
        <time>2018-06-17T12:13:36Z</time>
      </trkpt>
      <trkpt lat="40.440267" lon="-5.384283">
        <ele>1890.0</ele>
        <time>2018-06-17T12:13:37Z</time>
      </trkpt>
      <trkpt lat="40.440317" lon="-5.384267">
        <ele>1890.0</ele>
        <time>2018-06-17T12:13:38Z</time>
      </trkpt>
      <trkpt lat="40.440350" lon="-5.384200">
        <ele>1891.0</ele>
        <time>2018-06-17T12:13:39Z</time>
      </trkpt>
      <trkpt lat="40.440383" lon="-5.384100">
        <ele>1892.0</ele>
        <time>2018-06-17T12:13:40Z</time>
      </trkpt>
      <trkpt lat="40.440367" lon="-5.383967">
        <ele>1894.0</ele>
        <time>2018-06-17T12:13:41Z</time>
      </trkpt>
      <trkpt lat="40.440300" lon="-5.383833">
        <ele>1896.0</ele>
        <time>2018-06-17T12:13:42Z</time>
      </trkpt>
      <trkpt lat="40.440217" lon="-5.383717">
        <ele>1898.0</ele>
        <time>2018-06-17T12:13:43Z</time>
      </trkpt>
      <trkpt lat="40.440100" lon="-5.383633">
        <ele>1898.0</ele>
        <time>2018-06-17T12:13:44Z</time>
      </trkpt>
      <trkpt lat="40.439967" lon="-5.383567">
        <ele>1899.0</ele>
        <time>2018-06-17T12:13:45Z</time>
      </trkpt>
      <trkpt lat="40.439817" lon="-5.383533">
        <ele>1899.0</ele>
        <time>2018-06-17T12:13:46Z</time>
      </trkpt>
      <trkpt lat="40.439667" lon="-5.383517">
        <ele>1900.0</ele>
        <time>2018-06-17T12:13:47Z</time>
      </trkpt>
      <trkpt lat="40.439500" lon="-5.383533">
        <ele>1900.0</ele>
        <time>2018-06-17T12:13:48Z</time>
      </trkpt>
      <trkpt lat="40.439350" lon="-5.383600">
        <ele>1900.0</ele>
        <time>2018-06-17T12:13:49Z</time>
      </trkpt>
      <trkpt lat="40.439200" lon="-5.383717">
        <ele>1900.0</ele>
        <time>2018-06-17T12:13:50Z</time>
      </trkpt>
      <trkpt lat="40.439100" lon="-5.383850">
        <ele>1901.0</ele>
        <time>2018-06-17T12:13:51Z</time>
      </trkpt>
      <trkpt lat="40.439017" lon="-5.384000">
        <ele>1903.0</ele>
        <time>2018-06-17T12:13:52Z</time>
      </trkpt>
      <trkpt lat="40.438967" lon="-5.384133">
        <ele>1904.0</ele>
        <time>2018-06-17T12:13:53Z</time>
      </trkpt>
      <trkpt lat="40.438933" lon="-5.384250">
        <ele>1906.0</ele>
        <time>2018-06-17T12:13:54Z</time>
      </trkpt>
      <trkpt lat="40.438933" lon="-5.384350">
        <ele>1908.0</ele>
        <time>2018-06-17T12:13:55Z</time>
      </trkpt>
      <trkpt lat="40.438950" lon="-5.384433">
        <ele>1909.0</ele>
        <time>2018-06-17T12:13:56Z</time>
      </trkpt>
      <trkpt lat="40.438967" lon="-5.384517">
        <ele>1910.0</ele>
        <time>2018-06-17T12:13:57Z</time>
      </trkpt>
      <trkpt lat="40.439000" lon="-5.384567">
        <ele>1912.0</ele>
        <time>2018-06-17T12:13:58Z</time>
      </trkpt>
      <trkpt lat="40.439050" lon="-5.384567">
        <ele>1913.0</ele>
        <time>2018-06-17T12:13:59Z</time>
      </trkpt>
      <trkpt lat="40.439083" lon="-5.384550">
        <ele>1915.0</ele>
        <time>2018-06-17T12:14:00Z</time>
      </trkpt>
      <trkpt lat="40.439133" lon="-5.384500">
        <ele>1916.0</ele>
        <time>2018-06-17T12:14:01Z</time>
      </trkpt>
      <trkpt lat="40.439150" lon="-5.384417">
        <ele>1917.0</ele>
        <time>2018-06-17T12:14:02Z</time>
      </trkpt>
      <trkpt lat="40.439150" lon="-5.384300">
        <ele>1919.0</ele>
        <time>2018-06-17T12:14:03Z</time>
      </trkpt>
      <trkpt lat="40.439117" lon="-5.384167">
        <ele>1920.0</ele>
        <time>2018-06-17T12:14:04Z</time>
      </trkpt>
      <trkpt lat="40.439050" lon="-5.384033">
        <ele>1920.0</ele>
        <time>2018-06-17T12:14:05Z</time>
      </trkpt>
      <trkpt lat="40.438967" lon="-5.383917">
        <ele>1921.0</ele>
        <time>2018-06-17T12:14:06Z</time>
      </trkpt>
      <trkpt lat="40.438850" lon="-5.383800">
        <ele>1922.0</ele>
        <time>2018-06-17T12:14:07Z</time>
      </trkpt>
      <trkpt lat="40.438717" lon="-5.383733">
        <ele>1923.0</ele>
        <time>2018-06-17T12:14:08Z</time>
      </trkpt>
      <trkpt lat="40.438583" lon="-5.383683">
        <ele>1923.0</ele>
        <time>2018-06-17T12:14:09Z</time>
      </trkpt>
      <trkpt lat="40.438433" lon="-5.383650">
        <ele>1923.0</ele>
        <time>2018-06-17T12:14:10Z</time>
      </trkpt>
      <trkpt lat="40.438283" lon="-5.383683">
        <ele>1923.0</ele>
        <time>2018-06-17T12:14:11Z</time>
      </trkpt>
      <trkpt lat="40.438133" lon="-5.383750">
        <ele>1922.0</ele>
        <time>2018-06-17T12:14:12Z</time>
      </trkpt>
      <trkpt lat="40.438000" lon="-5.383850">
        <ele>1922.0</ele>
        <time>2018-06-17T12:14:13Z</time>
      </trkpt>
      <trkpt lat="40.437900" lon="-5.383983">
        <ele>1921.0</ele>
        <time>2018-06-17T12:14:14Z</time>
      </trkpt>
      <trkpt lat="40.437833" lon="-5.384133">
        <ele>1922.0</ele>
        <time>2018-06-17T12:14:15Z</time>
      </trkpt>
      <trkpt lat="40.437800" lon="-5.384267">
        <ele>1923.0</ele>
        <time>2018-06-17T12:14:16Z</time>
      </trkpt>
      <trkpt lat="40.437783" lon="-5.384367">
        <ele>1925.0</ele>
        <time>2018-06-17T12:14:17Z</time>
      </trkpt>
      <trkpt lat="40.437783" lon="-5.384467">
        <ele>1927.0</ele>
        <time>2018-06-17T12:14:18Z</time>
      </trkpt>
      <trkpt lat="40.437783" lon="-5.384567">
        <ele>1928.0</ele>
        <time>2018-06-17T12:14:19Z</time>
      </trkpt>
      <trkpt lat="40.437800" lon="-5.384650">
        <ele>1929.0</ele>
        <time>2018-06-17T12:14:20Z</time>
      </trkpt>
      <trkpt lat="40.437800" lon="-5.384717">
        <ele>1930.0</ele>
        <time>2018-06-17T12:14:21Z</time>
      </trkpt>
      <trkpt lat="40.437817" lon="-5.384800">
        <ele>1931.0</ele>
        <time>2018-06-17T12:14:22Z</time>
      </trkpt>
      <trkpt lat="40.437850" lon="-5.384867">
        <ele>1932.0</ele>
        <time>2018-06-17T12:14:23Z</time>
      </trkpt>
      <trkpt lat="40.437900" lon="-5.384933">
        <ele>1933.0</ele>
        <time>2018-06-17T12:14:24Z</time>
      </trkpt>
      <trkpt lat="40.437933" lon="-5.384983">
        <ele>1934.0</ele>
        <time>2018-06-17T12:14:25Z</time>
      </trkpt>
      <trkpt lat="40.437983" lon="-5.385017">
        <ele>1936.0</ele>
        <time>2018-06-17T12:14:26Z</time>
      </trkpt>
      <trkpt lat="40.438033" lon="-5.385000">
        <ele>1937.0</ele>
        <time>2018-06-17T12:14:27Z</time>
      </trkpt>
      <trkpt lat="40.438067" lon="-5.384967">
        <ele>1938.0</ele>
        <time>2018-06-17T12:14:28Z</time>
      </trkpt>
      <trkpt lat="40.438100" lon="-5.384900">
        <ele>1939.0</ele>
        <time>2018-06-17T12:14:29Z</time>
      </trkpt>
      <trkpt lat="40.438117" lon="-5.384833">
        <ele>1941.0</ele>
        <time>2018-06-17T12:14:30Z</time>
      </trkpt>
      <trkpt lat="40.438117" lon="-5.384767">
        <ele>1942.0</ele>
        <time>2018-06-17T12:14:31Z</time>
      </trkpt>
      <trkpt lat="40.438083" lon="-5.384667">
        <ele>1942.0</ele>
        <time>2018-06-17T12:14:32Z</time>
      </trkpt>
      <trkpt lat="40.438033" lon="-5.384567">
        <ele>1940.0</ele>
        <time>2018-06-17T12:14:33Z</time>
      </trkpt>
      <trkpt lat="40.437950" lon="-5.384450">
        <ele>1939.0</ele>
        <time>2018-06-17T12:14:34Z</time>
      </trkpt>
      <trkpt lat="40.437850" lon="-5.384367">
        <ele>1938.0</ele>
        <time>2018-06-17T12:14:35Z</time>
      </trkpt>
      <trkpt lat="40.437700" lon="-5.384300">
        <ele>1937.0</ele>
        <time>2018-06-17T12:14:36Z</time>
      </trkpt>
      <trkpt lat="40.437550" lon="-5.384283">
        <ele>1937.0</ele>
        <time>2018-06-17T12:14:37Z</time>
      </trkpt>
      <trkpt lat="40.437400" lon="-5.384333">
        <ele>1936.0</ele>
        <time>2018-06-17T12:14:38Z</time>
      </trkpt>
      <trkpt lat="40.437267" lon="-5.384417">
        <ele>1936.0</ele>
        <time>2018-06-17T12:14:39Z</time>
      </trkpt>
      <trkpt lat="40.437167" lon="-5.384533">
        <ele>1936.0</ele>
        <time>2018-06-17T12:14:40Z</time>
      </trkpt>
      <trkpt lat="40.437100" lon="-5.384667">
        <ele>1937.0</ele>
        <time>2018-06-17T12:14:41Z</time>
      </trkpt>
      <trkpt lat="40.437033" lon="-5.384767">
        <ele>1938.0</ele>
        <time>2018-06-17T12:14:42Z</time>
      </trkpt>
      <trkpt lat="40.437000" lon="-5.384883">
        <ele>1939.0</ele>
        <time>2018-06-17T12:14:43Z</time>
      </trkpt>
      <trkpt lat="40.436950" lon="-5.384967">
        <ele>1941.0</ele>
        <time>2018-06-17T12:14:44Z</time>
      </trkpt>
      <trkpt lat="40.436917" lon="-5.385067">
        <ele>1941.0</ele>
        <time>2018-06-17T12:14:45Z</time>
      </trkpt>
      <trkpt lat="40.436900" lon="-5.385150">
        <ele>1941.0</ele>
        <time>2018-06-17T12:14:46Z</time>
      </trkpt>
      <trkpt lat="40.436900" lon="-5.385250">
        <ele>1940.0</ele>
        <time>2018-06-17T12:14:47Z</time>
      </trkpt>
      <trkpt lat="40.436900" lon="-5.385350">
        <ele>1940.0</ele>
        <time>2018-06-17T12:14:48Z</time>
      </trkpt>
      <trkpt lat="40.436933" lon="-5.385433">
        <ele>1940.0</ele>
        <time>2018-06-17T12:14:49Z</time>
      </trkpt>
      <trkpt lat="40.436967" lon="-5.385500">
        <ele>1940.0</ele>
        <time>2018-06-17T12:14:50Z</time>
      </trkpt>
      <trkpt lat="40.437000" lon="-5.385550">
        <ele>1941.0</ele>
        <time>2018-06-17T12:14:51Z</time>
      </trkpt>
      <trkpt lat="40.437017" lon="-5.385600">
        <ele>1942.0</ele>
        <time>2018-06-17T12:14:52Z</time>
      </trkpt>
      <trkpt lat="40.437033" lon="-5.385650">
        <ele>1943.0</ele>
        <time>2018-06-17T12:14:53Z</time>
      </trkpt>
      <trkpt lat="40.437050" lon="-5.385717">
        <ele>1943.0</ele>
        <time>2018-06-17T12:14:54Z</time>
      </trkpt>
      <trkpt lat="40.437067" lon="-5.385800">
        <ele>1942.0</ele>
        <time>2018-06-17T12:14:55Z</time>
      </trkpt>
      <trkpt lat="40.437083" lon="-5.385850">
        <ele>1942.0</ele>
        <time>2018-06-17T12:14:56Z</time>
      </trkpt>
      <trkpt lat="40.437133" lon="-5.385900">
        <ele>1941.0</ele>
        <time>2018-06-17T12:14:57Z</time>
      </trkpt>
      <trkpt lat="40.437167" lon="-5.385917">
        <ele>1941.0</ele>
        <time>2018-06-17T12:14:58Z</time>
      </trkpt>
      <trkpt lat="40.437217" lon="-5.385950">
        <ele>1941.0</ele>
        <time>2018-06-17T12:14:59Z</time>
      </trkpt>
      <trkpt lat="40.437250" lon="-5.385983">
        <ele>1942.0</ele>
        <time>2018-06-17T12:15:00Z</time>
      </trkpt>
      <trkpt lat="40.437300" lon="-5.386033">
        <ele>1943.0</ele>
        <time>2018-06-17T12:15:01Z</time>
      </trkpt>
      <trkpt lat="40.437333" lon="-5.386083">
        <ele>1943.0</ele>
        <time>2018-06-17T12:15:02Z</time>
      </trkpt>
      <trkpt lat="40.437367" lon="-5.386133">
        <ele>1944.0</ele>
        <time>2018-06-17T12:15:03Z</time>
      </trkpt>
      <trkpt lat="40.437417" lon="-5.386183">
        <ele>1944.0</ele>
        <time>2018-06-17T12:15:04Z</time>
      </trkpt>
      <trkpt lat="40.437450" lon="-5.386217">
        <ele>1943.0</ele>
        <time>2018-06-17T12:15:05Z</time>
      </trkpt>
      <trkpt lat="40.437483" lon="-5.386250">
        <ele>1942.0</ele>
        <time>2018-06-17T12:15:06Z</time>
      </trkpt>
      <trkpt lat="40.437533" lon="-5.386267">
        <ele>1941.0</ele>
        <time>2018-06-17T12:15:07Z</time>
      </trkpt>
      <trkpt lat="40.437583" lon="-5.386283">
        <ele>1940.0</ele>
        <time>2018-06-17T12:15:08Z</time>
      </trkpt>
      <trkpt lat="40.437633" lon="-5.386300">
        <ele>1939.0</ele>
        <time>2018-06-17T12:15:09Z</time>
      </trkpt>
      <trkpt lat="40.437667" lon="-5.386333">
        <ele>1939.0</ele>
        <time>2018-06-17T12:15:10Z</time>
      </trkpt>
      <trkpt lat="40.437700" lon="-5.386367">
        <ele>1938.0</ele>
        <time>2018-06-17T12:15:11Z</time>
      </trkpt>
      <trkpt lat="40.437750" lon="-5.386417">
        <ele>1936.0</ele>
        <time>2018-06-17T12:15:12Z</time>
      </trkpt>
      <trkpt lat="40.437783" lon="-5.386467">
        <ele>1936.0</ele>
        <time>2018-06-17T12:15:13Z</time>
      </trkpt>
      <trkpt lat="40.437833" lon="-5.386533">
        <ele>1935.0</ele>
        <time>2018-06-17T12:15:14Z</time>
      </trkpt>
      <trkpt lat="40.437867" lon="-5.386583">
        <ele>1935.0</ele>
        <time>2018-06-17T12:15:15Z</time>
      </trkpt>
      <trkpt lat="40.437900" lon="-5.386667">
        <ele>1935.0</ele>
        <time>2018-06-17T12:15:16Z</time>
      </trkpt>
      <trkpt lat="40.437933" lon="-5.386733">
        <ele>1934.0</ele>
        <time>2018-06-17T12:15:17Z</time>
      </trkpt>
      <trkpt lat="40.437967" lon="-5.386800">
        <ele>1932.0</ele>
        <time>2018-06-17T12:15:18Z</time>
      </trkpt>
      <trkpt lat="40.438017" lon="-5.386867">
        <ele>1930.0</ele>
        <time>2018-06-17T12:15:19Z</time>
      </trkpt>
      <trkpt lat="40.438067" lon="-5.386917">
        <ele>1927.0</ele>
        <time>2018-06-17T12:15:20Z</time>
      </trkpt>
      <trkpt lat="40.438117" lon="-5.386950">
        <ele>1926.0</ele>
        <time>2018-06-17T12:15:21Z</time>
      </trkpt>
      <trkpt lat="40.438167" lon="-5.386983">
        <ele>1925.0</ele>
        <time>2018-06-17T12:15:22Z</time>
      </trkpt>
      <trkpt lat="40.438217" lon="-5.387000">
        <ele>1925.0</ele>
        <time>2018-06-17T12:15:23Z</time>
      </trkpt>
      <trkpt lat="40.438233" lon="-5.387017">
        <ele>1925.0</ele>
        <time>2018-06-17T12:15:24Z</time>
      </trkpt>
      <trkpt lat="40.438267" lon="-5.387017">
        <ele>1924.0</ele>
        <time>2018-06-17T12:15:25Z</time>
      </trkpt>
      <trkpt lat="40.438300" lon="-5.387033">
        <ele>1921.0</ele>
        <time>2018-06-17T12:15:26Z</time>
      </trkpt>
      <trkpt lat="40.438333" lon="-5.387050">
        <ele>1918.0</ele>
        <time>2018-06-17T12:15:27Z</time>
      </trkpt>
      <trkpt lat="40.438400" lon="-5.387067">
        <ele>1917.0</ele>
        <time>2018-06-17T12:15:28Z</time>
      </trkpt>
      <trkpt lat="40.438450" lon="-5.387100">
        <ele>1917.0</ele>
        <time>2018-06-17T12:15:29Z</time>
      </trkpt>
      <trkpt lat="40.438483" lon="-5.387133">
        <ele>1918.0</ele>
        <time>2018-06-17T12:15:30Z</time>
      </trkpt>
      <trkpt lat="40.438517" lon="-5.387167">
        <ele>1919.0</ele>
        <time>2018-06-17T12:15:31Z</time>
      </trkpt>
      <trkpt lat="40.438533" lon="-5.387167">
        <ele>1918.0</ele>
        <time>2018-06-17T12:15:32Z</time>
      </trkpt>
      <trkpt lat="40.438567" lon="-5.387183">
        <ele>1917.0</ele>
        <time>2018-06-17T12:15:33Z</time>
      </trkpt>
      <trkpt lat="40.438600" lon="-5.387200">
        <ele>1915.0</ele>
        <time>2018-06-17T12:15:34Z</time>
      </trkpt>
      <trkpt lat="40.438650" lon="-5.387233">
        <ele>1913.0</ele>
        <time>2018-06-17T12:15:35Z</time>
      </trkpt>
      <trkpt lat="40.438683" lon="-5.387283">
        <ele>1911.0</ele>
        <time>2018-06-17T12:15:36Z</time>
      </trkpt>
      <trkpt lat="40.438733" lon="-5.387350">
        <ele>1911.0</ele>
        <time>2018-06-17T12:15:37Z</time>
      </trkpt>
      <trkpt lat="40.438767" lon="-5.387417">
        <ele>1910.0</ele>
        <time>2018-06-17T12:15:38Z</time>
      </trkpt>
      <trkpt lat="40.438783" lon="-5.387467">
        <ele>1909.0</ele>
        <time>2018-06-17T12:15:39Z</time>
      </trkpt>
      <trkpt lat="40.438817" lon="-5.387533">
        <ele>1908.0</ele>
        <time>2018-06-17T12:15:40Z</time>
      </trkpt>
      <trkpt lat="40.438867" lon="-5.387583">
        <ele>1905.0</ele>
        <time>2018-06-17T12:15:41Z</time>
      </trkpt>
      <trkpt lat="40.438900" lon="-5.387633">
        <ele>1903.0</ele>
        <time>2018-06-17T12:15:42Z</time>
      </trkpt>
      <trkpt lat="40.438950" lon="-5.387683">
        <ele>1900.0</ele>
        <time>2018-06-17T12:15:43Z</time>
      </trkpt>
      <trkpt lat="40.439000" lon="-5.387717">
        <ele>1898.0</ele>
        <time>2018-06-17T12:15:44Z</time>
      </trkpt>
      <trkpt lat="40.439050" lon="-5.387750">
        <ele>1896.0</ele>
        <time>2018-06-17T12:15:45Z</time>
      </trkpt>
      <trkpt lat="40.439083" lon="-5.387767">
        <ele>1894.0</ele>
        <time>2018-06-17T12:15:46Z</time>
      </trkpt>
      <trkpt lat="40.439117" lon="-5.387800">
        <ele>1892.0</ele>
        <time>2018-06-17T12:15:47Z</time>
      </trkpt>
      <trkpt lat="40.439167" lon="-5.387850">
        <ele>1890.0</ele>
        <time>2018-06-17T12:15:48Z</time>
      </trkpt>
      <trkpt lat="40.439200" lon="-5.387900">
        <ele>1888.0</ele>
        <time>2018-06-17T12:15:49Z</time>
      </trkpt>
      <trkpt lat="40.439250" lon="-5.387950">
        <ele>1886.0</ele>
        <time>2018-06-17T12:15:50Z</time>
      </trkpt>
      <trkpt lat="40.439283" lon="-5.387983">
        <ele>1884.0</ele>
        <time>2018-06-17T12:15:51Z</time>
      </trkpt>
      <trkpt lat="40.439333" lon="-5.388017">
        <ele>1882.0</ele>
        <time>2018-06-17T12:15:52Z</time>
      </trkpt>
      <trkpt lat="40.439367" lon="-5.388050">
        <ele>1880.0</ele>
        <time>2018-06-17T12:15:53Z</time>
      </trkpt>
      <trkpt lat="40.439417" lon="-5.388083">
        <ele>1878.0</ele>
        <time>2018-06-17T12:15:54Z</time>
      </trkpt>
      <trkpt lat="40.439450" lon="-5.388133">
        <ele>1876.0</ele>
        <time>2018-06-17T12:15:55Z</time>
      </trkpt>
      <trkpt lat="40.439483" lon="-5.388183">
        <ele>1875.0</ele>
        <time>2018-06-17T12:15:56Z</time>
      </trkpt>
      <trkpt lat="40.439533" lon="-5.388233">
        <ele>1873.0</ele>
        <time>2018-06-17T12:15:57Z</time>
      </trkpt>
      <trkpt lat="40.439567" lon="-5.388283">
        <ele>1871.0</ele>
        <time>2018-06-17T12:15:58Z</time>
      </trkpt>
      <trkpt lat="40.439617" lon="-5.388350">
        <ele>1869.0</ele>
        <time>2018-06-17T12:15:59Z</time>
      </trkpt>
      <trkpt lat="40.439650" lon="-5.388400">
        <ele>1867.0</ele>
        <time>2018-06-17T12:16:00Z</time>
      </trkpt>
      <trkpt lat="40.439700" lon="-5.388433">
        <ele>1864.0</ele>
        <time>2018-06-17T12:16:01Z</time>
      </trkpt>
      <trkpt lat="40.439733" lon="-5.388483">
        <ele>1862.0</ele>
        <time>2018-06-17T12:16:02Z</time>
      </trkpt>
      <trkpt lat="40.439783" lon="-5.388550">
        <ele>1859.0</ele>
        <time>2018-06-17T12:16:03Z</time>
      </trkpt>
      <trkpt lat="40.439817" lon="-5.388600">
        <ele>1857.0</ele>
        <time>2018-06-17T12:16:04Z</time>
      </trkpt>
      <trkpt lat="40.439850" lon="-5.388650">
        <ele>1854.0</ele>
        <time>2018-06-17T12:16:05Z</time>
      </trkpt>
      <trkpt lat="40.439883" lon="-5.388717">
        <ele>1850.0</ele>
        <time>2018-06-17T12:16:06Z</time>
      </trkpt>
      <trkpt lat="40.439950" lon="-5.388767">
        <ele>1847.0</ele>
        <time>2018-06-17T12:16:07Z</time>
      </trkpt>
      <trkpt lat="40.440000" lon="-5.388850">
        <ele>1844.0</ele>
        <time>2018-06-17T12:16:08Z</time>
      </trkpt>
      <trkpt lat="40.440067" lon="-5.388917">
        <ele>1843.0</ele>
        <time>2018-06-17T12:16:09Z</time>
      </trkpt>
      <trkpt lat="40.440117" lon="-5.388983">
        <ele>1843.0</ele>
        <time>2018-06-17T12:16:10Z</time>
      </trkpt>
      <trkpt lat="40.440167" lon="-5.389033">
        <ele>1842.0</ele>
        <time>2018-06-17T12:16:11Z</time>
      </trkpt>
      <trkpt lat="40.440200" lon="-5.389067">
        <ele>1841.0</ele>
        <time>2018-06-17T12:16:12Z</time>
      </trkpt>
      <trkpt lat="40.440250" lon="-5.389083">
        <ele>1839.0</ele>
        <time>2018-06-17T12:16:13Z</time>
      </trkpt>
      <trkpt lat="40.440300" lon="-5.389100">
        <ele>1837.0</ele>
        <time>2018-06-17T12:16:14Z</time>
      </trkpt>
      <trkpt lat="40.440333" lon="-5.389167">
        <ele>1835.0</ele>
        <time>2018-06-17T12:16:15Z</time>
      </trkpt>
      <trkpt lat="40.440383" lon="-5.389250">
        <ele>1831.0</ele>
        <time>2018-06-17T12:16:16Z</time>
      </trkpt>
      <trkpt lat="40.440433" lon="-5.389333">
        <ele>1828.0</ele>
        <time>2018-06-17T12:16:17Z</time>
      </trkpt>
      <trkpt lat="40.440483" lon="-5.389417">
        <ele>1825.0</ele>
        <time>2018-06-17T12:16:18Z</time>
      </trkpt>
      <trkpt lat="40.440533" lon="-5.389500">
        <ele>1823.0</ele>
        <time>2018-06-17T12:16:19Z</time>
      </trkpt>
      <trkpt lat="40.440583" lon="-5.389567">
        <ele>1822.0</ele>
        <time>2018-06-17T12:16:20Z</time>
      </trkpt>
      <trkpt lat="40.440633" lon="-5.389617">
        <ele>1821.0</ele>
        <time>2018-06-17T12:16:21Z</time>
      </trkpt>
      <trkpt lat="40.440683" lon="-5.389667">
        <ele>1819.0</ele>
        <time>2018-06-17T12:16:22Z</time>
      </trkpt>
      <trkpt lat="40.440733" lon="-5.389733">
        <ele>1817.0</ele>
        <time>2018-06-17T12:16:23Z</time>
      </trkpt>
      <trkpt lat="40.440783" lon="-5.389817">
        <ele>1815.0</ele>
        <time>2018-06-17T12:16:24Z</time>
      </trkpt>
      <trkpt lat="40.440833" lon="-5.389883">
        <ele>1814.0</ele>
        <time>2018-06-17T12:16:25Z</time>
      </trkpt>
      <trkpt lat="40.440883" lon="-5.389950">
        <ele>1813.0</ele>
        <time>2018-06-17T12:16:26Z</time>
      </trkpt>
      <trkpt lat="40.440933" lon="-5.390017">
        <ele>1812.0</ele>
        <time>2018-06-17T12:16:27Z</time>
      </trkpt>
      <trkpt lat="40.440983" lon="-5.390050">
        <ele>1811.0</ele>
        <time>2018-06-17T12:16:28Z</time>
      </trkpt>
      <trkpt lat="40.441033" lon="-5.390100">
        <ele>1810.0</ele>
        <time>2018-06-17T12:16:29Z</time>
      </trkpt>
      <trkpt lat="40.441083" lon="-5.390133">
        <ele>1809.0</ele>
        <time>2018-06-17T12:16:30Z</time>
      </trkpt>
      <trkpt lat="40.441133" lon="-5.390167">
        <ele>1809.0</ele>
        <time>2018-06-17T12:16:31Z</time>
      </trkpt>
      <trkpt lat="40.441183" lon="-5.390200">
        <ele>1809.0</ele>
        <time>2018-06-17T12:16:32Z</time>
      </trkpt>
      <trkpt lat="40.441217" lon="-5.390233">
        <ele>1808.0</ele>
        <time>2018-06-17T12:16:33Z</time>
      </trkpt>
      <trkpt lat="40.441267" lon="-5.390233">
        <ele>1806.0</ele>
        <time>2018-06-17T12:16:34Z</time>
      </trkpt>
      <trkpt lat="40.441333" lon="-5.390233">
        <ele>1805.0</ele>
        <time>2018-06-17T12:16:35Z</time>
      </trkpt>
      <trkpt lat="40.441400" lon="-5.390250">
        <ele>1805.0</ele>
        <time>2018-06-17T12:16:36Z</time>
      </trkpt>
      <trkpt lat="40.441450" lon="-5.390283">
        <ele>1806.0</ele>
        <time>2018-06-17T12:16:37Z</time>
      </trkpt>
      <trkpt lat="40.441500" lon="-5.390333">
        <ele>1807.0</ele>
        <time>2018-06-17T12:16:38Z</time>
      </trkpt>
      <trkpt lat="40.441550" lon="-5.390400">
        <ele>1809.0</ele>
        <time>2018-06-17T12:16:39Z</time>
      </trkpt>
      <trkpt lat="40.441583" lon="-5.390467">
        <ele>1811.0</ele>
        <time>2018-06-17T12:16:40Z</time>
      </trkpt>
      <trkpt lat="40.441600" lon="-5.390517">
        <ele>1812.0</ele>
        <time>2018-06-17T12:16:41Z</time>
      </trkpt>
      <trkpt lat="40.441633" lon="-5.390550">
        <ele>1813.0</ele>
        <time>2018-06-17T12:16:42Z</time>
      </trkpt>
      <trkpt lat="40.441667" lon="-5.390567">
        <ele>1814.0</ele>
        <time>2018-06-17T12:16:43Z</time>
      </trkpt>
      <trkpt lat="40.441683" lon="-5.390567">
        <ele>1815.0</ele>
        <time>2018-06-17T12:16:44Z</time>
      </trkpt>
      <trkpt lat="40.441717" lon="-5.390533">
        <ele>1815.0</ele>
        <time>2018-06-17T12:16:45Z</time>
      </trkpt>
      <trkpt lat="40.441717" lon="-5.390450">
        <ele>1814.0</ele>
        <time>2018-06-17T12:16:46Z</time>
      </trkpt>
      <trkpt lat="40.441700" lon="-5.390350">
        <ele>1814.0</ele>
        <time>2018-06-17T12:16:47Z</time>
      </trkpt>
      <trkpt lat="40.441633" lon="-5.390233">
        <ele>1814.0</ele>
        <time>2018-06-17T12:16:48Z</time>
      </trkpt>
      <trkpt lat="40.441533" lon="-5.390150">
        <ele>1815.0</ele>
        <time>2018-06-17T12:16:49Z</time>
      </trkpt>
      <trkpt lat="40.441417" lon="-5.390117">
        <ele>1816.0</ele>
        <time>2018-06-17T12:16:50Z</time>
      </trkpt>
      <trkpt lat="40.441300" lon="-5.390100">
        <ele>1816.0</ele>
        <time>2018-06-17T12:16:51Z</time>
      </trkpt>
      <trkpt lat="40.441183" lon="-5.390117">
        <ele>1815.0</ele>
        <time>2018-06-17T12:16:52Z</time>
      </trkpt>
      <trkpt lat="40.441067" lon="-5.390167">
        <ele>1813.0</ele>
        <time>2018-06-17T12:16:53Z</time>
      </trkpt>
      <trkpt lat="40.440950" lon="-5.390250">
        <ele>1810.0</ele>
        <time>2018-06-17T12:16:54Z</time>
      </trkpt>
      <trkpt lat="40.440850" lon="-5.390383">
        <ele>1807.0</ele>
        <time>2018-06-17T12:16:55Z</time>
      </trkpt>
      <trkpt lat="40.440750" lon="-5.390533">
        <ele>1805.0</ele>
        <time>2018-06-17T12:16:56Z</time>
      </trkpt>
      <trkpt lat="40.440700" lon="-5.390700">
        <ele>1804.0</ele>
        <time>2018-06-17T12:16:57Z</time>
      </trkpt>
      <trkpt lat="40.440667" lon="-5.390867">
        <ele>1804.0</ele>
        <time>2018-06-17T12:16:58Z</time>
      </trkpt>
      <trkpt lat="40.440683" lon="-5.391017">
        <ele>1805.0</ele>
        <time>2018-06-17T12:16:59Z</time>
      </trkpt>
      <trkpt lat="40.440700" lon="-5.391133">
        <ele>1806.0</ele>
        <time>2018-06-17T12:17:00Z</time>
      </trkpt>
      <trkpt lat="40.440717" lon="-5.391233">
        <ele>1807.0</ele>
        <time>2018-06-17T12:17:01Z</time>
      </trkpt>
      <trkpt lat="40.440733" lon="-5.391333">
        <ele>1807.0</ele>
        <time>2018-06-17T12:17:02Z</time>
      </trkpt>
      <trkpt lat="40.440750" lon="-5.391400">
        <ele>1807.0</ele>
        <time>2018-06-17T12:17:03Z</time>
      </trkpt>
      <trkpt lat="40.440783" lon="-5.391467">
        <ele>1806.0</ele>
        <time>2018-06-17T12:17:04Z</time>
      </trkpt>
      <trkpt lat="40.440833" lon="-5.391517">
        <ele>1804.0</ele>
        <time>2018-06-17T12:17:05Z</time>
      </trkpt>
      <trkpt lat="40.440883" lon="-5.391550">
        <ele>1803.0</ele>
        <time>2018-06-17T12:17:06Z</time>
      </trkpt>
      <trkpt lat="40.440950" lon="-5.391567">
        <ele>1802.0</ele>
        <time>2018-06-17T12:17:07Z</time>
      </trkpt>
      <trkpt lat="40.441000" lon="-5.391567">
        <ele>1802.0</ele>
        <time>2018-06-17T12:17:08Z</time>
      </trkpt>
      <trkpt lat="40.441033" lon="-5.391567">
        <ele>1803.0</ele>
        <time>2018-06-17T12:17:09Z</time>
      </trkpt>
      <trkpt lat="40.441067" lon="-5.391533">
        <ele>1804.0</ele>
        <time>2018-06-17T12:17:10Z</time>
      </trkpt>
      <trkpt lat="40.441100" lon="-5.391517">
        <ele>1804.0</ele>
        <time>2018-06-17T12:17:11Z</time>
      </trkpt>
      <trkpt lat="40.441133" lon="-5.391517">
        <ele>1803.0</ele>
        <time>2018-06-17T12:17:12Z</time>
      </trkpt>
      <trkpt lat="40.441167" lon="-5.391500">
        <ele>1801.0</ele>
        <time>2018-06-17T12:17:13Z</time>
      </trkpt>
      <trkpt lat="40.441217" lon="-5.391500">
        <ele>1799.0</ele>
        <time>2018-06-17T12:17:14Z</time>
      </trkpt>
      <trkpt lat="40.441267" lon="-5.391467">
        <ele>1798.0</ele>
        <time>2018-06-17T12:17:15Z</time>
      </trkpt>
      <trkpt lat="40.441317" lon="-5.391450">
        <ele>1797.0</ele>
        <time>2018-06-17T12:17:16Z</time>
      </trkpt>
      <trkpt lat="40.441367" lon="-5.391433">
        <ele>1797.0</ele>
        <time>2018-06-17T12:17:17Z</time>
      </trkpt>
      <trkpt lat="40.441417" lon="-5.391417">
        <ele>1797.0</ele>
        <time>2018-06-17T12:17:18Z</time>
      </trkpt>
      <trkpt lat="40.441450" lon="-5.391417">
        <ele>1796.0</ele>
        <time>2018-06-17T12:17:19Z</time>
      </trkpt>
      <trkpt lat="40.441500" lon="-5.391400">
        <ele>1795.0</ele>
        <time>2018-06-17T12:17:20Z</time>
      </trkpt>
      <trkpt lat="40.441533" lon="-5.391400">
        <ele>1794.0</ele>
        <time>2018-06-17T12:17:21Z</time>
      </trkpt>
      <trkpt lat="40.441583" lon="-5.391367">
        <ele>1792.0</ele>
        <time>2018-06-17T12:17:22Z</time>
      </trkpt>
      <trkpt lat="40.441633" lon="-5.391333">
        <ele>1791.0</ele>
        <time>2018-06-17T12:17:23Z</time>
      </trkpt>
      <trkpt lat="40.441683" lon="-5.391333">
        <ele>1789.0</ele>
        <time>2018-06-17T12:17:24Z</time>
      </trkpt>
      <trkpt lat="40.441733" lon="-5.391350">
        <ele>1787.0</ele>
        <time>2018-06-17T12:17:25Z</time>
      </trkpt>
      <trkpt lat="40.441783" lon="-5.391350">
        <ele>1785.0</ele>
        <time>2018-06-17T12:17:26Z</time>
      </trkpt>
      <trkpt lat="40.441817" lon="-5.391317">
        <ele>1782.0</ele>
        <time>2018-06-17T12:17:27Z</time>
      </trkpt>
      <trkpt lat="40.441867" lon="-5.391267">
        <ele>1780.0</ele>
        <time>2018-06-17T12:17:28Z</time>
      </trkpt>
      <trkpt lat="40.441900" lon="-5.391217">
        <ele>1778.0</ele>
        <time>2018-06-17T12:17:29Z</time>
      </trkpt>
      <trkpt lat="40.441933" lon="-5.391167">
        <ele>1776.0</ele>
        <time>2018-06-17T12:17:30Z</time>
      </trkpt>
      <trkpt lat="40.441983" lon="-5.391133">
        <ele>1774.0</ele>
        <time>2018-06-17T12:17:31Z</time>
      </trkpt>
      <trkpt lat="40.442017" lon="-5.391100">
        <ele>1771.0</ele>
        <time>2018-06-17T12:17:32Z</time>
      </trkpt>
      <trkpt lat="40.442067" lon="-5.391067">
        <ele>1769.0</ele>
        <time>2018-06-17T12:17:33Z</time>
      </trkpt>
      <trkpt lat="40.442100" lon="-5.391033">
        <ele>1767.0</ele>
        <time>2018-06-17T12:17:34Z</time>
      </trkpt>
      <trkpt lat="40.442150" lon="-5.391017">
        <ele>1766.0</ele>
        <time>2018-06-17T12:17:35Z</time>
      </trkpt>
      <trkpt lat="40.442200" lon="-5.391000">
        <ele>1764.0</ele>
        <time>2018-06-17T12:17:36Z</time>
      </trkpt>
      <trkpt lat="40.442250" lon="-5.391000">
        <ele>1763.0</ele>
        <time>2018-06-17T12:17:37Z</time>
      </trkpt>
      <trkpt lat="40.442283" lon="-5.390983">
        <ele>1762.0</ele>
        <time>2018-06-17T12:17:38Z</time>
      </trkpt>
      <trkpt lat="40.442300" lon="-5.390983">
        <ele>1762.0</ele>
        <time>2018-06-17T12:17:39Z</time>
      </trkpt>
      <trkpt lat="40.442317" lon="-5.390967">
        <ele>1760.0</ele>
        <time>2018-06-17T12:17:40Z</time>
      </trkpt>
      <trkpt lat="40.442350" lon="-5.390950">
        <ele>1757.0</ele>
        <time>2018-06-17T12:17:41Z</time>
      </trkpt>
      <trkpt lat="40.442383" lon="-5.390933">
        <ele>1753.0</ele>
        <time>2018-06-17T12:17:42Z</time>
      </trkpt>
      <trkpt lat="40.442433" lon="-5.390917">
        <ele>1749.0</ele>
        <time>2018-06-17T12:17:43Z</time>
      </trkpt>
      <trkpt lat="40.442483" lon="-5.390917">
        <ele>1747.0</ele>
        <time>2018-06-17T12:17:44Z</time>
      </trkpt>
      <trkpt lat="40.442533" lon="-5.390900">
        <ele>1746.0</ele>
        <time>2018-06-17T12:17:45Z</time>
      </trkpt>
      <trkpt lat="40.442583" lon="-5.390917">
        <ele>1745.0</ele>
        <time>2018-06-17T12:17:46Z</time>
      </trkpt>
      <trkpt lat="40.442617" lon="-5.390917">
        <ele>1743.0</ele>
        <time>2018-06-17T12:17:47Z</time>
      </trkpt>
      <trkpt lat="40.442667" lon="-5.390950">
        <ele>1740.0</ele>
        <time>2018-06-17T12:17:48Z</time>
      </trkpt>
      <trkpt lat="40.442717" lon="-5.390967">
        <ele>1737.0</ele>
        <time>2018-06-17T12:17:49Z</time>
      </trkpt>
      <trkpt lat="40.442783" lon="-5.390983">
        <ele>1733.0</ele>
        <time>2018-06-17T12:17:50Z</time>
      </trkpt>
      <trkpt lat="40.442833" lon="-5.391000">
        <ele>1732.0</ele>
        <time>2018-06-17T12:17:51Z</time>
      </trkpt>
      <trkpt lat="40.442900" lon="-5.391000">
        <ele>1731.0</ele>
        <time>2018-06-17T12:17:52Z</time>
      </trkpt>
      <trkpt lat="40.442933" lon="-5.391000">
        <ele>1731.0</ele>
        <time>2018-06-17T12:17:53Z</time>
      </trkpt>
      <trkpt lat="40.442967" lon="-5.391000">
        <ele>1729.0</ele>
        <time>2018-06-17T12:17:54Z</time>
      </trkpt>
      <trkpt lat="40.443000" lon="-5.390983">
        <ele>1727.0</ele>
        <time>2018-06-17T12:17:55Z</time>
      </trkpt>
      <trkpt lat="40.443050" lon="-5.390950">
        <ele>1724.0</ele>
        <time>2018-06-17T12:17:56Z</time>
      </trkpt>
      <trkpt lat="40.443100" lon="-5.390933">
        <ele>1721.0</ele>
        <time>2018-06-17T12:17:57Z</time>
      </trkpt>
      <trkpt lat="40.443150" lon="-5.390917">
        <ele>1718.0</ele>
        <time>2018-06-17T12:17:58Z</time>
      </trkpt>
      <trkpt lat="40.443183" lon="-5.390900">
        <ele>1716.0</ele>
        <time>2018-06-17T12:17:59Z</time>
      </trkpt>
      <trkpt lat="40.443233" lon="-5.390883">
        <ele>1714.0</ele>
        <time>2018-06-17T12:18:00Z</time>
      </trkpt>
      <trkpt lat="40.443283" lon="-5.390883">
        <ele>1712.0</ele>
        <time>2018-06-17T12:18:01Z</time>
      </trkpt>
      <trkpt lat="40.443333" lon="-5.390883">
        <ele>1709.0</ele>
        <time>2018-06-17T12:18:02Z</time>
      </trkpt>
      <trkpt lat="40.443383" lon="-5.390883">
        <ele>1707.0</ele>
        <time>2018-06-17T12:18:03Z</time>
      </trkpt>
      <trkpt lat="40.443417" lon="-5.390883">
        <ele>1704.0</ele>
        <time>2018-06-17T12:18:04Z</time>
      </trkpt>
      <trkpt lat="40.443467" lon="-5.390850">
        <ele>1701.0</ele>
        <time>2018-06-17T12:18:05Z</time>
      </trkpt>
      <trkpt lat="40.443500" lon="-5.390833">
        <ele>1698.0</ele>
        <time>2018-06-17T12:18:06Z</time>
      </trkpt>
      <trkpt lat="40.443550" lon="-5.390833">
        <ele>1694.0</ele>
        <time>2018-06-17T12:18:07Z</time>
      </trkpt>
      <trkpt lat="40.443617" lon="-5.390833">
        <ele>1691.0</ele>
        <time>2018-06-17T12:18:08Z</time>
      </trkpt>
      <trkpt lat="40.443667" lon="-5.390833">
        <ele>1688.0</ele>
        <time>2018-06-17T12:18:09Z</time>
      </trkpt>
      <trkpt lat="40.443700" lon="-5.390883">
        <ele>1686.0</ele>
        <time>2018-06-17T12:18:10Z</time>
      </trkpt>
      <trkpt lat="40.443750" lon="-5.390933">
        <ele>1684.0</ele>
        <time>2018-06-17T12:18:11Z</time>
      </trkpt>
      <trkpt lat="40.443767" lon="-5.391017">
        <ele>1683.0</ele>
        <time>2018-06-17T12:18:12Z</time>
      </trkpt>
      <trkpt lat="40.443783" lon="-5.391117">
        <ele>1682.0</ele>
        <time>2018-06-17T12:18:13Z</time>
      </trkpt>
      <trkpt lat="40.443783" lon="-5.391217">
        <ele>1680.0</ele>
        <time>2018-06-17T12:18:14Z</time>
      </trkpt>
      <trkpt lat="40.443767" lon="-5.391317">
        <ele>1678.0</ele>
        <time>2018-06-17T12:18:15Z</time>
      </trkpt>
      <trkpt lat="40.443767" lon="-5.391433">
        <ele>1676.0</ele>
        <time>2018-06-17T12:18:16Z</time>
      </trkpt>
      <trkpt lat="40.443733" lon="-5.391550">
        <ele>1674.0</ele>
        <time>2018-06-17T12:18:17Z</time>
      </trkpt>
      <trkpt lat="40.443700" lon="-5.391667">
        <ele>1671.0</ele>
        <time>2018-06-17T12:18:18Z</time>
      </trkpt>
      <trkpt lat="40.443667" lon="-5.391800">
        <ele>1667.0</ele>
        <time>2018-06-17T12:18:19Z</time>
      </trkpt>
      <trkpt lat="40.443633" lon="-5.391933">
        <ele>1663.0</ele>
        <time>2018-06-17T12:18:20Z</time>
      </trkpt>
      <trkpt lat="40.443633" lon="-5.392050">
        <ele>1660.0</ele>
        <time>2018-06-17T12:18:21Z</time>
      </trkpt>
      <trkpt lat="40.443617" lon="-5.392167">
        <ele>1658.0</ele>
        <time>2018-06-17T12:18:22Z</time>
      </trkpt>
      <trkpt lat="40.443600" lon="-5.392267">
        <ele>1655.0</ele>
        <time>2018-06-17T12:18:23Z</time>
      </trkpt>
      <trkpt lat="40.443583" lon="-5.392383">
        <ele>1652.0</ele>
        <time>2018-06-17T12:18:24Z</time>
      </trkpt>
      <trkpt lat="40.443567" lon="-5.392483">
        <ele>1648.0</ele>
        <time>2018-06-17T12:18:25Z</time>
      </trkpt>
      <trkpt lat="40.443550" lon="-5.392600">
        <ele>1645.0</ele>
        <time>2018-06-17T12:18:26Z</time>
      </trkpt>
      <trkpt lat="40.443533" lon="-5.392733">
        <ele>1641.0</ele>
        <time>2018-06-17T12:18:27Z</time>
      </trkpt>
      <trkpt lat="40.443517" lon="-5.392867">
        <ele>1640.0</ele>
        <time>2018-06-17T12:18:28Z</time>
      </trkpt>
      <trkpt lat="40.443483" lon="-5.393000">
        <ele>1640.0</ele>
        <time>2018-06-17T12:18:29Z</time>
      </trkpt>
      <trkpt lat="40.443467" lon="-5.393117">
        <ele>1641.0</ele>
        <time>2018-06-17T12:18:30Z</time>
      </trkpt>
      <trkpt lat="40.443450" lon="-5.393233">
        <ele>1640.0</ele>
        <time>2018-06-17T12:18:31Z</time>
      </trkpt>
      <trkpt lat="40.443450" lon="-5.393350">
        <ele>1640.0</ele>
        <time>2018-06-17T12:18:32Z</time>
      </trkpt>
      <trkpt lat="40.443433" lon="-5.393483">
        <ele>1640.0</ele>
        <time>2018-06-17T12:18:33Z</time>
      </trkpt>
      <trkpt lat="40.443417" lon="-5.393600">
        <ele>1639.0</ele>
        <time>2018-06-17T12:18:34Z</time>
      </trkpt>
      <trkpt lat="40.443417" lon="-5.393717">
        <ele>1639.0</ele>
        <time>2018-06-17T12:18:35Z</time>
      </trkpt>
      <trkpt lat="40.443433" lon="-5.393817">
        <ele>1638.0</ele>
        <time>2018-06-17T12:18:36Z</time>
      </trkpt>
      <trkpt lat="40.443450" lon="-5.393933">
        <ele>1638.0</ele>
        <time>2018-06-17T12:18:37Z</time>
      </trkpt>
      <trkpt lat="40.443450" lon="-5.394033">
        <ele>1639.0</ele>
        <time>2018-06-17T12:18:38Z</time>
      </trkpt>
      <trkpt lat="40.443450" lon="-5.394167">
        <ele>1640.0</ele>
        <time>2018-06-17T12:18:39Z</time>
      </trkpt>
      <trkpt lat="40.443433" lon="-5.394300">
        <ele>1641.0</ele>
        <time>2018-06-17T12:18:40Z</time>
      </trkpt>
      <trkpt lat="40.443400" lon="-5.394433">
        <ele>1641.0</ele>
        <time>2018-06-17T12:18:41Z</time>
      </trkpt>
      <trkpt lat="40.443367" lon="-5.394567">
        <ele>1640.0</ele>
        <time>2018-06-17T12:18:42Z</time>
      </trkpt>
      <trkpt lat="40.443350" lon="-5.394717">
        <ele>1639.0</ele>
        <time>2018-06-17T12:18:43Z</time>
      </trkpt>
      <trkpt lat="40.443333" lon="-5.394867">
        <ele>1638.0</ele>
        <time>2018-06-17T12:18:44Z</time>
      </trkpt>
      <trkpt lat="40.443333" lon="-5.395000">
        <ele>1637.0</ele>
        <time>2018-06-17T12:18:45Z</time>
      </trkpt>
      <trkpt lat="40.443333" lon="-5.395150">
        <ele>1637.0</ele>
        <time>2018-06-17T12:18:46Z</time>
      </trkpt>
      <trkpt lat="40.443317" lon="-5.395317">
        <ele>1636.0</ele>
        <time>2018-06-17T12:18:47Z</time>
      </trkpt>
      <trkpt lat="40.443300" lon="-5.395500">
        <ele>1635.0</ele>
        <time>2018-06-17T12:18:48Z</time>
      </trkpt>
      <trkpt lat="40.443300" lon="-5.395667">
        <ele>1635.0</ele>
        <time>2018-06-17T12:18:49Z</time>
      </trkpt>
      <trkpt lat="40.443283" lon="-5.395817">
        <ele>1636.0</ele>
        <time>2018-06-17T12:18:50Z</time>
      </trkpt>
      <trkpt lat="40.443283" lon="-5.395950">
        <ele>1637.0</ele>
        <time>2018-06-17T12:18:51Z</time>
      </trkpt>
      <trkpt lat="40.443267" lon="-5.396083">
        <ele>1637.0</ele>
        <time>2018-06-17T12:18:52Z</time>
      </trkpt>
      <trkpt lat="40.443250" lon="-5.396233">
        <ele>1636.0</ele>
        <time>2018-06-17T12:18:53Z</time>
      </trkpt>
      <trkpt lat="40.443217" lon="-5.396383">
        <ele>1634.0</ele>
        <time>2018-06-17T12:18:54Z</time>
      </trkpt>
      <trkpt lat="40.443167" lon="-5.396550">
        <ele>1632.0</ele>
        <time>2018-06-17T12:18:55Z</time>
      </trkpt>
      <trkpt lat="40.443100" lon="-5.396700">
        <ele>1631.0</ele>
        <time>2018-06-17T12:18:56Z</time>
      </trkpt>
      <trkpt lat="40.443033" lon="-5.396833">
        <ele>1629.0</ele>
        <time>2018-06-17T12:18:57Z</time>
      </trkpt>
      <trkpt lat="40.442983" lon="-5.396967">
        <ele>1627.0</ele>
        <time>2018-06-17T12:18:58Z</time>
      </trkpt>
      <trkpt lat="40.442917" lon="-5.397117">
        <ele>1624.0</ele>
        <time>2018-06-17T12:18:59Z</time>
      </trkpt>
      <trkpt lat="40.442850" lon="-5.397267">
        <ele>1620.0</ele>
        <time>2018-06-17T12:19:00Z</time>
      </trkpt>
      <trkpt lat="40.442783" lon="-5.397417">
        <ele>1619.0</ele>
        <time>2018-06-17T12:19:01Z</time>
      </trkpt>
      <trkpt lat="40.442717" lon="-5.397567">
        <ele>1619.0</ele>
        <time>2018-06-17T12:19:02Z</time>
      </trkpt>
      <trkpt lat="40.442667" lon="-5.397700">
        <ele>1620.0</ele>
        <time>2018-06-17T12:19:03Z</time>
      </trkpt>
      <trkpt lat="40.442617" lon="-5.397850">
        <ele>1622.0</ele>
        <time>2018-06-17T12:19:04Z</time>
      </trkpt>
      <trkpt lat="40.442567" lon="-5.398000">
        <ele>1624.0</ele>
        <time>2018-06-17T12:19:05Z</time>
      </trkpt>
      <trkpt lat="40.442517" lon="-5.398150">
        <ele>1626.0</ele>
        <time>2018-06-17T12:19:06Z</time>
      </trkpt>
      <trkpt lat="40.442483" lon="-5.398267">
        <ele>1627.0</ele>
        <time>2018-06-17T12:19:07Z</time>
      </trkpt>
      <trkpt lat="40.442483" lon="-5.398350">
        <ele>1626.0</ele>
        <time>2018-06-17T12:19:08Z</time>
      </trkpt>
      <trkpt lat="40.442500" lon="-5.398400">
        <ele>1625.0</ele>
        <time>2018-06-17T12:19:09Z</time>
      </trkpt>
      <trkpt lat="40.442550" lon="-5.398400">
        <ele>1625.0</ele>
        <time>2018-06-17T12:19:10Z</time>
      </trkpt>
      <trkpt lat="40.442567" lon="-5.398383">
        <ele>1627.0</ele>
        <time>2018-06-17T12:19:11Z</time>
      </trkpt>
      <trkpt lat="40.442550" lon="-5.398350">
        <ele>1627.0</ele>
        <time>2018-06-17T12:19:12Z</time>
      </trkpt>
      <trkpt lat="40.442500" lon="-5.398267">
        <ele>1627.0</ele>
        <time>2018-06-17T12:19:13Z</time>
      </trkpt>
      <trkpt lat="40.442383" lon="-5.398200">
        <ele>1624.0</ele>
        <time>2018-06-17T12:19:14Z</time>
      </trkpt>
      <trkpt lat="40.442233" lon="-5.398150">
        <ele>1623.0</ele>
        <time>2018-06-17T12:19:15Z</time>
      </trkpt>
      <trkpt lat="40.442067" lon="-5.398117">
        <ele>1623.0</ele>
        <time>2018-06-17T12:19:16Z</time>
      </trkpt>
      <trkpt lat="40.441917" lon="-5.398133">
        <ele>1625.0</ele>
        <time>2018-06-17T12:19:17Z</time>
      </trkpt>
      <trkpt lat="40.441767" lon="-5.398183">
        <ele>1626.0</ele>
        <time>2018-06-17T12:19:18Z</time>
      </trkpt>
      <trkpt lat="40.441650" lon="-5.398250">
        <ele>1626.0</ele>
        <time>2018-06-17T12:19:19Z</time>
      </trkpt>
      <trkpt lat="40.441517" lon="-5.398367">
        <ele>1624.0</ele>
        <time>2018-06-17T12:19:20Z</time>
      </trkpt>
      <trkpt lat="40.441417" lon="-5.398500">
        <ele>1621.0</ele>
        <time>2018-06-17T12:19:21Z</time>
      </trkpt>
      <trkpt lat="40.441350" lon="-5.398683">
        <ele>1618.0</ele>
        <time>2018-06-17T12:19:22Z</time>
      </trkpt>
      <trkpt lat="40.441300" lon="-5.398867">
        <ele>1614.0</ele>
        <time>2018-06-17T12:19:23Z</time>
      </trkpt>
      <trkpt lat="40.441267" lon="-5.399083">
        <ele>1612.0</ele>
        <time>2018-06-17T12:19:24Z</time>
      </trkpt>
      <trkpt lat="40.441233" lon="-5.399283">
        <ele>1611.0</ele>
        <time>2018-06-17T12:19:25Z</time>
      </trkpt>
      <trkpt lat="40.441200" lon="-5.399450">
        <ele>1611.0</ele>
        <time>2018-06-17T12:19:26Z</time>
      </trkpt>
      <trkpt lat="40.441200" lon="-5.399583">
        <ele>1609.0</ele>
        <time>2018-06-17T12:19:27Z</time>
      </trkpt>
      <trkpt lat="40.441200" lon="-5.399717">
        <ele>1607.0</ele>
        <time>2018-06-17T12:19:28Z</time>
      </trkpt>
      <trkpt lat="40.441200" lon="-5.399883">
        <ele>1604.0</ele>
        <time>2018-06-17T12:19:29Z</time>
      </trkpt>
      <trkpt lat="40.441217" lon="-5.400067">
        <ele>1602.0</ele>
        <time>2018-06-17T12:19:30Z</time>
      </trkpt>
      <trkpt lat="40.441217" lon="-5.400250">
        <ele>1602.0</ele>
        <time>2018-06-17T12:19:31Z</time>
      </trkpt>
      <trkpt lat="40.441233" lon="-5.400417">
        <ele>1602.0</ele>
        <time>2018-06-17T12:19:32Z</time>
      </trkpt>
      <trkpt lat="40.441233" lon="-5.400600">
        <ele>1603.0</ele>
        <time>2018-06-17T12:19:33Z</time>
      </trkpt>
      <trkpt lat="40.441217" lon="-5.400783">
        <ele>1605.0</ele>
        <time>2018-06-17T12:19:34Z</time>
      </trkpt>
      <trkpt lat="40.441217" lon="-5.400950">
        <ele>1607.0</ele>
        <time>2018-06-17T12:19:35Z</time>
      </trkpt>
      <trkpt lat="40.441217" lon="-5.401083">
        <ele>1609.0</ele>
        <time>2018-06-17T12:19:36Z</time>
      </trkpt>
      <trkpt lat="40.441217" lon="-5.401183">
        <ele>1610.0</ele>
        <time>2018-06-17T12:19:37Z</time>
      </trkpt>
      <trkpt lat="40.441217" lon="-5.401283">
        <ele>1609.0</ele>
        <time>2018-06-17T12:19:38Z</time>
      </trkpt>
      <trkpt lat="40.441200" lon="-5.401383">
        <ele>1606.0</ele>
        <time>2018-06-17T12:19:39Z</time>
      </trkpt>
      <trkpt lat="40.441150" lon="-5.401517">
        <ele>1602.0</ele>
        <time>2018-06-17T12:19:40Z</time>
      </trkpt>
      <trkpt lat="40.441100" lon="-5.401683">
        <ele>1599.0</ele>
        <time>2018-06-17T12:19:41Z</time>
      </trkpt>
      <trkpt lat="40.441067" lon="-5.401850">
        <ele>1596.0</ele>
        <time>2018-06-17T12:19:42Z</time>
      </trkpt>
      <trkpt lat="40.441050" lon="-5.402000">
        <ele>1596.0</ele>
        <time>2018-06-17T12:19:43Z</time>
      </trkpt>
      <trkpt lat="40.441067" lon="-5.402117">
        <ele>1596.0</ele>
        <time>2018-06-17T12:19:44Z</time>
      </trkpt>
      <trkpt lat="40.441067" lon="-5.402217">
        <ele>1595.0</ele>
        <time>2018-06-17T12:19:45Z</time>
      </trkpt>
      <trkpt lat="40.441067" lon="-5.402317">
        <ele>1592.0</ele>
        <time>2018-06-17T12:19:46Z</time>
      </trkpt>
      <trkpt lat="40.441033" lon="-5.402433">
        <ele>1588.0</ele>
        <time>2018-06-17T12:19:47Z</time>
      </trkpt>
      <trkpt lat="40.441017" lon="-5.402550">
        <ele>1584.0</ele>
        <time>2018-06-17T12:19:48Z</time>
      </trkpt>
      <trkpt lat="40.440983" lon="-5.402667">
        <ele>1579.0</ele>
        <time>2018-06-17T12:19:49Z</time>
      </trkpt>
      <trkpt lat="40.440950" lon="-5.402800">
        <ele>1574.0</ele>
        <time>2018-06-17T12:19:50Z</time>
      </trkpt>
      <trkpt lat="40.440900" lon="-5.402933">
        <ele>1571.0</ele>
        <time>2018-06-17T12:19:51Z</time>
      </trkpt>
      <trkpt lat="40.440817" lon="-5.403067">
        <ele>1569.0</ele>
        <time>2018-06-17T12:19:52Z</time>
      </trkpt>
      <trkpt lat="40.440717" lon="-5.403200">
        <ele>1567.0</ele>
        <time>2018-06-17T12:19:53Z</time>
      </trkpt>
      <trkpt lat="40.440617" lon="-5.403333">
        <ele>1568.0</ele>
        <time>2018-06-17T12:19:54Z</time>
      </trkpt>
      <trkpt lat="40.440500" lon="-5.403433">
        <ele>1570.0</ele>
        <time>2018-06-17T12:19:55Z</time>
      </trkpt>
      <trkpt lat="40.440383" lon="-5.403500">
        <ele>1570.0</ele>
        <time>2018-06-17T12:19:56Z</time>
      </trkpt>
      <trkpt lat="40.440250" lon="-5.403533">
        <ele>1568.0</ele>
        <time>2018-06-17T12:19:57Z</time>
      </trkpt>
      <trkpt lat="40.440083" lon="-5.403550">
        <ele>1564.0</ele>
        <time>2018-06-17T12:19:58Z</time>
      </trkpt>
      <trkpt lat="40.439900" lon="-5.403550">
        <ele>1561.0</ele>
        <time>2018-06-17T12:19:59Z</time>
      </trkpt>
      <trkpt lat="40.439717" lon="-5.403483">
        <ele>1560.0</ele>
        <time>2018-06-17T12:20:00Z</time>
      </trkpt>
      <trkpt lat="40.439583" lon="-5.403367">
        <ele>1559.0</ele>
        <time>2018-06-17T12:20:01Z</time>
      </trkpt>
      <trkpt lat="40.439500" lon="-5.403233">
        <ele>1558.0</ele>
        <time>2018-06-17T12:20:02Z</time>
      </trkpt>
      <trkpt lat="40.439467" lon="-5.403100">
        <ele>1557.0</ele>
        <time>2018-06-17T12:20:03Z</time>
      </trkpt>
      <trkpt lat="40.439483" lon="-5.403017">
        <ele>1556.0</ele>
        <time>2018-06-17T12:20:04Z</time>
      </trkpt>
      <trkpt lat="40.439500" lon="-5.402967">
        <ele>1556.0</ele>
        <time>2018-06-17T12:20:05Z</time>
      </trkpt>
      <trkpt lat="40.439517" lon="-5.402950">
        <ele>1556.0</ele>
        <time>2018-06-17T12:20:06Z</time>
      </trkpt>
      <trkpt lat="40.439533" lon="-5.402967">
        <ele>1555.0</ele>
        <time>2018-06-17T12:20:07Z</time>
      </trkpt>
      <trkpt lat="40.439517" lon="-5.402983">
        <ele>1551.0</ele>
        <time>2018-06-17T12:20:08Z</time>
      </trkpt>
      <trkpt lat="40.439517" lon="-5.403033">
        <ele>1548.0</ele>
        <time>2018-06-17T12:20:09Z</time>
      </trkpt>
      <trkpt lat="40.439500" lon="-5.403133">
        <ele>1545.0</ele>
        <time>2018-06-17T12:20:10Z</time>
      </trkpt>
      <trkpt lat="40.439450" lon="-5.403283">
        <ele>1540.0</ele>
        <time>2018-06-17T12:20:11Z</time>
      </trkpt>
      <trkpt lat="40.439367" lon="-5.403467">
        <ele>1534.0</ele>
        <time>2018-06-17T12:20:12Z</time>
      </trkpt>
      <trkpt lat="40.439217" lon="-5.403617">
        <ele>1533.0</ele>
        <time>2018-06-17T12:20:13Z</time>
      </trkpt>
      <trkpt lat="40.439083" lon="-5.403750">
        <ele>1536.0</ele>
        <time>2018-06-17T12:20:14Z</time>
      </trkpt>
      <trkpt lat="40.438967" lon="-5.403850">
        <ele>1538.0</ele>
        <time>2018-06-17T12:20:15Z</time>
      </trkpt>
      <trkpt lat="40.438883" lon="-5.403933">
        <ele>1537.0</ele>
        <time>2018-06-17T12:20:16Z</time>
      </trkpt>
      <trkpt lat="40.438783" lon="-5.404033">
        <ele>1535.0</ele>
        <time>2018-06-17T12:20:17Z</time>
      </trkpt>
      <trkpt lat="40.438683" lon="-5.404167">
        <ele>1531.0</ele>
        <time>2018-06-17T12:20:18Z</time>
      </trkpt>
      <trkpt lat="40.438567" lon="-5.404300">
        <ele>1528.0</ele>
        <time>2018-06-17T12:20:19Z</time>
      </trkpt>
      <trkpt lat="40.438467" lon="-5.404433">
        <ele>1526.0</ele>
        <time>2018-06-17T12:20:20Z</time>
      </trkpt>
      <trkpt lat="40.438367" lon="-5.404550">
        <ele>1526.0</ele>
        <time>2018-06-17T12:20:21Z</time>
      </trkpt>
      <trkpt lat="40.438267" lon="-5.404667">
        <ele>1525.0</ele>
        <time>2018-06-17T12:20:22Z</time>
      </trkpt>
      <trkpt lat="40.438183" lon="-5.404767">
        <ele>1524.0</ele>
        <time>2018-06-17T12:20:23Z</time>
      </trkpt>
      <trkpt lat="40.438083" lon="-5.404883">
        <ele>1521.0</ele>
        <time>2018-06-17T12:20:24Z</time>
      </trkpt>
      <trkpt lat="40.438000" lon="-5.405000">
        <ele>1518.0</ele>
        <time>2018-06-17T12:20:25Z</time>
      </trkpt>
      <trkpt lat="40.437917" lon="-5.405150">
        <ele>1515.0</ele>
        <time>2018-06-17T12:20:26Z</time>
      </trkpt>
      <trkpt lat="40.437833" lon="-5.405283">
        <ele>1512.0</ele>
        <time>2018-06-17T12:20:27Z</time>
      </trkpt>
      <trkpt lat="40.437767" lon="-5.405417">
        <ele>1511.0</ele>
        <time>2018-06-17T12:20:28Z</time>
      </trkpt>
      <trkpt lat="40.437733" lon="-5.405533">
        <ele>1510.0</ele>
        <time>2018-06-17T12:20:29Z</time>
      </trkpt>
      <trkpt lat="40.437700" lon="-5.405633">
        <ele>1507.0</ele>
        <time>2018-06-17T12:20:30Z</time>
      </trkpt>
      <trkpt lat="40.437667" lon="-5.405767">
        <ele>1505.0</ele>
        <time>2018-06-17T12:20:31Z</time>
      </trkpt>
      <trkpt lat="40.437633" lon="-5.405883">
        <ele>1502.0</ele>
        <time>2018-06-17T12:20:32Z</time>
      </trkpt>
      <trkpt lat="40.437600" lon="-5.406017">
        <ele>1500.0</ele>
        <time>2018-06-17T12:20:33Z</time>
      </trkpt>
      <trkpt lat="40.437567" lon="-5.406133">
        <ele>1499.0</ele>
        <time>2018-06-17T12:20:34Z</time>
      </trkpt>
      <trkpt lat="40.437533" lon="-5.406233">
        <ele>1498.0</ele>
        <time>2018-06-17T12:20:35Z</time>
      </trkpt>
      <trkpt lat="40.437517" lon="-5.406317">
        <ele>1497.0</ele>
        <time>2018-06-17T12:20:36Z</time>
      </trkpt>
      <trkpt lat="40.437517" lon="-5.406400">
        <ele>1495.0</ele>
        <time>2018-06-17T12:20:37Z</time>
      </trkpt>
      <trkpt lat="40.437500" lon="-5.406483">
        <ele>1492.0</ele>
        <time>2018-06-17T12:20:38Z</time>
      </trkpt>
      <trkpt lat="40.437500" lon="-5.406567">
        <ele>1488.0</ele>
        <time>2018-06-17T12:20:39Z</time>
      </trkpt>
      <trkpt lat="40.437483" lon="-5.406667">
        <ele>1485.0</ele>
        <time>2018-06-17T12:20:40Z</time>
      </trkpt>
      <trkpt lat="40.437483" lon="-5.406767">
        <ele>1482.0</ele>
        <time>2018-06-17T12:20:41Z</time>
      </trkpt>
      <trkpt lat="40.437467" lon="-5.406883">
        <ele>1480.0</ele>
        <time>2018-06-17T12:20:42Z</time>
      </trkpt>
      <trkpt lat="40.437467" lon="-5.407000">
        <ele>1478.0</ele>
        <time>2018-06-17T12:20:43Z</time>
      </trkpt>
      <trkpt lat="40.437467" lon="-5.407117">
        <ele>1476.0</ele>
        <time>2018-06-17T12:20:44Z</time>
      </trkpt>
      <trkpt lat="40.437467" lon="-5.407267">
        <ele>1476.0</ele>
        <time>2018-06-17T12:20:45Z</time>
      </trkpt>
      <trkpt lat="40.437417" lon="-5.407400">
        <ele>1475.0</ele>
        <time>2018-06-17T12:20:46Z</time>
      </trkpt>
      <trkpt lat="40.437367" lon="-5.407500">
        <ele>1474.0</ele>
        <time>2018-06-17T12:20:47Z</time>
      </trkpt>
      <trkpt lat="40.437317" lon="-5.407600">
        <ele>1471.0</ele>
        <time>2018-06-17T12:20:48Z</time>
      </trkpt>
      <trkpt lat="40.437283" lon="-5.407717">
        <ele>1466.0</ele>
        <time>2018-06-17T12:20:49Z</time>
      </trkpt>
      <trkpt lat="40.437233" lon="-5.407850">
        <ele>1461.0</ele>
        <time>2018-06-17T12:20:50Z</time>
      </trkpt>
      <trkpt lat="40.437183" lon="-5.408000">
        <ele>1459.0</ele>
        <time>2018-06-17T12:20:51Z</time>
      </trkpt>
      <trkpt lat="40.437167" lon="-5.408117">
        <ele>1459.0</ele>
        <time>2018-06-17T12:20:52Z</time>
      </trkpt>
      <trkpt lat="40.437167" lon="-5.408217">
        <ele>1460.0</ele>
        <time>2018-06-17T12:20:53Z</time>
      </trkpt>
      <trkpt lat="40.437183" lon="-5.408300">
        <ele>1459.0</ele>
        <time>2018-06-17T12:20:54Z</time>
      </trkpt>
      <trkpt lat="40.437200" lon="-5.408383">
        <ele>1459.0</ele>
        <time>2018-06-17T12:20:55Z</time>
      </trkpt>
      <trkpt lat="40.437217" lon="-5.408483">
        <ele>1457.0</ele>
        <time>2018-06-17T12:20:56Z</time>
      </trkpt>
      <trkpt lat="40.437200" lon="-5.408600">
        <ele>1455.0</ele>
        <time>2018-06-17T12:20:57Z</time>
      </trkpt>
      <trkpt lat="40.437200" lon="-5.408717">
        <ele>1452.0</ele>
        <time>2018-06-17T12:20:58Z</time>
      </trkpt>
      <trkpt lat="40.437183" lon="-5.408833">
        <ele>1450.0</ele>
        <time>2018-06-17T12:20:59Z</time>
      </trkpt>
      <trkpt lat="40.437183" lon="-5.408933">
        <ele>1448.0</ele>
        <time>2018-06-17T12:21:00Z</time>
      </trkpt>
      <trkpt lat="40.437200" lon="-5.409017">
        <ele>1447.0</ele>
        <time>2018-06-17T12:21:01Z</time>
      </trkpt>
      <trkpt lat="40.437217" lon="-5.409083">
        <ele>1445.0</ele>
        <time>2018-06-17T12:21:02Z</time>
      </trkpt>
      <trkpt lat="40.437233" lon="-5.409167">
        <ele>1444.0</ele>
        <time>2018-06-17T12:21:03Z</time>
      </trkpt>
      <trkpt lat="40.437233" lon="-5.409250">
        <ele>1442.0</ele>
        <time>2018-06-17T12:21:04Z</time>
      </trkpt>
      <trkpt lat="40.437250" lon="-5.409333">
        <ele>1440.0</ele>
        <time>2018-06-17T12:21:05Z</time>
      </trkpt>
      <trkpt lat="40.437267" lon="-5.409417">
        <ele>1438.0</ele>
        <time>2018-06-17T12:21:06Z</time>
      </trkpt>
      <trkpt lat="40.437267" lon="-5.409500">
        <ele>1438.0</ele>
        <time>2018-06-17T12:21:07Z</time>
      </trkpt>
      <trkpt lat="40.437267" lon="-5.409567">
        <ele>1438.0</ele>
        <time>2018-06-17T12:21:08Z</time>
      </trkpt>
      <trkpt lat="40.437267" lon="-5.409633">
        <ele>1437.0</ele>
        <time>2018-06-17T12:21:09Z</time>
      </trkpt>
      <trkpt lat="40.437283" lon="-5.409717">
        <ele>1435.0</ele>
        <time>2018-06-17T12:21:10Z</time>
      </trkpt>
      <trkpt lat="40.437300" lon="-5.409783">
        <ele>1433.0</ele>
        <time>2018-06-17T12:21:11Z</time>
      </trkpt>
      <trkpt lat="40.437333" lon="-5.409867">
        <ele>1431.0</ele>
        <time>2018-06-17T12:21:12Z</time>
      </trkpt>
      <trkpt lat="40.437350" lon="-5.409950">
        <ele>1431.0</ele>
        <time>2018-06-17T12:21:13Z</time>
      </trkpt>
      <trkpt lat="40.437367" lon="-5.410050">
        <ele>1430.0</ele>
        <time>2018-06-17T12:21:14Z</time>
      </trkpt>
      <trkpt lat="40.437367" lon="-5.410150">
        <ele>1428.0</ele>
        <time>2018-06-17T12:21:15Z</time>
      </trkpt>
      <trkpt lat="40.437383" lon="-5.410250">
        <ele>1428.0</ele>
        <time>2018-06-17T12:21:16Z</time>
      </trkpt>
      <trkpt lat="40.437383" lon="-5.410350">
        <ele>1427.0</ele>
        <time>2018-06-17T12:21:17Z</time>
      </trkpt>
      <trkpt lat="40.437400" lon="-5.410450">
        <ele>1427.0</ele>
        <time>2018-06-17T12:21:18Z</time>
      </trkpt>
      <trkpt lat="40.437400" lon="-5.410533">
        <ele>1426.0</ele>
        <time>2018-06-17T12:21:19Z</time>
      </trkpt>
      <trkpt lat="40.437400" lon="-5.410600">
        <ele>1425.0</ele>
        <time>2018-06-17T12:21:20Z</time>
      </trkpt>
      <trkpt lat="40.437400" lon="-5.410667">
        <ele>1423.0</ele>
        <time>2018-06-17T12:21:21Z</time>
      </trkpt>
      <trkpt lat="40.437417" lon="-5.410750">
        <ele>1420.0</ele>
        <time>2018-06-17T12:21:22Z</time>
      </trkpt>
      <trkpt lat="40.437417" lon="-5.410817">
        <ele>1419.0</ele>
        <time>2018-06-17T12:21:23Z</time>
      </trkpt>
      <trkpt lat="40.437433" lon="-5.410900">
        <ele>1418.0</ele>
        <time>2018-06-17T12:21:24Z</time>
      </trkpt>
      <trkpt lat="40.437433" lon="-5.411000">
        <ele>1417.0</ele>
        <time>2018-06-17T12:21:25Z</time>
      </trkpt>
      <trkpt lat="40.437417" lon="-5.411083">
        <ele>1415.0</ele>
        <time>2018-06-17T12:21:26Z</time>
      </trkpt>
      <trkpt lat="40.437400" lon="-5.411200">
        <ele>1413.0</ele>
        <time>2018-06-17T12:21:27Z</time>
      </trkpt>
      <trkpt lat="40.437383" lon="-5.411300">
        <ele>1411.0</ele>
        <time>2018-06-17T12:21:28Z</time>
      </trkpt>
      <trkpt lat="40.437367" lon="-5.411417">
        <ele>1410.0</ele>
        <time>2018-06-17T12:21:29Z</time>
      </trkpt>
      <trkpt lat="40.437333" lon="-5.411533">
        <ele>1408.0</ele>
        <time>2018-06-17T12:21:30Z</time>
      </trkpt>
      <trkpt lat="40.437300" lon="-5.411650">
        <ele>1407.0</ele>
        <time>2018-06-17T12:21:31Z</time>
      </trkpt>
      <trkpt lat="40.437267" lon="-5.411783">
        <ele>1406.0</ele>
        <time>2018-06-17T12:21:32Z</time>
      </trkpt>
      <trkpt lat="40.437233" lon="-5.411900">
        <ele>1405.0</ele>
        <time>2018-06-17T12:21:33Z</time>
      </trkpt>
      <trkpt lat="40.437200" lon="-5.412017">
        <ele>1404.0</ele>
        <time>2018-06-17T12:21:34Z</time>
      </trkpt>
      <trkpt lat="40.437167" lon="-5.412117">
        <ele>1402.0</ele>
        <time>2018-06-17T12:21:35Z</time>
      </trkpt>
      <trkpt lat="40.437133" lon="-5.412233">
        <ele>1401.0</ele>
        <time>2018-06-17T12:21:36Z</time>
      </trkpt>
      <trkpt lat="40.437100" lon="-5.412350">
        <ele>1398.0</ele>
        <time>2018-06-17T12:21:37Z</time>
      </trkpt>
      <trkpt lat="40.437067" lon="-5.412483">
        <ele>1396.0</ele>
        <time>2018-06-17T12:21:38Z</time>
      </trkpt>
      <trkpt lat="40.437017" lon="-5.412600">
        <ele>1394.0</ele>
        <time>2018-06-17T12:21:39Z</time>
      </trkpt>
      <trkpt lat="40.436967" lon="-5.412733">
        <ele>1393.0</ele>
        <time>2018-06-17T12:21:40Z</time>
      </trkpt>
      <trkpt lat="40.436900" lon="-5.412850">
        <ele>1391.0</ele>
        <time>2018-06-17T12:21:41Z</time>
      </trkpt>
      <trkpt lat="40.436833" lon="-5.412983">
        <ele>1389.0</ele>
        <time>2018-06-17T12:21:42Z</time>
      </trkpt>
      <trkpt lat="40.436783" lon="-5.413100">
        <ele>1387.0</ele>
        <time>2018-06-17T12:21:43Z</time>
      </trkpt>
      <trkpt lat="40.436750" lon="-5.413233">
        <ele>1385.0</ele>
        <time>2018-06-17T12:21:44Z</time>
      </trkpt>
      <trkpt lat="40.436700" lon="-5.413350">
        <ele>1383.0</ele>
        <time>2018-06-17T12:21:45Z</time>
      </trkpt>
      <trkpt lat="40.436683" lon="-5.413467">
        <ele>1381.0</ele>
        <time>2018-06-17T12:21:46Z</time>
      </trkpt>
      <trkpt lat="40.436667" lon="-5.413583">
        <ele>1380.0</ele>
        <time>2018-06-17T12:21:47Z</time>
      </trkpt>
      <trkpt lat="40.436667" lon="-5.413683">
        <ele>1378.0</ele>
        <time>2018-06-17T12:21:48Z</time>
      </trkpt>
      <trkpt lat="40.436667" lon="-5.413767">
        <ele>1376.0</ele>
        <time>2018-06-17T12:21:49Z</time>
      </trkpt>
      <trkpt lat="40.436683" lon="-5.413867">
        <ele>1374.0</ele>
        <time>2018-06-17T12:21:50Z</time>
      </trkpt>
      <trkpt lat="40.436683" lon="-5.413967">
        <ele>1371.0</ele>
        <time>2018-06-17T12:21:51Z</time>
      </trkpt>
      <trkpt lat="40.436700" lon="-5.414067">
        <ele>1368.0</ele>
        <time>2018-06-17T12:21:52Z</time>
      </trkpt>
      <trkpt lat="40.436717" lon="-5.414150">
        <ele>1367.0</ele>
        <time>2018-06-17T12:21:53Z</time>
      </trkpt>
      <trkpt lat="40.436733" lon="-5.414233">
        <ele>1365.0</ele>
        <time>2018-06-17T12:21:54Z</time>
      </trkpt>
      <trkpt lat="40.436733" lon="-5.414317">
        <ele>1364.0</ele>
        <time>2018-06-17T12:21:55Z</time>
      </trkpt>
      <trkpt lat="40.436733" lon="-5.414417">
        <ele>1361.0</ele>
        <time>2018-06-17T12:21:56Z</time>
      </trkpt>
      <trkpt lat="40.436717" lon="-5.414533">
        <ele>1359.0</ele>
        <time>2018-06-17T12:21:57Z</time>
      </trkpt>
      <trkpt lat="40.436700" lon="-5.414633">
        <ele>1356.0</ele>
        <time>2018-06-17T12:21:58Z</time>
      </trkpt>
      <trkpt lat="40.436683" lon="-5.414750">
        <ele>1353.0</ele>
        <time>2018-06-17T12:21:59Z</time>
      </trkpt>
      <trkpt lat="40.436650" lon="-5.414850">
        <ele>1351.0</ele>
        <time>2018-06-17T12:22:00Z</time>
      </trkpt>
      <trkpt lat="40.436617" lon="-5.414983">
        <ele>1348.0</ele>
        <time>2018-06-17T12:22:01Z</time>
      </trkpt>
      <trkpt lat="40.436583" lon="-5.415100">
        <ele>1346.0</ele>
        <time>2018-06-17T12:22:02Z</time>
      </trkpt>
      <trkpt lat="40.436517" lon="-5.415217">
        <ele>1343.0</ele>
        <time>2018-06-17T12:22:03Z</time>
      </trkpt>
      <trkpt lat="40.436467" lon="-5.415350">
        <ele>1340.0</ele>
        <time>2018-06-17T12:22:04Z</time>
      </trkpt>
      <trkpt lat="40.436400" lon="-5.415483">
        <ele>1338.0</ele>
        <time>2018-06-17T12:22:05Z</time>
      </trkpt>
      <trkpt lat="40.436333" lon="-5.415600">
        <ele>1336.0</ele>
        <time>2018-06-17T12:22:06Z</time>
      </trkpt>
      <trkpt lat="40.436283" lon="-5.415733">
        <ele>1333.0</ele>
        <time>2018-06-17T12:22:07Z</time>
      </trkpt>
      <trkpt lat="40.436233" lon="-5.415850">
        <ele>1331.0</ele>
        <time>2018-06-17T12:22:08Z</time>
      </trkpt>
      <trkpt lat="40.436200" lon="-5.415983">
        <ele>1329.0</ele>
        <time>2018-06-17T12:22:09Z</time>
      </trkpt>
      <trkpt lat="40.436150" lon="-5.416100">
        <ele>1326.0</ele>
        <time>2018-06-17T12:22:10Z</time>
      </trkpt>
      <trkpt lat="40.436100" lon="-5.416233">
        <ele>1323.0</ele>
        <time>2018-06-17T12:22:11Z</time>
      </trkpt>
      <trkpt lat="40.436033" lon="-5.416350">
        <ele>1321.0</ele>
        <time>2018-06-17T12:22:12Z</time>
      </trkpt>
      <trkpt lat="40.435950" lon="-5.416483">
        <ele>1318.0</ele>
        <time>2018-06-17T12:22:13Z</time>
      </trkpt>
      <trkpt lat="40.435850" lon="-5.416600">
        <ele>1315.0</ele>
        <time>2018-06-17T12:22:14Z</time>
      </trkpt>
      <trkpt lat="40.435767" lon="-5.416733">
        <ele>1313.0</ele>
        <time>2018-06-17T12:22:15Z</time>
      </trkpt>
      <trkpt lat="40.435683" lon="-5.416850">
        <ele>1310.0</ele>
        <time>2018-06-17T12:22:16Z</time>
      </trkpt>
      <trkpt lat="40.435600" lon="-5.416983">
        <ele>1308.0</ele>
        <time>2018-06-17T12:22:17Z</time>
      </trkpt>
      <trkpt lat="40.435517" lon="-5.417100">
        <ele>1306.0</ele>
        <time>2018-06-17T12:22:18Z</time>
      </trkpt>
      <trkpt lat="40.435433" lon="-5.417217">
        <ele>1304.0</ele>
        <time>2018-06-17T12:22:19Z</time>
      </trkpt>
      <trkpt lat="40.435333" lon="-5.417333">
        <ele>1301.0</ele>
        <time>2018-06-17T12:22:20Z</time>
      </trkpt>
      <trkpt lat="40.435233" lon="-5.417450">
        <ele>1299.0</ele>
        <time>2018-06-17T12:22:21Z</time>
      </trkpt>
      <trkpt lat="40.435150" lon="-5.417583">
        <ele>1297.0</ele>
        <time>2018-06-17T12:22:22Z</time>
      </trkpt>
      <trkpt lat="40.435067" lon="-5.417700">
        <ele>1295.0</ele>
        <time>2018-06-17T12:22:23Z</time>
      </trkpt>
      <trkpt lat="40.435000" lon="-5.417833">
        <ele>1293.0</ele>
        <time>2018-06-17T12:22:24Z</time>
      </trkpt>
      <trkpt lat="40.434917" lon="-5.417967">
        <ele>1292.0</ele>
        <time>2018-06-17T12:22:25Z</time>
      </trkpt>
      <trkpt lat="40.434850" lon="-5.418117">
        <ele>1292.0</ele>
        <time>2018-06-17T12:22:26Z</time>
      </trkpt>
      <trkpt lat="40.434783" lon="-5.418250">
        <ele>1292.0</ele>
        <time>2018-06-17T12:22:27Z</time>
      </trkpt>
      <trkpt lat="40.434700" lon="-5.418367">
        <ele>1292.0</ele>
        <time>2018-06-17T12:22:28Z</time>
      </trkpt>
      <trkpt lat="40.434633" lon="-5.418483">
        <ele>1291.0</ele>
        <time>2018-06-17T12:22:29Z</time>
      </trkpt>
      <trkpt lat="40.434567" lon="-5.418600">
        <ele>1289.0</ele>
        <time>2018-06-17T12:22:30Z</time>
      </trkpt>
      <trkpt lat="40.434517" lon="-5.418733">
        <ele>1287.0</ele>
        <time>2018-06-17T12:22:31Z</time>
      </trkpt>
      <trkpt lat="40.434450" lon="-5.418883">
        <ele>1284.0</ele>
        <time>2018-06-17T12:22:32Z</time>
      </trkpt>
      <trkpt lat="40.434383" lon="-5.419033">
        <ele>1281.0</ele>
        <time>2018-06-17T12:22:33Z</time>
      </trkpt>
      <trkpt lat="40.434333" lon="-5.419183">
        <ele>1279.0</ele>
        <time>2018-06-17T12:22:34Z</time>
      </trkpt>
      <trkpt lat="40.434283" lon="-5.419333">
        <ele>1277.0</ele>
        <time>2018-06-17T12:22:35Z</time>
      </trkpt>
      <trkpt lat="40.434233" lon="-5.419500">
        <ele>1277.0</ele>
        <time>2018-06-17T12:22:36Z</time>
      </trkpt>
      <trkpt lat="40.434167" lon="-5.419650">
        <ele>1277.0</ele>
        <time>2018-06-17T12:22:37Z</time>
      </trkpt>
      <trkpt lat="40.434100" lon="-5.419800">
        <ele>1277.0</ele>
        <time>2018-06-17T12:22:38Z</time>
      </trkpt>
      <trkpt lat="40.434033" lon="-5.419917">
        <ele>1276.0</ele>
        <time>2018-06-17T12:22:39Z</time>
      </trkpt>
      <trkpt lat="40.433967" lon="-5.420050">
        <ele>1275.0</ele>
        <time>2018-06-17T12:22:40Z</time>
      </trkpt>
      <trkpt lat="40.433917" lon="-5.420200">
        <ele>1272.0</ele>
        <time>2018-06-17T12:22:41Z</time>
      </trkpt>
      <trkpt lat="40.433883" lon="-5.420350">
        <ele>1270.0</ele>
        <time>2018-06-17T12:22:42Z</time>
      </trkpt>
      <trkpt lat="40.433833" lon="-5.420517">
        <ele>1268.0</ele>
        <time>2018-06-17T12:22:43Z</time>
      </trkpt>
      <trkpt lat="40.433800" lon="-5.420683">
        <ele>1267.0</ele>
        <time>2018-06-17T12:22:44Z</time>
      </trkpt>
      <trkpt lat="40.433750" lon="-5.420833">
        <ele>1267.0</ele>
        <time>2018-06-17T12:22:45Z</time>
      </trkpt>
      <trkpt lat="40.433717" lon="-5.421000">
        <ele>1266.0</ele>
        <time>2018-06-17T12:22:46Z</time>
      </trkpt>
      <trkpt lat="40.433683" lon="-5.421150">
        <ele>1267.0</ele>
        <time>2018-06-17T12:22:47Z</time>
      </trkpt>
      <trkpt lat="40.433667" lon="-5.421300">
        <ele>1270.0</ele>
        <time>2018-06-17T12:22:48Z</time>
      </trkpt>
      <trkpt lat="40.433667" lon="-5.421417">
        <ele>1274.0</ele>
        <time>2018-06-17T12:22:49Z</time>
      </trkpt>
      <trkpt lat="40.433683" lon="-5.421500">
        <ele>1277.0</ele>
        <time>2018-06-17T12:22:50Z</time>
      </trkpt>
      <trkpt lat="40.433700" lon="-5.421567">
        <ele>1279.0</ele>
        <time>2018-06-17T12:22:51Z</time>
      </trkpt>
      <trkpt lat="40.433717" lon="-5.421617">
        <ele>1281.0</ele>
        <time>2018-06-17T12:22:52Z</time>
      </trkpt>
      <trkpt lat="40.433767" lon="-5.421633">
        <ele>1281.0</ele>
        <time>2018-06-17T12:22:53Z</time>
      </trkpt>
      <trkpt lat="40.433817" lon="-5.421600">
        <ele>1281.0</ele>
        <time>2018-06-17T12:22:54Z</time>
      </trkpt>
      <trkpt lat="40.433883" lon="-5.421500">
        <ele>1281.0</ele>
        <time>2018-06-17T12:22:55Z</time>
      </trkpt>
      <trkpt lat="40.433900" lon="-5.421350">
        <ele>1281.0</ele>
        <time>2018-06-17T12:22:56Z</time>
      </trkpt>
      <trkpt lat="40.433867" lon="-5.421200">
        <ele>1282.0</ele>
        <time>2018-06-17T12:22:57Z</time>
      </trkpt>
      <trkpt lat="40.433750" lon="-5.421067">
        <ele>1285.0</ele>
        <time>2018-06-17T12:22:58Z</time>
      </trkpt>
      <trkpt lat="40.433617" lon="-5.421000">
        <ele>1287.0</ele>
        <time>2018-06-17T12:22:59Z</time>
      </trkpt>
      <trkpt lat="40.433483" lon="-5.421000">
        <ele>1290.0</ele>
        <time>2018-06-17T12:23:00Z</time>
      </trkpt>
      <trkpt lat="40.433350" lon="-5.421033">
        <ele>1292.0</ele>
        <time>2018-06-17T12:23:01Z</time>
      </trkpt>
      <trkpt lat="40.433233" lon="-5.421100">
        <ele>1294.0</ele>
        <time>2018-06-17T12:23:02Z</time>
      </trkpt>
      <trkpt lat="40.433117" lon="-5.421167">
        <ele>1296.0</ele>
        <time>2018-06-17T12:23:03Z</time>
      </trkpt>
      <trkpt lat="40.433000" lon="-5.421283">
        <ele>1296.0</ele>
        <time>2018-06-17T12:23:04Z</time>
      </trkpt>
      <trkpt lat="40.432917" lon="-5.421383">
        <ele>1298.0</ele>
        <time>2018-06-17T12:23:05Z</time>
      </trkpt>
      <trkpt lat="40.432867" lon="-5.421500">
        <ele>1301.0</ele>
        <time>2018-06-17T12:23:06Z</time>
      </trkpt>
      <trkpt lat="40.432817" lon="-5.421583">
        <ele>1303.0</ele>
        <time>2018-06-17T12:23:07Z</time>
      </trkpt>
      <trkpt lat="40.432800" lon="-5.421683">
        <ele>1303.0</ele>
        <time>2018-06-17T12:23:08Z</time>
      </trkpt>
      <trkpt lat="40.432817" lon="-5.421767">
        <ele>1303.0</ele>
        <time>2018-06-17T12:23:09Z</time>
      </trkpt>
      <trkpt lat="40.432867" lon="-5.421817">
        <ele>1302.0</ele>
        <time>2018-06-17T12:23:10Z</time>
      </trkpt>
      <trkpt lat="40.432933" lon="-5.421833">
        <ele>1301.0</ele>
        <time>2018-06-17T12:23:11Z</time>
      </trkpt>
      <trkpt lat="40.433017" lon="-5.421783">
        <ele>1302.0</ele>
        <time>2018-06-17T12:23:12Z</time>
      </trkpt>
      <trkpt lat="40.433067" lon="-5.421700">
        <ele>1306.0</ele>
        <time>2018-06-17T12:23:13Z</time>
      </trkpt>
      <trkpt lat="40.433083" lon="-5.421617">
        <ele>1310.0</ele>
        <time>2018-06-17T12:23:14Z</time>
      </trkpt>
      <trkpt lat="40.433067" lon="-5.421517">
        <ele>1313.0</ele>
        <time>2018-06-17T12:23:15Z</time>
      </trkpt>
      <trkpt lat="40.433033" lon="-5.421400">
        <ele>1315.0</ele>
        <time>2018-06-17T12:23:16Z</time>
      </trkpt>
      <trkpt lat="40.432933" lon="-5.421317">
        <ele>1314.0</ele>
        <time>2018-06-17T12:23:17Z</time>
      </trkpt>
      <trkpt lat="40.432783" lon="-5.421267">
        <ele>1314.0</ele>
        <time>2018-06-17T12:23:18Z</time>
      </trkpt>
      <trkpt lat="40.432633" lon="-5.421283">
        <ele>1314.0</ele>
        <time>2018-06-17T12:23:19Z</time>
      </trkpt>
      <trkpt lat="40.432500" lon="-5.421350">
        <ele>1315.0</ele>
        <time>2018-06-17T12:23:20Z</time>
      </trkpt>
      <trkpt lat="40.432383" lon="-5.421483">
        <ele>1316.0</ele>
        <time>2018-06-17T12:23:21Z</time>
      </trkpt>
      <trkpt lat="40.432333" lon="-5.421617">
        <ele>1317.0</ele>
        <time>2018-06-17T12:23:22Z</time>
      </trkpt>
      <trkpt lat="40.432317" lon="-5.421750">
        <ele>1319.0</ele>
        <time>2018-06-17T12:23:23Z</time>
      </trkpt>
      <trkpt lat="40.432333" lon="-5.421850">
        <ele>1321.0</ele>
        <time>2018-06-17T12:23:24Z</time>
      </trkpt>
      <trkpt lat="40.432367" lon="-5.421900">
        <ele>1322.0</ele>
        <time>2018-06-17T12:23:25Z</time>
      </trkpt>
      <trkpt lat="40.432433" lon="-5.421950">
        <ele>1323.0</ele>
        <time>2018-06-17T12:23:26Z</time>
      </trkpt>
      <trkpt lat="40.432483" lon="-5.421983">
        <ele>1326.0</ele>
        <time>2018-06-17T12:23:27Z</time>
      </trkpt>
      <trkpt lat="40.432533" lon="-5.422000">
        <ele>1328.0</ele>
        <time>2018-06-17T12:23:28Z</time>
      </trkpt>
      <trkpt lat="40.432567" lon="-5.421950">
        <ele>1329.0</ele>
        <time>2018-06-17T12:23:29Z</time>
      </trkpt>
      <trkpt lat="40.432583" lon="-5.421850">
        <ele>1329.0</ele>
        <time>2018-06-17T12:23:30Z</time>
      </trkpt>
      <trkpt lat="40.432567" lon="-5.421733">
        <ele>1329.0</ele>
        <time>2018-06-17T12:23:31Z</time>
      </trkpt>
      <trkpt lat="40.432517" lon="-5.421600">
        <ele>1332.0</ele>
        <time>2018-06-17T12:23:32Z</time>
      </trkpt>
      <trkpt lat="40.432417" lon="-5.421500">
        <ele>1334.0</ele>
        <time>2018-06-17T12:23:33Z</time>
      </trkpt>
      <trkpt lat="40.432300" lon="-5.421433">
        <ele>1335.0</ele>
        <time>2018-06-17T12:23:34Z</time>
      </trkpt>
      <trkpt lat="40.432150" lon="-5.421433">
        <ele>1335.0</ele>
        <time>2018-06-17T12:23:35Z</time>
      </trkpt>
      <trkpt lat="40.432017" lon="-5.421483">
        <ele>1334.0</ele>
        <time>2018-06-17T12:23:36Z</time>
      </trkpt>
      <trkpt lat="40.431900" lon="-5.421600">
        <ele>1334.0</ele>
        <time>2018-06-17T12:23:37Z</time>
      </trkpt>
      <trkpt lat="40.431833" lon="-5.421767">
        <ele>1335.0</ele>
        <time>2018-06-17T12:23:38Z</time>
      </trkpt>
      <trkpt lat="40.431817" lon="-5.421917">
        <ele>1336.0</ele>
        <time>2018-06-17T12:23:39Z</time>
      </trkpt>
      <trkpt lat="40.431850" lon="-5.422033">
        <ele>1339.0</ele>
        <time>2018-06-17T12:23:40Z</time>
      </trkpt>
      <trkpt lat="40.431883" lon="-5.422117">
        <ele>1342.0</ele>
        <time>2018-06-17T12:23:41Z</time>
      </trkpt>
      <trkpt lat="40.431933" lon="-5.422150">
        <ele>1345.0</ele>
        <time>2018-06-17T12:23:42Z</time>
      </trkpt>
      <trkpt lat="40.431967" lon="-5.422150">
        <ele>1347.0</ele>
        <time>2018-06-17T12:23:43Z</time>
      </trkpt>
      <trkpt lat="40.432000" lon="-5.422133">
        <ele>1349.0</ele>
        <time>2018-06-17T12:23:44Z</time>
      </trkpt>
      <trkpt lat="40.432033" lon="-5.422083">
        <ele>1350.0</ele>
        <time>2018-06-17T12:23:45Z</time>
      </trkpt>
      <trkpt lat="40.432050" lon="-5.422000">
        <ele>1351.0</ele>
        <time>2018-06-17T12:23:46Z</time>
      </trkpt>
      <trkpt lat="40.432017" lon="-5.421883">
        <ele>1352.0</ele>
        <time>2018-06-17T12:23:47Z</time>
      </trkpt>
      <trkpt lat="40.431933" lon="-5.421767">
        <ele>1352.0</ele>
        <time>2018-06-17T12:23:48Z</time>
      </trkpt>
      <trkpt lat="40.431783" lon="-5.421683">
        <ele>1352.0</ele>
        <time>2018-06-17T12:23:49Z</time>
      </trkpt>
      <trkpt lat="40.431633" lon="-5.421683">
        <ele>1355.0</ele>
        <time>2018-06-17T12:23:50Z</time>
      </trkpt>
      <trkpt lat="40.431483" lon="-5.421733">
        <ele>1358.0</ele>
        <time>2018-06-17T12:23:51Z</time>
      </trkpt>
      <trkpt lat="40.431367" lon="-5.421833">
        <ele>1359.0</ele>
        <time>2018-06-17T12:23:52Z</time>
      </trkpt>
      <trkpt lat="40.431300" lon="-5.421983">
        <ele>1359.0</ele>
        <time>2018-06-17T12:23:53Z</time>
      </trkpt>
      <trkpt lat="40.431283" lon="-5.422133">
        <ele>1360.0</ele>
        <time>2018-06-17T12:23:54Z</time>
      </trkpt>
      <trkpt lat="40.431300" lon="-5.422267">
        <ele>1361.0</ele>
        <time>2018-06-17T12:23:55Z</time>
      </trkpt>
      <trkpt lat="40.431317" lon="-5.422367">
        <ele>1363.0</ele>
        <time>2018-06-17T12:23:56Z</time>
      </trkpt>
      <trkpt lat="40.431333" lon="-5.422467">
        <ele>1365.0</ele>
        <time>2018-06-17T12:23:57Z</time>
      </trkpt>
      <trkpt lat="40.431367" lon="-5.422550">
        <ele>1366.0</ele>
        <time>2018-06-17T12:23:58Z</time>
      </trkpt>
      <trkpt lat="40.431400" lon="-5.422600">
        <ele>1368.0</ele>
        <time>2018-06-17T12:23:59Z</time>
      </trkpt>
      <trkpt lat="40.431450" lon="-5.422617">
        <ele>1369.0</ele>
        <time>2018-06-17T12:24:00Z</time>
      </trkpt>
      <trkpt lat="40.431500" lon="-5.422567">
        <ele>1370.0</ele>
        <time>2018-06-17T12:24:01Z</time>
      </trkpt>
      <trkpt lat="40.431500" lon="-5.422467">
        <ele>1371.0</ele>
        <time>2018-06-17T12:24:02Z</time>
      </trkpt>
      <trkpt lat="40.431433" lon="-5.422350">
        <ele>1373.0</ele>
        <time>2018-06-17T12:24:03Z</time>
      </trkpt>
      <trkpt lat="40.431317" lon="-5.422250">
        <ele>1374.0</ele>
        <time>2018-06-17T12:24:04Z</time>
      </trkpt>
      <trkpt lat="40.431167" lon="-5.422233">
        <ele>1375.0</ele>
        <time>2018-06-17T12:24:05Z</time>
      </trkpt>
      <trkpt lat="40.431000" lon="-5.422283">
        <ele>1378.0</ele>
        <time>2018-06-17T12:24:06Z</time>
      </trkpt>
      <trkpt lat="40.430883" lon="-5.422400">
        <ele>1381.0</ele>
        <time>2018-06-17T12:24:07Z</time>
      </trkpt>
      <trkpt lat="40.430817" lon="-5.422533">
        <ele>1384.0</ele>
        <time>2018-06-17T12:24:08Z</time>
      </trkpt>
      <trkpt lat="40.430800" lon="-5.422667">
        <ele>1386.0</ele>
        <time>2018-06-17T12:24:09Z</time>
      </trkpt>
      <trkpt lat="40.430783" lon="-5.422783">
        <ele>1388.0</ele>
        <time>2018-06-17T12:24:10Z</time>
      </trkpt>
      <trkpt lat="40.430783" lon="-5.422883">
        <ele>1390.0</ele>
        <time>2018-06-17T12:24:11Z</time>
      </trkpt>
      <trkpt lat="40.430817" lon="-5.422967">
        <ele>1392.0</ele>
        <time>2018-06-17T12:24:12Z</time>
      </trkpt>
      <trkpt lat="40.430833" lon="-5.423050">
        <ele>1394.0</ele>
        <time>2018-06-17T12:24:13Z</time>
      </trkpt>
      <trkpt lat="40.430867" lon="-5.423083">
        <ele>1396.0</ele>
        <time>2018-06-17T12:24:14Z</time>
      </trkpt>
      <trkpt lat="40.430883" lon="-5.423117">
        <ele>1399.0</ele>
        <time>2018-06-17T12:24:15Z</time>
      </trkpt>
      <trkpt lat="40.430900" lon="-5.423167">
        <ele>1401.0</ele>
        <time>2018-06-17T12:24:16Z</time>
      </trkpt>
      <trkpt lat="40.430917" lon="-5.423217">
        <ele>1403.0</ele>
        <time>2018-06-17T12:24:17Z</time>
      </trkpt>
      <trkpt lat="40.430933" lon="-5.423267">
        <ele>1404.0</ele>
        <time>2018-06-17T12:24:18Z</time>
      </trkpt>
      <trkpt lat="40.430950" lon="-5.423317">
        <ele>1404.0</ele>
        <time>2018-06-17T12:24:19Z</time>
      </trkpt>
      <trkpt lat="40.430967" lon="-5.423350">
        <ele>1405.0</ele>
        <time>2018-06-17T12:24:20Z</time>
      </trkpt>
      <trkpt lat="40.431000" lon="-5.423383">
        <ele>1405.0</ele>
        <time>2018-06-17T12:24:21Z</time>
      </trkpt>
      <trkpt lat="40.431017" lon="-5.423433">
        <ele>1407.0</ele>
        <time>2018-06-17T12:24:22Z</time>
      </trkpt>
      <trkpt lat="40.431033" lon="-5.423500">
        <ele>1408.0</ele>
        <time>2018-06-17T12:24:23Z</time>
      </trkpt>
      <trkpt lat="40.431050" lon="-5.423583">
        <ele>1410.0</ele>
        <time>2018-06-17T12:24:24Z</time>
      </trkpt>
      <trkpt lat="40.431050" lon="-5.423650">
        <ele>1412.0</ele>
        <time>2018-06-17T12:24:25Z</time>
      </trkpt>
      <trkpt lat="40.431050" lon="-5.423733">
        <ele>1413.0</ele>
        <time>2018-06-17T12:24:26Z</time>
      </trkpt>
      <trkpt lat="40.431067" lon="-5.423800">
        <ele>1414.0</ele>
        <time>2018-06-17T12:24:27Z</time>
      </trkpt>
      <trkpt lat="40.431083" lon="-5.423883">
        <ele>1415.0</ele>
        <time>2018-06-17T12:24:28Z</time>
      </trkpt>
      <trkpt lat="40.431100" lon="-5.423950">
        <ele>1415.0</ele>
        <time>2018-06-17T12:24:29Z</time>
      </trkpt>
      <trkpt lat="40.431117" lon="-5.424000">
        <ele>1417.0</ele>
        <time>2018-06-17T12:24:30Z</time>
      </trkpt>
      <trkpt lat="40.431133" lon="-5.424050">
        <ele>1418.0</ele>
        <time>2018-06-17T12:24:31Z</time>
      </trkpt>
      <trkpt lat="40.431150" lon="-5.424117">
        <ele>1418.0</ele>
        <time>2018-06-17T12:24:32Z</time>
      </trkpt>
      <trkpt lat="40.431150" lon="-5.424200">
        <ele>1418.0</ele>
        <time>2018-06-17T12:24:33Z</time>
      </trkpt>
      <trkpt lat="40.431167" lon="-5.424267">
        <ele>1420.0</ele>
        <time>2018-06-17T12:24:34Z</time>
      </trkpt>
      <trkpt lat="40.431167" lon="-5.424350">
        <ele>1421.0</ele>
        <time>2018-06-17T12:24:35Z</time>
      </trkpt>
      <trkpt lat="40.431183" lon="-5.424417">
        <ele>1423.0</ele>
        <time>2018-06-17T12:24:36Z</time>
      </trkpt>
      <trkpt lat="40.431183" lon="-5.424483">
        <ele>1425.0</ele>
        <time>2018-06-17T12:24:37Z</time>
      </trkpt>
      <trkpt lat="40.431200" lon="-5.424550">
        <ele>1426.0</ele>
        <time>2018-06-17T12:24:38Z</time>
      </trkpt>
      <trkpt lat="40.431217" lon="-5.424617">
        <ele>1426.0</ele>
        <time>2018-06-17T12:24:39Z</time>
      </trkpt>
      <trkpt lat="40.431233" lon="-5.424667">
        <ele>1427.0</ele>
        <time>2018-06-17T12:24:40Z</time>
      </trkpt>
      <trkpt lat="40.431267" lon="-5.424717">
        <ele>1428.0</ele>
        <time>2018-06-17T12:24:41Z</time>
      </trkpt>
      <trkpt lat="40.431283" lon="-5.424750">
        <ele>1429.0</ele>
        <time>2018-06-17T12:24:42Z</time>
      </trkpt>
      <trkpt lat="40.431317" lon="-5.424783">
        <ele>1429.0</ele>
        <time>2018-06-17T12:24:43Z</time>
      </trkpt>
      <trkpt lat="40.431333" lon="-5.424833">
        <ele>1429.0</ele>
        <time>2018-06-17T12:24:44Z</time>
      </trkpt>
      <trkpt lat="40.431367" lon="-5.424883">
        <ele>1429.0</ele>
        <time>2018-06-17T12:24:45Z</time>
      </trkpt>
      <trkpt lat="40.431400" lon="-5.424967">
        <ele>1431.0</ele>
        <time>2018-06-17T12:24:46Z</time>
      </trkpt>
      <trkpt lat="40.431400" lon="-5.425050">
        <ele>1433.0</ele>
        <time>2018-06-17T12:24:47Z</time>
      </trkpt>
      <trkpt lat="40.431383" lon="-5.425133">
        <ele>1436.0</ele>
        <time>2018-06-17T12:24:48Z</time>
      </trkpt>
      <trkpt lat="40.431350" lon="-5.425217">
        <ele>1439.0</ele>
        <time>2018-06-17T12:24:49Z</time>
      </trkpt>
      <trkpt lat="40.431317" lon="-5.425283">
        <ele>1441.0</ele>
        <time>2018-06-17T12:24:50Z</time>
      </trkpt>
      <trkpt lat="40.431267" lon="-5.425367">
        <ele>1442.0</ele>
        <time>2018-06-17T12:24:51Z</time>
      </trkpt>
      <trkpt lat="40.431217" lon="-5.425450">
        <ele>1443.0</ele>
        <time>2018-06-17T12:24:52Z</time>
      </trkpt>
      <trkpt lat="40.431183" lon="-5.425533">
        <ele>1444.0</ele>
        <time>2018-06-17T12:24:53Z</time>
      </trkpt>
      <trkpt lat="40.431150" lon="-5.425633">
        <ele>1445.0</ele>
        <time>2018-06-17T12:24:54Z</time>
      </trkpt>
      <trkpt lat="40.431117" lon="-5.425733">
        <ele>1446.0</ele>
        <time>2018-06-17T12:24:55Z</time>
      </trkpt>
      <trkpt lat="40.431117" lon="-5.425817">
        <ele>1446.0</ele>
        <time>2018-06-17T12:24:56Z</time>
      </trkpt>
      <trkpt lat="40.431133" lon="-5.425883">
        <ele>1448.0</ele>
        <time>2018-06-17T12:24:57Z</time>
      </trkpt>
      <trkpt lat="40.431150" lon="-5.425950">
        <ele>1449.0</ele>
        <time>2018-06-17T12:24:58Z</time>
      </trkpt>
      <trkpt lat="40.431167" lon="-5.426017">
        <ele>1451.0</ele>
        <time>2018-06-17T12:24:59Z</time>
      </trkpt>
      <trkpt lat="40.431200" lon="-5.426050">
        <ele>1452.0</ele>
        <time>2018-06-17T12:25:00Z</time>
      </trkpt>
      <trkpt lat="40.431217" lon="-5.426050">
        <ele>1452.0</ele>
        <time>2018-06-17T12:25:01Z</time>
      </trkpt>
      <trkpt lat="40.431233" lon="-5.426033">
        <ele>1453.0</ele>
        <time>2018-06-17T12:25:02Z</time>
      </trkpt>
      <trkpt lat="40.431250" lon="-5.425983">
        <ele>1454.0</ele>
        <time>2018-06-17T12:25:03Z</time>
      </trkpt>
      <trkpt lat="40.431250" lon="-5.425900">
        <ele>1455.0</ele>
        <time>2018-06-17T12:25:04Z</time>
      </trkpt>
      <trkpt lat="40.431217" lon="-5.425800">
        <ele>1455.0</ele>
        <time>2018-06-17T12:25:05Z</time>
      </trkpt>
      <trkpt lat="40.431167" lon="-5.425683">
        <ele>1455.0</ele>
        <time>2018-06-17T12:25:06Z</time>
      </trkpt>
      <trkpt lat="40.431083" lon="-5.425583">
        <ele>1455.0</ele>
        <time>2018-06-17T12:25:07Z</time>
      </trkpt>
      <trkpt lat="40.430967" lon="-5.425467">
        <ele>1454.0</ele>
        <time>2018-06-17T12:25:08Z</time>
      </trkpt>
      <trkpt lat="40.430833" lon="-5.425383">
        <ele>1453.0</ele>
        <time>2018-06-17T12:25:09Z</time>
      </trkpt>
      <trkpt lat="40.430667" lon="-5.425333">
        <ele>1452.0</ele>
        <time>2018-06-17T12:25:10Z</time>
      </trkpt>
      <trkpt lat="40.430483" lon="-5.425350">
        <ele>1452.0</ele>
        <time>2018-06-17T12:25:11Z</time>
      </trkpt>
      <trkpt lat="40.430333" lon="-5.425400">
        <ele>1453.0</ele>
        <time>2018-06-17T12:25:12Z</time>
      </trkpt>
      <trkpt lat="40.430200" lon="-5.425500">
        <ele>1454.0</ele>
        <time>2018-06-17T12:25:13Z</time>
      </trkpt>
      <trkpt lat="40.430100" lon="-5.425600">
        <ele>1454.0</ele>
        <time>2018-06-17T12:25:14Z</time>
      </trkpt>
      <trkpt lat="40.430033" lon="-5.425733">
        <ele>1455.0</ele>
        <time>2018-06-17T12:25:15Z</time>
      </trkpt>
      <trkpt lat="40.430000" lon="-5.425850">
        <ele>1456.0</ele>
        <time>2018-06-17T12:25:16Z</time>
      </trkpt>
      <trkpt lat="40.429967" lon="-5.425967">
        <ele>1457.0</ele>
        <time>2018-06-17T12:25:17Z</time>
      </trkpt>
      <trkpt lat="40.429950" lon="-5.426083">
        <ele>1459.0</ele>
        <time>2018-06-17T12:25:18Z</time>
      </trkpt>
      <trkpt lat="40.429917" lon="-5.426183">
        <ele>1461.0</ele>
        <time>2018-06-17T12:25:19Z</time>
      </trkpt>
      <trkpt lat="40.429883" lon="-5.426283">
        <ele>1462.0</ele>
        <time>2018-06-17T12:25:20Z</time>
      </trkpt>
      <trkpt lat="40.429867" lon="-5.426367">
        <ele>1462.0</ele>
        <time>2018-06-17T12:25:21Z</time>
      </trkpt>
      <trkpt lat="40.429867" lon="-5.426433">
        <ele>1462.0</ele>
        <time>2018-06-17T12:25:22Z</time>
      </trkpt>
      <trkpt lat="40.429867" lon="-5.426500">
        <ele>1461.0</ele>
        <time>2018-06-17T12:25:23Z</time>
      </trkpt>
      <trkpt lat="40.429883" lon="-5.426583">
        <ele>1461.0</ele>
        <time>2018-06-17T12:25:24Z</time>
      </trkpt>
      <trkpt lat="40.429900" lon="-5.426667">
        <ele>1461.0</ele>
        <time>2018-06-17T12:25:25Z</time>
      </trkpt>
      <trkpt lat="40.429917" lon="-5.426750">
        <ele>1462.0</ele>
        <time>2018-06-17T12:25:26Z</time>
      </trkpt>
      <trkpt lat="40.429917" lon="-5.426833">
        <ele>1463.0</ele>
        <time>2018-06-17T12:25:27Z</time>
      </trkpt>
      <trkpt lat="40.429933" lon="-5.426900">
        <ele>1464.0</ele>
        <time>2018-06-17T12:25:28Z</time>
      </trkpt>
      <trkpt lat="40.429933" lon="-5.426967">
        <ele>1463.0</ele>
        <time>2018-06-17T12:25:29Z</time>
      </trkpt>
      <trkpt lat="40.429967" lon="-5.427033">
        <ele>1462.0</ele>
        <time>2018-06-17T12:25:30Z</time>
      </trkpt>
      <trkpt lat="40.429983" lon="-5.427117">
        <ele>1460.0</ele>
        <time>2018-06-17T12:25:31Z</time>
      </trkpt>
      <trkpt lat="40.430000" lon="-5.427200">
        <ele>1459.0</ele>
        <time>2018-06-17T12:25:32Z</time>
      </trkpt>
      <trkpt lat="40.430033" lon="-5.427283">
        <ele>1459.0</ele>
        <time>2018-06-17T12:25:33Z</time>
      </trkpt>
      <trkpt lat="40.430067" lon="-5.427350">
        <ele>1459.0</ele>
        <time>2018-06-17T12:25:34Z</time>
      </trkpt>
      <trkpt lat="40.430100" lon="-5.427400">
        <ele>1458.0</ele>
        <time>2018-06-17T12:25:35Z</time>
      </trkpt>
      <trkpt lat="40.430133" lon="-5.427450">
        <ele>1458.0</ele>
        <time>2018-06-17T12:25:36Z</time>
      </trkpt>
      <trkpt lat="40.430167" lon="-5.427483">
        <ele>1458.0</ele>
        <time>2018-06-17T12:25:37Z</time>
      </trkpt>
      <trkpt lat="40.430200" lon="-5.427517">
        <ele>1459.0</ele>
        <time>2018-06-17T12:25:38Z</time>
      </trkpt>
      <trkpt lat="40.430233" lon="-5.427550">
        <ele>1459.0</ele>
        <time>2018-06-17T12:25:39Z</time>
      </trkpt>
      <trkpt lat="40.430250" lon="-5.427600">
        <ele>1458.0</ele>
        <time>2018-06-17T12:25:40Z</time>
      </trkpt>
      <trkpt lat="40.430267" lon="-5.427633">
        <ele>1456.0</ele>
        <time>2018-06-17T12:25:41Z</time>
      </trkpt>
      <trkpt lat="40.430300" lon="-5.427683">
        <ele>1454.0</ele>
        <time>2018-06-17T12:25:42Z</time>
      </trkpt>
      <trkpt lat="40.430350" lon="-5.427717">
        <ele>1453.0</ele>
        <time>2018-06-17T12:25:43Z</time>
      </trkpt>
      <trkpt lat="40.430400" lon="-5.427767">
        <ele>1453.0</ele>
        <time>2018-06-17T12:25:44Z</time>
      </trkpt>
      <trkpt lat="40.430433" lon="-5.427800">
        <ele>1454.0</ele>
        <time>2018-06-17T12:25:45Z</time>
      </trkpt>
      <trkpt lat="40.430467" lon="-5.427833">
        <ele>1454.0</ele>
        <time>2018-06-17T12:25:46Z</time>
      </trkpt>
      <trkpt lat="40.430517" lon="-5.427850">
        <ele>1454.0</ele>
        <time>2018-06-17T12:25:47Z</time>
      </trkpt>
      <trkpt lat="40.430550" lon="-5.427867">
        <ele>1454.0</ele>
        <time>2018-06-17T12:25:48Z</time>
      </trkpt>
      <trkpt lat="40.430583" lon="-5.427883">
        <ele>1455.0</ele>
        <time>2018-06-17T12:25:49Z</time>
      </trkpt>
      <trkpt lat="40.430633" lon="-5.427900">
        <ele>1456.0</ele>
        <time>2018-06-17T12:25:50Z</time>
      </trkpt>
      <trkpt lat="40.430667" lon="-5.427917">
        <ele>1457.0</ele>
        <time>2018-06-17T12:25:51Z</time>
      </trkpt>
      <trkpt lat="40.430700" lon="-5.427933">
        <ele>1458.0</ele>
        <time>2018-06-17T12:25:52Z</time>
      </trkpt>
      <trkpt lat="40.430750" lon="-5.427950">
        <ele>1457.0</ele>
        <time>2018-06-17T12:25:53Z</time>
      </trkpt>
      <trkpt lat="40.430783" lon="-5.427983">
        <ele>1457.0</ele>
        <time>2018-06-17T12:25:54Z</time>
      </trkpt>
      <trkpt lat="40.430833" lon="-5.428000">
        <ele>1457.0</ele>
        <time>2018-06-17T12:25:55Z</time>
      </trkpt>
      <trkpt lat="40.430883" lon="-5.428033">
        <ele>1458.0</ele>
        <time>2018-06-17T12:25:56Z</time>
      </trkpt>
      <trkpt lat="40.430933" lon="-5.428050">
        <ele>1458.0</ele>
        <time>2018-06-17T12:25:57Z</time>
      </trkpt>
      <trkpt lat="40.430967" lon="-5.428067">
        <ele>1459.0</ele>
        <time>2018-06-17T12:25:58Z</time>
      </trkpt>
      <trkpt lat="40.431017" lon="-5.428083">
        <ele>1460.0</ele>
        <time>2018-06-17T12:25:59Z</time>
      </trkpt>
      <trkpt lat="40.431050" lon="-5.428083">
        <ele>1461.0</ele>
        <time>2018-06-17T12:26:00Z</time>
      </trkpt>
      <trkpt lat="40.431083" lon="-5.428100">
        <ele>1462.0</ele>
        <time>2018-06-17T12:26:01Z</time>
      </trkpt>
      <trkpt lat="40.431133" lon="-5.428117">
        <ele>1462.0</ele>
        <time>2018-06-17T12:26:02Z</time>
      </trkpt>
      <trkpt lat="40.431167" lon="-5.428117">
        <ele>1462.0</ele>
        <time>2018-06-17T12:26:03Z</time>
      </trkpt>
      <trkpt lat="40.431200" lon="-5.428133">
        <ele>1462.0</ele>
        <time>2018-06-17T12:26:04Z</time>
      </trkpt>
      <trkpt lat="40.431250" lon="-5.428167">
        <ele>1461.0</ele>
        <time>2018-06-17T12:26:05Z</time>
      </trkpt>
      <trkpt lat="40.431300" lon="-5.428200">
        <ele>1462.0</ele>
        <time>2018-06-17T12:26:06Z</time>
      </trkpt>
      <trkpt lat="40.431333" lon="-5.428250">
        <ele>1462.0</ele>
        <time>2018-06-17T12:26:07Z</time>
      </trkpt>
      <trkpt lat="40.431383" lon="-5.428300">
        <ele>1463.0</ele>
        <time>2018-06-17T12:26:08Z</time>
      </trkpt>
      <trkpt lat="40.431417" lon="-5.428350">
        <ele>1465.0</ele>
        <time>2018-06-17T12:26:09Z</time>
      </trkpt>
      <trkpt lat="40.431450" lon="-5.428417">
        <ele>1468.0</ele>
        <time>2018-06-17T12:26:10Z</time>
      </trkpt>
      <trkpt lat="40.431483" lon="-5.428483">
        <ele>1470.0</ele>
        <time>2018-06-17T12:26:11Z</time>
      </trkpt>
      <trkpt lat="40.431517" lon="-5.428550">
        <ele>1474.0</ele>
        <time>2018-06-17T12:26:12Z</time>
      </trkpt>
      <trkpt lat="40.431517" lon="-5.428617">
        <ele>1476.0</ele>
        <time>2018-06-17T12:26:13Z</time>
      </trkpt>
      <trkpt lat="40.431533" lon="-5.428667">
        <ele>1478.0</ele>
        <time>2018-06-17T12:26:14Z</time>
      </trkpt>
      <trkpt lat="40.431533" lon="-5.428750">
        <ele>1478.0</ele>
        <time>2018-06-17T12:26:15Z</time>
      </trkpt>
      <trkpt lat="40.431550" lon="-5.428850">
        <ele>1478.0</ele>
        <time>2018-06-17T12:26:16Z</time>
      </trkpt>
      <trkpt lat="40.431583" lon="-5.428933">
        <ele>1478.0</ele>
        <time>2018-06-17T12:26:17Z</time>
      </trkpt>
      <trkpt lat="40.431617" lon="-5.429017">
        <ele>1479.0</ele>
        <time>2018-06-17T12:26:18Z</time>
      </trkpt>
      <trkpt lat="40.431633" lon="-5.429083">
        <ele>1482.0</ele>
        <time>2018-06-17T12:26:19Z</time>
      </trkpt>
      <trkpt lat="40.431667" lon="-5.429150">
        <ele>1483.0</ele>
        <time>2018-06-17T12:26:20Z</time>
      </trkpt>
      <trkpt lat="40.431683" lon="-5.429200">
        <ele>1485.0</ele>
        <time>2018-06-17T12:26:21Z</time>
      </trkpt>
      <trkpt lat="40.431717" lon="-5.429267">
        <ele>1486.0</ele>
        <time>2018-06-17T12:26:22Z</time>
      </trkpt>
      <trkpt lat="40.431750" lon="-5.429333">
        <ele>1486.0</ele>
        <time>2018-06-17T12:26:23Z</time>
      </trkpt>
      <trkpt lat="40.431767" lon="-5.429383">
        <ele>1488.0</ele>
        <time>2018-06-17T12:26:24Z</time>
      </trkpt>
      <trkpt lat="40.431783" lon="-5.429417">
        <ele>1489.0</ele>
        <time>2018-06-17T12:26:25Z</time>
      </trkpt>
      <trkpt lat="40.431800" lon="-5.429417">
        <ele>1490.0</ele>
        <time>2018-06-17T12:26:26Z</time>
      </trkpt>
      <trkpt lat="40.431817" lon="-5.429400">
        <ele>1489.0</ele>
        <time>2018-06-17T12:26:27Z</time>
      </trkpt>
      <trkpt lat="40.431817" lon="-5.429367">
        <ele>1488.0</ele>
        <time>2018-06-17T12:26:28Z</time>
      </trkpt>
      <trkpt lat="40.431833" lon="-5.429333">
        <ele>1488.0</ele>
        <time>2018-06-17T12:26:29Z</time>
      </trkpt>
      <trkpt lat="40.431850" lon="-5.429317">
        <ele>1489.0</ele>
        <time>2018-06-17T12:26:30Z</time>
      </trkpt>
      <trkpt lat="40.431883" lon="-5.429317">
        <ele>1489.0</ele>
        <time>2018-06-17T12:26:31Z</time>
      </trkpt>
      <trkpt lat="40.431917" lon="-5.429333">
        <ele>1489.0</ele>
        <time>2018-06-17T12:26:32Z</time>
      </trkpt>
      <trkpt lat="40.431950" lon="-5.429383">
        <ele>1489.0</ele>
        <time>2018-06-17T12:26:33Z</time>
      </trkpt>
      <trkpt lat="40.432000" lon="-5.429450">
        <ele>1489.0</ele>
        <time>2018-06-17T12:26:34Z</time>
      </trkpt>
      <trkpt lat="40.432033" lon="-5.429550">
        <ele>1489.0</ele>
        <time>2018-06-17T12:26:35Z</time>
      </trkpt>
      <trkpt lat="40.432067" lon="-5.429667">
        <ele>1490.0</ele>
        <time>2018-06-17T12:26:36Z</time>
      </trkpt>
      <trkpt lat="40.432100" lon="-5.429783">
        <ele>1491.0</ele>
        <time>2018-06-17T12:26:37Z</time>
      </trkpt>
      <trkpt lat="40.432117" lon="-5.429917">
        <ele>1492.0</ele>
        <time>2018-06-17T12:26:38Z</time>
      </trkpt>
      <trkpt lat="40.432133" lon="-5.430033">
        <ele>1494.0</ele>
        <time>2018-06-17T12:26:39Z</time>
      </trkpt>
      <trkpt lat="40.432150" lon="-5.430150">
        <ele>1494.0</ele>
        <time>2018-06-17T12:26:40Z</time>
      </trkpt>
      <trkpt lat="40.432167" lon="-5.430283">
        <ele>1495.0</ele>
        <time>2018-06-17T12:26:41Z</time>
      </trkpt>
      <trkpt lat="40.432200" lon="-5.430400">
        <ele>1495.0</ele>
        <time>2018-06-17T12:26:42Z</time>
      </trkpt>
      <trkpt lat="40.432233" lon="-5.430533">
        <ele>1495.0</ele>
        <time>2018-06-17T12:26:43Z</time>
      </trkpt>
      <trkpt lat="40.432267" lon="-5.430650">
        <ele>1495.0</ele>
        <time>2018-06-17T12:26:44Z</time>
      </trkpt>
      <trkpt lat="40.432300" lon="-5.430750">
        <ele>1496.0</ele>
        <time>2018-06-17T12:26:45Z</time>
      </trkpt>
      <trkpt lat="40.432333" lon="-5.430833">
        <ele>1496.0</ele>
        <time>2018-06-17T12:26:46Z</time>
      </trkpt>
      <trkpt lat="40.432383" lon="-5.430917">
        <ele>1496.0</ele>
        <time>2018-06-17T12:26:47Z</time>
      </trkpt>
      <trkpt lat="40.432417" lon="-5.431017">
        <ele>1496.0</ele>
        <time>2018-06-17T12:26:48Z</time>
      </trkpt>
      <trkpt lat="40.432433" lon="-5.431100">
        <ele>1495.0</ele>
        <time>2018-06-17T12:26:49Z</time>
      </trkpt>
      <trkpt lat="40.432467" lon="-5.431183">
        <ele>1494.0</ele>
        <time>2018-06-17T12:26:50Z</time>
      </trkpt>
      <trkpt lat="40.432483" lon="-5.431267">
        <ele>1492.0</ele>
        <time>2018-06-17T12:26:51Z</time>
      </trkpt>
      <trkpt lat="40.432517" lon="-5.431350">
        <ele>1490.0</ele>
        <time>2018-06-17T12:26:52Z</time>
      </trkpt>
      <trkpt lat="40.432550" lon="-5.431450">
        <ele>1487.0</ele>
        <time>2018-06-17T12:26:53Z</time>
      </trkpt>
      <trkpt lat="40.432583" lon="-5.431550">
        <ele>1485.0</ele>
        <time>2018-06-17T12:26:54Z</time>
      </trkpt>
      <trkpt lat="40.432617" lon="-5.431650">
        <ele>1484.0</ele>
        <time>2018-06-17T12:26:55Z</time>
      </trkpt>
      <trkpt lat="40.432650" lon="-5.431733">
        <ele>1483.0</ele>
        <time>2018-06-17T12:26:56Z</time>
      </trkpt>
      <trkpt lat="40.432683" lon="-5.431833">
        <ele>1482.0</ele>
        <time>2018-06-17T12:26:57Z</time>
      </trkpt>
      <trkpt lat="40.432700" lon="-5.431933">
        <ele>1481.0</ele>
        <time>2018-06-17T12:26:58Z</time>
      </trkpt>
      <trkpt lat="40.432733" lon="-5.432033">
        <ele>1479.0</ele>
        <time>2018-06-17T12:26:59Z</time>
      </trkpt>
      <trkpt lat="40.432767" lon="-5.432117">
        <ele>1477.0</ele>
        <time>2018-06-17T12:27:00Z</time>
      </trkpt>
      <trkpt lat="40.432817" lon="-5.432217">
        <ele>1476.0</ele>
        <time>2018-06-17T12:27:01Z</time>
      </trkpt>
      <trkpt lat="40.432850" lon="-5.432317">
        <ele>1475.0</ele>
        <time>2018-06-17T12:27:02Z</time>
      </trkpt>
      <trkpt lat="40.432883" lon="-5.432400">
        <ele>1475.0</ele>
        <time>2018-06-17T12:27:03Z</time>
      </trkpt>
      <trkpt lat="40.432917" lon="-5.432500">
        <ele>1475.0</ele>
        <time>2018-06-17T12:27:04Z</time>
      </trkpt>
      <trkpt lat="40.432933" lon="-5.432600">
        <ele>1474.0</ele>
        <time>2018-06-17T12:27:05Z</time>
      </trkpt>
      <trkpt lat="40.432967" lon="-5.432683">
        <ele>1473.0</ele>
        <time>2018-06-17T12:27:06Z</time>
      </trkpt>
      <trkpt lat="40.433000" lon="-5.432783">
        <ele>1471.0</ele>
        <time>2018-06-17T12:27:07Z</time>
      </trkpt>
      <trkpt lat="40.433033" lon="-5.432867">
        <ele>1469.0</ele>
        <time>2018-06-17T12:27:08Z</time>
      </trkpt>
      <trkpt lat="40.433083" lon="-5.432967">
        <ele>1467.0</ele>
        <time>2018-06-17T12:27:09Z</time>
      </trkpt>
      <trkpt lat="40.433133" lon="-5.433033">
        <ele>1465.0</ele>
        <time>2018-06-17T12:27:10Z</time>
      </trkpt>
      <trkpt lat="40.433167" lon="-5.433083">
        <ele>1465.0</ele>
        <time>2018-06-17T12:27:11Z</time>
      </trkpt>
      <trkpt lat="40.433200" lon="-5.433100">
        <ele>1465.0</ele>
        <time>2018-06-17T12:27:12Z</time>
      </trkpt>
      <trkpt lat="40.433233" lon="-5.433100">
        <ele>1465.0</ele>
        <time>2018-06-17T12:27:13Z</time>
      </trkpt>
      <trkpt lat="40.433250" lon="-5.433100">
        <ele>1465.0</ele>
        <time>2018-06-17T12:27:14Z</time>
      </trkpt>
      <trkpt lat="40.433283" lon="-5.433117">
        <ele>1464.0</ele>
        <time>2018-06-17T12:27:15Z</time>
      </trkpt>
      <trkpt lat="40.433317" lon="-5.433133">
        <ele>1463.0</ele>
        <time>2018-06-17T12:27:16Z</time>
      </trkpt>
      <trkpt lat="40.433367" lon="-5.433167">
        <ele>1462.0</ele>
        <time>2018-06-17T12:27:17Z</time>
      </trkpt>
      <trkpt lat="40.433400" lon="-5.433200">
        <ele>1462.0</ele>
        <time>2018-06-17T12:27:18Z</time>
      </trkpt>
      <trkpt lat="40.433433" lon="-5.433233">
        <ele>1462.0</ele>
        <time>2018-06-17T12:27:19Z</time>
      </trkpt>
      <trkpt lat="40.433483" lon="-5.433267">
        <ele>1461.0</ele>
        <time>2018-06-17T12:27:20Z</time>
      </trkpt>
      <trkpt lat="40.433517" lon="-5.433300">
        <ele>1460.0</ele>
        <time>2018-06-17T12:27:21Z</time>
      </trkpt>
      <trkpt lat="40.433567" lon="-5.433333">
        <ele>1458.0</ele>
        <time>2018-06-17T12:27:22Z</time>
      </trkpt>
      <trkpt lat="40.433600" lon="-5.433367">
        <ele>1457.0</ele>
        <time>2018-06-17T12:27:23Z</time>
      </trkpt>
      <trkpt lat="40.433633" lon="-5.433383">
        <ele>1455.0</ele>
        <time>2018-06-17T12:27:24Z</time>
      </trkpt>
      <trkpt lat="40.433667" lon="-5.433383">
        <ele>1453.0</ele>
        <time>2018-06-17T12:27:25Z</time>
      </trkpt>
      <trkpt lat="40.433717" lon="-5.433383">
        <ele>1451.0</ele>
        <time>2018-06-17T12:27:26Z</time>
      </trkpt>
      <trkpt lat="40.433750" lon="-5.433417">
        <ele>1450.0</ele>
        <time>2018-06-17T12:27:27Z</time>
      </trkpt>
      <trkpt lat="40.433800" lon="-5.433433">
        <ele>1449.0</ele>
        <time>2018-06-17T12:27:28Z</time>
      </trkpt>
      <trkpt lat="40.433833" lon="-5.433467">
        <ele>1448.0</ele>
        <time>2018-06-17T12:27:29Z</time>
      </trkpt>
      <trkpt lat="40.433867" lon="-5.433500">
        <ele>1447.0</ele>
        <time>2018-06-17T12:27:30Z</time>
      </trkpt>
      <trkpt lat="40.433900" lon="-5.433533">
        <ele>1445.0</ele>
        <time>2018-06-17T12:27:31Z</time>
      </trkpt>
      <trkpt lat="40.433950" lon="-5.433583">
        <ele>1444.0</ele>
        <time>2018-06-17T12:27:32Z</time>
      </trkpt>
      <trkpt lat="40.433983" lon="-5.433633">
        <ele>1443.0</ele>
        <time>2018-06-17T12:27:33Z</time>
      </trkpt>
      <trkpt lat="40.434033" lon="-5.433683">
        <ele>1441.0</ele>
        <time>2018-06-17T12:27:34Z</time>
      </trkpt>
      <trkpt lat="40.434067" lon="-5.433733">
        <ele>1439.0</ele>
        <time>2018-06-17T12:27:35Z</time>
      </trkpt>
      <trkpt lat="40.434117" lon="-5.433783">
        <ele>1436.0</ele>
        <time>2018-06-17T12:27:36Z</time>
      </trkpt>
      <trkpt lat="40.434183" lon="-5.433833">
        <ele>1435.0</ele>
        <time>2018-06-17T12:27:37Z</time>
      </trkpt>
      <trkpt lat="40.434233" lon="-5.433883">
        <ele>1434.0</ele>
        <time>2018-06-17T12:27:38Z</time>
      </trkpt>
      <trkpt lat="40.434300" lon="-5.433933">
        <ele>1434.0</ele>
        <time>2018-06-17T12:27:39Z</time>
      </trkpt>
      <trkpt lat="40.434333" lon="-5.433983">
        <ele>1434.0</ele>
        <time>2018-06-17T12:27:40Z</time>
      </trkpt>
      <trkpt lat="40.434383" lon="-5.434033">
        <ele>1435.0</ele>
        <time>2018-06-17T12:27:41Z</time>
      </trkpt>
      <trkpt lat="40.434417" lon="-5.434083">
        <ele>1434.0</ele>
        <time>2018-06-17T12:27:42Z</time>
      </trkpt>
      <trkpt lat="40.434450" lon="-5.434167">
        <ele>1433.0</ele>
        <time>2018-06-17T12:27:43Z</time>
      </trkpt>
      <trkpt lat="40.434483" lon="-5.434250">
        <ele>1431.0</ele>
        <time>2018-06-17T12:27:44Z</time>
      </trkpt>
      <trkpt lat="40.434533" lon="-5.434350">
        <ele>1430.0</ele>
        <time>2018-06-17T12:27:45Z</time>
      </trkpt>
      <trkpt lat="40.434583" lon="-5.434433">
        <ele>1429.0</ele>
        <time>2018-06-17T12:27:46Z</time>
      </trkpt>
      <trkpt lat="40.434633" lon="-5.434500">
        <ele>1429.0</ele>
        <time>2018-06-17T12:27:47Z</time>
      </trkpt>
      <trkpt lat="40.434683" lon="-5.434583">
        <ele>1429.0</ele>
        <time>2018-06-17T12:27:48Z</time>
      </trkpt>
      <trkpt lat="40.434733" lon="-5.434650">
        <ele>1429.0</ele>
        <time>2018-06-17T12:27:49Z</time>
      </trkpt>
      <trkpt lat="40.434767" lon="-5.434733">
        <ele>1429.0</ele>
        <time>2018-06-17T12:27:50Z</time>
      </trkpt>
      <trkpt lat="40.434817" lon="-5.434833">
        <ele>1429.0</ele>
        <time>2018-06-17T12:27:51Z</time>
      </trkpt>
      <trkpt lat="40.434850" lon="-5.434917">
        <ele>1427.0</ele>
        <time>2018-06-17T12:27:52Z</time>
      </trkpt>
      <trkpt lat="40.434900" lon="-5.435017">
        <ele>1427.0</ele>
        <time>2018-06-17T12:27:53Z</time>
      </trkpt>
      <trkpt lat="40.434933" lon="-5.435117">
        <ele>1426.0</ele>
        <time>2018-06-17T12:27:54Z</time>
      </trkpt>
      <trkpt lat="40.434967" lon="-5.435233">
        <ele>1426.0</ele>
        <time>2018-06-17T12:27:55Z</time>
      </trkpt>
      <trkpt lat="40.435000" lon="-5.435333">
        <ele>1425.0</ele>
        <time>2018-06-17T12:27:56Z</time>
      </trkpt>
      <trkpt lat="40.435033" lon="-5.435417">
        <ele>1423.0</ele>
        <time>2018-06-17T12:27:57Z</time>
      </trkpt>
      <trkpt lat="40.435083" lon="-5.435517">
        <ele>1422.0</ele>
        <time>2018-06-17T12:27:58Z</time>
      </trkpt>
      <trkpt lat="40.435133" lon="-5.435617">
        <ele>1421.0</ele>
        <time>2018-06-17T12:27:59Z</time>
      </trkpt>
      <trkpt lat="40.435183" lon="-5.435733">
        <ele>1420.0</ele>
        <time>2018-06-17T12:28:00Z</time>
      </trkpt>
      <trkpt lat="40.435217" lon="-5.435867">
        <ele>1420.0</ele>
        <time>2018-06-17T12:28:01Z</time>
      </trkpt>
      <trkpt lat="40.435250" lon="-5.436000">
        <ele>1420.0</ele>
        <time>2018-06-17T12:28:02Z</time>
      </trkpt>
      <trkpt lat="40.435267" lon="-5.436117">
        <ele>1420.0</ele>
        <time>2018-06-17T12:28:03Z</time>
      </trkpt>
      <trkpt lat="40.435300" lon="-5.436250">
        <ele>1420.0</ele>
        <time>2018-06-17T12:28:04Z</time>
      </trkpt>
      <trkpt lat="40.435333" lon="-5.436367">
        <ele>1420.0</ele>
        <time>2018-06-17T12:28:05Z</time>
      </trkpt>
      <trkpt lat="40.435350" lon="-5.436500">
        <ele>1419.0</ele>
        <time>2018-06-17T12:28:06Z</time>
      </trkpt>
      <trkpt lat="40.435383" lon="-5.436617">
        <ele>1418.0</ele>
        <time>2018-06-17T12:28:07Z</time>
      </trkpt>
      <trkpt lat="40.435417" lon="-5.436733">
        <ele>1418.0</ele>
        <time>2018-06-17T12:28:08Z</time>
      </trkpt>
      <trkpt lat="40.435450" lon="-5.436867">
        <ele>1417.0</ele>
        <time>2018-06-17T12:28:09Z</time>
      </trkpt>
      <trkpt lat="40.435467" lon="-5.436983">
        <ele>1416.0</ele>
        <time>2018-06-17T12:28:10Z</time>
      </trkpt>
      <trkpt lat="40.435500" lon="-5.437117">
        <ele>1416.0</ele>
        <time>2018-06-17T12:28:11Z</time>
      </trkpt>
      <trkpt lat="40.435517" lon="-5.437250">
        <ele>1415.0</ele>
        <time>2018-06-17T12:28:12Z</time>
      </trkpt>
      <trkpt lat="40.435550" lon="-5.437367">
        <ele>1414.0</ele>
        <time>2018-06-17T12:28:13Z</time>
      </trkpt>
      <trkpt lat="40.435567" lon="-5.437500">
        <ele>1413.0</ele>
        <time>2018-06-17T12:28:14Z</time>
      </trkpt>
      <trkpt lat="40.435583" lon="-5.437633">
        <ele>1412.0</ele>
        <time>2018-06-17T12:28:15Z</time>
      </trkpt>
      <trkpt lat="40.435600" lon="-5.437783">
        <ele>1411.0</ele>
        <time>2018-06-17T12:28:16Z</time>
      </trkpt>
      <trkpt lat="40.435600" lon="-5.437917">
        <ele>1411.0</ele>
        <time>2018-06-17T12:28:17Z</time>
      </trkpt>
      <trkpt lat="40.435617" lon="-5.438050">
        <ele>1411.0</ele>
        <time>2018-06-17T12:28:18Z</time>
      </trkpt>
      <trkpt lat="40.435617" lon="-5.438167">
        <ele>1411.0</ele>
        <time>2018-06-17T12:28:19Z</time>
      </trkpt>
      <trkpt lat="40.435633" lon="-5.438300">
        <ele>1410.0</ele>
        <time>2018-06-17T12:28:20Z</time>
      </trkpt>
      <trkpt lat="40.435633" lon="-5.438433">
        <ele>1409.0</ele>
        <time>2018-06-17T12:28:21Z</time>
      </trkpt>
      <trkpt lat="40.435650" lon="-5.438567">
        <ele>1407.0</ele>
        <time>2018-06-17T12:28:22Z</time>
      </trkpt>
      <trkpt lat="40.435667" lon="-5.438700">
        <ele>1407.0</ele>
        <time>2018-06-17T12:28:23Z</time>
      </trkpt>
      <trkpt lat="40.435667" lon="-5.438833">
        <ele>1406.0</ele>
        <time>2018-06-17T12:28:24Z</time>
      </trkpt>
      <trkpt lat="40.435683" lon="-5.438967">
        <ele>1406.0</ele>
        <time>2018-06-17T12:28:25Z</time>
      </trkpt>
      <trkpt lat="40.435700" lon="-5.439083">
        <ele>1406.0</ele>
        <time>2018-06-17T12:28:26Z</time>
      </trkpt>
      <trkpt lat="40.435700" lon="-5.439200">
        <ele>1406.0</ele>
        <time>2018-06-17T12:28:27Z</time>
      </trkpt>
      <trkpt lat="40.435717" lon="-5.439333">
        <ele>1405.0</ele>
        <time>2018-06-17T12:28:28Z</time>
      </trkpt>
      <trkpt lat="40.435717" lon="-5.439483">
        <ele>1404.0</ele>
        <time>2018-06-17T12:28:29Z</time>
      </trkpt>
      <trkpt lat="40.435733" lon="-5.439617">
        <ele>1403.0</ele>
        <time>2018-06-17T12:28:30Z</time>
      </trkpt>
      <trkpt lat="40.435733" lon="-5.439750">
        <ele>1402.0</ele>
        <time>2018-06-17T12:28:31Z</time>
      </trkpt>
      <trkpt lat="40.435750" lon="-5.439883">
        <ele>1401.0</ele>
        <time>2018-06-17T12:28:32Z</time>
      </trkpt>
      <trkpt lat="40.435767" lon="-5.440017">
        <ele>1401.0</ele>
        <time>2018-06-17T12:28:33Z</time>
      </trkpt>
      <trkpt lat="40.435783" lon="-5.440150">
        <ele>1401.0</ele>
        <time>2018-06-17T12:28:34Z</time>
      </trkpt>
      <trkpt lat="40.435817" lon="-5.440283">
        <ele>1402.0</ele>
        <time>2018-06-17T12:28:35Z</time>
      </trkpt>
      <trkpt lat="40.435833" lon="-5.440400">
        <ele>1402.0</ele>
        <time>2018-06-17T12:28:36Z</time>
      </trkpt>
      <trkpt lat="40.435850" lon="-5.440500">
        <ele>1402.0</ele>
        <time>2018-06-17T12:28:37Z</time>
      </trkpt>
      <trkpt lat="40.435850" lon="-5.440633">
        <ele>1401.0</ele>
        <time>2018-06-17T12:28:38Z</time>
      </trkpt>
      <trkpt lat="40.435867" lon="-5.440767">
        <ele>1400.0</ele>
        <time>2018-06-17T12:28:39Z</time>
      </trkpt>
      <trkpt lat="40.435883" lon="-5.440900">
        <ele>1400.0</ele>
        <time>2018-06-17T12:28:40Z</time>
      </trkpt>
      <trkpt lat="40.435900" lon="-5.441033">
        <ele>1401.0</ele>
        <time>2018-06-17T12:28:41Z</time>
      </trkpt>
      <trkpt lat="40.435917" lon="-5.441150">
        <ele>1402.0</ele>
        <time>2018-06-17T12:28:42Z</time>
      </trkpt>
      <trkpt lat="40.435933" lon="-5.441267">
        <ele>1403.0</ele>
        <time>2018-06-17T12:28:43Z</time>
      </trkpt>
      <trkpt lat="40.435950" lon="-5.441367">
        <ele>1405.0</ele>
        <time>2018-06-17T12:28:44Z</time>
      </trkpt>
      <trkpt lat="40.435950" lon="-5.441467">
        <ele>1406.0</ele>
        <time>2018-06-17T12:28:45Z</time>
      </trkpt>
      <trkpt lat="40.435933" lon="-5.441567">
        <ele>1406.0</ele>
        <time>2018-06-17T12:28:46Z</time>
      </trkpt>
      <trkpt lat="40.435917" lon="-5.441683">
        <ele>1406.0</ele>
        <time>2018-06-17T12:28:47Z</time>
      </trkpt>
      <trkpt lat="40.435883" lon="-5.441800">
        <ele>1405.0</ele>
        <time>2018-06-17T12:28:48Z</time>
      </trkpt>
      <trkpt lat="40.435867" lon="-5.441917">
        <ele>1404.0</ele>
        <time>2018-06-17T12:28:49Z</time>
      </trkpt>
      <trkpt lat="40.435850" lon="-5.442050">
        <ele>1404.0</ele>
        <time>2018-06-17T12:28:50Z</time>
      </trkpt>
      <trkpt lat="40.435867" lon="-5.442167">
        <ele>1403.0</ele>
        <time>2018-06-17T12:28:51Z</time>
      </trkpt>
      <trkpt lat="40.435867" lon="-5.442300">
        <ele>1404.0</ele>
        <time>2018-06-17T12:28:52Z</time>
      </trkpt>
      <trkpt lat="40.435883" lon="-5.442417">
        <ele>1405.0</ele>
        <time>2018-06-17T12:28:53Z</time>
      </trkpt>
      <trkpt lat="40.435883" lon="-5.442533">
        <ele>1406.0</ele>
        <time>2018-06-17T12:28:54Z</time>
      </trkpt>
      <trkpt lat="40.435900" lon="-5.442650">
        <ele>1407.0</ele>
        <time>2018-06-17T12:28:55Z</time>
      </trkpt>
      <trkpt lat="40.435900" lon="-5.442767">
        <ele>1409.0</ele>
        <time>2018-06-17T12:28:56Z</time>
      </trkpt>
      <trkpt lat="40.435900" lon="-5.442867">
        <ele>1410.0</ele>
        <time>2018-06-17T12:28:57Z</time>
      </trkpt>
      <trkpt lat="40.435917" lon="-5.442967">
        <ele>1411.0</ele>
        <time>2018-06-17T12:28:58Z</time>
      </trkpt>
      <trkpt lat="40.435917" lon="-5.443033">
        <ele>1413.0</ele>
        <time>2018-06-17T12:28:59Z</time>
      </trkpt>
      <trkpt lat="40.435933" lon="-5.443050">
        <ele>1414.0</ele>
        <time>2018-06-17T12:29:00Z</time>
      </trkpt>
      <trkpt lat="40.435950" lon="-5.443033">
        <ele>1415.0</ele>
        <time>2018-06-17T12:29:01Z</time>
      </trkpt>
      <trkpt lat="40.435967" lon="-5.443000">
        <ele>1415.0</ele>
        <time>2018-06-17T12:29:02Z</time>
      </trkpt>
      <trkpt lat="40.435967" lon="-5.442917">
        <ele>1415.0</ele>
        <time>2018-06-17T12:29:03Z</time>
      </trkpt>
      <trkpt lat="40.435933" lon="-5.442833">
        <ele>1415.0</ele>
        <time>2018-06-17T12:29:04Z</time>
      </trkpt>
      <trkpt lat="40.435850" lon="-5.442733">
        <ele>1416.0</ele>
        <time>2018-06-17T12:29:05Z</time>
      </trkpt>
      <trkpt lat="40.435750" lon="-5.442667">
        <ele>1417.0</ele>
        <time>2018-06-17T12:29:06Z</time>
      </trkpt>
      <trkpt lat="40.435633" lon="-5.442617">
        <ele>1418.0</ele>
        <time>2018-06-17T12:29:07Z</time>
      </trkpt>
      <trkpt lat="40.435500" lon="-5.442617">
        <ele>1420.0</ele>
        <time>2018-06-17T12:29:08Z</time>
      </trkpt>
      <trkpt lat="40.435350" lon="-5.442633">
        <ele>1420.0</ele>
        <time>2018-06-17T12:29:09Z</time>
      </trkpt>
      <trkpt lat="40.435217" lon="-5.442700">
        <ele>1421.0</ele>
        <time>2018-06-17T12:29:10Z</time>
      </trkpt>
      <trkpt lat="40.435083" lon="-5.442800">
        <ele>1421.0</ele>
        <time>2018-06-17T12:29:11Z</time>
      </trkpt>
      <trkpt lat="40.434983" lon="-5.442917">
        <ele>1423.0</ele>
        <time>2018-06-17T12:29:12Z</time>
      </trkpt>
      <trkpt lat="40.434883" lon="-5.443050">
        <ele>1424.0</ele>
        <time>2018-06-17T12:29:13Z</time>
      </trkpt>
      <trkpt lat="40.434817" lon="-5.443183">
        <ele>1426.0</ele>
        <time>2018-06-17T12:29:14Z</time>
      </trkpt>
      <trkpt lat="40.434750" lon="-5.443300">
        <ele>1427.0</ele>
        <time>2018-06-17T12:29:15Z</time>
      </trkpt>
      <trkpt lat="40.434700" lon="-5.443417">
        <ele>1428.0</ele>
        <time>2018-06-17T12:29:16Z</time>
      </trkpt>
      <trkpt lat="40.434667" lon="-5.443550">
        <ele>1428.0</ele>
        <time>2018-06-17T12:29:17Z</time>
      </trkpt>
      <trkpt lat="40.434633" lon="-5.443683">
        <ele>1427.0</ele>
        <time>2018-06-17T12:29:18Z</time>
      </trkpt>
      <trkpt lat="40.434600" lon="-5.443800">
        <ele>1427.0</ele>
        <time>2018-06-17T12:29:19Z</time>
      </trkpt>
      <trkpt lat="40.434600" lon="-5.443917">
        <ele>1426.0</ele>
        <time>2018-06-17T12:29:20Z</time>
      </trkpt>
      <trkpt lat="40.434617" lon="-5.443983">
        <ele>1425.0</ele>
        <time>2018-06-17T12:29:21Z</time>
      </trkpt>
      <trkpt lat="40.434633" lon="-5.444033">
        <ele>1424.0</ele>
        <time>2018-06-17T12:29:22Z</time>
      </trkpt>
      <trkpt lat="40.434650" lon="-5.444083">
        <ele>1423.0</ele>
        <time>2018-06-17T12:29:23Z</time>
      </trkpt>
      <trkpt lat="40.434650" lon="-5.444133">
        <ele>1423.0</ele>
        <time>2018-06-17T12:29:24Z</time>
      </trkpt>
      <trkpt lat="40.434650" lon="-5.444183">
        <ele>1421.0</ele>
        <time>2018-06-17T12:29:25Z</time>
      </trkpt>
      <trkpt lat="40.434650" lon="-5.444250">
        <ele>1419.0</ele>
        <time>2018-06-17T12:29:26Z</time>
      </trkpt>
      <trkpt lat="40.434633" lon="-5.444350">
        <ele>1417.0</ele>
        <time>2018-06-17T12:29:27Z</time>
      </trkpt>
      <trkpt lat="40.434617" lon="-5.444467">
        <ele>1414.0</ele>
        <time>2018-06-17T12:29:28Z</time>
      </trkpt>
      <trkpt lat="40.434550" lon="-5.444600">
        <ele>1412.0</ele>
        <time>2018-06-17T12:29:29Z</time>
      </trkpt>
      <trkpt lat="40.434483" lon="-5.444733">
        <ele>1411.0</ele>
        <time>2018-06-17T12:29:30Z</time>
      </trkpt>
      <trkpt lat="40.434433" lon="-5.444867">
        <ele>1411.0</ele>
        <time>2018-06-17T12:29:31Z</time>
      </trkpt>
      <trkpt lat="40.434383" lon="-5.444983">
        <ele>1411.0</ele>
        <time>2018-06-17T12:29:32Z</time>
      </trkpt>
      <trkpt lat="40.434333" lon="-5.445117">
        <ele>1409.0</ele>
        <time>2018-06-17T12:29:33Z</time>
      </trkpt>
      <trkpt lat="40.434300" lon="-5.445233">
        <ele>1407.0</ele>
        <time>2018-06-17T12:29:34Z</time>
      </trkpt>
      <trkpt lat="40.434250" lon="-5.445367">
        <ele>1405.0</ele>
        <time>2018-06-17T12:29:35Z</time>
      </trkpt>
      <trkpt lat="40.434200" lon="-5.445500">
        <ele>1403.0</ele>
        <time>2018-06-17T12:29:36Z</time>
      </trkpt>
      <trkpt lat="40.434150" lon="-5.445650">
        <ele>1402.0</ele>
        <time>2018-06-17T12:29:37Z</time>
      </trkpt>
      <trkpt lat="40.434117" lon="-5.445767">
        <ele>1402.0</ele>
        <time>2018-06-17T12:29:38Z</time>
      </trkpt>
      <trkpt lat="40.434083" lon="-5.445883">
        <ele>1402.0</ele>
        <time>2018-06-17T12:29:39Z</time>
      </trkpt>
      <trkpt lat="40.434067" lon="-5.445983">
        <ele>1401.0</ele>
        <time>2018-06-17T12:29:40Z</time>
      </trkpt>
      <trkpt lat="40.434067" lon="-5.446067">
        <ele>1399.0</ele>
        <time>2018-06-17T12:29:41Z</time>
      </trkpt>
      <trkpt lat="40.434067" lon="-5.446167">
        <ele>1396.0</ele>
        <time>2018-06-17T12:29:42Z</time>
      </trkpt>
      <trkpt lat="40.434083" lon="-5.446267">
        <ele>1394.0</ele>
        <time>2018-06-17T12:29:43Z</time>
      </trkpt>
      <trkpt lat="40.434083" lon="-5.446367">
        <ele>1392.0</ele>
        <time>2018-06-17T12:29:44Z</time>
      </trkpt>
      <trkpt lat="40.434100" lon="-5.446450">
        <ele>1390.0</ele>
        <time>2018-06-17T12:29:45Z</time>
      </trkpt>
      <trkpt lat="40.434133" lon="-5.446517">
        <ele>1389.0</ele>
        <time>2018-06-17T12:29:46Z</time>
      </trkpt>
      <trkpt lat="40.434167" lon="-5.446583">
        <ele>1387.0</ele>
        <time>2018-06-17T12:29:47Z</time>
      </trkpt>
      <trkpt lat="40.434200" lon="-5.446650">
        <ele>1385.0</ele>
        <time>2018-06-17T12:29:48Z</time>
      </trkpt>
      <trkpt lat="40.434217" lon="-5.446733">
        <ele>1383.0</ele>
        <time>2018-06-17T12:29:49Z</time>
      </trkpt>
      <trkpt lat="40.434233" lon="-5.446833">
        <ele>1381.0</ele>
        <time>2018-06-17T12:29:50Z</time>
      </trkpt>
      <trkpt lat="40.434233" lon="-5.446933">
        <ele>1379.0</ele>
        <time>2018-06-17T12:29:51Z</time>
      </trkpt>
      <trkpt lat="40.434233" lon="-5.447050">
        <ele>1378.0</ele>
        <time>2018-06-17T12:29:52Z</time>
      </trkpt>
      <trkpt lat="40.434250" lon="-5.447150">
        <ele>1376.0</ele>
        <time>2018-06-17T12:29:53Z</time>
      </trkpt>
      <trkpt lat="40.434250" lon="-5.447250">
        <ele>1375.0</ele>
        <time>2018-06-17T12:29:54Z</time>
      </trkpt>
      <trkpt lat="40.434267" lon="-5.447367">
        <ele>1375.0</ele>
        <time>2018-06-17T12:29:55Z</time>
      </trkpt>
      <trkpt lat="40.434267" lon="-5.447467">
        <ele>1374.0</ele>
        <time>2018-06-17T12:29:56Z</time>
      </trkpt>
      <trkpt lat="40.434283" lon="-5.447567">
        <ele>1373.0</ele>
        <time>2018-06-17T12:29:57Z</time>
      </trkpt>
      <trkpt lat="40.434283" lon="-5.447667">
        <ele>1373.0</ele>
        <time>2018-06-17T12:29:58Z</time>
      </trkpt>
      <trkpt lat="40.434283" lon="-5.447767">
        <ele>1372.0</ele>
        <time>2018-06-17T12:29:59Z</time>
      </trkpt>
      <trkpt lat="40.434283" lon="-5.447867">
        <ele>1370.0</ele>
        <time>2018-06-17T12:30:00Z</time>
      </trkpt>
      <trkpt lat="40.434300" lon="-5.447950">
        <ele>1368.0</ele>
        <time>2018-06-17T12:30:01Z</time>
      </trkpt>
      <trkpt lat="40.434333" lon="-5.448033">
        <ele>1365.0</ele>
        <time>2018-06-17T12:30:02Z</time>
      </trkpt>
      <trkpt lat="40.434367" lon="-5.448117">
        <ele>1363.0</ele>
        <time>2018-06-17T12:30:03Z</time>
      </trkpt>
      <trkpt lat="40.434383" lon="-5.448200">
        <ele>1361.0</ele>
        <time>2018-06-17T12:30:04Z</time>
      </trkpt>
      <trkpt lat="40.434400" lon="-5.448283">
        <ele>1361.0</ele>
        <time>2018-06-17T12:30:05Z</time>
      </trkpt>
      <trkpt lat="40.434400" lon="-5.448383">
        <ele>1360.0</ele>
        <time>2018-06-17T12:30:06Z</time>
      </trkpt>
      <trkpt lat="40.434400" lon="-5.448467">
        <ele>1360.0</ele>
        <time>2018-06-17T12:30:07Z</time>
      </trkpt>
      <trkpt lat="40.434400" lon="-5.448583">
        <ele>1359.0</ele>
        <time>2018-06-17T12:30:08Z</time>
      </trkpt>
      <trkpt lat="40.434417" lon="-5.448683">
        <ele>1358.0</ele>
        <time>2018-06-17T12:30:09Z</time>
      </trkpt>
      <trkpt lat="40.434400" lon="-5.448800">
        <ele>1357.0</ele>
        <time>2018-06-17T12:30:10Z</time>
      </trkpt>
      <trkpt lat="40.434400" lon="-5.448900">
        <ele>1356.0</ele>
        <time>2018-06-17T12:30:11Z</time>
      </trkpt>
      <trkpt lat="40.434400" lon="-5.449000">
        <ele>1354.0</ele>
        <time>2018-06-17T12:30:12Z</time>
      </trkpt>
      <trkpt lat="40.434400" lon="-5.449100">
        <ele>1352.0</ele>
        <time>2018-06-17T12:30:13Z</time>
      </trkpt>
      <trkpt lat="40.434400" lon="-5.449200">
        <ele>1350.0</ele>
        <time>2018-06-17T12:30:14Z</time>
      </trkpt>
      <trkpt lat="40.434400" lon="-5.449317">
        <ele>1348.0</ele>
        <time>2018-06-17T12:30:15Z</time>
      </trkpt>
      <trkpt lat="40.434417" lon="-5.449417">
        <ele>1345.0</ele>
        <time>2018-06-17T12:30:16Z</time>
      </trkpt>
      <trkpt lat="40.434417" lon="-5.449517">
        <ele>1343.0</ele>
        <time>2018-06-17T12:30:17Z</time>
      </trkpt>
      <trkpt lat="40.434433" lon="-5.449600">
        <ele>1340.0</ele>
        <time>2018-06-17T12:30:18Z</time>
      </trkpt>
      <trkpt lat="40.434450" lon="-5.449700">
        <ele>1337.0</ele>
        <time>2018-06-17T12:30:19Z</time>
      </trkpt>
      <trkpt lat="40.434467" lon="-5.449783">
        <ele>1334.0</ele>
        <time>2018-06-17T12:30:20Z</time>
      </trkpt>
      <trkpt lat="40.434483" lon="-5.449900">
        <ele>1331.0</ele>
        <time>2018-06-17T12:30:21Z</time>
      </trkpt>
      <trkpt lat="40.434467" lon="-5.450017">
        <ele>1329.0</ele>
        <time>2018-06-17T12:30:22Z</time>
      </trkpt>
      <trkpt lat="40.434467" lon="-5.450133">
        <ele>1326.0</ele>
        <time>2018-06-17T12:30:23Z</time>
      </trkpt>
      <trkpt lat="40.434467" lon="-5.450233">
        <ele>1323.0</ele>
        <time>2018-06-17T12:30:24Z</time>
      </trkpt>
      <trkpt lat="40.434483" lon="-5.450350">
        <ele>1321.0</ele>
        <time>2018-06-17T12:30:25Z</time>
      </trkpt>
      <trkpt lat="40.434500" lon="-5.450450">
        <ele>1318.0</ele>
        <time>2018-06-17T12:30:26Z</time>
      </trkpt>
      <trkpt lat="40.434517" lon="-5.450550">
        <ele>1316.0</ele>
        <time>2018-06-17T12:30:27Z</time>
      </trkpt>
      <trkpt lat="40.434533" lon="-5.450667">
        <ele>1313.0</ele>
        <time>2018-06-17T12:30:28Z</time>
      </trkpt>
      <trkpt lat="40.434550" lon="-5.450767">
        <ele>1311.0</ele>
        <time>2018-06-17T12:30:29Z</time>
      </trkpt>
      <trkpt lat="40.434567" lon="-5.450867">
        <ele>1308.0</ele>
        <time>2018-06-17T12:30:30Z</time>
      </trkpt>
      <trkpt lat="40.434583" lon="-5.450967">
        <ele>1306.0</ele>
        <time>2018-06-17T12:30:31Z</time>
      </trkpt>
      <trkpt lat="40.434583" lon="-5.451067">
        <ele>1303.0</ele>
        <time>2018-06-17T12:30:32Z</time>
      </trkpt>
      <trkpt lat="40.434600" lon="-5.451183">
        <ele>1301.0</ele>
        <time>2018-06-17T12:30:33Z</time>
      </trkpt>
      <trkpt lat="40.434600" lon="-5.451300">
        <ele>1298.0</ele>
        <time>2018-06-17T12:30:34Z</time>
      </trkpt>
      <trkpt lat="40.434600" lon="-5.451417">
        <ele>1296.0</ele>
        <time>2018-06-17T12:30:35Z</time>
      </trkpt>
      <trkpt lat="40.434600" lon="-5.451533">
        <ele>1294.0</ele>
        <time>2018-06-17T12:30:36Z</time>
      </trkpt>
      <trkpt lat="40.434600" lon="-5.451650">
        <ele>1292.0</ele>
        <time>2018-06-17T12:30:37Z</time>
      </trkpt>
      <trkpt lat="40.434600" lon="-5.451750">
        <ele>1291.0</ele>
        <time>2018-06-17T12:30:38Z</time>
      </trkpt>
      <trkpt lat="40.434583" lon="-5.451867">
        <ele>1290.0</ele>
        <time>2018-06-17T12:30:39Z</time>
      </trkpt>
      <trkpt lat="40.434567" lon="-5.451983">
        <ele>1288.0</ele>
        <time>2018-06-17T12:30:40Z</time>
      </trkpt>
      <trkpt lat="40.434550" lon="-5.452100">
        <ele>1285.0</ele>
        <time>2018-06-17T12:30:41Z</time>
      </trkpt>
      <trkpt lat="40.434550" lon="-5.452217">
        <ele>1283.0</ele>
        <time>2018-06-17T12:30:42Z</time>
      </trkpt>
      <trkpt lat="40.434567" lon="-5.452333">
        <ele>1281.0</ele>
        <time>2018-06-17T12:30:43Z</time>
      </trkpt>
      <trkpt lat="40.434567" lon="-5.452433">
        <ele>1279.0</ele>
        <time>2018-06-17T12:30:44Z</time>
      </trkpt>
      <trkpt lat="40.434583" lon="-5.452533">
        <ele>1277.0</ele>
        <time>2018-06-17T12:30:45Z</time>
      </trkpt>
      <trkpt lat="40.434617" lon="-5.452617">
        <ele>1276.0</ele>
        <time>2018-06-17T12:30:46Z</time>
      </trkpt>
      <trkpt lat="40.434633" lon="-5.452700">
        <ele>1274.0</ele>
        <time>2018-06-17T12:30:47Z</time>
      </trkpt>
      <trkpt lat="40.434667" lon="-5.452783">
        <ele>1273.0</ele>
        <time>2018-06-17T12:30:48Z</time>
      </trkpt>
      <trkpt lat="40.434700" lon="-5.452833">
        <ele>1272.0</ele>
        <time>2018-06-17T12:30:49Z</time>
      </trkpt>
      <trkpt lat="40.434733" lon="-5.452883">
        <ele>1272.0</ele>
        <time>2018-06-17T12:30:50Z</time>
      </trkpt>
      <trkpt lat="40.434750" lon="-5.452950">
        <ele>1272.0</ele>
        <time>2018-06-17T12:30:51Z</time>
      </trkpt>
      <trkpt lat="40.434767" lon="-5.453017">
        <ele>1271.0</ele>
        <time>2018-06-17T12:30:52Z</time>
      </trkpt>
      <trkpt lat="40.434783" lon="-5.453100">
        <ele>1270.0</ele>
        <time>2018-06-17T12:30:53Z</time>
      </trkpt>
      <trkpt lat="40.434817" lon="-5.453183">
        <ele>1269.0</ele>
        <time>2018-06-17T12:30:54Z</time>
      </trkpt>
      <trkpt lat="40.434850" lon="-5.453250">
        <ele>1268.0</ele>
        <time>2018-06-17T12:30:55Z</time>
      </trkpt>
      <trkpt lat="40.434867" lon="-5.453333">
        <ele>1267.0</ele>
        <time>2018-06-17T12:30:56Z</time>
      </trkpt>
      <trkpt lat="40.434883" lon="-5.453417">
        <ele>1266.0</ele>
        <time>2018-06-17T12:30:57Z</time>
      </trkpt>
      <trkpt lat="40.434917" lon="-5.453500">
        <ele>1264.0</ele>
        <time>2018-06-17T12:30:58Z</time>
      </trkpt>
      <trkpt lat="40.434950" lon="-5.453567">
        <ele>1263.0</ele>
        <time>2018-06-17T12:30:59Z</time>
      </trkpt>
      <trkpt lat="40.435000" lon="-5.453633">
        <ele>1262.0</ele>
        <time>2018-06-17T12:31:00Z</time>
      </trkpt>
      <trkpt lat="40.435050" lon="-5.453700">
        <ele>1262.0</ele>
        <time>2018-06-17T12:31:01Z</time>
      </trkpt>
      <trkpt lat="40.435100" lon="-5.453750">
        <ele>1262.0</ele>
        <time>2018-06-17T12:31:02Z</time>
      </trkpt>
      <trkpt lat="40.435150" lon="-5.453817">
        <ele>1263.0</ele>
        <time>2018-06-17T12:31:03Z</time>
      </trkpt>
      <trkpt lat="40.435200" lon="-5.453867">
        <ele>1264.0</ele>
        <time>2018-06-17T12:31:04Z</time>
      </trkpt>
      <trkpt lat="40.435250" lon="-5.453917">
        <ele>1265.0</ele>
        <time>2018-06-17T12:31:05Z</time>
      </trkpt>
      <trkpt lat="40.435300" lon="-5.453983">
        <ele>1266.0</ele>
        <time>2018-06-17T12:31:06Z</time>
      </trkpt>
      <trkpt lat="40.435333" lon="-5.454033">
        <ele>1268.0</ele>
        <time>2018-06-17T12:31:07Z</time>
      </trkpt>
      <trkpt lat="40.435400" lon="-5.454083">
        <ele>1269.0</ele>
        <time>2018-06-17T12:31:08Z</time>
      </trkpt>
      <trkpt lat="40.435450" lon="-5.454100">
        <ele>1270.0</ele>
        <time>2018-06-17T12:31:09Z</time>
      </trkpt>
      <trkpt lat="40.435517" lon="-5.454117">
        <ele>1271.0</ele>
        <time>2018-06-17T12:31:10Z</time>
      </trkpt>
      <trkpt lat="40.435583" lon="-5.454100">
        <ele>1273.0</ele>
        <time>2018-06-17T12:31:11Z</time>
      </trkpt>
      <trkpt lat="40.435633" lon="-5.454067">
        <ele>1275.0</ele>
        <time>2018-06-17T12:31:12Z</time>
      </trkpt>
      <trkpt lat="40.435650" lon="-5.453967">
        <ele>1276.0</ele>
        <time>2018-06-17T12:31:13Z</time>
      </trkpt>
      <trkpt lat="40.435617" lon="-5.453867">
        <ele>1275.0</ele>
        <time>2018-06-17T12:31:14Z</time>
      </trkpt>
      <trkpt lat="40.435567" lon="-5.453767">
        <ele>1274.0</ele>
        <time>2018-06-17T12:31:15Z</time>
      </trkpt>
      <trkpt lat="40.435517" lon="-5.453683">
        <ele>1273.0</ele>
        <time>2018-06-17T12:31:16Z</time>
      </trkpt>
      <trkpt lat="40.435433" lon="-5.453600">
        <ele>1270.0</ele>
        <time>2018-06-17T12:31:17Z</time>
      </trkpt>
      <trkpt lat="40.435333" lon="-5.453517">
        <ele>1267.0</ele>
        <time>2018-06-17T12:31:18Z</time>
      </trkpt>
      <trkpt lat="40.435183" lon="-5.453483">
        <ele>1263.0</ele>
        <time>2018-06-17T12:31:19Z</time>
      </trkpt>
      <trkpt lat="40.435017" lon="-5.453500">
        <ele>1262.0</ele>
        <time>2018-06-17T12:31:20Z</time>
      </trkpt>
      <trkpt lat="40.434867" lon="-5.453583">
        <ele>1264.0</ele>
        <time>2018-06-17T12:31:21Z</time>
      </trkpt>
      <trkpt lat="40.434767" lon="-5.453700">
        <ele>1267.0</ele>
        <time>2018-06-17T12:31:22Z</time>
      </trkpt>
      <trkpt lat="40.434700" lon="-5.453800">
        <ele>1271.0</ele>
        <time>2018-06-17T12:31:23Z</time>
      </trkpt>
      <trkpt lat="40.434667" lon="-5.453883">
        <ele>1274.0</ele>
        <time>2018-06-17T12:31:24Z</time>
      </trkpt>
      <trkpt lat="40.434650" lon="-5.453967">
        <ele>1275.0</ele>
        <time>2018-06-17T12:31:25Z</time>
      </trkpt>
      <trkpt lat="40.434633" lon="-5.454067">
        <ele>1275.0</ele>
        <time>2018-06-17T12:31:26Z</time>
      </trkpt>
      <trkpt lat="40.434617" lon="-5.454183">
        <ele>1275.0</ele>
        <time>2018-06-17T12:31:27Z</time>
      </trkpt>
      <trkpt lat="40.434600" lon="-5.454333">
        <ele>1275.0</ele>
        <time>2018-06-17T12:31:28Z</time>
      </trkpt>
      <trkpt lat="40.434567" lon="-5.454467">
        <ele>1276.0</ele>
        <time>2018-06-17T12:31:29Z</time>
      </trkpt>
      <trkpt lat="40.434517" lon="-5.454617">
        <ele>1277.0</ele>
        <time>2018-06-17T12:31:30Z</time>
      </trkpt>
      <trkpt lat="40.434467" lon="-5.454767">
        <ele>1279.0</ele>
        <time>2018-06-17T12:31:31Z</time>
      </trkpt>
      <trkpt lat="40.434433" lon="-5.454917">
        <ele>1281.0</ele>
        <time>2018-06-17T12:31:32Z</time>
      </trkpt>
      <trkpt lat="40.434400" lon="-5.455050">
        <ele>1282.0</ele>
        <time>2018-06-17T12:31:33Z</time>
      </trkpt>
      <trkpt lat="40.434350" lon="-5.455183">
        <ele>1284.0</ele>
        <time>2018-06-17T12:31:34Z</time>
      </trkpt>
      <trkpt lat="40.434283" lon="-5.455300">
        <ele>1286.0</ele>
        <time>2018-06-17T12:31:35Z</time>
      </trkpt>
      <trkpt lat="40.434233" lon="-5.455400">
        <ele>1287.0</ele>
        <time>2018-06-17T12:31:36Z</time>
      </trkpt>
      <trkpt lat="40.434200" lon="-5.455500">
        <ele>1287.0</ele>
        <time>2018-06-17T12:31:37Z</time>
      </trkpt>
      <trkpt lat="40.434200" lon="-5.455583">
        <ele>1284.0</ele>
        <time>2018-06-17T12:31:38Z</time>
      </trkpt>
      <trkpt lat="40.434233" lon="-5.455667">
        <ele>1283.0</ele>
        <time>2018-06-17T12:31:39Z</time>
      </trkpt>
      <trkpt lat="40.434250" lon="-5.455733">
        <ele>1282.0</ele>
        <time>2018-06-17T12:31:40Z</time>
      </trkpt>
      <trkpt lat="40.434300" lon="-5.455800">
        <ele>1281.0</ele>
        <time>2018-06-17T12:31:41Z</time>
      </trkpt>
      <trkpt lat="40.434350" lon="-5.455833">
        <ele>1281.0</ele>
        <time>2018-06-17T12:31:42Z</time>
      </trkpt>
      <trkpt lat="40.434400" lon="-5.455850">
        <ele>1281.0</ele>
        <time>2018-06-17T12:31:43Z</time>
      </trkpt>
      <trkpt lat="40.434417" lon="-5.455833">
        <ele>1282.0</ele>
        <time>2018-06-17T12:31:44Z</time>
      </trkpt>
      <trkpt lat="40.434433" lon="-5.455783">
        <ele>1281.0</ele>
        <time>2018-06-17T12:31:45Z</time>
      </trkpt>
      <trkpt lat="40.434417" lon="-5.455717">
        <ele>1280.0</ele>
        <time>2018-06-17T12:31:46Z</time>
      </trkpt>
      <trkpt lat="40.434400" lon="-5.455650">
        <ele>1279.0</ele>
        <time>2018-06-17T12:31:47Z</time>
      </trkpt>
      <trkpt lat="40.434333" lon="-5.455583">
        <ele>1277.0</ele>
        <time>2018-06-17T12:31:48Z</time>
      </trkpt>
      <trkpt lat="40.434250" lon="-5.455517">
        <ele>1275.0</ele>
        <time>2018-06-17T12:31:49Z</time>
      </trkpt>
      <trkpt lat="40.434150" lon="-5.455450">
        <ele>1273.0</ele>
        <time>2018-06-17T12:31:50Z</time>
      </trkpt>
      <trkpt lat="40.434000" lon="-5.455400">
        <ele>1272.0</ele>
        <time>2018-06-17T12:31:51Z</time>
      </trkpt>
      <trkpt lat="40.433850" lon="-5.455417">
        <ele>1272.0</ele>
        <time>2018-06-17T12:31:52Z</time>
      </trkpt>
      <trkpt lat="40.433700" lon="-5.455467">
        <ele>1271.0</ele>
        <time>2018-06-17T12:31:53Z</time>
      </trkpt>
      <trkpt lat="40.433550" lon="-5.455567">
        <ele>1270.0</ele>
        <time>2018-06-17T12:31:54Z</time>
      </trkpt>
      <trkpt lat="40.433433" lon="-5.455700">
        <ele>1269.0</ele>
        <time>2018-06-17T12:31:55Z</time>
      </trkpt>
      <trkpt lat="40.433333" lon="-5.455833">
        <ele>1269.0</ele>
        <time>2018-06-17T12:31:56Z</time>
      </trkpt>
      <trkpt lat="40.433250" lon="-5.455967">
        <ele>1270.0</ele>
        <time>2018-06-17T12:31:57Z</time>
      </trkpt>
      <trkpt lat="40.433183" lon="-5.456083">
        <ele>1270.0</ele>
        <time>2018-06-17T12:31:58Z</time>
      </trkpt>
      <trkpt lat="40.433133" lon="-5.456200">
        <ele>1269.0</ele>
        <time>2018-06-17T12:31:59Z</time>
      </trkpt>
      <trkpt lat="40.433083" lon="-5.456317">
        <ele>1267.0</ele>
        <time>2018-06-17T12:32:00Z</time>
      </trkpt>
      <trkpt lat="40.433050" lon="-5.456467">
        <ele>1265.0</ele>
        <time>2018-06-17T12:32:01Z</time>
      </trkpt>
      <trkpt lat="40.433000" lon="-5.456600">
        <ele>1264.0</ele>
        <time>2018-06-17T12:32:02Z</time>
      </trkpt>
      <trkpt lat="40.432917" lon="-5.456750">
        <ele>1264.0</ele>
        <time>2018-06-17T12:32:03Z</time>
      </trkpt>
      <trkpt lat="40.432850" lon="-5.456883">
        <ele>1264.0</ele>
        <time>2018-06-17T12:32:04Z</time>
      </trkpt>
      <trkpt lat="40.432750" lon="-5.457000">
        <ele>1263.0</ele>
        <time>2018-06-17T12:32:05Z</time>
      </trkpt>
      <trkpt lat="40.432650" lon="-5.457100">
        <ele>1262.0</ele>
        <time>2018-06-17T12:32:06Z</time>
      </trkpt>
      <trkpt lat="40.432550" lon="-5.457200">
        <ele>1260.0</ele>
        <time>2018-06-17T12:32:07Z</time>
      </trkpt>
      <trkpt lat="40.432417" lon="-5.457283">
        <ele>1258.0</ele>
        <time>2018-06-17T12:32:08Z</time>
      </trkpt>
      <trkpt lat="40.432283" lon="-5.457367">
        <ele>1257.0</ele>
        <time>2018-06-17T12:32:09Z</time>
      </trkpt>
      <trkpt lat="40.432133" lon="-5.457450">
        <ele>1257.0</ele>
        <time>2018-06-17T12:32:10Z</time>
      </trkpt>
      <trkpt lat="40.432000" lon="-5.457500">
        <ele>1257.0</ele>
        <time>2018-06-17T12:32:11Z</time>
      </trkpt>
      <trkpt lat="40.431867" lon="-5.457550">
        <ele>1258.0</ele>
        <time>2018-06-17T12:32:12Z</time>
      </trkpt>
      <trkpt lat="40.431750" lon="-5.457583">
        <ele>1256.0</ele>
        <time>2018-06-17T12:32:13Z</time>
      </trkpt>
      <trkpt lat="40.431633" lon="-5.457633">
        <ele>1254.0</ele>
        <time>2018-06-17T12:32:14Z</time>
      </trkpt>
      <trkpt lat="40.431500" lon="-5.457700">
        <ele>1250.0</ele>
        <time>2018-06-17T12:32:15Z</time>
      </trkpt>
      <trkpt lat="40.431383" lon="-5.457800">
        <ele>1247.0</ele>
        <time>2018-06-17T12:32:16Z</time>
      </trkpt>
      <trkpt lat="40.431267" lon="-5.457917">
        <ele>1245.0</ele>
        <time>2018-06-17T12:32:17Z</time>
      </trkpt>
      <trkpt lat="40.431150" lon="-5.458017">
        <ele>1244.0</ele>
        <time>2018-06-17T12:32:18Z</time>
      </trkpt>
      <trkpt lat="40.431050" lon="-5.458117">
        <ele>1243.0</ele>
        <time>2018-06-17T12:32:19Z</time>
      </trkpt>
      <trkpt lat="40.430967" lon="-5.458233">
        <ele>1242.0</ele>
        <time>2018-06-17T12:32:20Z</time>
      </trkpt>
      <trkpt lat="40.430883" lon="-5.458333">
        <ele>1241.0</ele>
        <time>2018-06-17T12:32:21Z</time>
      </trkpt>
      <trkpt lat="40.430800" lon="-5.458433">
        <ele>1239.0</ele>
        <time>2018-06-17T12:32:22Z</time>
      </trkpt>
      <trkpt lat="40.430700" lon="-5.458533">
        <ele>1237.0</ele>
        <time>2018-06-17T12:32:23Z</time>
      </trkpt>
      <trkpt lat="40.430600" lon="-5.458633">
        <ele>1235.0</ele>
        <time>2018-06-17T12:32:24Z</time>
      </trkpt>
      <trkpt lat="40.430467" lon="-5.458700">
        <ele>1232.0</ele>
        <time>2018-06-17T12:32:25Z</time>
      </trkpt>
      <trkpt lat="40.430333" lon="-5.458733">
        <ele>1230.0</ele>
        <time>2018-06-17T12:32:26Z</time>
      </trkpt>
      <trkpt lat="40.430200" lon="-5.458750">
        <ele>1227.0</ele>
        <time>2018-06-17T12:32:27Z</time>
      </trkpt>
      <trkpt lat="40.430050" lon="-5.458733">
        <ele>1225.0</ele>
        <time>2018-06-17T12:32:28Z</time>
      </trkpt>
      <trkpt lat="40.429917" lon="-5.458717">
        <ele>1223.0</ele>
        <time>2018-06-17T12:32:29Z</time>
      </trkpt>
      <trkpt lat="40.429767" lon="-5.458683">
        <ele>1221.0</ele>
        <time>2018-06-17T12:32:30Z</time>
      </trkpt>
      <trkpt lat="40.429633" lon="-5.458667">
        <ele>1219.0</ele>
        <time>2018-06-17T12:32:31Z</time>
      </trkpt>
      <trkpt lat="40.429483" lon="-5.458667">
        <ele>1217.0</ele>
        <time>2018-06-17T12:32:32Z</time>
      </trkpt>
      <trkpt lat="40.429350" lon="-5.458650">
        <ele>1215.0</ele>
        <time>2018-06-17T12:32:33Z</time>
      </trkpt>
      <trkpt lat="40.429217" lon="-5.458633">
        <ele>1213.0</ele>
        <time>2018-06-17T12:32:34Z</time>
      </trkpt>
      <trkpt lat="40.429067" lon="-5.458600">
        <ele>1210.0</ele>
        <time>2018-06-17T12:32:35Z</time>
      </trkpt>
      <trkpt lat="40.428933" lon="-5.458600">
        <ele>1208.0</ele>
        <time>2018-06-17T12:32:36Z</time>
      </trkpt>
      <trkpt lat="40.428783" lon="-5.458583">
        <ele>1204.0</ele>
        <time>2018-06-17T12:32:37Z</time>
      </trkpt>
      <trkpt lat="40.428617" lon="-5.458567">
        <ele>1202.0</ele>
        <time>2018-06-17T12:32:38Z</time>
      </trkpt>
      <trkpt lat="40.428467" lon="-5.458567">
        <ele>1201.0</ele>
        <time>2018-06-17T12:32:39Z</time>
      </trkpt>
      <trkpt lat="40.428317" lon="-5.458567">
        <ele>1201.0</ele>
        <time>2018-06-17T12:32:40Z</time>
      </trkpt>
      <trkpt lat="40.428183" lon="-5.458583">
        <ele>1200.0</ele>
        <time>2018-06-17T12:32:41Z</time>
      </trkpt>
      <trkpt lat="40.428050" lon="-5.458583">
        <ele>1199.0</ele>
        <time>2018-06-17T12:32:42Z</time>
      </trkpt>
      <trkpt lat="40.427917" lon="-5.458583">
        <ele>1197.0</ele>
        <time>2018-06-17T12:32:43Z</time>
      </trkpt>
      <trkpt lat="40.427783" lon="-5.458567">
        <ele>1195.0</ele>
        <time>2018-06-17T12:32:44Z</time>
      </trkpt>
      <trkpt lat="40.427633" lon="-5.458567">
        <ele>1194.0</ele>
        <time>2018-06-17T12:32:45Z</time>
      </trkpt>
      <trkpt lat="40.427483" lon="-5.458567">
        <ele>1193.0</ele>
        <time>2018-06-17T12:32:46Z</time>
      </trkpt>
      <trkpt lat="40.427350" lon="-5.458567">
        <ele>1193.0</ele>
        <time>2018-06-17T12:32:47Z</time>
      </trkpt>
      <trkpt lat="40.427200" lon="-5.458583">
        <ele>1193.0</ele>
        <time>2018-06-17T12:32:48Z</time>
      </trkpt>
      <trkpt lat="40.427067" lon="-5.458633">
        <ele>1191.0</ele>
        <time>2018-06-17T12:32:49Z</time>
      </trkpt>
      <trkpt lat="40.426933" lon="-5.458700">
        <ele>1190.0</ele>
        <time>2018-06-17T12:32:50Z</time>
      </trkpt>
      <trkpt lat="40.426833" lon="-5.458800">
        <ele>1187.0</ele>
        <time>2018-06-17T12:32:51Z</time>
      </trkpt>
      <trkpt lat="40.426717" lon="-5.458917">
        <ele>1185.0</ele>
        <time>2018-06-17T12:32:52Z</time>
      </trkpt>
      <trkpt lat="40.426633" lon="-5.459033">
        <ele>1184.0</ele>
        <time>2018-06-17T12:32:53Z</time>
      </trkpt>
      <trkpt lat="40.426567" lon="-5.459150">
        <ele>1182.0</ele>
        <time>2018-06-17T12:32:54Z</time>
      </trkpt>
      <trkpt lat="40.426550" lon="-5.459250">
        <ele>1179.0</ele>
        <time>2018-06-17T12:32:55Z</time>
      </trkpt>
      <trkpt lat="40.426567" lon="-5.459333">
        <ele>1177.0</ele>
        <time>2018-06-17T12:32:56Z</time>
      </trkpt>
      <trkpt lat="40.426600" lon="-5.459400">
        <ele>1176.0</ele>
        <time>2018-06-17T12:32:57Z</time>
      </trkpt>
      <trkpt lat="40.426633" lon="-5.459417">
        <ele>1175.0</ele>
        <time>2018-06-17T12:32:58Z</time>
      </trkpt>
      <trkpt lat="40.426667" lon="-5.459417">
        <ele>1176.0</ele>
        <time>2018-06-17T12:32:59Z</time>
      </trkpt>
      <trkpt lat="40.426683" lon="-5.459383">
        <ele>1176.0</ele>
        <time>2018-06-17T12:33:00Z</time>
      </trkpt>
      <trkpt lat="40.426700" lon="-5.459333">
        <ele>1175.0</ele>
        <time>2018-06-17T12:33:01Z</time>
      </trkpt>
      <trkpt lat="40.426717" lon="-5.459267">
        <ele>1174.0</ele>
        <time>2018-06-17T12:33:02Z</time>
      </trkpt>
      <trkpt lat="40.426733" lon="-5.459217">
        <ele>1173.0</ele>
        <time>2018-06-17T12:33:03Z</time>
      </trkpt>
      <trkpt lat="40.426750" lon="-5.459167">
        <ele>1172.0</ele>
        <time>2018-06-17T12:33:04Z</time>
      </trkpt>
      <trkpt lat="40.426783" lon="-5.459117">
        <ele>1171.0</ele>
        <time>2018-06-17T12:33:05Z</time>
      </trkpt>
      <trkpt lat="40.426800" lon="-5.459067">
        <ele>1170.0</ele>
        <time>2018-06-17T12:33:06Z</time>
      </trkpt>
      <trkpt lat="40.426833" lon="-5.459033">
        <ele>1168.0</ele>
        <time>2018-06-17T12:33:07Z</time>
      </trkpt>
      <trkpt lat="40.426867" lon="-5.459000">
        <ele>1167.0</ele>
        <time>2018-06-17T12:33:08Z</time>
      </trkpt>
      <trkpt lat="40.426900" lon="-5.458950">
        <ele>1167.0</ele>
        <time>2018-06-17T12:33:09Z</time>
      </trkpt>
      <trkpt lat="40.426933" lon="-5.458933">
        <ele>1167.0</ele>
        <time>2018-06-17T12:33:10Z</time>
      </trkpt>
      <trkpt lat="40.426950" lon="-5.458917">
        <ele>1167.0</ele>
        <time>2018-06-17T12:33:11Z</time>
      </trkpt>
      <trkpt lat="40.426983" lon="-5.458917">
        <ele>1166.0</ele>
        <time>2018-06-17T12:33:12Z</time>
      </trkpt>
      <trkpt lat="40.427017" lon="-5.458933">
        <ele>1166.0</ele>
        <time>2018-06-17T12:33:13Z</time>
      </trkpt>
      <trkpt lat="40.427033" lon="-5.458950">
        <ele>1164.0</ele>
        <time>2018-06-17T12:33:14Z</time>
      </trkpt>
      <trkpt lat="40.427050" lon="-5.458983">
        <ele>1163.0</ele>
        <time>2018-06-17T12:33:15Z</time>
      </trkpt>
      <trkpt lat="40.427083" lon="-5.459033">
        <ele>1161.0</ele>
        <time>2018-06-17T12:33:16Z</time>
      </trkpt>
      <trkpt lat="40.427117" lon="-5.459050">
        <ele>1158.0</ele>
        <time>2018-06-17T12:33:17Z</time>
      </trkpt>
      <trkpt lat="40.427150" lon="-5.459067">
        <ele>1156.0</ele>
        <time>2018-06-17T12:33:18Z</time>
      </trkpt>
      <trkpt lat="40.427200" lon="-5.459050">
        <ele>1154.0</ele>
        <time>2018-06-17T12:33:19Z</time>
      </trkpt>
      <trkpt lat="40.427233" lon="-5.459017">
        <ele>1153.0</ele>
        <time>2018-06-17T12:33:20Z</time>
      </trkpt>
      <trkpt lat="40.427250" lon="-5.458967">
        <ele>1152.0</ele>
        <time>2018-06-17T12:33:21Z</time>
      </trkpt>
      <trkpt lat="40.427267" lon="-5.458917">
        <ele>1150.0</ele>
        <time>2018-06-17T12:33:22Z</time>
      </trkpt>
      <trkpt lat="40.427283" lon="-5.458850">
        <ele>1148.0</ele>
        <time>2018-06-17T12:33:23Z</time>
      </trkpt>
      <trkpt lat="40.427317" lon="-5.458783">
        <ele>1147.0</ele>
        <time>2018-06-17T12:33:24Z</time>
      </trkpt>
      <trkpt lat="40.427350" lon="-5.458733">
        <ele>1144.0</ele>
        <time>2018-06-17T12:33:25Z</time>
      </trkpt>
      <trkpt lat="40.427383" lon="-5.458700">
        <ele>1142.0</ele>
        <time>2018-06-17T12:33:26Z</time>
      </trkpt>
      <trkpt lat="40.427433" lon="-5.458683">
        <ele>1140.0</ele>
        <time>2018-06-17T12:33:27Z</time>
      </trkpt>
      <trkpt lat="40.427467" lon="-5.458700">
        <ele>1138.0</ele>
        <time>2018-06-17T12:33:28Z</time>
      </trkpt>
      <trkpt lat="40.427500" lon="-5.458750">
        <ele>1136.0</ele>
        <time>2018-06-17T12:33:29Z</time>
      </trkpt>
      <trkpt lat="40.427533" lon="-5.458800">
        <ele>1135.0</ele>
        <time>2018-06-17T12:33:30Z</time>
      </trkpt>
      <trkpt lat="40.427567" lon="-5.458867">
        <ele>1134.0</ele>
        <time>2018-06-17T12:33:31Z</time>
      </trkpt>
      <trkpt lat="40.427583" lon="-5.458917">
        <ele>1133.0</ele>
        <time>2018-06-17T12:33:32Z</time>
      </trkpt>
      <trkpt lat="40.427617" lon="-5.458983">
        <ele>1132.0</ele>
        <time>2018-06-17T12:33:33Z</time>
      </trkpt>
      <trkpt lat="40.427633" lon="-5.459033">
        <ele>1130.0</ele>
        <time>2018-06-17T12:33:34Z</time>
      </trkpt>
      <trkpt lat="40.427650" lon="-5.459100">
        <ele>1129.0</ele>
        <time>2018-06-17T12:33:35Z</time>
      </trkpt>
      <trkpt lat="40.427683" lon="-5.459183">
        <ele>1127.0</ele>
        <time>2018-06-17T12:33:36Z</time>
      </trkpt>
      <trkpt lat="40.427700" lon="-5.459267">
        <ele>1125.0</ele>
        <time>2018-06-17T12:33:37Z</time>
      </trkpt>
      <trkpt lat="40.427717" lon="-5.459333">
        <ele>1124.0</ele>
        <time>2018-06-17T12:33:38Z</time>
      </trkpt>
      <trkpt lat="40.427750" lon="-5.459383">
        <ele>1122.0</ele>
        <time>2018-06-17T12:33:39Z</time>
      </trkpt>
      <trkpt lat="40.427783" lon="-5.459417">
        <ele>1121.0</ele>
        <time>2018-06-17T12:33:40Z</time>
      </trkpt>
      <trkpt lat="40.427833" lon="-5.459417">
        <ele>1119.0</ele>
        <time>2018-06-17T12:33:41Z</time>
      </trkpt>
      <trkpt lat="40.427883" lon="-5.459383">
        <ele>1117.0</ele>
        <time>2018-06-17T12:33:42Z</time>
      </trkpt>
      <trkpt lat="40.427933" lon="-5.459350">
        <ele>1115.0</ele>
        <time>2018-06-17T12:33:43Z</time>
      </trkpt>
      <trkpt lat="40.427967" lon="-5.459300">
        <ele>1113.0</ele>
        <time>2018-06-17T12:33:44Z</time>
      </trkpt>
      <trkpt lat="40.428017" lon="-5.459250">
        <ele>1111.0</ele>
        <time>2018-06-17T12:33:45Z</time>
      </trkpt>
      <trkpt lat="40.428067" lon="-5.459200">
        <ele>1109.0</ele>
        <time>2018-06-17T12:33:46Z</time>
      </trkpt>
      <trkpt lat="40.428117" lon="-5.459150">
        <ele>1107.0</ele>
        <time>2018-06-17T12:33:47Z</time>
      </trkpt>
      <trkpt lat="40.428167" lon="-5.459100">
        <ele>1105.0</ele>
        <time>2018-06-17T12:33:48Z</time>
      </trkpt>
      <trkpt lat="40.428217" lon="-5.459067">
        <ele>1103.0</ele>
        <time>2018-06-17T12:33:49Z</time>
      </trkpt>
      <trkpt lat="40.428267" lon="-5.459017">
        <ele>1103.0</ele>
        <time>2018-06-17T12:33:50Z</time>
      </trkpt>
      <trkpt lat="40.428317" lon="-5.458983">
        <ele>1103.0</ele>
        <time>2018-06-17T12:33:51Z</time>
      </trkpt>
      <trkpt lat="40.428350" lon="-5.458933">
        <ele>1102.0</ele>
        <time>2018-06-17T12:33:52Z</time>
      </trkpt>
      <trkpt lat="40.428383" lon="-5.458900">
        <ele>1101.0</ele>
        <time>2018-06-17T12:33:53Z</time>
      </trkpt>
      <trkpt lat="40.428417" lon="-5.458883">
        <ele>1099.0</ele>
        <time>2018-06-17T12:33:54Z</time>
      </trkpt>
      <trkpt lat="40.428483" lon="-5.458883">
        <ele>1097.0</ele>
        <time>2018-06-17T12:33:55Z</time>
      </trkpt>
      <trkpt lat="40.428533" lon="-5.458917">
        <ele>1095.0</ele>
        <time>2018-06-17T12:33:56Z</time>
      </trkpt>
      <trkpt lat="40.428583" lon="-5.458950">
        <ele>1094.0</ele>
        <time>2018-06-17T12:33:57Z</time>
      </trkpt>
      <trkpt lat="40.428633" lon="-5.459000">
        <ele>1094.0</ele>
        <time>2018-06-17T12:33:58Z</time>
      </trkpt>
      <trkpt lat="40.428667" lon="-5.459017">
        <ele>1094.0</ele>
        <time>2018-06-17T12:33:59Z</time>
      </trkpt>
      <trkpt lat="40.428717" lon="-5.459000">
        <ele>1092.0</ele>
        <time>2018-06-17T12:34:00Z</time>
      </trkpt>
      <trkpt lat="40.428767" lon="-5.458983">
        <ele>1089.0</ele>
        <time>2018-06-17T12:34:01Z</time>
      </trkpt>
      <trkpt lat="40.428850" lon="-5.458983">
        <ele>1086.0</ele>
        <time>2018-06-17T12:34:02Z</time>
      </trkpt>
      <trkpt lat="40.428917" lon="-5.459017">
        <ele>1084.0</ele>
        <time>2018-06-17T12:34:03Z</time>
      </trkpt>
      <trkpt lat="40.429000" lon="-5.459050">
        <ele>1084.0</ele>
        <time>2018-06-17T12:34:04Z</time>
      </trkpt>
      <trkpt lat="40.429050" lon="-5.459067">
        <ele>1086.0</ele>
        <time>2018-06-17T12:34:05Z</time>
      </trkpt>
      <trkpt lat="40.429100" lon="-5.459083">
        <ele>1087.0</ele>
        <time>2018-06-17T12:34:06Z</time>
      </trkpt>
      <trkpt lat="40.429133" lon="-5.459100">
        <ele>1086.0</ele>
        <time>2018-06-17T12:34:07Z</time>
      </trkpt>
      <trkpt lat="40.429167" lon="-5.459133">
        <ele>1085.0</ele>
        <time>2018-06-17T12:34:08Z</time>
      </trkpt>
      <trkpt lat="40.429200" lon="-5.459150">
        <ele>1084.0</ele>
        <time>2018-06-17T12:34:09Z</time>
      </trkpt>
      <trkpt lat="40.429233" lon="-5.459167">
        <ele>1083.0</ele>
        <time>2018-06-17T12:34:10Z</time>
      </trkpt>
      <trkpt lat="40.429250" lon="-5.459167">
        <ele>1083.0</ele>
        <time>2018-06-17T12:34:11Z</time>
      </trkpt>
      <trkpt lat="40.429267" lon="-5.459167">
        <ele>1082.0</ele>
        <time>2018-06-17T12:34:12Z</time>
      </trkpt>
      <trkpt lat="40.429267" lon="-5.459167">
        <ele>1082.0</ele>
        <time>2018-06-17T12:34:13Z</time>
      </trkpt>
      <trkpt lat="40.429250" lon="-5.459183">
        <ele>1082.0</ele>
        <time>2018-06-17T12:34:14Z</time>
      </trkpt>
      <trkpt lat="40.429250" lon="-5.459183">
        <ele>1082.0</ele>
        <time>2018-06-17T12:34:15Z</time>
      </trkpt>
      <trkpt lat="40.429250" lon="-5.459183">
        <ele>1082.0</ele>
        <time>2018-06-17T12:34:16Z</time>
      </trkpt>
      <trkpt lat="40.429250" lon="-5.459183">
        <ele>1082.0</ele>
        <time>2018-06-17T12:34:17Z</time>
      </trkpt>
      <trkpt lat="40.429250" lon="-5.459183">
        <ele>1082.0</ele>
        <time>2018-06-17T12:34:18Z</time>
      </trkpt>
      <trkpt lat="40.429250" lon="-5.459183">
        <ele>1081.0</ele>
        <time>2018-06-17T12:34:19Z</time>
      </trkpt>
      <trkpt lat="40.429267" lon="-5.459183">
        <ele>1081.0</ele>
        <time>2018-06-17T12:34:20Z</time>
      </trkpt>
      <trkpt lat="40.429267" lon="-5.459183">
        <ele>1081.0</ele>
        <time>2018-06-17T12:34:21Z</time>
      </trkpt>
      <trkpt lat="40.429267" lon="-5.459183">
        <ele>1081.0</ele>
        <time>2018-06-17T12:34:22Z</time>
      </trkpt>
      <trkpt lat="40.429267" lon="-5.459183">
        <ele>1080.0</ele>
        <time>2018-06-17T12:34:23Z</time>
      </trkpt>
      <trkpt lat="40.429267" lon="-5.459183">
        <ele>1080.0</ele>
        <time>2018-06-17T12:34:24Z</time>
      </trkpt>
      <trkpt lat="40.429267" lon="-5.459183">
        <ele>1080.0</ele>
        <time>2018-06-17T12:34:25Z</time>
      </trkpt>
      <trkpt lat="40.429267" lon="-5.459183">
        <ele>1079.0</ele>
        <time>2018-06-17T12:34:26Z</time>
      </trkpt>
      <trkpt lat="40.429283" lon="-5.459183">
        <ele>1079.0</ele>
        <time>2018-06-17T12:34:27Z</time>
      </trkpt>
      <trkpt lat="40.429267" lon="-5.459183">
        <ele>1079.0</ele>
        <time>2018-06-17T12:34:28Z</time>
      </trkpt>
      <trkpt lat="40.429267" lon="-5.459183">
        <ele>1079.0</ele>
        <time>2018-06-17T12:34:29Z</time>
      </trkpt>
      <trkpt lat="40.429267" lon="-5.459183">
        <ele>1079.0</ele>
        <time>2018-06-17T12:34:30Z</time>
      </trkpt>
      <trkpt lat="40.429267" lon="-5.459183">
        <ele>1079.0</ele>
        <time>2018-06-17T12:34:31Z</time>
      </trkpt>
      <trkpt lat="40.429267" lon="-5.459183">
        <ele>1079.0</ele>
        <time>2018-06-17T12:34:32Z</time>
      </trkpt>
      <trkpt lat="40.429250" lon="-5.459183">
        <ele>1079.0</ele>
        <time>2018-06-17T12:34:33Z</time>
      </trkpt>
    </trkseg>
  </trk>
</gpx>
